<?xml version="1.0" encoding="UTF-8" standalone="no" ?>
<gpx xmlns="http://www.topografix.com/GPX/1/1" xmlns:xsi="http://www.w3.org/2001/XMLSchema-instance" xsi:schemaLocation="http://www.topografix.com/GPX/1/1 http://www.topografix.com/GPX/1/1/gpx.xsd" version="1.1" creator="VisuGPX - https://www.visugpx.com">
  <metadata>
    <name>018SG73-8021445</name>
    <desc><![CDATA[
01]]></desc>
  </metadata>
  <trk>
    <name><![CDATA[018SG73-8021445]]></name>
    <trkseg>
      <trkpt lat="46.69816" lon="-1.93414">
        <ele>5</ele>
        <time>2018-03-06T21:28:17Z</time>
      </trkpt>
      <trkpt lat="46.69824" lon="-1.93411">
        <ele>5</ele>
        <time>2018-03-06T21:29:17Z</time>
      </trkpt>
      <trkpt lat="46.69892" lon="-1.93385">
        <ele>5</ele>
        <time>2018-03-06T21:30:17Z</time>
      </trkpt>
      <trkpt lat="46.69898" lon="-1.93383">
        <ele>5</ele>
        <time>2018-03-06T21:31:17Z</time>
      </trkpt>
      <trkpt lat="46.69901" lon="-1.93383">
        <ele>5</ele>
        <time>2018-03-06T21:32:17Z</time>
      </trkpt>
      <trkpt lat="46.69908" lon="-1.93383">
        <ele>4</ele>
        <time>2018-03-06T21:33:17Z</time>
      </trkpt>
      <trkpt lat="46.69907" lon="-1.93379">
        <ele>5</ele>
        <time>2018-03-06T21:34:17Z</time>
      </trkpt>
      <trkpt lat="46.69908" lon="-1.93377">
        <ele>5</ele>
        <time>2018-03-06T21:35:17Z</time>
      </trkpt>
      <trkpt lat="46.69908" lon="-1.93376">
        <ele>5</ele>
        <time>2018-03-06T21:36:17Z</time>
      </trkpt>
      <trkpt lat="46.69909" lon="-1.93375">
        <ele>5</ele>
        <time>2018-03-06T21:37:17Z</time>
      </trkpt>
      <trkpt lat="46.69911" lon="-1.93375">
        <ele>5</ele>
        <time>2018-03-06T21:38:17Z</time>
      </trkpt>
      <trkpt lat="46.69912" lon="-1.93375">
        <ele>5</ele>
        <time>2018-03-06T21:39:17Z</time>
      </trkpt>
      <trkpt lat="46.69914" lon="-1.93375">
        <ele>5</ele>
        <time>2018-03-06T21:40:17Z</time>
      </trkpt>
      <trkpt lat="46.69915" lon="-1.93376">
        <ele>5</ele>
        <time>2018-03-06T21:41:17Z</time>
      </trkpt>
      <trkpt lat="46.69915" lon="-1.93377">
        <ele>4</ele>
        <time>2018-03-06T21:42:17Z</time>
      </trkpt>
      <trkpt lat="46.69916" lon="-1.93379">
        <ele>4</ele>
        <time>2018-03-06T21:43:17Z</time>
      </trkpt>
      <trkpt lat="46.69916" lon="-1.93382">
        <ele>4</ele>
        <time>2018-03-06T21:44:17Z</time>
      </trkpt>
      <trkpt lat="46.69915" lon="-1.93383">
        <ele>4</ele>
        <time>2018-03-06T21:45:17Z</time>
      </trkpt>
      <trkpt lat="46.69922" lon="-1.93383">
        <ele>4</ele>
        <time>2018-03-06T21:46:17Z</time>
      </trkpt>
      <trkpt lat="46.69925" lon="-1.93383">
        <ele>4</ele>
        <time>2018-03-06T21:47:17Z</time>
      </trkpt>
      <trkpt lat="46.69935" lon="-1.93382">
        <ele>4</ele>
        <time>2018-03-06T21:48:17Z</time>
      </trkpt>
      <trkpt lat="46.69944" lon="-1.93381">
        <ele>4</ele>
        <time>2018-03-06T21:49:17Z</time>
      </trkpt>
      <trkpt lat="46.69949" lon="-1.93379">
        <ele>4</ele>
        <time>2018-03-06T21:50:17Z</time>
      </trkpt>
      <trkpt lat="46.69953" lon="-1.93377">
        <ele>4</ele>
        <time>2018-03-06T21:51:17Z</time>
      </trkpt>
      <trkpt lat="46.69958" lon="-1.93375">
        <ele>4</ele>
        <time>2018-03-06T21:52:17Z</time>
      </trkpt>
      <trkpt lat="46.69963" lon="-1.93373">
        <ele>4</ele>
        <time>2018-03-06T21:53:17Z</time>
      </trkpt>
      <trkpt lat="46.69969" lon="-1.9337">
        <ele>4</ele>
        <time>2018-03-06T21:54:17Z</time>
      </trkpt>
      <trkpt lat="46.69973" lon="-1.93367">
        <ele>4</ele>
        <time>2018-03-06T21:55:17Z</time>
      </trkpt>
      <trkpt lat="46.69976" lon="-1.93367">
        <ele>4</ele>
        <time>2018-03-06T21:56:17Z</time>
      </trkpt>
      <trkpt lat="46.69978" lon="-1.93366">
        <ele>3</ele>
        <time>2018-03-06T21:57:17Z</time>
      </trkpt>
      <trkpt lat="46.69979" lon="-1.93366">
        <ele>3</ele>
        <time>2018-03-06T21:58:17Z</time>
      </trkpt>
      <trkpt lat="46.69982" lon="-1.93367">
        <ele>3</ele>
        <time>2018-03-06T21:59:17Z</time>
      </trkpt>
      <trkpt lat="46.69987" lon="-1.93369">
        <ele>3</ele>
        <time>2018-03-06T22:00:17Z</time>
      </trkpt>
      <trkpt lat="46.70002" lon="-1.93375">
        <ele>3</ele>
        <time>2018-03-06T22:01:17Z</time>
      </trkpt>
      <trkpt lat="46.70015" lon="-1.9338">
        <ele>3</ele>
        <time>2018-03-06T22:02:17Z</time>
      </trkpt>
      <trkpt lat="46.7002" lon="-1.93382">
        <ele>3</ele>
        <time>2018-03-06T22:03:17Z</time>
      </trkpt>
      <trkpt lat="46.70023" lon="-1.93384">
        <ele>3</ele>
        <time>2018-03-06T22:04:17Z</time>
      </trkpt>
      <trkpt lat="46.70025" lon="-1.93386">
        <ele>3</ele>
        <time>2018-03-06T22:05:17Z</time>
      </trkpt>
      <trkpt lat="46.70028" lon="-1.93388">
        <ele>3</ele>
        <time>2018-03-06T22:06:17Z</time>
      </trkpt>
      <trkpt lat="46.7003" lon="-1.93391">
        <ele>3</ele>
        <time>2018-03-06T22:07:17Z</time>
      </trkpt>
      <trkpt lat="46.70033" lon="-1.93394">
        <ele>2</ele>
        <time>2018-03-06T22:08:17Z</time>
      </trkpt>
      <trkpt lat="46.70036" lon="-1.93397">
        <ele>2</ele>
        <time>2018-03-06T22:09:17Z</time>
      </trkpt>
      <trkpt lat="46.70038" lon="-1.93398">
        <ele>2</ele>
        <time>2018-03-06T22:10:17Z</time>
      </trkpt>
      <trkpt lat="46.70041" lon="-1.934">
        <ele>2</ele>
        <time>2018-03-06T22:11:17Z</time>
      </trkpt>
      <trkpt lat="46.70043" lon="-1.93401">
        <ele>2</ele>
        <time>2018-03-06T22:12:17Z</time>
      </trkpt>
      <trkpt lat="46.70046" lon="-1.93402">
        <ele>2</ele>
        <time>2018-03-06T22:13:17Z</time>
      </trkpt>
      <trkpt lat="46.70052" lon="-1.93405">
        <ele>2</ele>
        <time>2018-03-06T22:14:17Z</time>
      </trkpt>
      <trkpt lat="46.70052" lon="-1.93404">
        <ele>2</ele>
        <time>2018-03-06T22:15:17Z</time>
      </trkpt>
      <trkpt lat="46.70052" lon="-1.93403">
        <ele>2</ele>
        <time>2018-03-06T22:16:17Z</time>
      </trkpt>
      <trkpt lat="46.70052" lon="-1.93402">
        <ele>2</ele>
        <time>2018-03-06T22:17:17Z</time>
      </trkpt>
      <trkpt lat="46.70052" lon="-1.93401">
        <ele>2</ele>
        <time>2018-03-06T22:18:17Z</time>
      </trkpt>
      <trkpt lat="46.70053" lon="-1.93401">
        <ele>2</ele>
        <time>2018-03-06T22:19:17Z</time>
      </trkpt>
      <trkpt lat="46.70053" lon="-1.934">
        <ele>2</ele>
        <time>2018-03-06T22:20:17Z</time>
      </trkpt>
      <trkpt lat="46.70053" lon="-1.93399">
        <ele>2</ele>
        <time>2018-03-06T22:21:17Z</time>
      </trkpt>
      <trkpt lat="46.70054" lon="-1.93399">
        <ele>2</ele>
        <time>2018-03-06T22:22:17Z</time>
      </trkpt>
      <trkpt lat="46.70054" lon="-1.93398">
        <ele>2</ele>
        <time>2018-03-06T22:23:17Z</time>
      </trkpt>
      <trkpt lat="46.70055" lon="-1.93398">
        <ele>2</ele>
        <time>2018-03-06T22:24:17Z</time>
      </trkpt>
      <trkpt lat="46.70056" lon="-1.93398">
        <ele>2</ele>
        <time>2018-03-06T22:25:17Z</time>
      </trkpt>
      <trkpt lat="46.70056" lon="-1.93397">
        <ele>2</ele>
        <time>2018-03-06T22:26:17Z</time>
      </trkpt>
      <trkpt lat="46.70057" lon="-1.93397">
        <ele>2</ele>
        <time>2018-03-06T22:27:17Z</time>
      </trkpt>
      <trkpt lat="46.70058" lon="-1.93397">
        <ele>2</ele>
        <time>2018-03-06T22:28:17Z</time>
      </trkpt>
      <trkpt lat="46.70059" lon="-1.93398">
        <ele>2</ele>
        <time>2018-03-06T22:29:17Z</time>
      </trkpt>
      <trkpt lat="46.7006" lon="-1.93398">
        <ele>2</ele>
        <time>2018-03-06T22:30:17Z</time>
      </trkpt>
      <trkpt lat="46.7006" lon="-1.93399">
        <ele>2</ele>
        <time>2018-03-06T22:31:17Z</time>
      </trkpt>
      <trkpt lat="46.70061" lon="-1.93399">
        <ele>2</ele>
        <time>2018-03-06T22:32:17Z</time>
      </trkpt>
      <trkpt lat="46.70061" lon="-1.934">
        <ele>2</ele>
        <time>2018-03-06T22:33:17Z</time>
      </trkpt>
      <trkpt lat="46.70061" lon="-1.93401">
        <ele>2</ele>
        <time>2018-03-06T22:34:17Z</time>
      </trkpt>
      <trkpt lat="46.70062" lon="-1.93401">
        <ele>2</ele>
        <time>2018-03-06T22:35:17Z</time>
      </trkpt>
      <trkpt lat="46.70062" lon="-1.93402">
        <ele>2</ele>
        <time>2018-03-06T22:36:17Z</time>
      </trkpt>
      <trkpt lat="46.70062" lon="-1.93403">
        <ele>2</ele>
        <time>2018-03-06T22:37:17Z</time>
      </trkpt>
      <trkpt lat="46.70062" lon="-1.93404">
        <ele>2</ele>
        <time>2018-03-06T22:38:17Z</time>
      </trkpt>
      <trkpt lat="46.70062" lon="-1.93405">
        <ele>2</ele>
        <time>2018-03-06T22:39:17Z</time>
      </trkpt>
      <trkpt lat="46.70083" lon="-1.93405">
        <ele>2</ele>
        <time>2018-03-06T22:40:17Z</time>
      </trkpt>
      <trkpt lat="46.70093" lon="-1.934">
        <ele>2</ele>
        <time>2018-03-06T22:41:17Z</time>
      </trkpt>
      <trkpt lat="46.70098" lon="-1.93397">
        <ele>2</ele>
        <time>2018-03-06T22:42:17Z</time>
      </trkpt>
      <trkpt lat="46.70102" lon="-1.93395">
        <ele>2</ele>
        <time>2018-03-06T22:43:17Z</time>
      </trkpt>
      <trkpt lat="46.70107" lon="-1.93391">
        <ele>2</ele>
        <time>2018-03-06T22:44:17Z</time>
      </trkpt>
      <trkpt lat="46.70111" lon="-1.93388">
        <ele>2</ele>
        <time>2018-03-06T22:45:17Z</time>
      </trkpt>
      <trkpt lat="46.70114" lon="-1.93384">
        <ele>2</ele>
        <time>2018-03-06T22:46:17Z</time>
      </trkpt>
      <trkpt lat="46.70114" lon="-1.93384">
        <ele>2</ele>
        <time>2018-03-06T22:47:17Z</time>
      </trkpt>
      <trkpt lat="46.70115" lon="-1.93383">
        <ele>2</ele>
        <time>2018-03-06T22:48:17Z</time>
      </trkpt>
      <trkpt lat="46.70115" lon="-1.93382">
        <ele>2</ele>
        <time>2018-03-06T22:49:17Z</time>
      </trkpt>
      <trkpt lat="46.70115" lon="-1.93381">
        <ele>2</ele>
        <time>2018-03-06T22:50:17Z</time>
      </trkpt>
      <trkpt lat="46.70116" lon="-1.9338">
        <ele>2</ele>
        <time>2018-03-06T22:51:17Z</time>
      </trkpt>
      <trkpt lat="46.70116" lon="-1.93378">
        <ele>2</ele>
        <time>2018-03-06T22:52:17Z</time>
      </trkpt>
      <trkpt lat="46.70116" lon="-1.93377">
        <ele>2</ele>
        <time>2018-03-06T22:53:17Z</time>
      </trkpt>
      <trkpt lat="46.70117" lon="-1.93376">
        <ele>2</ele>
        <time>2018-03-06T22:54:17Z</time>
      </trkpt>
      <trkpt lat="46.70117" lon="-1.93375">
        <ele>2</ele>
        <time>2018-03-06T22:55:17Z</time>
      </trkpt>
      <trkpt lat="46.70118" lon="-1.93374">
        <ele>1</ele>
        <time>2018-03-06T22:56:17Z</time>
      </trkpt>
      <trkpt lat="46.70119" lon="-1.93373">
        <ele>1</ele>
        <time>2018-03-06T22:57:17Z</time>
      </trkpt>
      <trkpt lat="46.70119" lon="-1.93372">
        <ele>1</ele>
        <time>2018-03-06T22:58:17Z</time>
      </trkpt>
      <trkpt lat="46.7012" lon="-1.93372">
        <ele>1</ele>
        <time>2018-03-06T22:59:17Z</time>
      </trkpt>
      <trkpt lat="46.70121" lon="-1.93371">
        <ele>1</ele>
        <time>2018-03-06T23:00:17Z</time>
      </trkpt>
      <trkpt lat="46.70122" lon="-1.9337">
        <ele>1</ele>
        <time>2018-03-06T23:01:17Z</time>
      </trkpt>
      <trkpt lat="46.70123" lon="-1.93369">
        <ele>1</ele>
        <time>2018-03-06T23:02:17Z</time>
      </trkpt>
      <trkpt lat="46.70124" lon="-1.93369">
        <ele>1</ele>
        <time>2018-03-06T23:03:17Z</time>
      </trkpt>
      <trkpt lat="46.70125" lon="-1.93368">
        <ele>2</ele>
        <time>2018-03-06T23:04:17Z</time>
      </trkpt>
      <trkpt lat="46.70126" lon="-1.93368">
        <ele>2</ele>
        <time>2018-03-06T23:05:17Z</time>
      </trkpt>
      <trkpt lat="46.70127" lon="-1.93368">
        <ele>2</ele>
        <time>2018-03-06T23:06:17Z</time>
      </trkpt>
      <trkpt lat="46.70128" lon="-1.93368">
        <ele>2</ele>
        <time>2018-03-06T23:07:17Z</time>
      </trkpt>
      <trkpt lat="46.70129" lon="-1.93368">
        <ele>2</ele>
        <time>2018-03-06T23:08:17Z</time>
      </trkpt>
      <trkpt lat="46.7013" lon="-1.93368">
        <ele>2</ele>
        <time>2018-03-06T23:09:17Z</time>
      </trkpt>
      <trkpt lat="46.70131" lon="-1.93369">
        <ele>2</ele>
        <time>2018-03-06T23:10:17Z</time>
      </trkpt>
      <trkpt lat="46.70132" lon="-1.93369">
        <ele>2</ele>
        <time>2018-03-06T23:11:17Z</time>
      </trkpt>
      <trkpt lat="46.70132" lon="-1.9337">
        <ele>2</ele>
        <time>2018-03-06T23:12:17Z</time>
      </trkpt>
      <trkpt lat="46.70133" lon="-1.9337">
        <ele>2</ele>
        <time>2018-03-06T23:13:17Z</time>
      </trkpt>
      <trkpt lat="46.70134" lon="-1.93371">
        <ele>2</ele>
        <time>2018-03-06T23:14:17Z</time>
      </trkpt>
      <trkpt lat="46.70135" lon="-1.93372">
        <ele>2</ele>
        <time>2018-03-06T23:15:17Z</time>
      </trkpt>
      <trkpt lat="46.70136" lon="-1.93373">
        <ele>2</ele>
        <time>2018-03-06T23:16:17Z</time>
      </trkpt>
      <trkpt lat="46.70136" lon="-1.93374">
        <ele>2</ele>
        <time>2018-03-06T23:17:17Z</time>
      </trkpt>
      <trkpt lat="46.70137" lon="-1.93374">
        <ele>2</ele>
        <time>2018-03-06T23:18:17Z</time>
      </trkpt>
      <trkpt lat="46.70137" lon="-1.93375">
        <ele>1</ele>
        <time>2018-03-06T23:19:17Z</time>
      </trkpt>
      <trkpt lat="46.70138" lon="-1.93376">
        <ele>1</ele>
        <time>2018-03-06T23:20:17Z</time>
      </trkpt>
      <trkpt lat="46.70138" lon="-1.93377">
        <ele>1</ele>
        <time>2018-03-06T23:21:17Z</time>
      </trkpt>
      <trkpt lat="46.70138" lon="-1.93378">
        <ele>1</ele>
        <time>2018-03-06T23:22:17Z</time>
      </trkpt>
      <trkpt lat="46.70165" lon="-1.93375">
        <ele>1</ele>
        <time>2018-03-06T23:23:17Z</time>
      </trkpt>
      <trkpt lat="46.7017" lon="-1.93374">
        <ele>1</ele>
        <time>2018-03-06T23:24:17Z</time>
      </trkpt>
      <trkpt lat="46.70173" lon="-1.93372">
        <ele>1</ele>
        <time>2018-03-06T23:25:17Z</time>
      </trkpt>
      <trkpt lat="46.70181" lon="-1.93366">
        <ele>2</ele>
        <time>2018-03-06T23:26:17Z</time>
      </trkpt>
      <trkpt lat="46.70194" lon="-1.93356">
        <ele>1</ele>
        <time>2018-03-06T23:27:17Z</time>
      </trkpt>
      <trkpt lat="46.70205" lon="-1.93347">
        <ele>1</ele>
        <time>2018-03-06T23:28:17Z</time>
      </trkpt>
      <trkpt lat="46.70211" lon="-1.9334">
        <ele>1</ele>
        <time>2018-03-06T23:29:17Z</time>
      </trkpt>
      <trkpt lat="46.70216" lon="-1.93332">
        <ele>1</ele>
        <time>2018-03-06T23:30:17Z</time>
      </trkpt>
      <trkpt lat="46.70224" lon="-1.9332">
        <ele>1</ele>
        <time>2018-03-06T23:31:17Z</time>
      </trkpt>
      <trkpt lat="46.70239" lon="-1.93295">
        <ele>2</ele>
        <time>2018-03-06T23:32:17Z</time>
      </trkpt>
      <trkpt lat="46.70251" lon="-1.9328">
        <ele>2</ele>
        <time>2018-03-06T23:33:17Z</time>
      </trkpt>
      <trkpt lat="46.70263" lon="-1.93271">
        <ele>2</ele>
        <time>2018-03-06T23:34:17Z</time>
      </trkpt>
      <trkpt lat="46.70276" lon="-1.93263">
        <ele>2</ele>
        <time>2018-03-06T23:35:17Z</time>
      </trkpt>
      <trkpt lat="46.7028" lon="-1.9326">
        <ele>2</ele>
        <time>2018-03-06T23:36:17Z</time>
      </trkpt>
      <trkpt lat="46.70288" lon="-1.93253">
        <ele>2</ele>
        <time>2018-03-06T23:37:17Z</time>
      </trkpt>
      <trkpt lat="46.70295" lon="-1.93245">
        <ele>2</ele>
        <time>2018-03-06T23:38:17Z</time>
      </trkpt>
      <trkpt lat="46.70304" lon="-1.9323">
        <ele>2</ele>
        <time>2018-03-06T23:39:17Z</time>
      </trkpt>
      <trkpt lat="46.70304" lon="-1.9323">
        <ele>2</ele>
        <time>2018-03-06T23:40:17Z</time>
      </trkpt>
      <trkpt lat="46.70328" lon="-1.93232">
        <ele>2</ele>
        <time>2018-03-06T23:41:17Z</time>
      </trkpt>
      <trkpt lat="46.70362" lon="-1.9324">
        <ele>2</ele>
        <time>2018-03-06T23:42:17Z</time>
      </trkpt>
      <trkpt lat="46.70398" lon="-1.93249">
        <ele>3</ele>
        <time>2018-03-06T23:43:17Z</time>
      </trkpt>
      <trkpt lat="46.70419" lon="-1.93258">
        <ele>3</ele>
        <time>2018-03-06T23:44:17Z</time>
      </trkpt>
      <trkpt lat="46.70429" lon="-1.93262">
        <ele>3</ele>
        <time>2018-03-06T23:45:17Z</time>
      </trkpt>
      <trkpt lat="46.70439" lon="-1.93265">
        <ele>3</ele>
        <time>2018-03-06T23:46:17Z</time>
      </trkpt>
      <trkpt lat="46.70449" lon="-1.93267">
        <ele>3</ele>
        <time>2018-03-06T23:47:17Z</time>
      </trkpt>
      <trkpt lat="46.70458" lon="-1.93268">
        <ele>3</ele>
        <time>2018-03-06T23:48:17Z</time>
      </trkpt>
      <trkpt lat="46.70465" lon="-1.93267">
        <ele>3</ele>
        <time>2018-03-06T23:49:17Z</time>
      </trkpt>
      <trkpt lat="46.70472" lon="-1.93265">
        <ele>3</ele>
        <time>2018-03-06T23:50:17Z</time>
      </trkpt>
      <trkpt lat="46.7048" lon="-1.9326">
        <ele>4</ele>
        <time>2018-03-06T23:51:17Z</time>
      </trkpt>
      <trkpt lat="46.70489" lon="-1.93253">
        <ele>4</ele>
        <time>2018-03-06T23:52:17Z</time>
      </trkpt>
      <trkpt lat="46.70503" lon="-1.93244">
        <ele>4</ele>
        <time>2018-03-06T23:53:17Z</time>
      </trkpt>
      <trkpt lat="46.7052" lon="-1.93232">
        <ele>5</ele>
        <time>2018-03-06T23:54:17Z</time>
      </trkpt>
      <trkpt lat="46.70533" lon="-1.93223">
        <ele>5</ele>
        <time>2018-03-06T23:55:17Z</time>
      </trkpt>
      <trkpt lat="46.70548" lon="-1.93216">
        <ele>5</ele>
        <time>2018-03-06T23:56:17Z</time>
      </trkpt>
      <trkpt lat="46.70566" lon="-1.93211">
        <ele>6</ele>
        <time>2018-03-06T23:57:17Z</time>
      </trkpt>
      <trkpt lat="46.70588" lon="-1.93206">
        <ele>6</ele>
        <time>2018-03-06T23:58:17Z</time>
      </trkpt>
      <trkpt lat="46.7061" lon="-1.93202">
        <ele>7</ele>
        <time>2018-03-06T23:59:17Z</time>
      </trkpt>
      <trkpt lat="46.7063" lon="-1.93198">
        <ele>7</ele>
        <time>2018-03-07T00:00:17Z</time>
      </trkpt>
      <trkpt lat="46.70648" lon="-1.93197">
        <ele>8</ele>
        <time>2018-03-07T00:01:17Z</time>
      </trkpt>
      <trkpt lat="46.70659" lon="-1.93197">
        <ele>8</ele>
        <time>2018-03-07T00:02:17Z</time>
      </trkpt>
      <trkpt lat="46.70671" lon="-1.932">
        <ele>8</ele>
        <time>2018-03-07T00:03:17Z</time>
      </trkpt>
      <trkpt lat="46.70691" lon="-1.93205">
        <ele>8</ele>
        <time>2018-03-07T00:04:17Z</time>
      </trkpt>
      <trkpt lat="46.7071" lon="-1.93211">
        <ele>8</ele>
        <time>2018-03-07T00:05:17Z</time>
      </trkpt>
      <trkpt lat="46.70712" lon="-1.93212">
        <ele>8</ele>
        <time>2018-03-07T00:06:17Z</time>
      </trkpt>
      <trkpt lat="46.70729" lon="-1.93213">
        <ele>8</ele>
        <time>2018-03-07T00:07:17Z</time>
      </trkpt>
      <trkpt lat="46.70745" lon="-1.93212">
        <ele>8</ele>
        <time>2018-03-07T00:08:17Z</time>
      </trkpt>
      <trkpt lat="46.70752" lon="-1.9321">
        <ele>8</ele>
        <time>2018-03-07T00:09:17Z</time>
      </trkpt>
      <trkpt lat="46.70758" lon="-1.93207">
        <ele>8</ele>
        <time>2018-03-07T00:10:17Z</time>
      </trkpt>
      <trkpt lat="46.70766" lon="-1.93202">
        <ele>8</ele>
        <time>2018-03-07T00:11:17Z</time>
      </trkpt>
      <trkpt lat="46.70772" lon="-1.93197">
        <ele>8</ele>
        <time>2018-03-07T00:12:17Z</time>
      </trkpt>
      <trkpt lat="46.70785" lon="-1.93186">
        <ele>9</ele>
        <time>2018-03-07T00:13:17Z</time>
      </trkpt>
      <trkpt lat="46.70795" lon="-1.93179">
        <ele>9</ele>
        <time>2018-03-07T00:14:17Z</time>
      </trkpt>
      <trkpt lat="46.70804" lon="-1.93173">
        <ele>9</ele>
        <time>2018-03-07T00:15:17Z</time>
      </trkpt>
      <trkpt lat="46.70813" lon="-1.9317">
        <ele>9</ele>
        <time>2018-03-07T00:16:17Z</time>
      </trkpt>
      <trkpt lat="46.70821" lon="-1.93168">
        <ele>9</ele>
        <time>2018-03-07T00:17:17Z</time>
      </trkpt>
      <trkpt lat="46.70829" lon="-1.93167">
        <ele>9</ele>
        <time>2018-03-07T00:18:17Z</time>
      </trkpt>
      <trkpt lat="46.70835" lon="-1.93168">
        <ele>9</ele>
        <time>2018-03-07T00:19:17Z</time>
      </trkpt>
      <trkpt lat="46.70844" lon="-1.93169">
        <ele>9</ele>
        <time>2018-03-07T00:20:17Z</time>
      </trkpt>
      <trkpt lat="46.70877" lon="-1.93174">
        <ele>8</ele>
        <time>2018-03-07T00:21:17Z</time>
      </trkpt>
      <trkpt lat="46.70916" lon="-1.93179">
        <ele>7</ele>
        <time>2018-03-07T00:22:17Z</time>
      </trkpt>
      <trkpt lat="46.70936" lon="-1.93181">
        <ele>7</ele>
        <time>2018-03-07T00:23:17Z</time>
      </trkpt>
      <trkpt lat="46.70956" lon="-1.93184">
        <ele>7</ele>
        <time>2018-03-07T00:24:17Z</time>
      </trkpt>
      <trkpt lat="46.70974" lon="-1.93184">
        <ele>7</ele>
        <time>2018-03-07T00:25:17Z</time>
      </trkpt>
      <trkpt lat="46.71007" lon="-1.9318">
        <ele>7</ele>
        <time>2018-03-07T00:26:17Z</time>
      </trkpt>
      <trkpt lat="46.71025" lon="-1.93175">
        <ele>7</ele>
        <time>2018-03-07T00:27:17Z</time>
      </trkpt>
      <trkpt lat="46.71038" lon="-1.93168">
        <ele>7</ele>
        <time>2018-03-07T00:28:17Z</time>
      </trkpt>
      <trkpt lat="46.71048" lon="-1.93158">
        <ele>7</ele>
        <time>2018-03-07T00:29:17Z</time>
      </trkpt>
      <trkpt lat="46.71062" lon="-1.93143">
        <ele>7</ele>
        <time>2018-03-07T00:30:17Z</time>
      </trkpt>
      <trkpt lat="46.7109" lon="-1.93111">
        <ele>7</ele>
        <time>2018-03-07T00:31:17Z</time>
      </trkpt>
      <trkpt lat="46.71123" lon="-1.93073">
        <ele>7</ele>
        <time>2018-03-07T00:32:17Z</time>
      </trkpt>
      <trkpt lat="46.71124" lon="-1.93072">
        <ele>7</ele>
        <time>2018-03-07T00:33:17Z</time>
      </trkpt>
      <trkpt lat="46.71141" lon="-1.93051">
        <ele>7</ele>
        <time>2018-03-07T00:34:17Z</time>
      </trkpt>
      <trkpt lat="46.7115" lon="-1.93042">
        <ele>7</ele>
        <time>2018-03-07T00:35:17Z</time>
      </trkpt>
      <trkpt lat="46.71159" lon="-1.93035">
        <ele>8</ele>
        <time>2018-03-07T00:36:17Z</time>
      </trkpt>
      <trkpt lat="46.71167" lon="-1.93032">
        <ele>8</ele>
        <time>2018-03-07T00:37:17Z</time>
      </trkpt>
      <trkpt lat="46.71178" lon="-1.9303">
        <ele>7</ele>
        <time>2018-03-07T00:38:17Z</time>
      </trkpt>
      <trkpt lat="46.71195" lon="-1.93028">
        <ele>7</ele>
        <time>2018-03-07T00:39:17Z</time>
      </trkpt>
      <trkpt lat="46.71215" lon="-1.93028">
        <ele>6</ele>
        <time>2018-03-07T00:40:17Z</time>
      </trkpt>
      <trkpt lat="46.71225" lon="-1.93026">
        <ele>6</ele>
        <time>2018-03-07T00:41:17Z</time>
      </trkpt>
      <trkpt lat="46.71236" lon="-1.93024">
        <ele>5</ele>
        <time>2018-03-07T00:42:17Z</time>
      </trkpt>
      <trkpt lat="46.71243" lon="-1.93018">
        <ele>5</ele>
        <time>2018-03-07T00:43:17Z</time>
      </trkpt>
      <trkpt lat="46.71246" lon="-1.93012">
        <ele>5</ele>
        <time>2018-03-07T00:44:17Z</time>
      </trkpt>
      <trkpt lat="46.71249" lon="-1.93002">
        <ele>5</ele>
        <time>2018-03-07T00:45:17Z</time>
      </trkpt>
      <trkpt lat="46.71252" lon="-1.92988">
        <ele>5</ele>
        <time>2018-03-07T00:46:17Z</time>
      </trkpt>
      <trkpt lat="46.71256" lon="-1.92969">
        <ele>5</ele>
        <time>2018-03-07T00:47:17Z</time>
      </trkpt>
      <trkpt lat="46.71259" lon="-1.92949">
        <ele>5</ele>
        <time>2018-03-07T00:48:17Z</time>
      </trkpt>
      <trkpt lat="46.71259" lon="-1.92949">
        <ele>5</ele>
        <time>2018-03-07T00:49:17Z</time>
      </trkpt>
      <trkpt lat="46.71261" lon="-1.92937">
        <ele>4</ele>
        <time>2018-03-07T00:50:17Z</time>
      </trkpt>
      <trkpt lat="46.71265" lon="-1.92901">
        <ele>3</ele>
        <time>2018-03-07T00:51:17Z</time>
      </trkpt>
      <trkpt lat="46.71269" lon="-1.9287">
        <ele>3</ele>
        <time>2018-03-07T00:52:17Z</time>
      </trkpt>
      <trkpt lat="46.71269" lon="-1.92869">
        <ele>3</ele>
        <time>2018-03-07T00:53:17Z</time>
      </trkpt>
      <trkpt lat="46.71274" lon="-1.92841">
        <ele>3</ele>
        <time>2018-03-07T00:54:17Z</time>
      </trkpt>
      <trkpt lat="46.71281" lon="-1.92808">
        <ele>4</ele>
        <time>2018-03-07T00:55:17Z</time>
      </trkpt>
      <trkpt lat="46.71289" lon="-1.92771">
        <ele>4</ele>
        <time>2018-03-07T00:56:17Z</time>
      </trkpt>
      <trkpt lat="46.71299" lon="-1.92726">
        <ele>5</ele>
        <time>2018-03-07T00:57:17Z</time>
      </trkpt>
      <trkpt lat="46.71299" lon="-1.92723">
        <ele>5</ele>
        <time>2018-03-07T00:58:17Z</time>
      </trkpt>
      <trkpt lat="46.71306" lon="-1.927">
        <ele>6</ele>
        <time>2018-03-07T00:59:17Z</time>
      </trkpt>
      <trkpt lat="46.71306" lon="-1.92696">
        <ele>6</ele>
        <time>2018-03-07T01:00:17Z</time>
      </trkpt>
      <trkpt lat="46.71307" lon="-1.92691">
        <ele>6</ele>
        <time>2018-03-07T01:01:17Z</time>
      </trkpt>
      <trkpt lat="46.71308" lon="-1.92684">
        <ele>6</ele>
        <time>2018-03-07T01:02:17Z</time>
      </trkpt>
      <trkpt lat="46.71308" lon="-1.92681">
        <ele>7</ele>
        <time>2018-03-07T01:03:17Z</time>
      </trkpt>
      <trkpt lat="46.71307" lon="-1.92661">
        <ele>7</ele>
        <time>2018-03-07T01:04:17Z</time>
      </trkpt>
      <trkpt lat="46.71305" lon="-1.92644">
        <ele>8</ele>
        <time>2018-03-07T01:05:17Z</time>
      </trkpt>
      <trkpt lat="46.71305" lon="-1.9264">
        <ele>8</ele>
        <time>2018-03-07T01:06:17Z</time>
      </trkpt>
      <trkpt lat="46.71305" lon="-1.92636">
        <ele>8</ele>
        <time>2018-03-07T01:07:17Z</time>
      </trkpt>
      <trkpt lat="46.71305" lon="-1.92629">
        <ele>8</ele>
        <time>2018-03-07T01:08:17Z</time>
      </trkpt>
      <trkpt lat="46.71306" lon="-1.92623">
        <ele>8</ele>
        <time>2018-03-07T01:09:17Z</time>
      </trkpt>
      <trkpt lat="46.71307" lon="-1.92618">
        <ele>8</ele>
        <time>2018-03-07T01:10:17Z</time>
      </trkpt>
      <trkpt lat="46.71311" lon="-1.92597">
        <ele>8</ele>
        <time>2018-03-07T01:11:17Z</time>
      </trkpt>
      <trkpt lat="46.71325" lon="-1.92544">
        <ele>8</ele>
        <time>2018-03-07T01:12:17Z</time>
      </trkpt>
      <trkpt lat="46.7133" lon="-1.92521">
        <ele>8</ele>
        <time>2018-03-07T01:13:17Z</time>
      </trkpt>
      <trkpt lat="46.71331" lon="-1.92518">
        <ele>8</ele>
        <time>2018-03-07T01:14:17Z</time>
      </trkpt>
      <trkpt lat="46.71332" lon="-1.92515">
        <ele>8</ele>
        <time>2018-03-07T01:15:17Z</time>
      </trkpt>
      <trkpt lat="46.71333" lon="-1.92509">
        <ele>8</ele>
        <time>2018-03-07T01:16:17Z</time>
      </trkpt>
      <trkpt lat="46.71333" lon="-1.92502">
        <ele>8</ele>
        <time>2018-03-07T01:17:17Z</time>
      </trkpt>
      <trkpt lat="46.71332" lon="-1.92476">
        <ele>8</ele>
        <time>2018-03-07T01:18:17Z</time>
      </trkpt>
      <trkpt lat="46.7133" lon="-1.92445">
        <ele>9</ele>
        <time>2018-03-07T01:19:17Z</time>
      </trkpt>
      <trkpt lat="46.71327" lon="-1.92413">
        <ele>9</ele>
        <time>2018-03-07T01:20:17Z</time>
      </trkpt>
      <trkpt lat="46.71326" lon="-1.92402">
        <ele>9</ele>
        <time>2018-03-07T01:21:17Z</time>
      </trkpt>
      <trkpt lat="46.71323" lon="-1.92389">
        <ele>9</ele>
        <time>2018-03-07T01:22:17Z</time>
      </trkpt>
      <trkpt lat="46.71322" lon="-1.92385">
        <ele>9</ele>
        <time>2018-03-07T01:23:17Z</time>
      </trkpt>
      <trkpt lat="46.71321" lon="-1.9238">
        <ele>9</ele>
        <time>2018-03-07T01:24:17Z</time>
      </trkpt>
      <trkpt lat="46.71318" lon="-1.9237">
        <ele>9</ele>
        <time>2018-03-07T01:25:17Z</time>
      </trkpt>
      <trkpt lat="46.71315" lon="-1.92363">
        <ele>9</ele>
        <time>2018-03-07T01:26:17Z</time>
      </trkpt>
      <trkpt lat="46.71311" lon="-1.92355">
        <ele>9</ele>
        <time>2018-03-07T01:27:17Z</time>
      </trkpt>
      <trkpt lat="46.71306" lon="-1.92347">
        <ele>9</ele>
        <time>2018-03-07T01:28:17Z</time>
      </trkpt>
      <trkpt lat="46.71306" lon="-1.92347">
        <ele>9</ele>
        <time>2018-03-07T01:29:17Z</time>
      </trkpt>
      <trkpt lat="46.71322" lon="-1.92344">
        <ele>8</ele>
        <time>2018-03-07T01:30:17Z</time>
      </trkpt>
      <trkpt lat="46.71334" lon="-1.9234">
        <ele>8</ele>
        <time>2018-03-07T01:31:17Z</time>
      </trkpt>
      <trkpt lat="46.71352" lon="-1.92336">
        <ele>7</ele>
        <time>2018-03-07T01:32:17Z</time>
      </trkpt>
      <trkpt lat="46.71383" lon="-1.92327">
        <ele>6</ele>
        <time>2018-03-07T01:33:17Z</time>
      </trkpt>
      <trkpt lat="46.71414" lon="-1.92316">
        <ele>5</ele>
        <time>2018-03-07T01:34:17Z</time>
      </trkpt>
      <trkpt lat="46.71418" lon="-1.92313">
        <ele>5</ele>
        <time>2018-03-07T01:35:17Z</time>
      </trkpt>
      <trkpt lat="46.71421" lon="-1.92311">
        <ele>5</ele>
        <time>2018-03-07T01:36:17Z</time>
      </trkpt>
      <trkpt lat="46.71423" lon="-1.92308">
        <ele>5</ele>
        <time>2018-03-07T01:37:17Z</time>
      </trkpt>
      <trkpt lat="46.71426" lon="-1.92303">
        <ele>5</ele>
        <time>2018-03-07T01:38:17Z</time>
      </trkpt>
      <trkpt lat="46.71429" lon="-1.92297">
        <ele>5</ele>
        <time>2018-03-07T01:39:17Z</time>
      </trkpt>
      <trkpt lat="46.71432" lon="-1.92285">
        <ele>5</ele>
        <time>2018-03-07T01:40:17Z</time>
      </trkpt>
      <trkpt lat="46.71432" lon="-1.92282">
        <ele>5</ele>
        <time>2018-03-07T01:41:17Z</time>
      </trkpt>
      <trkpt lat="46.7144" lon="-1.92252">
        <ele>6</ele>
        <time>2018-03-07T01:42:17Z</time>
      </trkpt>
      <trkpt lat="46.71448" lon="-1.92225">
        <ele>6</ele>
        <time>2018-03-07T01:43:17Z</time>
      </trkpt>
      <trkpt lat="46.71456" lon="-1.92198">
        <ele>6</ele>
        <time>2018-03-07T01:44:17Z</time>
      </trkpt>
      <trkpt lat="46.71459" lon="-1.92185">
        <ele>6</ele>
        <time>2018-03-07T01:45:17Z</time>
      </trkpt>
      <trkpt lat="46.7146" lon="-1.92183">
        <ele>6</ele>
        <time>2018-03-07T01:46:17Z</time>
      </trkpt>
      <trkpt lat="46.71466" lon="-1.92164">
        <ele>6</ele>
        <time>2018-03-07T01:47:17Z</time>
      </trkpt>
      <trkpt lat="46.71469" lon="-1.9215">
        <ele>6</ele>
        <time>2018-03-07T01:48:17Z</time>
      </trkpt>
      <trkpt lat="46.71474" lon="-1.92129">
        <ele>6</ele>
        <time>2018-03-07T01:49:17Z</time>
      </trkpt>
      <trkpt lat="46.7148" lon="-1.92105">
        <ele>6</ele>
        <time>2018-03-07T01:50:17Z</time>
      </trkpt>
      <trkpt lat="46.71484" lon="-1.92081">
        <ele>5</ele>
        <time>2018-03-07T01:51:17Z</time>
      </trkpt>
      <trkpt lat="46.71491" lon="-1.9204">
        <ele>6</ele>
        <time>2018-03-07T01:52:17Z</time>
      </trkpt>
      <trkpt lat="46.71492" lon="-1.92037">
        <ele>6</ele>
        <time>2018-03-07T01:53:17Z</time>
      </trkpt>
      <trkpt lat="46.715" lon="-1.91985">
        <ele>7</ele>
        <time>2018-03-07T01:54:17Z</time>
      </trkpt>
      <trkpt lat="46.71504" lon="-1.91966">
        <ele>7</ele>
        <time>2018-03-07T01:55:17Z</time>
      </trkpt>
      <trkpt lat="46.71508" lon="-1.9194">
        <ele>7</ele>
        <time>2018-03-07T01:56:17Z</time>
      </trkpt>
      <trkpt lat="46.71511" lon="-1.91921">
        <ele>7</ele>
        <time>2018-03-07T01:57:17Z</time>
      </trkpt>
      <trkpt lat="46.71515" lon="-1.91902">
        <ele>7</ele>
        <time>2018-03-07T01:58:17Z</time>
      </trkpt>
      <trkpt lat="46.71518" lon="-1.91883">
        <ele>8</ele>
        <time>2018-03-07T01:59:17Z</time>
      </trkpt>
      <trkpt lat="46.71523" lon="-1.91865">
        <ele>8</ele>
        <time>2018-03-07T02:00:17Z</time>
      </trkpt>
      <trkpt lat="46.71528" lon="-1.91847">
        <ele>8</ele>
        <time>2018-03-07T02:01:17Z</time>
      </trkpt>
      <trkpt lat="46.71534" lon="-1.91828">
        <ele>8</ele>
        <time>2018-03-07T02:02:17Z</time>
      </trkpt>
      <trkpt lat="46.71548" lon="-1.91786">
        <ele>7</ele>
        <time>2018-03-07T02:03:17Z</time>
      </trkpt>
      <trkpt lat="46.71559" lon="-1.91759">
        <ele>7</ele>
        <time>2018-03-07T02:04:17Z</time>
      </trkpt>
      <trkpt lat="46.71565" lon="-1.91742">
        <ele>7</ele>
        <time>2018-03-07T02:05:17Z</time>
      </trkpt>
      <trkpt lat="46.71573" lon="-1.91722">
        <ele>7</ele>
        <time>2018-03-07T02:06:17Z</time>
      </trkpt>
      <trkpt lat="46.71589" lon="-1.91683">
        <ele>7</ele>
        <time>2018-03-07T02:07:17Z</time>
      </trkpt>
      <trkpt lat="46.71614" lon="-1.91622">
        <ele>5</ele>
        <time>2018-03-07T02:08:17Z</time>
      </trkpt>
      <trkpt lat="46.71624" lon="-1.91596">
        <ele>5</ele>
        <time>2018-03-07T02:09:17Z</time>
      </trkpt>
      <trkpt lat="46.71632" lon="-1.9158">
        <ele>4</ele>
        <time>2018-03-07T02:10:17Z</time>
      </trkpt>
      <trkpt lat="46.71641" lon="-1.9157">
        <ele>4</ele>
        <time>2018-03-07T02:11:17Z</time>
      </trkpt>
      <trkpt lat="46.71648" lon="-1.91565">
        <ele>4</ele>
        <time>2018-03-07T02:12:17Z</time>
      </trkpt>
      <trkpt lat="46.71664" lon="-1.91556">
        <ele>3</ele>
        <time>2018-03-07T02:13:17Z</time>
      </trkpt>
      <trkpt lat="46.71674" lon="-1.91552">
        <ele>3</ele>
        <time>2018-03-07T02:14:17Z</time>
      </trkpt>
      <trkpt lat="46.71699" lon="-1.9154">
        <ele>2</ele>
        <time>2018-03-07T02:15:17Z</time>
      </trkpt>
      <trkpt lat="46.71723" lon="-1.91529">
        <ele>2</ele>
        <time>2018-03-07T02:16:17Z</time>
      </trkpt>
      <trkpt lat="46.7174" lon="-1.91519">
        <ele>2</ele>
        <time>2018-03-07T02:17:17Z</time>
      </trkpt>
      <trkpt lat="46.7175" lon="-1.91512">
        <ele>2</ele>
        <time>2018-03-07T02:18:17Z</time>
      </trkpt>
      <trkpt lat="46.7176" lon="-1.91502">
        <ele>2</ele>
        <time>2018-03-07T02:19:17Z</time>
      </trkpt>
      <trkpt lat="46.71765" lon="-1.91492">
        <ele>2</ele>
        <time>2018-03-07T02:20:17Z</time>
      </trkpt>
      <trkpt lat="46.71768" lon="-1.91484">
        <ele>2</ele>
        <time>2018-03-07T02:21:17Z</time>
      </trkpt>
      <trkpt lat="46.7177" lon="-1.91473">
        <ele>2</ele>
        <time>2018-03-07T02:22:17Z</time>
      </trkpt>
      <trkpt lat="46.71777" lon="-1.91414">
        <ele>1</ele>
        <time>2018-03-07T02:23:17Z</time>
      </trkpt>
      <trkpt lat="46.7178" lon="-1.91384">
        <ele>1</ele>
        <time>2018-03-07T02:24:17Z</time>
      </trkpt>
      <trkpt lat="46.71785" lon="-1.91362">
        <ele>1</ele>
        <time>2018-03-07T02:25:17Z</time>
      </trkpt>
      <trkpt lat="46.71792" lon="-1.91336">
        <ele>1</ele>
        <time>2018-03-07T02:26:17Z</time>
      </trkpt>
      <trkpt lat="46.71809" lon="-1.91278">
        <ele>2</ele>
        <time>2018-03-07T02:27:17Z</time>
      </trkpt>
      <trkpt lat="46.71822" lon="-1.91229">
        <ele>3</ele>
        <time>2018-03-07T02:28:17Z</time>
      </trkpt>
      <trkpt lat="46.71834" lon="-1.91176">
        <ele>3</ele>
        <time>2018-03-07T02:29:17Z</time>
      </trkpt>
      <trkpt lat="46.71839" lon="-1.91152">
        <ele>3</ele>
        <time>2018-03-07T02:30:17Z</time>
      </trkpt>
      <trkpt lat="46.71847" lon="-1.91107">
        <ele>2</ele>
        <time>2018-03-07T02:31:17Z</time>
      </trkpt>
      <trkpt lat="46.71851" lon="-1.91083">
        <ele>2</ele>
        <time>2018-03-07T02:32:17Z</time>
      </trkpt>
      <trkpt lat="46.71852" lon="-1.91064">
        <ele>2</ele>
        <time>2018-03-07T02:33:17Z</time>
      </trkpt>
      <trkpt lat="46.71852" lon="-1.91047">
        <ele>2</ele>
        <time>2018-03-07T02:34:17Z</time>
      </trkpt>
      <trkpt lat="46.71851" lon="-1.9102">
        <ele>3</ele>
        <time>2018-03-07T02:35:17Z</time>
      </trkpt>
      <trkpt lat="46.71846" lon="-1.90978">
        <ele>3</ele>
        <time>2018-03-07T02:36:17Z</time>
      </trkpt>
      <trkpt lat="46.71837" lon="-1.90885">
        <ele>5</ele>
        <time>2018-03-07T02:37:17Z</time>
      </trkpt>
      <trkpt lat="46.71832" lon="-1.90833">
        <ele>6</ele>
        <time>2018-03-07T02:38:17Z</time>
      </trkpt>
      <trkpt lat="46.71827" lon="-1.90802">
        <ele>6</ele>
        <time>2018-03-07T02:39:17Z</time>
      </trkpt>
      <trkpt lat="46.71821" lon="-1.90766">
        <ele>6</ele>
        <time>2018-03-07T02:40:17Z</time>
      </trkpt>
      <trkpt lat="46.7182" lon="-1.90764">
        <ele>6</ele>
        <time>2018-03-07T02:41:17Z</time>
      </trkpt>
      <trkpt lat="46.71811" lon="-1.90722">
        <ele>6</ele>
        <time>2018-03-07T02:42:17Z</time>
      </trkpt>
      <trkpt lat="46.71801" lon="-1.90668">
        <ele>5</ele>
        <time>2018-03-07T02:43:17Z</time>
      </trkpt>
      <trkpt lat="46.71797" lon="-1.90646">
        <ele>5</ele>
        <time>2018-03-07T02:44:17Z</time>
      </trkpt>
      <trkpt lat="46.71795" lon="-1.90616">
        <ele>6</ele>
        <time>2018-03-07T02:45:17Z</time>
      </trkpt>
      <trkpt lat="46.71795" lon="-1.90597">
        <ele>7</ele>
        <time>2018-03-07T02:46:17Z</time>
      </trkpt>
      <trkpt lat="46.71795" lon="-1.90578">
        <ele>7</ele>
        <time>2018-03-07T02:47:17Z</time>
      </trkpt>
      <trkpt lat="46.71798" lon="-1.90553">
        <ele>7</ele>
        <time>2018-03-07T02:48:17Z</time>
      </trkpt>
      <trkpt lat="46.71806" lon="-1.90529">
        <ele>7</ele>
        <time>2018-03-07T02:49:17Z</time>
      </trkpt>
      <trkpt lat="46.71818" lon="-1.90502">
        <ele>6</ele>
        <time>2018-03-07T02:50:17Z</time>
      </trkpt>
      <trkpt lat="46.71819" lon="-1.90499">
        <ele>6</ele>
        <time>2018-03-07T02:51:17Z</time>
      </trkpt>
      <trkpt lat="46.7183" lon="-1.90473">
        <ele>5</ele>
        <time>2018-03-07T02:52:17Z</time>
      </trkpt>
      <trkpt lat="46.71842" lon="-1.90449">
        <ele>5</ele>
        <time>2018-03-07T02:53:17Z</time>
      </trkpt>
      <trkpt lat="46.71845" lon="-1.90439">
        <ele>4</ele>
        <time>2018-03-07T02:54:17Z</time>
      </trkpt>
      <trkpt lat="46.71846" lon="-1.90435">
        <ele>4</ele>
        <time>2018-03-07T02:55:17Z</time>
      </trkpt>
      <trkpt lat="46.71847" lon="-1.90431">
        <ele>4</ele>
        <time>2018-03-07T02:56:17Z</time>
      </trkpt>
      <trkpt lat="46.71848" lon="-1.90421">
        <ele>4</ele>
        <time>2018-03-07T02:57:17Z</time>
      </trkpt>
      <trkpt lat="46.71851" lon="-1.90389">
        <ele>5</ele>
        <time>2018-03-07T02:58:17Z</time>
      </trkpt>
      <trkpt lat="46.71852" lon="-1.90384">
        <ele>5</ele>
        <time>2018-03-07T02:59:17Z</time>
      </trkpt>
      <trkpt lat="46.71852" lon="-1.9038">
        <ele>5</ele>
        <time>2018-03-07T03:00:17Z</time>
      </trkpt>
      <trkpt lat="46.71851" lon="-1.90377">
        <ele>5</ele>
        <time>2018-03-07T03:01:17Z</time>
      </trkpt>
      <trkpt lat="46.71851" lon="-1.90375">
        <ele>5</ele>
        <time>2018-03-07T03:02:17Z</time>
      </trkpt>
      <trkpt lat="46.7185" lon="-1.90372">
        <ele>5</ele>
        <time>2018-03-07T03:03:17Z</time>
      </trkpt>
      <trkpt lat="46.7185" lon="-1.9037">
        <ele>5</ele>
        <time>2018-03-07T03:04:17Z</time>
      </trkpt>
      <trkpt lat="46.71848" lon="-1.90366">
        <ele>5</ele>
        <time>2018-03-07T03:05:17Z</time>
      </trkpt>
      <trkpt lat="46.71844" lon="-1.90358">
        <ele>6</ele>
        <time>2018-03-07T03:06:17Z</time>
      </trkpt>
      <trkpt lat="46.71839" lon="-1.90349">
        <ele>6</ele>
        <time>2018-03-07T03:07:17Z</time>
      </trkpt>
      <trkpt lat="46.71839" lon="-1.90349">
        <ele>6</ele>
        <time>2018-03-07T03:08:17Z</time>
      </trkpt>
      <trkpt lat="46.71865" lon="-1.90316">
        <ele>6</ele>
        <time>2018-03-07T03:09:17Z</time>
      </trkpt>
      <trkpt lat="46.71869" lon="-1.90308">
        <ele>6</ele>
        <time>2018-03-07T03:10:17Z</time>
      </trkpt>
      <trkpt lat="46.71872" lon="-1.90301">
        <ele>6</ele>
        <time>2018-03-07T03:11:17Z</time>
      </trkpt>
      <trkpt lat="46.71876" lon="-1.90283">
        <ele>7</ele>
        <time>2018-03-07T03:12:17Z</time>
      </trkpt>
      <trkpt lat="46.71879" lon="-1.90274">
        <ele>7</ele>
        <time>2018-03-07T03:13:17Z</time>
      </trkpt>
      <trkpt lat="46.71883" lon="-1.90267">
        <ele>7</ele>
        <time>2018-03-07T03:14:17Z</time>
      </trkpt>
      <trkpt lat="46.71886" lon="-1.90263">
        <ele>7</ele>
        <time>2018-03-07T03:15:17Z</time>
      </trkpt>
      <trkpt lat="46.7189" lon="-1.9026">
        <ele>7</ele>
        <time>2018-03-07T03:16:17Z</time>
      </trkpt>
      <trkpt lat="46.71896" lon="-1.90256">
        <ele>7</ele>
        <time>2018-03-07T03:17:17Z</time>
      </trkpt>
      <trkpt lat="46.719" lon="-1.90254">
        <ele>7</ele>
        <time>2018-03-07T03:18:17Z</time>
      </trkpt>
      <trkpt lat="46.71914" lon="-1.90248">
        <ele>6</ele>
        <time>2018-03-07T03:19:17Z</time>
      </trkpt>
      <trkpt lat="46.71927" lon="-1.9024">
        <ele>6</ele>
        <time>2018-03-07T03:20:17Z</time>
      </trkpt>
      <trkpt lat="46.71934" lon="-1.90235">
        <ele>6</ele>
        <time>2018-03-07T03:21:17Z</time>
      </trkpt>
      <trkpt lat="46.71941" lon="-1.90227">
        <ele>6</ele>
        <time>2018-03-07T03:22:17Z</time>
      </trkpt>
      <trkpt lat="46.71946" lon="-1.90218">
        <ele>6</ele>
        <time>2018-03-07T03:23:17Z</time>
      </trkpt>
      <trkpt lat="46.71949" lon="-1.90211">
        <ele>6</ele>
        <time>2018-03-07T03:24:17Z</time>
      </trkpt>
      <trkpt lat="46.71953" lon="-1.90203">
        <ele>6</ele>
        <time>2018-03-07T03:25:17Z</time>
      </trkpt>
      <trkpt lat="46.71953" lon="-1.90201">
        <ele>6</ele>
        <time>2018-03-07T03:26:17Z</time>
      </trkpt>
      <trkpt lat="46.71956" lon="-1.90191">
        <ele>6</ele>
        <time>2018-03-07T03:27:17Z</time>
      </trkpt>
      <trkpt lat="46.71958" lon="-1.90176">
        <ele>6</ele>
        <time>2018-03-07T03:28:17Z</time>
      </trkpt>
      <trkpt lat="46.71959" lon="-1.90153">
        <ele>6</ele>
        <time>2018-03-07T03:29:17Z</time>
      </trkpt>
      <trkpt lat="46.71962" lon="-1.90125">
        <ele>6</ele>
        <time>2018-03-07T03:30:17Z</time>
      </trkpt>
      <trkpt lat="46.71965" lon="-1.90106">
        <ele>6</ele>
        <time>2018-03-07T03:31:17Z</time>
      </trkpt>
      <trkpt lat="46.71968" lon="-1.9008">
        <ele>6</ele>
        <time>2018-03-07T03:32:17Z</time>
      </trkpt>
      <trkpt lat="46.71973" lon="-1.90062">
        <ele>6</ele>
        <time>2018-03-07T03:33:17Z</time>
      </trkpt>
      <trkpt lat="46.71979" lon="-1.9005">
        <ele>6</ele>
        <time>2018-03-07T03:34:17Z</time>
      </trkpt>
      <trkpt lat="46.7199" lon="-1.90031">
        <ele>6</ele>
        <time>2018-03-07T03:35:17Z</time>
      </trkpt>
      <trkpt lat="46.72002" lon="-1.90007">
        <ele>6</ele>
        <time>2018-03-07T03:36:17Z</time>
      </trkpt>
      <trkpt lat="46.72013" lon="-1.89987">
        <ele>6</ele>
        <time>2018-03-07T03:37:17Z</time>
      </trkpt>
      <trkpt lat="46.7202" lon="-1.89975">
        <ele>7</ele>
        <time>2018-03-07T03:38:17Z</time>
      </trkpt>
      <trkpt lat="46.72029" lon="-1.8996">
        <ele>7</ele>
        <time>2018-03-07T03:39:17Z</time>
      </trkpt>
      <trkpt lat="46.72037" lon="-1.89948">
        <ele>7</ele>
        <time>2018-03-07T03:40:17Z</time>
      </trkpt>
      <trkpt lat="46.72042" lon="-1.89942">
        <ele>7</ele>
        <time>2018-03-07T03:41:17Z</time>
      </trkpt>
      <trkpt lat="46.72056" lon="-1.8993">
        <ele>7</ele>
        <time>2018-03-07T03:42:17Z</time>
      </trkpt>
      <trkpt lat="46.72084" lon="-1.89908">
        <ele>7</ele>
        <time>2018-03-07T03:43:17Z</time>
      </trkpt>
      <trkpt lat="46.72119" lon="-1.89878">
        <ele>8</ele>
        <time>2018-03-07T03:44:17Z</time>
      </trkpt>
      <trkpt lat="46.72143" lon="-1.89859">
        <ele>9</ele>
        <time>2018-03-07T03:45:17Z</time>
      </trkpt>
      <trkpt lat="46.72178" lon="-1.8983">
        <ele>9</ele>
        <time>2018-03-07T03:46:17Z</time>
      </trkpt>
      <trkpt lat="46.72203" lon="-1.89809">
        <ele>8</ele>
        <time>2018-03-07T03:47:17Z</time>
      </trkpt>
      <trkpt lat="46.72225" lon="-1.89792">
        <ele>7</ele>
        <time>2018-03-07T03:48:17Z</time>
      </trkpt>
      <trkpt lat="46.72253" lon="-1.8977">
        <ele>7</ele>
        <time>2018-03-07T03:49:17Z</time>
      </trkpt>
      <trkpt lat="46.72372" lon="-1.89674">
        <ele>4</ele>
        <time>2018-03-07T03:50:17Z</time>
      </trkpt>
      <trkpt lat="46.72402" lon="-1.89652">
        <ele>3</ele>
        <time>2018-03-07T03:51:17Z</time>
      </trkpt>
      <trkpt lat="46.72424" lon="-1.89628">
        <ele>3</ele>
        <time>2018-03-07T03:52:17Z</time>
      </trkpt>
      <trkpt lat="46.72427" lon="-1.89625">
        <ele>3</ele>
        <time>2018-03-07T03:53:17Z</time>
      </trkpt>
      <trkpt lat="46.72442" lon="-1.89608">
        <ele>3</ele>
        <time>2018-03-07T03:54:17Z</time>
      </trkpt>
      <trkpt lat="46.72455" lon="-1.89591">
        <ele>3</ele>
        <time>2018-03-07T03:55:17Z</time>
      </trkpt>
      <trkpt lat="46.7247" lon="-1.89559">
        <ele>4</ele>
        <time>2018-03-07T03:56:17Z</time>
      </trkpt>
      <trkpt lat="46.72476" lon="-1.89546">
        <ele>4</ele>
        <time>2018-03-07T03:57:17Z</time>
      </trkpt>
      <trkpt lat="46.72476" lon="-1.89545">
        <ele>4</ele>
        <time>2018-03-07T03:58:17Z</time>
      </trkpt>
      <trkpt lat="46.72475" lon="-1.89545">
        <ele>4</ele>
        <time>2018-03-07T03:59:17Z</time>
      </trkpt>
      <trkpt lat="46.72475" lon="-1.89544">
        <ele>4</ele>
        <time>2018-03-07T04:00:17Z</time>
      </trkpt>
      <trkpt lat="46.72475" lon="-1.89543">
        <ele>4</ele>
        <time>2018-03-07T04:01:17Z</time>
      </trkpt>
      <trkpt lat="46.72475" lon="-1.89542">
        <ele>4</ele>
        <time>2018-03-07T04:02:17Z</time>
      </trkpt>
      <trkpt lat="46.72475" lon="-1.89541">
        <ele>4</ele>
        <time>2018-03-07T04:03:17Z</time>
      </trkpt>
      <trkpt lat="46.72476" lon="-1.8954">
        <ele>4</ele>
        <time>2018-03-07T04:04:17Z</time>
      </trkpt>
      <trkpt lat="46.72476" lon="-1.89539">
        <ele>4</ele>
        <time>2018-03-07T04:05:17Z</time>
      </trkpt>
      <trkpt lat="46.72476" lon="-1.89538">
        <ele>4</ele>
        <time>2018-03-07T04:06:17Z</time>
      </trkpt>
      <trkpt lat="46.72476" lon="-1.89537">
        <ele>4</ele>
        <time>2018-03-07T04:07:17Z</time>
      </trkpt>
      <trkpt lat="46.72477" lon="-1.89537">
        <ele>4</ele>
        <time>2018-03-07T04:08:17Z</time>
      </trkpt>
      <trkpt lat="46.72477" lon="-1.89536">
        <ele>4</ele>
        <time>2018-03-07T04:09:17Z</time>
      </trkpt>
      <trkpt lat="46.72478" lon="-1.89536">
        <ele>4</ele>
        <time>2018-03-07T04:10:17Z</time>
      </trkpt>
      <trkpt lat="46.72478" lon="-1.89535">
        <ele>4</ele>
        <time>2018-03-07T04:11:17Z</time>
      </trkpt>
      <trkpt lat="46.72479" lon="-1.89534">
        <ele>4</ele>
        <time>2018-03-07T04:12:17Z</time>
      </trkpt>
      <trkpt lat="46.7248" lon="-1.89534">
        <ele>4</ele>
        <time>2018-03-07T04:13:17Z</time>
      </trkpt>
      <trkpt lat="46.7248" lon="-1.89533">
        <ele>4</ele>
        <time>2018-03-07T04:14:17Z</time>
      </trkpt>
      <trkpt lat="46.72481" lon="-1.89533">
        <ele>4</ele>
        <time>2018-03-07T04:15:17Z</time>
      </trkpt>
      <trkpt lat="46.72482" lon="-1.89533">
        <ele>4</ele>
        <time>2018-03-07T04:16:17Z</time>
      </trkpt>
      <trkpt lat="46.72483" lon="-1.89533">
        <ele>4</ele>
        <time>2018-03-07T04:17:17Z</time>
      </trkpt>
      <trkpt lat="46.72483" lon="-1.89534">
        <ele>4</ele>
        <time>2018-03-07T04:18:17Z</time>
      </trkpt>
      <trkpt lat="46.72484" lon="-1.89534">
        <ele>4</ele>
        <time>2018-03-07T04:19:17Z</time>
      </trkpt>
      <trkpt lat="46.72485" lon="-1.89534">
        <ele>4</ele>
        <time>2018-03-07T04:20:17Z</time>
      </trkpt>
      <trkpt lat="46.72495" lon="-1.89523">
        <ele>4</ele>
        <time>2018-03-07T04:21:17Z</time>
      </trkpt>
      <trkpt lat="46.72505" lon="-1.89518">
        <ele>4</ele>
        <time>2018-03-07T04:22:17Z</time>
      </trkpt>
      <trkpt lat="46.72523" lon="-1.89491">
        <ele>4</ele>
        <time>2018-03-07T04:23:17Z</time>
      </trkpt>
      <trkpt lat="46.72526" lon="-1.89486">
        <ele>4</ele>
        <time>2018-03-07T04:24:17Z</time>
      </trkpt>
      <trkpt lat="46.72545" lon="-1.89447">
        <ele>4</ele>
        <time>2018-03-07T04:25:17Z</time>
      </trkpt>
      <trkpt lat="46.72554" lon="-1.89428">
        <ele>4</ele>
        <time>2018-03-07T04:26:17Z</time>
      </trkpt>
      <trkpt lat="46.72555" lon="-1.89417">
        <ele>4</ele>
        <time>2018-03-07T04:27:17Z</time>
      </trkpt>
      <trkpt lat="46.72569" lon="-1.89371">
        <ele>5</ele>
        <time>2018-03-07T04:28:17Z</time>
      </trkpt>
      <trkpt lat="46.72573" lon="-1.89367">
        <ele>5</ele>
        <time>2018-03-07T04:29:17Z</time>
      </trkpt>
      <trkpt lat="46.72578" lon="-1.89344">
        <ele>5</ele>
        <time>2018-03-07T04:30:17Z</time>
      </trkpt>
      <trkpt lat="46.72586" lon="-1.89297">
        <ele>5</ele>
        <time>2018-03-07T04:31:17Z</time>
      </trkpt>
      <trkpt lat="46.72595" lon="-1.89253">
        <ele>5</ele>
        <time>2018-03-07T04:32:17Z</time>
      </trkpt>
      <trkpt lat="46.72603" lon="-1.89203">
        <ele>6</ele>
        <time>2018-03-07T04:33:17Z</time>
      </trkpt>
      <trkpt lat="46.72611" lon="-1.89151">
        <ele>6</ele>
        <time>2018-03-07T04:34:17Z</time>
      </trkpt>
      <trkpt lat="46.72615" lon="-1.89119">
        <ele>6</ele>
        <time>2018-03-07T04:35:17Z</time>
      </trkpt>
      <trkpt lat="46.72624" lon="-1.89045">
        <ele>6</ele>
        <time>2018-03-07T04:36:17Z</time>
      </trkpt>
      <trkpt lat="46.72634" lon="-1.88962">
        <ele>6</ele>
        <time>2018-03-07T04:37:17Z</time>
      </trkpt>
      <trkpt lat="46.72641" lon="-1.88904">
        <ele>6</ele>
        <time>2018-03-07T04:38:17Z</time>
      </trkpt>
      <trkpt lat="46.7265" lon="-1.88821">
        <ele>6</ele>
        <time>2018-03-07T04:39:17Z</time>
      </trkpt>
      <trkpt lat="46.72657" lon="-1.88762">
        <ele>6</ele>
        <time>2018-03-07T04:40:17Z</time>
      </trkpt>
      <trkpt lat="46.72667" lon="-1.88649">
        <ele>6</ele>
        <time>2018-03-07T04:41:17Z</time>
      </trkpt>
      <trkpt lat="46.72669" lon="-1.88627">
        <ele>5</ele>
        <time>2018-03-07T04:42:17Z</time>
      </trkpt>
      <trkpt lat="46.72673" lon="-1.88584">
        <ele>5</ele>
        <time>2018-03-07T04:43:17Z</time>
      </trkpt>
      <trkpt lat="46.72678" lon="-1.88523">
        <ele>4</ele>
        <time>2018-03-07T04:44:17Z</time>
      </trkpt>
      <trkpt lat="46.72682" lon="-1.88474">
        <ele>4</ele>
        <time>2018-03-07T04:45:17Z</time>
      </trkpt>
      <trkpt lat="46.72686" lon="-1.88428">
        <ele>5</ele>
        <time>2018-03-07T04:46:17Z</time>
      </trkpt>
      <trkpt lat="46.72687" lon="-1.88419">
        <ele>5</ele>
        <time>2018-03-07T04:47:17Z</time>
      </trkpt>
      <trkpt lat="46.72688" lon="-1.88414">
        <ele>5</ele>
        <time>2018-03-07T04:48:17Z</time>
      </trkpt>
      <trkpt lat="46.72689" lon="-1.88405">
        <ele>5</ele>
        <time>2018-03-07T04:49:17Z</time>
      </trkpt>
      <trkpt lat="46.72694" lon="-1.88384">
        <ele>5</ele>
        <time>2018-03-07T04:50:17Z</time>
      </trkpt>
      <trkpt lat="46.72701" lon="-1.88354">
        <ele>5</ele>
        <time>2018-03-07T04:51:17Z</time>
      </trkpt>
      <trkpt lat="46.72708" lon="-1.88329">
        <ele>5</ele>
        <time>2018-03-07T04:52:17Z</time>
      </trkpt>
      <trkpt lat="46.72718" lon="-1.88298">
        <ele>6</ele>
        <time>2018-03-07T04:53:17Z</time>
      </trkpt>
      <trkpt lat="46.72729" lon="-1.88265">
        <ele>7</ele>
        <time>2018-03-07T04:54:17Z</time>
      </trkpt>
      <trkpt lat="46.72743" lon="-1.88234">
        <ele>8</ele>
        <time>2018-03-07T04:55:17Z</time>
      </trkpt>
      <trkpt lat="46.72753" lon="-1.88214">
        <ele>8</ele>
        <time>2018-03-07T04:56:17Z</time>
      </trkpt>
      <trkpt lat="46.72758" lon="-1.88205">
        <ele>8</ele>
        <time>2018-03-07T04:57:17Z</time>
      </trkpt>
      <trkpt lat="46.72774" lon="-1.88175">
        <ele>9</ele>
        <time>2018-03-07T04:58:17Z</time>
      </trkpt>
      <trkpt lat="46.7278" lon="-1.88165">
        <ele>9</ele>
        <time>2018-03-07T04:59:17Z</time>
      </trkpt>
      <trkpt lat="46.72797" lon="-1.88139">
        <ele>10</ele>
        <time>2018-03-07T05:00:17Z</time>
      </trkpt>
      <trkpt lat="46.72822" lon="-1.88105">
        <ele>12</ele>
        <time>2018-03-07T05:01:17Z</time>
      </trkpt>
      <trkpt lat="46.72845" lon="-1.88074">
        <ele>12</ele>
        <time>2018-03-07T05:02:17Z</time>
      </trkpt>
      <trkpt lat="46.72857" lon="-1.88056">
        <ele>12</ele>
        <time>2018-03-07T05:03:17Z</time>
      </trkpt>
      <trkpt lat="46.72877" lon="-1.88029">
        <ele>12</ele>
        <time>2018-03-07T05:04:17Z</time>
      </trkpt>
      <trkpt lat="46.72901" lon="-1.87996">
        <ele>12</ele>
        <time>2018-03-07T05:05:17Z</time>
      </trkpt>
      <trkpt lat="46.72903" lon="-1.87993">
        <ele>12</ele>
        <time>2018-03-07T05:06:17Z</time>
      </trkpt>
      <trkpt lat="46.72915" lon="-1.87978">
        <ele>12</ele>
        <time>2018-03-07T05:07:17Z</time>
      </trkpt>
      <trkpt lat="46.72931" lon="-1.87954">
        <ele>12</ele>
        <time>2018-03-07T05:08:17Z</time>
      </trkpt>
      <trkpt lat="46.72942" lon="-1.87939">
        <ele>12</ele>
        <time>2018-03-07T05:09:17Z</time>
      </trkpt>
      <trkpt lat="46.72957" lon="-1.87915">
        <ele>12</ele>
        <time>2018-03-07T05:10:17Z</time>
      </trkpt>
      <trkpt lat="46.72971" lon="-1.8789">
        <ele>11</ele>
        <time>2018-03-07T05:11:17Z</time>
      </trkpt>
      <trkpt lat="46.72982" lon="-1.87863">
        <ele>11</ele>
        <time>2018-03-07T05:12:17Z</time>
      </trkpt>
      <trkpt lat="46.7299" lon="-1.87843">
        <ele>11</ele>
        <time>2018-03-07T05:13:17Z</time>
      </trkpt>
      <trkpt lat="46.73" lon="-1.87814">
        <ele>11</ele>
        <time>2018-03-07T05:14:17Z</time>
      </trkpt>
      <trkpt lat="46.73003" lon="-1.87797">
        <ele>11</ele>
        <time>2018-03-07T05:15:17Z</time>
      </trkpt>
      <trkpt lat="46.73005" lon="-1.87792">
        <ele>11</ele>
        <time>2018-03-07T05:16:17Z</time>
      </trkpt>
      <trkpt lat="46.7301" lon="-1.87775">
        <ele>11</ele>
        <time>2018-03-07T05:17:17Z</time>
      </trkpt>
      <trkpt lat="46.73032" lon="-1.87707">
        <ele>11</ele>
        <time>2018-03-07T05:18:17Z</time>
      </trkpt>
      <trkpt lat="46.73037" lon="-1.8769">
        <ele>11</ele>
        <time>2018-03-07T05:19:17Z</time>
      </trkpt>
      <trkpt lat="46.7305" lon="-1.87651">
        <ele>11</ele>
        <time>2018-03-07T05:20:17Z</time>
      </trkpt>
      <trkpt lat="46.73054" lon="-1.87646">
        <ele>11</ele>
        <time>2018-03-07T05:21:17Z</time>
      </trkpt>
      <trkpt lat="46.73065" lon="-1.87612">
        <ele>11</ele>
        <time>2018-03-07T05:22:17Z</time>
      </trkpt>
      <trkpt lat="46.73069" lon="-1.87597">
        <ele>11</ele>
        <time>2018-03-07T05:23:17Z</time>
      </trkpt>
      <trkpt lat="46.73071" lon="-1.87591">
        <ele>11</ele>
        <time>2018-03-07T05:24:17Z</time>
      </trkpt>
      <trkpt lat="46.73084" lon="-1.87547">
        <ele>11</ele>
        <time>2018-03-07T05:25:17Z</time>
      </trkpt>
      <trkpt lat="46.73092" lon="-1.87524">
        <ele>11</ele>
        <time>2018-03-07T05:26:17Z</time>
      </trkpt>
      <trkpt lat="46.73132" lon="-1.87393">
        <ele>12</ele>
        <time>2018-03-07T05:27:17Z</time>
      </trkpt>
      <trkpt lat="46.73159" lon="-1.87307">
        <ele>12</ele>
        <time>2018-03-07T05:28:17Z</time>
      </trkpt>
      <trkpt lat="46.73176" lon="-1.87254">
        <ele>12</ele>
        <time>2018-03-07T05:29:17Z</time>
      </trkpt>
      <trkpt lat="46.73179" lon="-1.87237">
        <ele>12</ele>
        <time>2018-03-07T05:30:17Z</time>
      </trkpt>
      <trkpt lat="46.7318" lon="-1.8723">
        <ele>12</ele>
        <time>2018-03-07T05:31:17Z</time>
      </trkpt>
      <trkpt lat="46.73181" lon="-1.87222">
        <ele>12</ele>
        <time>2018-03-07T05:32:17Z</time>
      </trkpt>
      <trkpt lat="46.73183" lon="-1.87214">
        <ele>12</ele>
        <time>2018-03-07T05:33:17Z</time>
      </trkpt>
      <trkpt lat="46.73183" lon="-1.87205">
        <ele>12</ele>
        <time>2018-03-07T05:34:17Z</time>
      </trkpt>
      <trkpt lat="46.73184" lon="-1.87191">
        <ele>12</ele>
        <time>2018-03-07T05:35:17Z</time>
      </trkpt>
      <trkpt lat="46.73184" lon="-1.87191">
        <ele>12</ele>
        <time>2018-03-07T05:36:17Z</time>
      </trkpt>
      <trkpt lat="46.73183" lon="-1.8719">
        <ele>12</ele>
        <time>2018-03-07T05:37:17Z</time>
      </trkpt>
      <trkpt lat="46.73182" lon="-1.87188">
        <ele>12</ele>
        <time>2018-03-07T05:38:17Z</time>
      </trkpt>
      <trkpt lat="46.73181" lon="-1.87186">
        <ele>12</ele>
        <time>2018-03-07T05:39:17Z</time>
      </trkpt>
      <trkpt lat="46.7318" lon="-1.87184">
        <ele>12</ele>
        <time>2018-03-07T05:40:17Z</time>
      </trkpt>
      <trkpt lat="46.7318" lon="-1.87182">
        <ele>12</ele>
        <time>2018-03-07T05:41:17Z</time>
      </trkpt>
      <trkpt lat="46.73179" lon="-1.8718">
        <ele>12</ele>
        <time>2018-03-07T05:42:17Z</time>
      </trkpt>
      <trkpt lat="46.73179" lon="-1.87178">
        <ele>12</ele>
        <time>2018-03-07T05:43:17Z</time>
      </trkpt>
      <trkpt lat="46.73178" lon="-1.87175">
        <ele>13</ele>
        <time>2018-03-07T05:44:17Z</time>
      </trkpt>
      <trkpt lat="46.73178" lon="-1.87172">
        <ele>13</ele>
        <time>2018-03-07T05:45:17Z</time>
      </trkpt>
      <trkpt lat="46.73178" lon="-1.87169">
        <ele>13</ele>
        <time>2018-03-07T05:46:17Z</time>
      </trkpt>
      <trkpt lat="46.73179" lon="-1.87166">
        <ele>13</ele>
        <time>2018-03-07T05:47:17Z</time>
      </trkpt>
      <trkpt lat="46.73179" lon="-1.87163">
        <ele>12</ele>
        <time>2018-03-07T05:48:17Z</time>
      </trkpt>
      <trkpt lat="46.7318" lon="-1.8716">
        <ele>12</ele>
        <time>2018-03-07T05:49:17Z</time>
      </trkpt>
      <trkpt lat="46.7318" lon="-1.87158">
        <ele>12</ele>
        <time>2018-03-07T05:50:17Z</time>
      </trkpt>
      <trkpt lat="46.73181" lon="-1.87155">
        <ele>12</ele>
        <time>2018-03-07T05:51:17Z</time>
      </trkpt>
      <trkpt lat="46.73182" lon="-1.87152">
        <ele>12</ele>
        <time>2018-03-07T05:52:17Z</time>
      </trkpt>
      <trkpt lat="46.73184" lon="-1.8715">
        <ele>12</ele>
        <time>2018-03-07T05:53:17Z</time>
      </trkpt>
      <trkpt lat="46.73186" lon="-1.87148">
        <ele>12</ele>
        <time>2018-03-07T05:54:17Z</time>
      </trkpt>
      <trkpt lat="46.73187" lon="-1.87148">
        <ele>12</ele>
        <time>2018-03-07T05:55:17Z</time>
      </trkpt>
      <trkpt lat="46.73188" lon="-1.87147">
        <ele>12</ele>
        <time>2018-03-07T05:56:17Z</time>
      </trkpt>
      <trkpt lat="46.73189" lon="-1.87146">
        <ele>12</ele>
        <time>2018-03-07T05:57:17Z</time>
      </trkpt>
      <trkpt lat="46.7319" lon="-1.87145">
        <ele>12</ele>
        <time>2018-03-07T05:58:17Z</time>
      </trkpt>
      <trkpt lat="46.73191" lon="-1.87145">
        <ele>12</ele>
        <time>2018-03-07T05:59:17Z</time>
      </trkpt>
      <trkpt lat="46.73192" lon="-1.87144">
        <ele>12</ele>
        <time>2018-03-07T06:00:17Z</time>
      </trkpt>
      <trkpt lat="46.73194" lon="-1.87144">
        <ele>12</ele>
        <time>2018-03-07T06:01:17Z</time>
      </trkpt>
      <trkpt lat="46.73195" lon="-1.87144">
        <ele>12</ele>
        <time>2018-03-07T06:02:17Z</time>
      </trkpt>
      <trkpt lat="46.73199" lon="-1.87141">
        <ele>11</ele>
        <time>2018-03-07T06:03:17Z</time>
      </trkpt>
      <trkpt lat="46.73203" lon="-1.87137">
        <ele>11</ele>
        <time>2018-03-07T06:04:17Z</time>
      </trkpt>
      <trkpt lat="46.73205" lon="-1.87132">
        <ele>11</ele>
        <time>2018-03-07T06:05:17Z</time>
      </trkpt>
      <trkpt lat="46.73208" lon="-1.87126">
        <ele>11</ele>
        <time>2018-03-07T06:06:17Z</time>
      </trkpt>
      <trkpt lat="46.73209" lon="-1.8712">
        <ele>11</ele>
        <time>2018-03-07T06:07:17Z</time>
      </trkpt>
      <trkpt lat="46.73211" lon="-1.87109">
        <ele>11</ele>
        <time>2018-03-07T06:08:17Z</time>
      </trkpt>
      <trkpt lat="46.7321" lon="-1.871">
        <ele>11</ele>
        <time>2018-03-07T06:09:17Z</time>
      </trkpt>
      <trkpt lat="46.73208" lon="-1.87069">
        <ele>10</ele>
        <time>2018-03-07T06:10:17Z</time>
      </trkpt>
      <trkpt lat="46.73206" lon="-1.87034">
        <ele>10</ele>
        <time>2018-03-07T06:11:17Z</time>
      </trkpt>
      <trkpt lat="46.73204" lon="-1.87006">
        <ele>10</ele>
        <time>2018-03-07T06:12:17Z</time>
      </trkpt>
      <trkpt lat="46.73203" lon="-1.86984">
        <ele>9</ele>
        <time>2018-03-07T06:13:17Z</time>
      </trkpt>
      <trkpt lat="46.73202" lon="-1.86972">
        <ele>9</ele>
        <time>2018-03-07T06:14:17Z</time>
      </trkpt>
      <trkpt lat="46.73198" lon="-1.86945">
        <ele>8</ele>
        <time>2018-03-07T06:15:17Z</time>
      </trkpt>
      <trkpt lat="46.73191" lon="-1.86902">
        <ele>8</ele>
        <time>2018-03-07T06:16:17Z</time>
      </trkpt>
      <trkpt lat="46.7318" lon="-1.86831">
        <ele>7</ele>
        <time>2018-03-07T06:17:17Z</time>
      </trkpt>
      <trkpt lat="46.73167" lon="-1.86748">
        <ele>6</ele>
        <time>2018-03-07T06:18:17Z</time>
      </trkpt>
      <trkpt lat="46.73162" lon="-1.86716">
        <ele>7</ele>
        <time>2018-03-07T06:19:17Z</time>
      </trkpt>
      <trkpt lat="46.73154" lon="-1.86672">
        <ele>8</ele>
        <time>2018-03-07T06:20:17Z</time>
      </trkpt>
      <trkpt lat="46.73145" lon="-1.86608">
        <ele>10</ele>
        <time>2018-03-07T06:21:17Z</time>
      </trkpt>
      <trkpt lat="46.73139" lon="-1.86573">
        <ele>11</ele>
        <time>2018-03-07T06:22:17Z</time>
      </trkpt>
      <trkpt lat="46.73136" lon="-1.86555">
        <ele>11</ele>
        <time>2018-03-07T06:23:17Z</time>
      </trkpt>
      <trkpt lat="46.73135" lon="-1.86543">
        <ele>11</ele>
        <time>2018-03-07T06:24:17Z</time>
      </trkpt>
      <trkpt lat="46.73133" lon="-1.86528">
        <ele>11</ele>
        <time>2018-03-07T06:25:17Z</time>
      </trkpt>
      <trkpt lat="46.73133" lon="-1.8651">
        <ele>10</ele>
        <time>2018-03-07T06:26:17Z</time>
      </trkpt>
      <trkpt lat="46.73133" lon="-1.86486">
        <ele>10</ele>
        <time>2018-03-07T06:27:17Z</time>
      </trkpt>
      <trkpt lat="46.73133" lon="-1.86467">
        <ele>10</ele>
        <time>2018-03-07T06:28:17Z</time>
      </trkpt>
      <trkpt lat="46.73134" lon="-1.86386">
        <ele>9</ele>
        <time>2018-03-07T06:29:17Z</time>
      </trkpt>
      <trkpt lat="46.73136" lon="-1.86309">
        <ele>10</ele>
        <time>2018-03-07T06:30:17Z</time>
      </trkpt>
      <trkpt lat="46.73137" lon="-1.86284">
        <ele>10</ele>
        <time>2018-03-07T06:31:17Z</time>
      </trkpt>
      <trkpt lat="46.7314" lon="-1.86155">
        <ele>11</ele>
        <time>2018-03-07T06:32:17Z</time>
      </trkpt>
      <trkpt lat="46.73141" lon="-1.86123">
        <ele>11</ele>
        <time>2018-03-07T06:33:17Z</time>
      </trkpt>
      <trkpt lat="46.73142" lon="-1.86101">
        <ele>11</ele>
        <time>2018-03-07T06:34:17Z</time>
      </trkpt>
      <trkpt lat="46.73142" lon="-1.86074">
        <ele>11</ele>
        <time>2018-03-07T06:35:17Z</time>
      </trkpt>
      <trkpt lat="46.73142" lon="-1.86052">
        <ele>11</ele>
        <time>2018-03-07T06:36:17Z</time>
      </trkpt>
      <trkpt lat="46.73141" lon="-1.8603">
        <ele>11</ele>
        <time>2018-03-07T06:37:17Z</time>
      </trkpt>
      <trkpt lat="46.73139" lon="-1.86009">
        <ele>11</ele>
        <time>2018-03-07T06:38:17Z</time>
      </trkpt>
      <trkpt lat="46.73136" lon="-1.85988">
        <ele>11</ele>
        <time>2018-03-07T06:39:17Z</time>
      </trkpt>
      <trkpt lat="46.73131" lon="-1.85958">
        <ele>10</ele>
        <time>2018-03-07T06:40:17Z</time>
      </trkpt>
      <trkpt lat="46.73119" lon="-1.85908">
        <ele>10</ele>
        <time>2018-03-07T06:41:17Z</time>
      </trkpt>
      <trkpt lat="46.73101" lon="-1.85837">
        <ele>10</ele>
        <time>2018-03-07T06:42:17Z</time>
      </trkpt>
      <trkpt lat="46.7309" lon="-1.85791">
        <ele>11</ele>
        <time>2018-03-07T06:43:17Z</time>
      </trkpt>
      <trkpt lat="46.73087" lon="-1.85769">
        <ele>12</ele>
        <time>2018-03-07T06:44:17Z</time>
      </trkpt>
      <trkpt lat="46.73084" lon="-1.85756">
        <ele>12</ele>
        <time>2018-03-07T06:45:17Z</time>
      </trkpt>
      <trkpt lat="46.73081" lon="-1.85738">
        <ele>12</ele>
        <time>2018-03-07T06:46:17Z</time>
      </trkpt>
      <trkpt lat="46.73079" lon="-1.85723">
        <ele>12</ele>
        <time>2018-03-07T06:47:17Z</time>
      </trkpt>
      <trkpt lat="46.73075" lon="-1.85694">
        <ele>12</ele>
        <time>2018-03-07T06:48:17Z</time>
      </trkpt>
      <trkpt lat="46.73071" lon="-1.85665">
        <ele>11</ele>
        <time>2018-03-07T06:49:17Z</time>
      </trkpt>
      <trkpt lat="46.73067" lon="-1.85628">
        <ele>12</ele>
        <time>2018-03-07T06:50:17Z</time>
      </trkpt>
      <trkpt lat="46.73061" lon="-1.85588">
        <ele>12</ele>
        <time>2018-03-07T06:51:17Z</time>
      </trkpt>
      <trkpt lat="46.7306" lon="-1.85579">
        <ele>12</ele>
        <time>2018-03-07T06:52:17Z</time>
      </trkpt>
      <trkpt lat="46.73056" lon="-1.85546">
        <ele>12</ele>
        <time>2018-03-07T06:53:17Z</time>
      </trkpt>
      <trkpt lat="46.73055" lon="-1.85538">
        <ele>12</ele>
        <time>2018-03-07T06:54:17Z</time>
      </trkpt>
      <trkpt lat="46.73053" lon="-1.85515">
        <ele>12</ele>
        <time>2018-03-07T06:55:17Z</time>
      </trkpt>
      <trkpt lat="46.73051" lon="-1.85501">
        <ele>12</ele>
        <time>2018-03-07T06:56:17Z</time>
      </trkpt>
      <trkpt lat="46.73051" lon="-1.85486">
        <ele>12</ele>
        <time>2018-03-07T06:57:17Z</time>
      </trkpt>
      <trkpt lat="46.7305" lon="-1.85471">
        <ele>12</ele>
        <time>2018-03-07T06:58:17Z</time>
      </trkpt>
      <trkpt lat="46.73051" lon="-1.85456">
        <ele>12</ele>
        <time>2018-03-07T06:59:17Z</time>
      </trkpt>
      <trkpt lat="46.73051" lon="-1.85439">
        <ele>11</ele>
        <time>2018-03-07T07:00:17Z</time>
      </trkpt>
      <trkpt lat="46.73053" lon="-1.85427">
        <ele>11</ele>
        <time>2018-03-07T07:01:17Z</time>
      </trkpt>
      <trkpt lat="46.73054" lon="-1.85413">
        <ele>11</ele>
        <time>2018-03-07T07:02:17Z</time>
      </trkpt>
      <trkpt lat="46.73056" lon="-1.85399">
        <ele>11</ele>
        <time>2018-03-07T07:03:17Z</time>
      </trkpt>
      <trkpt lat="46.73059" lon="-1.85384">
        <ele>11</ele>
        <time>2018-03-07T07:04:17Z</time>
      </trkpt>
      <trkpt lat="46.73066" lon="-1.85362">
        <ele>11</ele>
        <time>2018-03-07T07:05:17Z</time>
      </trkpt>
      <trkpt lat="46.73076" lon="-1.85329">
        <ele>11</ele>
        <time>2018-03-07T07:06:17Z</time>
      </trkpt>
      <trkpt lat="46.73094" lon="-1.8528">
        <ele>13</ele>
        <time>2018-03-07T07:07:17Z</time>
      </trkpt>
      <trkpt lat="46.73106" lon="-1.85246">
        <ele>14</ele>
        <time>2018-03-07T07:08:17Z</time>
      </trkpt>
      <trkpt lat="46.73125" lon="-1.85192">
        <ele>17</ele>
        <time>2018-03-07T07:09:17Z</time>
      </trkpt>
      <trkpt lat="46.73153" lon="-1.85112">
        <ele>18</ele>
        <time>2018-03-07T07:10:17Z</time>
      </trkpt>
      <trkpt lat="46.73165" lon="-1.85077">
        <ele>18</ele>
        <time>2018-03-07T07:11:17Z</time>
      </trkpt>
      <trkpt lat="46.73182" lon="-1.85028">
        <ele>19</ele>
        <time>2018-03-07T07:12:17Z</time>
      </trkpt>
      <trkpt lat="46.73206" lon="-1.8496">
        <ele>19</ele>
        <time>2018-03-07T07:13:17Z</time>
      </trkpt>
      <trkpt lat="46.73232" lon="-1.84885">
        <ele>20</ele>
        <time>2018-03-07T07:14:17Z</time>
      </trkpt>
      <trkpt lat="46.73257" lon="-1.84813">
        <ele>20</ele>
        <time>2018-03-07T07:15:17Z</time>
      </trkpt>
      <trkpt lat="46.73281" lon="-1.84742">
        <ele>19</ele>
        <time>2018-03-07T07:16:17Z</time>
      </trkpt>
      <trkpt lat="46.7329" lon="-1.84716">
        <ele>19</ele>
        <time>2018-03-07T07:17:17Z</time>
      </trkpt>
      <trkpt lat="46.73296" lon="-1.84697">
        <ele>20</ele>
        <time>2018-03-07T07:18:17Z</time>
      </trkpt>
      <trkpt lat="46.73301" lon="-1.84673">
        <ele>20</ele>
        <time>2018-03-07T07:19:17Z</time>
      </trkpt>
      <trkpt lat="46.73306" lon="-1.84653">
        <ele>20</ele>
        <time>2018-03-07T07:20:17Z</time>
      </trkpt>
      <trkpt lat="46.73311" lon="-1.84629">
        <ele>21</ele>
        <time>2018-03-07T07:21:17Z</time>
      </trkpt>
      <trkpt lat="46.73324" lon="-1.84555">
        <ele>21</ele>
        <time>2018-03-07T07:22:17Z</time>
      </trkpt>
      <trkpt lat="46.73337" lon="-1.84483">
        <ele>20</ele>
        <time>2018-03-07T07:23:17Z</time>
      </trkpt>
      <trkpt lat="46.73346" lon="-1.84431">
        <ele>19</ele>
        <time>2018-03-07T07:24:17Z</time>
      </trkpt>
      <trkpt lat="46.73351" lon="-1.84399">
        <ele>19</ele>
        <time>2018-03-07T07:25:17Z</time>
      </trkpt>
      <trkpt lat="46.73356" lon="-1.84369">
        <ele>20</ele>
        <time>2018-03-07T07:26:17Z</time>
      </trkpt>
      <trkpt lat="46.73358" lon="-1.84353">
        <ele>20</ele>
        <time>2018-03-07T07:27:17Z</time>
      </trkpt>
      <trkpt lat="46.7336" lon="-1.84337">
        <ele>20</ele>
        <time>2018-03-07T07:28:17Z</time>
      </trkpt>
      <trkpt lat="46.73362" lon="-1.84325">
        <ele>20</ele>
        <time>2018-03-07T07:29:17Z</time>
      </trkpt>
      <trkpt lat="46.73362" lon="-1.8431">
        <ele>20</ele>
        <time>2018-03-07T07:30:17Z</time>
      </trkpt>
      <trkpt lat="46.73363" lon="-1.84294">
        <ele>20</ele>
        <time>2018-03-07T07:31:17Z</time>
      </trkpt>
      <trkpt lat="46.73363" lon="-1.8428">
        <ele>21</ele>
        <time>2018-03-07T07:32:17Z</time>
      </trkpt>
      <trkpt lat="46.73363" lon="-1.84257">
        <ele>21</ele>
        <time>2018-03-07T07:33:17Z</time>
      </trkpt>
      <trkpt lat="46.73363" lon="-1.84237">
        <ele>21</ele>
        <time>2018-03-07T07:34:17Z</time>
      </trkpt>
      <trkpt lat="46.73363" lon="-1.84201">
        <ele>21</ele>
        <time>2018-03-07T07:35:17Z</time>
      </trkpt>
      <trkpt lat="46.73362" lon="-1.84127">
        <ele>21</ele>
        <time>2018-03-07T07:36:17Z</time>
      </trkpt>
      <trkpt lat="46.73361" lon="-1.84068">
        <ele>21</ele>
        <time>2018-03-07T07:37:17Z</time>
      </trkpt>
      <trkpt lat="46.7336" lon="-1.83992">
        <ele>20</ele>
        <time>2018-03-07T07:38:17Z</time>
      </trkpt>
      <trkpt lat="46.73359" lon="-1.83933">
        <ele>20</ele>
        <time>2018-03-07T07:39:17Z</time>
      </trkpt>
      <trkpt lat="46.73359" lon="-1.8389">
        <ele>20</ele>
        <time>2018-03-07T07:40:17Z</time>
      </trkpt>
      <trkpt lat="46.7336" lon="-1.83867">
        <ele>20</ele>
        <time>2018-03-07T07:41:17Z</time>
      </trkpt>
      <trkpt lat="46.73361" lon="-1.83842">
        <ele>20</ele>
        <time>2018-03-07T07:42:17Z</time>
      </trkpt>
      <trkpt lat="46.73364" lon="-1.83811">
        <ele>20</ele>
        <time>2018-03-07T07:43:17Z</time>
      </trkpt>
      <trkpt lat="46.73368" lon="-1.83778">
        <ele>20</ele>
        <time>2018-03-07T07:44:17Z</time>
      </trkpt>
      <trkpt lat="46.73374" lon="-1.83726">
        <ele>20</ele>
        <time>2018-03-07T07:45:17Z</time>
      </trkpt>
      <trkpt lat="46.73375" lon="-1.8372">
        <ele>20</ele>
        <time>2018-03-07T07:46:17Z</time>
      </trkpt>
      <trkpt lat="46.73382" lon="-1.83667">
        <ele>21</ele>
        <time>2018-03-07T07:47:17Z</time>
      </trkpt>
      <trkpt lat="46.73387" lon="-1.83626">
        <ele>21</ele>
        <time>2018-03-07T07:48:17Z</time>
      </trkpt>
      <trkpt lat="46.73388" lon="-1.83618">
        <ele>21</ele>
        <time>2018-03-07T07:49:17Z</time>
      </trkpt>
      <trkpt lat="46.73391" lon="-1.83596">
        <ele>21</ele>
        <time>2018-03-07T07:50:17Z</time>
      </trkpt>
      <trkpt lat="46.73391" lon="-1.83594">
        <ele>21</ele>
        <time>2018-03-07T07:51:17Z</time>
      </trkpt>
      <trkpt lat="46.73395" lon="-1.83571">
        <ele>21</ele>
        <time>2018-03-07T07:52:17Z</time>
      </trkpt>
      <trkpt lat="46.73398" lon="-1.83555">
        <ele>21</ele>
        <time>2018-03-07T07:53:17Z</time>
      </trkpt>
      <trkpt lat="46.73404" lon="-1.83535">
        <ele>22</ele>
        <time>2018-03-07T07:54:17Z</time>
      </trkpt>
      <trkpt lat="46.73408" lon="-1.83521">
        <ele>22</ele>
        <time>2018-03-07T07:55:17Z</time>
      </trkpt>
      <trkpt lat="46.73413" lon="-1.83508">
        <ele>22</ele>
        <time>2018-03-07T07:56:17Z</time>
      </trkpt>
      <trkpt lat="46.73419" lon="-1.83496">
        <ele>22</ele>
        <time>2018-03-07T07:57:17Z</time>
      </trkpt>
      <trkpt lat="46.73422" lon="-1.83491">
        <ele>22</ele>
        <time>2018-03-07T07:58:17Z</time>
      </trkpt>
      <trkpt lat="46.73428" lon="-1.83479">
        <ele>22</ele>
        <time>2018-03-07T07:59:17Z</time>
      </trkpt>
      <trkpt lat="46.73438" lon="-1.83464">
        <ele>22</ele>
        <time>2018-03-07T08:00:17Z</time>
      </trkpt>
      <trkpt lat="46.73451" lon="-1.83447">
        <ele>22</ele>
        <time>2018-03-07T08:01:17Z</time>
      </trkpt>
      <trkpt lat="46.73478" lon="-1.83413">
        <ele>22</ele>
        <time>2018-03-07T08:02:17Z</time>
      </trkpt>
      <trkpt lat="46.73522" lon="-1.83358">
        <ele>21</ele>
        <time>2018-03-07T08:03:17Z</time>
      </trkpt>
      <trkpt lat="46.73532" lon="-1.83342">
        <ele>21</ele>
        <time>2018-03-07T08:04:17Z</time>
      </trkpt>
      <trkpt lat="46.7354" lon="-1.83328">
        <ele>21</ele>
        <time>2018-03-07T08:05:17Z</time>
      </trkpt>
      <trkpt lat="46.73548" lon="-1.83311">
        <ele>21</ele>
        <time>2018-03-07T08:06:17Z</time>
      </trkpt>
      <trkpt lat="46.73554" lon="-1.83296">
        <ele>21</ele>
        <time>2018-03-07T08:07:17Z</time>
      </trkpt>
      <trkpt lat="46.73559" lon="-1.83282">
        <ele>21</ele>
        <time>2018-03-07T08:08:17Z</time>
      </trkpt>
      <trkpt lat="46.7356" lon="-1.83276">
        <ele>21</ele>
        <time>2018-03-07T08:09:17Z</time>
      </trkpt>
      <trkpt lat="46.73563" lon="-1.83266">
        <ele>21</ele>
        <time>2018-03-07T08:10:17Z</time>
      </trkpt>
      <trkpt lat="46.73568" lon="-1.83245">
        <ele>21</ele>
        <time>2018-03-07T08:11:17Z</time>
      </trkpt>
      <trkpt lat="46.73578" lon="-1.83204">
        <ele>20</ele>
        <time>2018-03-07T08:12:17Z</time>
      </trkpt>
      <trkpt lat="46.73579" lon="-1.83201">
        <ele>20</ele>
        <time>2018-03-07T08:13:17Z</time>
      </trkpt>
      <trkpt lat="46.73586" lon="-1.83173">
        <ele>20</ele>
        <time>2018-03-07T08:14:17Z</time>
      </trkpt>
      <trkpt lat="46.73591" lon="-1.83152">
        <ele>20</ele>
        <time>2018-03-07T08:15:17Z</time>
      </trkpt>
      <trkpt lat="46.73594" lon="-1.83142">
        <ele>20</ele>
        <time>2018-03-07T08:16:17Z</time>
      </trkpt>
      <trkpt lat="46.73597" lon="-1.8313">
        <ele>20</ele>
        <time>2018-03-07T08:17:17Z</time>
      </trkpt>
      <trkpt lat="46.73603" lon="-1.83115">
        <ele>20</ele>
        <time>2018-03-07T08:18:17Z</time>
      </trkpt>
      <trkpt lat="46.73608" lon="-1.83101">
        <ele>20</ele>
        <time>2018-03-07T08:19:17Z</time>
      </trkpt>
      <trkpt lat="46.7361" lon="-1.83097">
        <ele>20</ele>
        <time>2018-03-07T08:20:17Z</time>
      </trkpt>
      <trkpt lat="46.73615" lon="-1.83087">
        <ele>20</ele>
        <time>2018-03-07T08:21:17Z</time>
      </trkpt>
      <trkpt lat="46.73622" lon="-1.83077">
        <ele>21</ele>
        <time>2018-03-07T08:22:17Z</time>
      </trkpt>
      <trkpt lat="46.73629" lon="-1.83067">
        <ele>21</ele>
        <time>2018-03-07T08:23:17Z</time>
      </trkpt>
      <trkpt lat="46.73632" lon="-1.83063">
        <ele>21</ele>
        <time>2018-03-07T08:24:17Z</time>
      </trkpt>
      <trkpt lat="46.73637" lon="-1.83058">
        <ele>21</ele>
        <time>2018-03-07T08:25:17Z</time>
      </trkpt>
      <trkpt lat="46.73647" lon="-1.83048">
        <ele>21</ele>
        <time>2018-03-07T08:26:17Z</time>
      </trkpt>
      <trkpt lat="46.73658" lon="-1.8304">
        <ele>21</ele>
        <time>2018-03-07T08:27:17Z</time>
      </trkpt>
      <trkpt lat="46.73676" lon="-1.83028">
        <ele>21</ele>
        <time>2018-03-07T08:28:17Z</time>
      </trkpt>
      <trkpt lat="46.73715" lon="-1.83">
        <ele>20</ele>
        <time>2018-03-07T08:29:17Z</time>
      </trkpt>
      <trkpt lat="46.73751" lon="-1.82972">
        <ele>19</ele>
        <time>2018-03-07T08:30:17Z</time>
      </trkpt>
      <trkpt lat="46.73776" lon="-1.82951">
        <ele>18</ele>
        <time>2018-03-07T08:31:17Z</time>
      </trkpt>
      <trkpt lat="46.73788" lon="-1.82939">
        <ele>18</ele>
        <time>2018-03-07T08:32:17Z</time>
      </trkpt>
      <trkpt lat="46.73799" lon="-1.82926">
        <ele>17</ele>
        <time>2018-03-07T08:33:17Z</time>
      </trkpt>
      <trkpt lat="46.73807" lon="-1.82914">
        <ele>17</ele>
        <time>2018-03-07T08:34:17Z</time>
      </trkpt>
      <trkpt lat="46.73814" lon="-1.82901">
        <ele>17</ele>
        <time>2018-03-07T08:35:17Z</time>
      </trkpt>
      <trkpt lat="46.73818" lon="-1.82893">
        <ele>17</ele>
        <time>2018-03-07T08:36:17Z</time>
      </trkpt>
      <trkpt lat="46.73822" lon="-1.82882">
        <ele>17</ele>
        <time>2018-03-07T08:37:17Z</time>
      </trkpt>
      <trkpt lat="46.73826" lon="-1.82869">
        <ele>17</ele>
        <time>2018-03-07T08:38:17Z</time>
      </trkpt>
      <trkpt lat="46.7383" lon="-1.82855">
        <ele>16</ele>
        <time>2018-03-07T08:39:17Z</time>
      </trkpt>
      <trkpt lat="46.73835" lon="-1.82839">
        <ele>16</ele>
        <time>2018-03-07T08:40:17Z</time>
      </trkpt>
      <trkpt lat="46.73839" lon="-1.82823">
        <ele>16</ele>
        <time>2018-03-07T08:41:17Z</time>
      </trkpt>
      <trkpt lat="46.73847" lon="-1.82788">
        <ele>14</ele>
        <time>2018-03-07T08:42:17Z</time>
      </trkpt>
      <trkpt lat="46.73848" lon="-1.82786">
        <ele>14</ele>
        <time>2018-03-07T08:43:17Z</time>
      </trkpt>
      <trkpt lat="46.7386" lon="-1.82741">
        <ele>12</ele>
        <time>2018-03-07T08:44:17Z</time>
      </trkpt>
      <trkpt lat="46.73878" lon="-1.82674">
        <ele>11</ele>
        <time>2018-03-07T08:45:17Z</time>
      </trkpt>
      <trkpt lat="46.73889" lon="-1.82629">
        <ele>10</ele>
        <time>2018-03-07T08:46:17Z</time>
      </trkpt>
      <trkpt lat="46.73897" lon="-1.82601">
        <ele>9</ele>
        <time>2018-03-07T08:47:17Z</time>
      </trkpt>
      <trkpt lat="46.73903" lon="-1.82577">
        <ele>9</ele>
        <time>2018-03-07T08:48:17Z</time>
      </trkpt>
      <trkpt lat="46.73911" lon="-1.82546">
        <ele>10</ele>
        <time>2018-03-07T08:49:17Z</time>
      </trkpt>
      <trkpt lat="46.73926" lon="-1.82489">
        <ele>11</ele>
        <time>2018-03-07T08:50:17Z</time>
      </trkpt>
      <trkpt lat="46.73936" lon="-1.82451">
        <ele>12</ele>
        <time>2018-03-07T08:51:17Z</time>
      </trkpt>
      <trkpt lat="46.73945" lon="-1.82415">
        <ele>13</ele>
        <time>2018-03-07T08:52:17Z</time>
      </trkpt>
      <trkpt lat="46.73951" lon="-1.82393">
        <ele>13</ele>
        <time>2018-03-07T08:53:17Z</time>
      </trkpt>
      <trkpt lat="46.73955" lon="-1.82374">
        <ele>13</ele>
        <time>2018-03-07T08:54:17Z</time>
      </trkpt>
      <trkpt lat="46.73953" lon="-1.82361">
        <ele>14</ele>
        <time>2018-03-07T08:55:17Z</time>
      </trkpt>
      <trkpt lat="46.73952" lon="-1.82357">
        <ele>14</ele>
        <time>2018-03-07T08:56:17Z</time>
      </trkpt>
      <trkpt lat="46.73948" lon="-1.8234">
        <ele>14</ele>
        <time>2018-03-07T08:57:17Z</time>
      </trkpt>
      <trkpt lat="46.73948" lon="-1.8234">
        <ele>14</ele>
        <time>2018-03-07T08:58:17Z</time>
      </trkpt>
      <trkpt lat="46.73947" lon="-1.82339">
        <ele>14</ele>
        <time>2018-03-07T08:59:17Z</time>
      </trkpt>
      <trkpt lat="46.73946" lon="-1.82337">
        <ele>14</ele>
        <time>2018-03-07T09:00:17Z</time>
      </trkpt>
      <trkpt lat="46.73946" lon="-1.82336">
        <ele>14</ele>
        <time>2018-03-07T09:01:17Z</time>
      </trkpt>
      <trkpt lat="46.73945" lon="-1.82332">
        <ele>14</ele>
        <time>2018-03-07T09:02:17Z</time>
      </trkpt>
      <trkpt lat="46.73945" lon="-1.82329">
        <ele>14</ele>
        <time>2018-03-07T09:03:17Z</time>
      </trkpt>
      <trkpt lat="46.73945" lon="-1.82325">
        <ele>14</ele>
        <time>2018-03-07T09:04:17Z</time>
      </trkpt>
      <trkpt lat="46.73946" lon="-1.82322">
        <ele>14</ele>
        <time>2018-03-07T09:05:17Z</time>
      </trkpt>
      <trkpt lat="46.73946" lon="-1.8232">
        <ele>14</ele>
        <time>2018-03-07T09:06:17Z</time>
      </trkpt>
      <trkpt lat="46.73947" lon="-1.82319">
        <ele>14</ele>
        <time>2018-03-07T09:07:17Z</time>
      </trkpt>
      <trkpt lat="46.73949" lon="-1.82318">
        <ele>14</ele>
        <time>2018-03-07T09:08:17Z</time>
      </trkpt>
      <trkpt lat="46.73949" lon="-1.82317">
        <ele>14</ele>
        <time>2018-03-07T09:09:17Z</time>
      </trkpt>
      <trkpt lat="46.73952" lon="-1.82316">
        <ele>14</ele>
        <time>2018-03-07T09:10:17Z</time>
      </trkpt>
      <trkpt lat="46.73954" lon="-1.82315">
        <ele>14</ele>
        <time>2018-03-07T09:11:17Z</time>
      </trkpt>
      <trkpt lat="46.73955" lon="-1.82315">
        <ele>14</ele>
        <time>2018-03-07T09:12:17Z</time>
      </trkpt>
      <trkpt lat="46.73957" lon="-1.82316">
        <ele>14</ele>
        <time>2018-03-07T09:13:17Z</time>
      </trkpt>
      <trkpt lat="46.73959" lon="-1.82317">
        <ele>14</ele>
        <time>2018-03-07T09:14:17Z</time>
      </trkpt>
      <trkpt lat="46.73965" lon="-1.82311">
        <ele>15</ele>
        <time>2018-03-07T09:15:17Z</time>
      </trkpt>
      <trkpt lat="46.73969" lon="-1.82308">
        <ele>15</ele>
        <time>2018-03-07T09:16:17Z</time>
      </trkpt>
      <trkpt lat="46.73971" lon="-1.82307">
        <ele>15</ele>
        <time>2018-03-07T09:17:17Z</time>
      </trkpt>
      <trkpt lat="46.73972" lon="-1.82302">
        <ele>15</ele>
        <time>2018-03-07T09:18:17Z</time>
      </trkpt>
      <trkpt lat="46.73974" lon="-1.82298">
        <ele>15</ele>
        <time>2018-03-07T09:19:17Z</time>
      </trkpt>
      <trkpt lat="46.73978" lon="-1.82285">
        <ele>15</ele>
        <time>2018-03-07T09:20:17Z</time>
      </trkpt>
      <trkpt lat="46.73982" lon="-1.82273">
        <ele>15</ele>
        <time>2018-03-07T09:21:17Z</time>
      </trkpt>
      <trkpt lat="46.73986" lon="-1.82257">
        <ele>16</ele>
        <time>2018-03-07T09:22:17Z</time>
      </trkpt>
      <trkpt lat="46.73997" lon="-1.82214">
        <ele>16</ele>
        <time>2018-03-07T09:23:17Z</time>
      </trkpt>
      <trkpt lat="46.74007" lon="-1.82171">
        <ele>17</ele>
        <time>2018-03-07T09:24:17Z</time>
      </trkpt>
      <trkpt lat="46.74009" lon="-1.82164">
        <ele>17</ele>
        <time>2018-03-07T09:25:17Z</time>
      </trkpt>
      <trkpt lat="46.74012" lon="-1.8216">
        <ele>17</ele>
        <time>2018-03-07T09:26:17Z</time>
      </trkpt>
      <trkpt lat="46.74019" lon="-1.82154">
        <ele>17</ele>
        <time>2018-03-07T09:27:17Z</time>
      </trkpt>
      <trkpt lat="46.74029" lon="-1.82148">
        <ele>17</ele>
        <time>2018-03-07T09:28:17Z</time>
      </trkpt>
      <trkpt lat="46.74033" lon="-1.82145">
        <ele>17</ele>
        <time>2018-03-07T09:29:17Z</time>
      </trkpt>
      <trkpt lat="46.74057" lon="-1.8213">
        <ele>17</ele>
        <time>2018-03-07T09:30:17Z</time>
      </trkpt>
      <trkpt lat="46.74074" lon="-1.82121">
        <ele>17</ele>
        <time>2018-03-07T09:31:17Z</time>
      </trkpt>
      <trkpt lat="46.74078" lon="-1.82118">
        <ele>17</ele>
        <time>2018-03-07T09:32:17Z</time>
      </trkpt>
      <trkpt lat="46.74094" lon="-1.8211">
        <ele>17</ele>
        <time>2018-03-07T09:33:17Z</time>
      </trkpt>
      <trkpt lat="46.74099" lon="-1.82108">
        <ele>17</ele>
        <time>2018-03-07T09:34:17Z</time>
      </trkpt>
      <trkpt lat="46.74104" lon="-1.82105">
        <ele>17</ele>
        <time>2018-03-07T09:35:17Z</time>
      </trkpt>
      <trkpt lat="46.74107" lon="-1.82102">
        <ele>16</ele>
        <time>2018-03-07T09:36:17Z</time>
      </trkpt>
      <trkpt lat="46.74107" lon="-1.82102">
        <ele>16</ele>
        <time>2018-03-07T09:37:17Z</time>
      </trkpt>
      <trkpt lat="46.74107" lon="-1.82099">
        <ele>16</ele>
        <time>2018-03-07T09:38:17Z</time>
      </trkpt>
      <trkpt lat="46.74106" lon="-1.82097">
        <ele>17</ele>
        <time>2018-03-07T09:39:17Z</time>
      </trkpt>
      <trkpt lat="46.74107" lon="-1.82095">
        <ele>16</ele>
        <time>2018-03-07T09:40:17Z</time>
      </trkpt>
      <trkpt lat="46.74107" lon="-1.82093">
        <ele>16</ele>
        <time>2018-03-07T09:41:17Z</time>
      </trkpt>
      <trkpt lat="46.74108" lon="-1.82091">
        <ele>16</ele>
        <time>2018-03-07T09:42:17Z</time>
      </trkpt>
      <trkpt lat="46.74109" lon="-1.8209">
        <ele>16</ele>
        <time>2018-03-07T09:43:17Z</time>
      </trkpt>
      <trkpt lat="46.74111" lon="-1.82089">
        <ele>16</ele>
        <time>2018-03-07T09:44:17Z</time>
      </trkpt>
      <trkpt lat="46.74112" lon="-1.82089">
        <ele>16</ele>
        <time>2018-03-07T09:45:17Z</time>
      </trkpt>
      <trkpt lat="46.74113" lon="-1.82089">
        <ele>16</ele>
        <time>2018-03-07T09:46:17Z</time>
      </trkpt>
      <trkpt lat="46.74114" lon="-1.82089">
        <ele>16</ele>
        <time>2018-03-07T09:47:17Z</time>
      </trkpt>
      <trkpt lat="46.74115" lon="-1.82078">
        <ele>16</ele>
        <time>2018-03-07T09:48:17Z</time>
      </trkpt>
      <trkpt lat="46.74116" lon="-1.82065">
        <ele>16</ele>
        <time>2018-03-07T09:49:17Z</time>
      </trkpt>
      <trkpt lat="46.74115" lon="-1.82049">
        <ele>16</ele>
        <time>2018-03-07T09:50:17Z</time>
      </trkpt>
      <trkpt lat="46.74113" lon="-1.82032">
        <ele>16</ele>
        <time>2018-03-07T09:51:17Z</time>
      </trkpt>
      <trkpt lat="46.74109" lon="-1.8201">
        <ele>16</ele>
        <time>2018-03-07T09:52:17Z</time>
      </trkpt>
      <trkpt lat="46.74099" lon="-1.81956">
        <ele>16</ele>
        <time>2018-03-07T09:53:17Z</time>
      </trkpt>
      <trkpt lat="46.74096" lon="-1.81936">
        <ele>16</ele>
        <time>2018-03-07T09:54:17Z</time>
      </trkpt>
      <trkpt lat="46.74092" lon="-1.81917">
        <ele>16</ele>
        <time>2018-03-07T09:55:17Z</time>
      </trkpt>
      <trkpt lat="46.74089" lon="-1.81896">
        <ele>16</ele>
        <time>2018-03-07T09:56:17Z</time>
      </trkpt>
      <trkpt lat="46.74086" lon="-1.81876">
        <ele>17</ele>
        <time>2018-03-07T09:57:17Z</time>
      </trkpt>
      <trkpt lat="46.74085" lon="-1.81863">
        <ele>17</ele>
        <time>2018-03-07T09:58:17Z</time>
      </trkpt>
      <trkpt lat="46.74084" lon="-1.81849">
        <ele>18</ele>
        <time>2018-03-07T09:59:17Z</time>
      </trkpt>
      <trkpt lat="46.74083" lon="-1.81834">
        <ele>18</ele>
        <time>2018-03-07T10:00:17Z</time>
      </trkpt>
      <trkpt lat="46.74083" lon="-1.81811">
        <ele>18</ele>
        <time>2018-03-07T10:01:17Z</time>
      </trkpt>
      <trkpt lat="46.7408" lon="-1.81702">
        <ele>20</ele>
        <time>2018-03-07T10:02:17Z</time>
      </trkpt>
      <trkpt lat="46.74075" lon="-1.8158">
        <ele>21</ele>
        <time>2018-03-07T10:03:17Z</time>
      </trkpt>
      <trkpt lat="46.74069" lon="-1.81428">
        <ele>22</ele>
        <time>2018-03-07T10:04:17Z</time>
      </trkpt>
      <trkpt lat="46.74068" lon="-1.81396">
        <ele>22</ele>
        <time>2018-03-07T10:05:17Z</time>
      </trkpt>
      <trkpt lat="46.74068" lon="-1.81377">
        <ele>23</ele>
        <time>2018-03-07T10:06:17Z</time>
      </trkpt>
      <trkpt lat="46.74069" lon="-1.81362">
        <ele>23</ele>
        <time>2018-03-07T10:07:17Z</time>
      </trkpt>
      <trkpt lat="46.7407" lon="-1.81348">
        <ele>23</ele>
        <time>2018-03-07T10:08:17Z</time>
      </trkpt>
      <trkpt lat="46.74072" lon="-1.81333">
        <ele>23</ele>
        <time>2018-03-07T10:09:17Z</time>
      </trkpt>
      <trkpt lat="46.74074" lon="-1.8132">
        <ele>23</ele>
        <time>2018-03-07T10:10:17Z</time>
      </trkpt>
      <trkpt lat="46.74078" lon="-1.81305">
        <ele>23</ele>
        <time>2018-03-07T10:11:17Z</time>
      </trkpt>
      <trkpt lat="46.74084" lon="-1.8128">
        <ele>23</ele>
        <time>2018-03-07T10:12:17Z</time>
      </trkpt>
      <trkpt lat="46.7409" lon="-1.81255">
        <ele>23</ele>
        <time>2018-03-07T10:13:17Z</time>
      </trkpt>
      <trkpt lat="46.74099" lon="-1.81217">
        <ele>22</ele>
        <time>2018-03-07T10:14:17Z</time>
      </trkpt>
      <trkpt lat="46.74112" lon="-1.8116">
        <ele>22</ele>
        <time>2018-03-07T10:15:17Z</time>
      </trkpt>
      <trkpt lat="46.74123" lon="-1.8111">
        <ele>22</ele>
        <time>2018-03-07T10:16:17Z</time>
      </trkpt>
      <trkpt lat="46.74133" lon="-1.81068">
        <ele>22</ele>
        <time>2018-03-07T10:17:17Z</time>
      </trkpt>
      <trkpt lat="46.74145" lon="-1.81014">
        <ele>21</ele>
        <time>2018-03-07T10:18:17Z</time>
      </trkpt>
      <trkpt lat="46.74158" lon="-1.8096">
        <ele>21</ele>
        <time>2018-03-07T10:19:17Z</time>
      </trkpt>
      <trkpt lat="46.7417" lon="-1.80911">
        <ele>21</ele>
        <time>2018-03-07T10:20:17Z</time>
      </trkpt>
      <trkpt lat="46.74182" lon="-1.80866">
        <ele>21</ele>
        <time>2018-03-07T10:21:17Z</time>
      </trkpt>
      <trkpt lat="46.74183" lon="-1.8086">
        <ele>21</ele>
        <time>2018-03-07T10:22:17Z</time>
      </trkpt>
      <trkpt lat="46.74185" lon="-1.80851">
        <ele>21</ele>
        <time>2018-03-07T10:23:17Z</time>
      </trkpt>
      <trkpt lat="46.74191" lon="-1.80825">
        <ele>20</ele>
        <time>2018-03-07T10:24:17Z</time>
      </trkpt>
      <trkpt lat="46.74198" lon="-1.80806">
        <ele>20</ele>
        <time>2018-03-07T10:25:17Z</time>
      </trkpt>
      <trkpt lat="46.74204" lon="-1.80789">
        <ele>20</ele>
        <time>2018-03-07T10:26:17Z</time>
      </trkpt>
      <trkpt lat="46.7421" lon="-1.80775">
        <ele>20</ele>
        <time>2018-03-07T10:27:17Z</time>
      </trkpt>
      <trkpt lat="46.74215" lon="-1.80761">
        <ele>19</ele>
        <time>2018-03-07T10:28:17Z</time>
      </trkpt>
      <trkpt lat="46.7422" lon="-1.80751">
        <ele>19</ele>
        <time>2018-03-07T10:29:17Z</time>
      </trkpt>
      <trkpt lat="46.74226" lon="-1.8074">
        <ele>19</ele>
        <time>2018-03-07T10:30:17Z</time>
      </trkpt>
      <trkpt lat="46.74233" lon="-1.80727">
        <ele>19</ele>
        <time>2018-03-07T10:31:17Z</time>
      </trkpt>
      <trkpt lat="46.74254" lon="-1.80694">
        <ele>19</ele>
        <time>2018-03-07T10:32:17Z</time>
      </trkpt>
      <trkpt lat="46.74281" lon="-1.80656">
        <ele>19</ele>
        <time>2018-03-07T10:33:17Z</time>
      </trkpt>
      <trkpt lat="46.74295" lon="-1.80636">
        <ele>19</ele>
        <time>2018-03-07T10:34:17Z</time>
      </trkpt>
      <trkpt lat="46.74303" lon="-1.80624">
        <ele>19</ele>
        <time>2018-03-07T10:35:17Z</time>
      </trkpt>
      <trkpt lat="46.7435" lon="-1.80557">
        <ele>20</ele>
        <time>2018-03-07T10:36:17Z</time>
      </trkpt>
      <trkpt lat="46.74401" lon="-1.80483">
        <ele>20</ele>
        <time>2018-03-07T10:37:17Z</time>
      </trkpt>
      <trkpt lat="46.74446" lon="-1.80418">
        <ele>20</ele>
        <time>2018-03-07T10:38:17Z</time>
      </trkpt>
      <trkpt lat="46.7445" lon="-1.80413">
        <ele>20</ele>
        <time>2018-03-07T10:39:17Z</time>
      </trkpt>
      <trkpt lat="46.7448" lon="-1.80369">
        <ele>19</ele>
        <time>2018-03-07T10:40:17Z</time>
      </trkpt>
      <trkpt lat="46.74508" lon="-1.80327">
        <ele>18</ele>
        <time>2018-03-07T10:41:17Z</time>
      </trkpt>
      <trkpt lat="46.74516" lon="-1.80316">
        <ele>18</ele>
        <time>2018-03-07T10:42:17Z</time>
      </trkpt>
      <trkpt lat="46.7454" lon="-1.80281">
        <ele>18</ele>
        <time>2018-03-07T10:43:17Z</time>
      </trkpt>
      <trkpt lat="46.74557" lon="-1.80255">
        <ele>18</ele>
        <time>2018-03-07T10:44:17Z</time>
      </trkpt>
      <trkpt lat="46.74569" lon="-1.80237">
        <ele>18</ele>
        <time>2018-03-07T10:45:17Z</time>
      </trkpt>
      <trkpt lat="46.74576" lon="-1.80223">
        <ele>18</ele>
        <time>2018-03-07T10:46:17Z</time>
      </trkpt>
      <trkpt lat="46.74582" lon="-1.80208">
        <ele>18</ele>
        <time>2018-03-07T10:47:17Z</time>
      </trkpt>
      <trkpt lat="46.74587" lon="-1.80197">
        <ele>17</ele>
        <time>2018-03-07T10:48:17Z</time>
      </trkpt>
      <trkpt lat="46.74591" lon="-1.80184">
        <ele>17</ele>
        <time>2018-03-07T10:49:17Z</time>
      </trkpt>
      <trkpt lat="46.74594" lon="-1.8017">
        <ele>17</ele>
        <time>2018-03-07T10:50:17Z</time>
      </trkpt>
      <trkpt lat="46.74598" lon="-1.80155">
        <ele>17</ele>
        <time>2018-03-07T10:51:17Z</time>
      </trkpt>
      <trkpt lat="46.74599" lon="-1.80149">
        <ele>17</ele>
        <time>2018-03-07T10:52:17Z</time>
      </trkpt>
      <trkpt lat="46.74601" lon="-1.80134">
        <ele>17</ele>
        <time>2018-03-07T10:53:17Z</time>
      </trkpt>
      <trkpt lat="46.74603" lon="-1.80116">
        <ele>17</ele>
        <time>2018-03-07T10:54:17Z</time>
      </trkpt>
      <trkpt lat="46.74606" lon="-1.80097">
        <ele>17</ele>
        <time>2018-03-07T10:55:17Z</time>
      </trkpt>
      <trkpt lat="46.74608" lon="-1.80068">
        <ele>17</ele>
        <time>2018-03-07T10:56:17Z</time>
      </trkpt>
      <trkpt lat="46.74613" lon="-1.80001">
        <ele>16</ele>
        <time>2018-03-07T10:57:17Z</time>
      </trkpt>
      <trkpt lat="46.74618" lon="-1.79939">
        <ele>15</ele>
        <time>2018-03-07T10:58:17Z</time>
      </trkpt>
      <trkpt lat="46.74621" lon="-1.79889">
        <ele>15</ele>
        <time>2018-03-07T10:59:17Z</time>
      </trkpt>
      <trkpt lat="46.74621" lon="-1.79869">
        <ele>15</ele>
        <time>2018-03-07T11:00:17Z</time>
      </trkpt>
      <trkpt lat="46.74621" lon="-1.79856">
        <ele>15</ele>
        <time>2018-03-07T11:01:17Z</time>
      </trkpt>
      <trkpt lat="46.74621" lon="-1.79854">
        <ele>15</ele>
        <time>2018-03-07T11:02:17Z</time>
      </trkpt>
      <trkpt lat="46.74619" lon="-1.79836">
        <ele>15</ele>
        <time>2018-03-07T11:03:17Z</time>
      </trkpt>
      <trkpt lat="46.74612" lon="-1.79796">
        <ele>15</ele>
        <time>2018-03-07T11:04:17Z</time>
      </trkpt>
      <trkpt lat="46.74607" lon="-1.79767">
        <ele>15</ele>
        <time>2018-03-07T11:05:17Z</time>
      </trkpt>
      <trkpt lat="46.74603" lon="-1.79744">
        <ele>15</ele>
        <time>2018-03-07T11:06:17Z</time>
      </trkpt>
      <trkpt lat="46.74595" lon="-1.79697">
        <ele>16</ele>
        <time>2018-03-07T11:07:17Z</time>
      </trkpt>
      <trkpt lat="46.74587" lon="-1.79644">
        <ele>16</ele>
        <time>2018-03-07T11:08:17Z</time>
      </trkpt>
      <trkpt lat="46.74582" lon="-1.79617">
        <ele>15</ele>
        <time>2018-03-07T11:09:17Z</time>
      </trkpt>
      <trkpt lat="46.7458" lon="-1.79609">
        <ele>15</ele>
        <time>2018-03-07T11:10:17Z</time>
      </trkpt>
      <trkpt lat="46.74577" lon="-1.79599">
        <ele>15</ele>
        <time>2018-03-07T11:11:17Z</time>
      </trkpt>
      <trkpt lat="46.74574" lon="-1.79591">
        <ele>15</ele>
        <time>2018-03-07T11:12:17Z</time>
      </trkpt>
      <trkpt lat="46.74571" lon="-1.79584">
        <ele>15</ele>
        <time>2018-03-07T11:13:17Z</time>
      </trkpt>
      <trkpt lat="46.74566" lon="-1.79571">
        <ele>15</ele>
        <time>2018-03-07T11:14:17Z</time>
      </trkpt>
      <trkpt lat="46.74562" lon="-1.79564">
        <ele>15</ele>
        <time>2018-03-07T11:15:17Z</time>
      </trkpt>
      <trkpt lat="46.74561" lon="-1.7956">
        <ele>15</ele>
        <time>2018-03-07T11:16:17Z</time>
      </trkpt>
      <trkpt lat="46.74559" lon="-1.79553">
        <ele>15</ele>
        <time>2018-03-07T11:17:17Z</time>
      </trkpt>
      <trkpt lat="46.74558" lon="-1.79546">
        <ele>15</ele>
        <time>2018-03-07T11:18:17Z</time>
      </trkpt>
      <trkpt lat="46.74555" lon="-1.79536">
        <ele>15</ele>
        <time>2018-03-07T11:19:17Z</time>
      </trkpt>
      <trkpt lat="46.74553" lon="-1.79525">
        <ele>15</ele>
        <time>2018-03-07T11:20:17Z</time>
      </trkpt>
      <trkpt lat="46.74552" lon="-1.7951">
        <ele>15</ele>
        <time>2018-03-07T11:21:17Z</time>
      </trkpt>
      <trkpt lat="46.74552" lon="-1.7951">
        <ele>15</ele>
        <time>2018-03-07T11:22:17Z</time>
      </trkpt>
      <trkpt lat="46.74548" lon="-1.79503">
        <ele>15</ele>
        <time>2018-03-07T11:23:17Z</time>
      </trkpt>
      <trkpt lat="46.74528" lon="-1.79473">
        <ele>16</ele>
        <time>2018-03-07T11:24:17Z</time>
      </trkpt>
      <trkpt lat="46.7449" lon="-1.79409">
        <ele>17</ele>
        <time>2018-03-07T11:25:17Z</time>
      </trkpt>
      <trkpt lat="46.74469" lon="-1.79377">
        <ele>17</ele>
        <time>2018-03-07T11:26:17Z</time>
      </trkpt>
      <trkpt lat="46.74452" lon="-1.79353">
        <ele>18</ele>
        <time>2018-03-07T11:27:17Z</time>
      </trkpt>
      <trkpt lat="46.74439" lon="-1.79337">
        <ele>18</ele>
        <time>2018-03-07T11:28:17Z</time>
      </trkpt>
      <trkpt lat="46.74426" lon="-1.79323">
        <ele>18</ele>
        <time>2018-03-07T11:29:17Z</time>
      </trkpt>
      <trkpt lat="46.74423" lon="-1.7932">
        <ele>18</ele>
        <time>2018-03-07T11:30:17Z</time>
      </trkpt>
      <trkpt lat="46.7442" lon="-1.79317">
        <ele>19</ele>
        <time>2018-03-07T11:31:17Z</time>
      </trkpt>
      <trkpt lat="46.74416" lon="-1.79313">
        <ele>19</ele>
        <time>2018-03-07T11:32:17Z</time>
      </trkpt>
      <trkpt lat="46.74405" lon="-1.79304">
        <ele>19</ele>
        <time>2018-03-07T11:33:17Z</time>
      </trkpt>
      <trkpt lat="46.74396" lon="-1.79299">
        <ele>19</ele>
        <time>2018-03-07T11:34:17Z</time>
      </trkpt>
      <trkpt lat="46.74387" lon="-1.79294">
        <ele>19</ele>
        <time>2018-03-07T11:35:17Z</time>
      </trkpt>
      <trkpt lat="46.74378" lon="-1.79289">
        <ele>19</ele>
        <time>2018-03-07T11:36:17Z</time>
      </trkpt>
      <trkpt lat="46.74367" lon="-1.79285">
        <ele>20</ele>
        <time>2018-03-07T11:37:17Z</time>
      </trkpt>
      <trkpt lat="46.74356" lon="-1.79281">
        <ele>20</ele>
        <time>2018-03-07T11:38:17Z</time>
      </trkpt>
      <trkpt lat="46.7434" lon="-1.79276">
        <ele>21</ele>
        <time>2018-03-07T11:39:17Z</time>
      </trkpt>
      <trkpt lat="46.74283" lon="-1.79259">
        <ele>22</ele>
        <time>2018-03-07T11:40:17Z</time>
      </trkpt>
      <trkpt lat="46.74255" lon="-1.79251">
        <ele>23</ele>
        <time>2018-03-07T11:41:17Z</time>
      </trkpt>
      <trkpt lat="46.74221" lon="-1.79241">
        <ele>24</ele>
        <time>2018-03-07T11:42:17Z</time>
      </trkpt>
      <trkpt lat="46.74168" lon="-1.79223">
        <ele>24</ele>
        <time>2018-03-07T11:43:17Z</time>
      </trkpt>
      <trkpt lat="46.74136" lon="-1.79214">
        <ele>24</ele>
        <time>2018-03-07T11:44:17Z</time>
      </trkpt>
      <trkpt lat="46.74113" lon="-1.79206">
        <ele>24</ele>
        <time>2018-03-07T11:45:17Z</time>
      </trkpt>
      <trkpt lat="46.74063" lon="-1.7919">
        <ele>23</ele>
        <time>2018-03-07T11:46:17Z</time>
      </trkpt>
      <trkpt lat="46.74042" lon="-1.79183">
        <ele>23</ele>
        <time>2018-03-07T11:47:17Z</time>
      </trkpt>
      <trkpt lat="46.74035" lon="-1.79181">
        <ele>23</ele>
        <time>2018-03-07T11:48:17Z</time>
      </trkpt>
      <trkpt lat="46.74025" lon="-1.79178">
        <ele>23</ele>
        <time>2018-03-07T11:49:17Z</time>
      </trkpt>
      <trkpt lat="46.74023" lon="-1.79177">
        <ele>23</ele>
        <time>2018-03-07T11:50:17Z</time>
      </trkpt>
      <trkpt lat="46.74021" lon="-1.79176">
        <ele>23</ele>
        <time>2018-03-07T11:51:17Z</time>
      </trkpt>
      <trkpt lat="46.74021" lon="-1.79176">
        <ele>23</ele>
        <time>2018-03-07T11:52:17Z</time>
      </trkpt>
      <trkpt lat="46.74022" lon="-1.79166">
        <ele>23</ele>
        <time>2018-03-07T11:53:17Z</time>
      </trkpt>
      <trkpt lat="46.74023" lon="-1.79161">
        <ele>23</ele>
        <time>2018-03-07T11:54:17Z</time>
      </trkpt>
      <trkpt lat="46.74024" lon="-1.79156">
        <ele>23</ele>
        <time>2018-03-07T11:55:17Z</time>
      </trkpt>
      <trkpt lat="46.74026" lon="-1.79136">
        <ele>23</ele>
        <time>2018-03-07T11:56:17Z</time>
      </trkpt>
      <trkpt lat="46.74026" lon="-1.79105">
        <ele>23</ele>
        <time>2018-03-07T11:57:17Z</time>
      </trkpt>
      <trkpt lat="46.74029" lon="-1.7905">
        <ele>23</ele>
        <time>2018-03-07T11:58:17Z</time>
      </trkpt>
      <trkpt lat="46.74029" lon="-1.79017">
        <ele>22</ele>
        <time>2018-03-07T11:59:17Z</time>
      </trkpt>
      <trkpt lat="46.7403" lon="-1.78986">
        <ele>22</ele>
        <time>2018-03-07T12:00:17Z</time>
      </trkpt>
      <trkpt lat="46.74029" lon="-1.78974">
        <ele>22</ele>
        <time>2018-03-07T12:01:17Z</time>
      </trkpt>
      <trkpt lat="46.74029" lon="-1.78959">
        <ele>22</ele>
        <time>2018-03-07T12:02:17Z</time>
      </trkpt>
      <trkpt lat="46.74027" lon="-1.78946">
        <ele>21</ele>
        <time>2018-03-07T12:03:17Z</time>
      </trkpt>
      <trkpt lat="46.74022" lon="-1.78919">
        <ele>21</ele>
        <time>2018-03-07T12:04:17Z</time>
      </trkpt>
      <trkpt lat="46.7401" lon="-1.78872">
        <ele>19</ele>
        <time>2018-03-07T12:05:17Z</time>
      </trkpt>
      <trkpt lat="46.73998" lon="-1.78838">
        <ele>18</ele>
        <time>2018-03-07T12:06:17Z</time>
      </trkpt>
      <trkpt lat="46.73986" lon="-1.78812">
        <ele>17</ele>
        <time>2018-03-07T12:07:17Z</time>
      </trkpt>
      <trkpt lat="46.73985" lon="-1.78809">
        <ele>17</ele>
        <time>2018-03-07T12:08:17Z</time>
      </trkpt>
      <trkpt lat="46.7397" lon="-1.78781">
        <ele>16</ele>
        <time>2018-03-07T12:09:17Z</time>
      </trkpt>
      <trkpt lat="46.73965" lon="-1.7877">
        <ele>16</ele>
        <time>2018-03-07T12:10:17Z</time>
      </trkpt>
      <trkpt lat="46.73959" lon="-1.78761">
        <ele>16</ele>
        <time>2018-03-07T12:11:17Z</time>
      </trkpt>
      <trkpt lat="46.73955" lon="-1.78753">
        <ele>15</ele>
        <time>2018-03-07T12:12:17Z</time>
      </trkpt>
      <trkpt lat="46.73951" lon="-1.78746">
        <ele>15</ele>
        <time>2018-03-07T12:13:17Z</time>
      </trkpt>
      <trkpt lat="46.73949" lon="-1.78739">
        <ele>15</ele>
        <time>2018-03-07T12:14:17Z</time>
      </trkpt>
      <trkpt lat="46.73946" lon="-1.78733">
        <ele>15</ele>
        <time>2018-03-07T12:15:17Z</time>
      </trkpt>
      <trkpt lat="46.73944" lon="-1.78725">
        <ele>15</ele>
        <time>2018-03-07T12:16:17Z</time>
      </trkpt>
      <trkpt lat="46.73943" lon="-1.78717">
        <ele>15</ele>
        <time>2018-03-07T12:17:17Z</time>
      </trkpt>
      <trkpt lat="46.73942" lon="-1.78713">
        <ele>15</ele>
        <time>2018-03-07T12:18:17Z</time>
      </trkpt>
      <trkpt lat="46.73941" lon="-1.78708">
        <ele>15</ele>
        <time>2018-03-07T12:19:17Z</time>
      </trkpt>
      <trkpt lat="46.7394" lon="-1.787">
        <ele>15</ele>
        <time>2018-03-07T12:20:17Z</time>
      </trkpt>
      <trkpt lat="46.73937" lon="-1.7869">
        <ele>15</ele>
        <time>2018-03-07T12:21:17Z</time>
      </trkpt>
      <trkpt lat="46.73933" lon="-1.78681">
        <ele>15</ele>
        <time>2018-03-07T12:22:17Z</time>
      </trkpt>
      <trkpt lat="46.73922" lon="-1.78659">
        <ele>15</ele>
        <time>2018-03-07T12:23:17Z</time>
      </trkpt>
      <trkpt lat="46.73911" lon="-1.78638">
        <ele>15</ele>
        <time>2018-03-07T12:24:17Z</time>
      </trkpt>
      <trkpt lat="46.73901" lon="-1.78617">
        <ele>15</ele>
        <time>2018-03-07T12:25:17Z</time>
      </trkpt>
      <trkpt lat="46.73898" lon="-1.7861">
        <ele>15</ele>
        <time>2018-03-07T12:26:17Z</time>
      </trkpt>
      <trkpt lat="46.73895" lon="-1.78603">
        <ele>15</ele>
        <time>2018-03-07T12:27:17Z</time>
      </trkpt>
      <trkpt lat="46.7389" lon="-1.78591">
        <ele>15</ele>
        <time>2018-03-07T12:28:17Z</time>
      </trkpt>
      <trkpt lat="46.73886" lon="-1.78579">
        <ele>15</ele>
        <time>2018-03-07T12:29:17Z</time>
      </trkpt>
      <trkpt lat="46.73884" lon="-1.78572">
        <ele>15</ele>
        <time>2018-03-07T12:30:17Z</time>
      </trkpt>
      <trkpt lat="46.73879" lon="-1.78557">
        <ele>15</ele>
        <time>2018-03-07T12:31:17Z</time>
      </trkpt>
      <trkpt lat="46.73875" lon="-1.7854">
        <ele>15</ele>
        <time>2018-03-07T12:32:17Z</time>
      </trkpt>
      <trkpt lat="46.73872" lon="-1.78526">
        <ele>15</ele>
        <time>2018-03-07T12:33:17Z</time>
      </trkpt>
      <trkpt lat="46.7387" lon="-1.78512">
        <ele>14</ele>
        <time>2018-03-07T12:34:17Z</time>
      </trkpt>
      <trkpt lat="46.73868" lon="-1.78503">
        <ele>14</ele>
        <time>2018-03-07T12:35:17Z</time>
      </trkpt>
      <trkpt lat="46.73868" lon="-1.78495">
        <ele>14</ele>
        <time>2018-03-07T12:36:17Z</time>
      </trkpt>
      <trkpt lat="46.73866" lon="-1.78483">
        <ele>15</ele>
        <time>2018-03-07T12:37:17Z</time>
      </trkpt>
      <trkpt lat="46.73866" lon="-1.7848">
        <ele>15</ele>
        <time>2018-03-07T12:38:17Z</time>
      </trkpt>
      <trkpt lat="46.73866" lon="-1.78465">
        <ele>15</ele>
        <time>2018-03-07T12:39:17Z</time>
      </trkpt>
      <trkpt lat="46.73866" lon="-1.7845">
        <ele>16</ele>
        <time>2018-03-07T12:40:17Z</time>
      </trkpt>
      <trkpt lat="46.73867" lon="-1.78435">
        <ele>16</ele>
        <time>2018-03-07T12:41:17Z</time>
      </trkpt>
      <trkpt lat="46.73868" lon="-1.78423">
        <ele>16</ele>
        <time>2018-03-07T12:42:17Z</time>
      </trkpt>
      <trkpt lat="46.73869" lon="-1.78415">
        <ele>17</ele>
        <time>2018-03-07T12:43:17Z</time>
      </trkpt>
      <trkpt lat="46.73871" lon="-1.78402">
        <ele>17</ele>
        <time>2018-03-07T12:44:17Z</time>
      </trkpt>
      <trkpt lat="46.73877" lon="-1.78375">
        <ele>19</ele>
        <time>2018-03-07T12:45:17Z</time>
      </trkpt>
      <trkpt lat="46.73884" lon="-1.78341">
        <ele>20</ele>
        <time>2018-03-07T12:46:17Z</time>
      </trkpt>
      <trkpt lat="46.73892" lon="-1.78308">
        <ele>20</ele>
        <time>2018-03-07T12:47:17Z</time>
      </trkpt>
      <trkpt lat="46.73893" lon="-1.78302">
        <ele>20</ele>
        <time>2018-03-07T12:48:17Z</time>
      </trkpt>
      <trkpt lat="46.73895" lon="-1.78298">
        <ele>20</ele>
        <time>2018-03-07T12:49:17Z</time>
      </trkpt>
      <trkpt lat="46.73905" lon="-1.78253">
        <ele>20</ele>
        <time>2018-03-07T12:50:17Z</time>
      </trkpt>
      <trkpt lat="46.73921" lon="-1.78185">
        <ele>20</ele>
        <time>2018-03-07T12:51:17Z</time>
      </trkpt>
      <trkpt lat="46.73925" lon="-1.78164">
        <ele>20</ele>
        <time>2018-03-07T12:52:17Z</time>
      </trkpt>
      <trkpt lat="46.73928" lon="-1.78144">
        <ele>20</ele>
        <time>2018-03-07T12:53:17Z</time>
      </trkpt>
      <trkpt lat="46.73932" lon="-1.78123">
        <ele>20</ele>
        <time>2018-03-07T12:54:17Z</time>
      </trkpt>
      <trkpt lat="46.73933" lon="-1.78105">
        <ele>20</ele>
        <time>2018-03-07T12:55:17Z</time>
      </trkpt>
      <trkpt lat="46.73934" lon="-1.78092">
        <ele>20</ele>
        <time>2018-03-07T12:56:17Z</time>
      </trkpt>
      <trkpt lat="46.73938" lon="-1.78043">
        <ele>20</ele>
        <time>2018-03-07T12:57:17Z</time>
      </trkpt>
      <trkpt lat="46.73939" lon="-1.78038">
        <ele>20</ele>
        <time>2018-03-07T12:58:17Z</time>
      </trkpt>
      <trkpt lat="46.73944" lon="-1.77959">
        <ele>20</ele>
        <time>2018-03-07T12:59:17Z</time>
      </trkpt>
      <trkpt lat="46.7395" lon="-1.77883">
        <ele>19</ele>
        <time>2018-03-07T13:00:17Z</time>
      </trkpt>
      <trkpt lat="46.73954" lon="-1.77822">
        <ele>17</ele>
        <time>2018-03-07T13:01:17Z</time>
      </trkpt>
      <trkpt lat="46.73959" lon="-1.77764">
        <ele>16</ele>
        <time>2018-03-07T13:02:17Z</time>
      </trkpt>
      <trkpt lat="46.73961" lon="-1.77735">
        <ele>16</ele>
        <time>2018-03-07T13:03:17Z</time>
      </trkpt>
      <trkpt lat="46.73965" lon="-1.77681">
        <ele>16</ele>
        <time>2018-03-07T13:04:17Z</time>
      </trkpt>
      <trkpt lat="46.73967" lon="-1.77662">
        <ele>16</ele>
        <time>2018-03-07T13:05:17Z</time>
      </trkpt>
      <trkpt lat="46.73975" lon="-1.77559">
        <ele>16</ele>
        <time>2018-03-07T13:06:17Z</time>
      </trkpt>
      <trkpt lat="46.73977" lon="-1.77528">
        <ele>17</ele>
        <time>2018-03-07T13:07:17Z</time>
      </trkpt>
      <trkpt lat="46.7398" lon="-1.77497">
        <ele>17</ele>
        <time>2018-03-07T13:08:17Z</time>
      </trkpt>
      <trkpt lat="46.73982" lon="-1.7748">
        <ele>17</ele>
        <time>2018-03-07T13:09:17Z</time>
      </trkpt>
      <trkpt lat="46.73986" lon="-1.77462">
        <ele>16</ele>
        <time>2018-03-07T13:10:17Z</time>
      </trkpt>
      <trkpt lat="46.7399" lon="-1.77443">
        <ele>16</ele>
        <time>2018-03-07T13:11:17Z</time>
      </trkpt>
      <trkpt lat="46.73998" lon="-1.77414">
        <ele>16</ele>
        <time>2018-03-07T13:12:17Z</time>
      </trkpt>
      <trkpt lat="46.74017" lon="-1.77356">
        <ele>16</ele>
        <time>2018-03-07T13:13:17Z</time>
      </trkpt>
      <trkpt lat="46.74042" lon="-1.77279">
        <ele>16</ele>
        <time>2018-03-07T13:14:17Z</time>
      </trkpt>
      <trkpt lat="46.74058" lon="-1.77229">
        <ele>16</ele>
        <time>2018-03-07T13:15:17Z</time>
      </trkpt>
      <trkpt lat="46.74079" lon="-1.77166">
        <ele>15</ele>
        <time>2018-03-07T13:16:17Z</time>
      </trkpt>
      <trkpt lat="46.74097" lon="-1.77112">
        <ele>14</ele>
        <time>2018-03-07T13:17:17Z</time>
      </trkpt>
      <trkpt lat="46.74112" lon="-1.77067">
        <ele>12</ele>
        <time>2018-03-07T13:18:17Z</time>
      </trkpt>
      <trkpt lat="46.74122" lon="-1.77035">
        <ele>11</ele>
        <time>2018-03-07T13:19:17Z</time>
      </trkpt>
      <trkpt lat="46.74129" lon="-1.77007">
        <ele>10</ele>
        <time>2018-03-07T13:20:17Z</time>
      </trkpt>
      <trkpt lat="46.74132" lon="-1.76994">
        <ele>10</ele>
        <time>2018-03-07T13:21:17Z</time>
      </trkpt>
      <trkpt lat="46.74135" lon="-1.76981">
        <ele>10</ele>
        <time>2018-03-07T13:22:17Z</time>
      </trkpt>
      <trkpt lat="46.74136" lon="-1.76968">
        <ele>10</ele>
        <time>2018-03-07T13:23:17Z</time>
      </trkpt>
      <trkpt lat="46.74138" lon="-1.76955">
        <ele>10</ele>
        <time>2018-03-07T13:24:17Z</time>
      </trkpt>
      <trkpt lat="46.74139" lon="-1.76937">
        <ele>11</ele>
        <time>2018-03-07T13:25:17Z</time>
      </trkpt>
      <trkpt lat="46.7414" lon="-1.76915">
        <ele>11</ele>
        <time>2018-03-07T13:26:17Z</time>
      </trkpt>
      <trkpt lat="46.7414" lon="-1.76889">
        <ele>11</ele>
        <time>2018-03-07T13:27:17Z</time>
      </trkpt>
      <trkpt lat="46.74139" lon="-1.76781">
        <ele>11</ele>
        <time>2018-03-07T13:28:17Z</time>
      </trkpt>
      <trkpt lat="46.74139" lon="-1.76776">
        <ele>11</ele>
        <time>2018-03-07T13:29:17Z</time>
      </trkpt>
      <trkpt lat="46.74139" lon="-1.76768">
        <ele>10</ele>
        <time>2018-03-07T13:30:17Z</time>
      </trkpt>
      <trkpt lat="46.74139" lon="-1.76723">
        <ele>11</ele>
        <time>2018-03-07T13:31:17Z</time>
      </trkpt>
      <trkpt lat="46.74139" lon="-1.76638">
        <ele>14</ele>
        <time>2018-03-07T13:32:17Z</time>
      </trkpt>
      <trkpt lat="46.74138" lon="-1.76554">
        <ele>16</ele>
        <time>2018-03-07T13:33:17Z</time>
      </trkpt>
      <trkpt lat="46.74139" lon="-1.76446">
        <ele>19</ele>
        <time>2018-03-07T13:34:17Z</time>
      </trkpt>
      <trkpt lat="46.7414" lon="-1.76389">
        <ele>20</ele>
        <time>2018-03-07T13:35:17Z</time>
      </trkpt>
      <trkpt lat="46.74141" lon="-1.7637">
        <ele>21</ele>
        <time>2018-03-07T13:36:17Z</time>
      </trkpt>
      <trkpt lat="46.74141" lon="-1.76353">
        <ele>21</ele>
        <time>2018-03-07T13:37:17Z</time>
      </trkpt>
      <trkpt lat="46.74143" lon="-1.76338">
        <ele>21</ele>
        <time>2018-03-07T13:38:17Z</time>
      </trkpt>
      <trkpt lat="46.74145" lon="-1.76325">
        <ele>22</ele>
        <time>2018-03-07T13:39:17Z</time>
      </trkpt>
      <trkpt lat="46.74146" lon="-1.7631">
        <ele>22</ele>
        <time>2018-03-07T13:40:17Z</time>
      </trkpt>
      <trkpt lat="46.74149" lon="-1.76298">
        <ele>23</ele>
        <time>2018-03-07T13:41:17Z</time>
      </trkpt>
      <trkpt lat="46.74152" lon="-1.76284">
        <ele>23</ele>
        <time>2018-03-07T13:42:17Z</time>
      </trkpt>
      <trkpt lat="46.74156" lon="-1.76271">
        <ele>23</ele>
        <time>2018-03-07T13:43:17Z</time>
      </trkpt>
      <trkpt lat="46.7416" lon="-1.76258">
        <ele>24</ele>
        <time>2018-03-07T13:44:17Z</time>
      </trkpt>
      <trkpt lat="46.74165" lon="-1.76245">
        <ele>24</ele>
        <time>2018-03-07T13:45:17Z</time>
      </trkpt>
      <trkpt lat="46.74169" lon="-1.76234">
        <ele>24</ele>
        <time>2018-03-07T13:46:17Z</time>
      </trkpt>
      <trkpt lat="46.7418" lon="-1.76211">
        <ele>23</ele>
        <time>2018-03-07T13:47:17Z</time>
      </trkpt>
      <trkpt lat="46.74198" lon="-1.76178">
        <ele>22</ele>
        <time>2018-03-07T13:48:17Z</time>
      </trkpt>
      <trkpt lat="46.74218" lon="-1.76144">
        <ele>21</ele>
        <time>2018-03-07T13:49:17Z</time>
      </trkpt>
      <trkpt lat="46.74237" lon="-1.7611">
        <ele>21</ele>
        <time>2018-03-07T13:50:17Z</time>
      </trkpt>
      <trkpt lat="46.7425" lon="-1.76087">
        <ele>21</ele>
        <time>2018-03-07T13:51:17Z</time>
      </trkpt>
      <trkpt lat="46.74262" lon="-1.76064">
        <ele>21</ele>
        <time>2018-03-07T13:52:17Z</time>
      </trkpt>
      <trkpt lat="46.74273" lon="-1.7604">
        <ele>20</ele>
        <time>2018-03-07T13:53:17Z</time>
      </trkpt>
      <trkpt lat="46.74284" lon="-1.76017">
        <ele>20</ele>
        <time>2018-03-07T13:54:17Z</time>
      </trkpt>
      <trkpt lat="46.74294" lon="-1.75991">
        <ele>21</ele>
        <time>2018-03-07T13:55:17Z</time>
      </trkpt>
      <trkpt lat="46.74316" lon="-1.7594">
        <ele>20</ele>
        <time>2018-03-07T13:56:17Z</time>
      </trkpt>
      <trkpt lat="46.74359" lon="-1.75834">
        <ele>20</ele>
        <time>2018-03-07T13:57:17Z</time>
      </trkpt>
      <trkpt lat="46.74383" lon="-1.75777">
        <ele>20</ele>
        <time>2018-03-07T13:58:17Z</time>
      </trkpt>
      <trkpt lat="46.74404" lon="-1.75728">
        <ele>20</ele>
        <time>2018-03-07T13:59:17Z</time>
      </trkpt>
      <trkpt lat="46.74421" lon="-1.75687">
        <ele>20</ele>
        <time>2018-03-07T14:00:17Z</time>
      </trkpt>
      <trkpt lat="46.74438" lon="-1.75646">
        <ele>21</ele>
        <time>2018-03-07T14:01:17Z</time>
      </trkpt>
      <trkpt lat="46.74458" lon="-1.756">
        <ele>20</ele>
        <time>2018-03-07T14:02:17Z</time>
      </trkpt>
      <trkpt lat="46.74503" lon="-1.75493">
        <ele>23</ele>
        <time>2018-03-07T14:03:17Z</time>
      </trkpt>
      <trkpt lat="46.74531" lon="-1.75427">
        <ele>23</ele>
        <time>2018-03-07T14:04:17Z</time>
      </trkpt>
      <trkpt lat="46.74557" lon="-1.75364">
        <ele>24</ele>
        <time>2018-03-07T14:05:17Z</time>
      </trkpt>
      <trkpt lat="46.74569" lon="-1.75336">
        <ele>24</ele>
        <time>2018-03-07T14:06:17Z</time>
      </trkpt>
      <trkpt lat="46.74578" lon="-1.75313">
        <ele>24</ele>
        <time>2018-03-07T14:07:17Z</time>
      </trkpt>
      <trkpt lat="46.74585" lon="-1.75294">
        <ele>24</ele>
        <time>2018-03-07T14:08:17Z</time>
      </trkpt>
      <trkpt lat="46.7459" lon="-1.75279">
        <ele>24</ele>
        <time>2018-03-07T14:09:17Z</time>
      </trkpt>
      <trkpt lat="46.74594" lon="-1.75262">
        <ele>24</ele>
        <time>2018-03-07T14:10:17Z</time>
      </trkpt>
      <trkpt lat="46.74601" lon="-1.75236">
        <ele>24</ele>
        <time>2018-03-07T14:11:17Z</time>
      </trkpt>
      <trkpt lat="46.74608" lon="-1.75205">
        <ele>25</ele>
        <time>2018-03-07T14:12:17Z</time>
      </trkpt>
      <trkpt lat="46.74618" lon="-1.75155">
        <ele>26</ele>
        <time>2018-03-07T14:13:17Z</time>
      </trkpt>
      <trkpt lat="46.74628" lon="-1.751">
        <ele>26</ele>
        <time>2018-03-07T14:14:17Z</time>
      </trkpt>
      <trkpt lat="46.74635" lon="-1.75056">
        <ele>25</ele>
        <time>2018-03-07T14:15:17Z</time>
      </trkpt>
      <trkpt lat="46.7464" lon="-1.75028">
        <ele>24</ele>
        <time>2018-03-07T14:16:17Z</time>
      </trkpt>
      <trkpt lat="46.74643" lon="-1.75013">
        <ele>23</ele>
        <time>2018-03-07T14:17:17Z</time>
      </trkpt>
      <trkpt lat="46.74645" lon="-1.74999">
        <ele>23</ele>
        <time>2018-03-07T14:18:17Z</time>
      </trkpt>
      <trkpt lat="46.74647" lon="-1.74984">
        <ele>23</ele>
        <time>2018-03-07T14:19:17Z</time>
      </trkpt>
      <trkpt lat="46.74648" lon="-1.7497">
        <ele>23</ele>
        <time>2018-03-07T14:20:17Z</time>
      </trkpt>
      <trkpt lat="46.74649" lon="-1.74956">
        <ele>23</ele>
        <time>2018-03-07T14:21:17Z</time>
      </trkpt>
      <trkpt lat="46.7465" lon="-1.74942">
        <ele>22</ele>
        <time>2018-03-07T14:22:17Z</time>
      </trkpt>
      <trkpt lat="46.74651" lon="-1.74928">
        <ele>22</ele>
        <time>2018-03-07T14:23:17Z</time>
      </trkpt>
      <trkpt lat="46.74651" lon="-1.74914">
        <ele>22</ele>
        <time>2018-03-07T14:24:17Z</time>
      </trkpt>
      <trkpt lat="46.7465" lon="-1.749">
        <ele>23</ele>
        <time>2018-03-07T14:25:17Z</time>
      </trkpt>
      <trkpt lat="46.7465" lon="-1.74887">
        <ele>23</ele>
        <time>2018-03-07T14:26:17Z</time>
      </trkpt>
      <trkpt lat="46.74649" lon="-1.74874">
        <ele>23</ele>
        <time>2018-03-07T14:27:17Z</time>
      </trkpt>
      <trkpt lat="46.74647" lon="-1.74852">
        <ele>24</ele>
        <time>2018-03-07T14:28:17Z</time>
      </trkpt>
      <trkpt lat="46.74642" lon="-1.74826">
        <ele>25</ele>
        <time>2018-03-07T14:29:17Z</time>
      </trkpt>
      <trkpt lat="46.74637" lon="-1.74797">
        <ele>25</ele>
        <time>2018-03-07T14:30:17Z</time>
      </trkpt>
      <trkpt lat="46.74631" lon="-1.74766">
        <ele>25</ele>
        <time>2018-03-07T14:31:17Z</time>
      </trkpt>
      <trkpt lat="46.74622" lon="-1.74719">
        <ele>25</ele>
        <time>2018-03-07T14:32:17Z</time>
      </trkpt>
      <trkpt lat="46.74617" lon="-1.74692">
        <ele>25</ele>
        <time>2018-03-07T14:33:17Z</time>
      </trkpt>
      <trkpt lat="46.74611" lon="-1.74666">
        <ele>25</ele>
        <time>2018-03-07T14:34:17Z</time>
      </trkpt>
      <trkpt lat="46.74607" lon="-1.74642">
        <ele>25</ele>
        <time>2018-03-07T14:35:17Z</time>
      </trkpt>
      <trkpt lat="46.74603" lon="-1.74617">
        <ele>24</ele>
        <time>2018-03-07T14:36:17Z</time>
      </trkpt>
      <trkpt lat="46.746" lon="-1.74603">
        <ele>24</ele>
        <time>2018-03-07T14:37:17Z</time>
      </trkpt>
      <trkpt lat="46.74599" lon="-1.74596">
        <ele>24</ele>
        <time>2018-03-07T14:38:17Z</time>
      </trkpt>
      <trkpt lat="46.74597" lon="-1.74586">
        <ele>24</ele>
        <time>2018-03-07T14:39:17Z</time>
      </trkpt>
      <trkpt lat="46.74597" lon="-1.74586">
        <ele>24</ele>
        <time>2018-03-07T14:40:17Z</time>
      </trkpt>
      <trkpt lat="46.74603" lon="-1.74581">
        <ele>24</ele>
        <time>2018-03-07T14:41:17Z</time>
      </trkpt>
      <trkpt lat="46.74606" lon="-1.74576">
        <ele>23</ele>
        <time>2018-03-07T14:42:17Z</time>
      </trkpt>
      <trkpt lat="46.74617" lon="-1.74563">
        <ele>22</ele>
        <time>2018-03-07T14:43:17Z</time>
      </trkpt>
      <trkpt lat="46.74631" lon="-1.74544">
        <ele>21</ele>
        <time>2018-03-07T14:44:17Z</time>
      </trkpt>
      <trkpt lat="46.74667" lon="-1.74493">
        <ele>20</ele>
        <time>2018-03-07T14:45:17Z</time>
      </trkpt>
      <trkpt lat="46.74688" lon="-1.74462">
        <ele>19</ele>
        <time>2018-03-07T14:46:17Z</time>
      </trkpt>
      <trkpt lat="46.74699" lon="-1.74442">
        <ele>18</ele>
        <time>2018-03-07T14:47:17Z</time>
      </trkpt>
      <trkpt lat="46.74707" lon="-1.74428">
        <ele>18</ele>
        <time>2018-03-07T14:48:17Z</time>
      </trkpt>
      <trkpt lat="46.74715" lon="-1.74412">
        <ele>17</ele>
        <time>2018-03-07T14:49:17Z</time>
      </trkpt>
      <trkpt lat="46.74719" lon="-1.74402">
        <ele>17</ele>
        <time>2018-03-07T14:50:17Z</time>
      </trkpt>
      <trkpt lat="46.74724" lon="-1.74388">
        <ele>17</ele>
        <time>2018-03-07T14:51:17Z</time>
      </trkpt>
      <trkpt lat="46.74729" lon="-1.74372">
        <ele>16</ele>
        <time>2018-03-07T14:52:17Z</time>
      </trkpt>
      <trkpt lat="46.74732" lon="-1.74359">
        <ele>16</ele>
        <time>2018-03-07T14:53:17Z</time>
      </trkpt>
      <trkpt lat="46.74735" lon="-1.74347">
        <ele>15</ele>
        <time>2018-03-07T14:54:17Z</time>
      </trkpt>
      <trkpt lat="46.74738" lon="-1.74327">
        <ele>14</ele>
        <time>2018-03-07T14:55:17Z</time>
      </trkpt>
      <trkpt lat="46.74739" lon="-1.74314">
        <ele>14</ele>
        <time>2018-03-07T14:56:17Z</time>
      </trkpt>
      <trkpt lat="46.7474" lon="-1.743">
        <ele>14</ele>
        <time>2018-03-07T14:57:17Z</time>
      </trkpt>
      <trkpt lat="46.74741" lon="-1.74282">
        <ele>14</ele>
        <time>2018-03-07T14:58:17Z</time>
      </trkpt>
      <trkpt lat="46.74742" lon="-1.74239">
        <ele>14</ele>
        <time>2018-03-07T14:59:17Z</time>
      </trkpt>
      <trkpt lat="46.74741" lon="-1.74229">
        <ele>14</ele>
        <time>2018-03-07T15:00:17Z</time>
      </trkpt>
      <trkpt lat="46.7474" lon="-1.74216">
        <ele>13</ele>
        <time>2018-03-07T15:01:17Z</time>
      </trkpt>
      <trkpt lat="46.74738" lon="-1.74205">
        <ele>13</ele>
        <time>2018-03-07T15:02:17Z</time>
      </trkpt>
      <trkpt lat="46.74736" lon="-1.74196">
        <ele>13</ele>
        <time>2018-03-07T15:03:17Z</time>
      </trkpt>
      <trkpt lat="46.74734" lon="-1.74192">
        <ele>13</ele>
        <time>2018-03-07T15:04:17Z</time>
      </trkpt>
      <trkpt lat="46.74732" lon="-1.74188">
        <ele>13</ele>
        <time>2018-03-07T15:05:17Z</time>
      </trkpt>
      <trkpt lat="46.74729" lon="-1.74181">
        <ele>13</ele>
        <time>2018-03-07T15:06:17Z</time>
      </trkpt>
      <trkpt lat="46.74733" lon="-1.74169">
        <ele>13</ele>
        <time>2018-03-07T15:07:17Z</time>
      </trkpt>
      <trkpt lat="46.74735" lon="-1.74165">
        <ele>12</ele>
        <time>2018-03-07T15:08:17Z</time>
      </trkpt>
      <trkpt lat="46.74736" lon="-1.74163">
        <ele>12</ele>
        <time>2018-03-07T15:09:17Z</time>
      </trkpt>
      <trkpt lat="46.74756" lon="-1.74143">
        <ele>11</ele>
        <time>2018-03-07T15:10:17Z</time>
      </trkpt>
      <trkpt lat="46.74762" lon="-1.74138">
        <ele>12</ele>
        <time>2018-03-07T15:11:17Z</time>
      </trkpt>
      <trkpt lat="46.7477" lon="-1.74131">
        <ele>12</ele>
        <time>2018-03-07T15:12:17Z</time>
      </trkpt>
      <trkpt lat="46.74778" lon="-1.74124">
        <ele>13</ele>
        <time>2018-03-07T15:13:17Z</time>
      </trkpt>
      <trkpt lat="46.74787" lon="-1.74117">
        <ele>13</ele>
        <time>2018-03-07T15:14:17Z</time>
      </trkpt>
      <trkpt lat="46.748" lon="-1.74108">
        <ele>14</ele>
        <time>2018-03-07T15:15:17Z</time>
      </trkpt>
      <trkpt lat="46.74805" lon="-1.74105">
        <ele>14</ele>
        <time>2018-03-07T15:16:17Z</time>
      </trkpt>
      <trkpt lat="46.74807" lon="-1.74104">
        <ele>15</ele>
        <time>2018-03-07T15:17:17Z</time>
      </trkpt>
      <trkpt lat="46.7481" lon="-1.74103">
        <ele>15</ele>
        <time>2018-03-07T15:18:17Z</time>
      </trkpt>
      <trkpt lat="46.74816" lon="-1.741">
        <ele>15</ele>
        <time>2018-03-07T15:19:17Z</time>
      </trkpt>
      <trkpt lat="46.74838" lon="-1.7409">
        <ele>17</ele>
        <time>2018-03-07T15:20:17Z</time>
      </trkpt>
      <trkpt lat="46.74839" lon="-1.74089">
        <ele>17</ele>
        <time>2018-03-07T15:21:17Z</time>
      </trkpt>
      <trkpt lat="46.74841" lon="-1.74088">
        <ele>17</ele>
        <time>2018-03-07T15:22:17Z</time>
      </trkpt>
      <trkpt lat="46.74851" lon="-1.74084">
        <ele>18</ele>
        <time>2018-03-07T15:23:17Z</time>
      </trkpt>
      <trkpt lat="46.74855" lon="-1.74083">
        <ele>19</ele>
        <time>2018-03-07T15:24:17Z</time>
      </trkpt>
      <trkpt lat="46.74862" lon="-1.7408">
        <ele>19</ele>
        <time>2018-03-07T15:25:17Z</time>
      </trkpt>
      <trkpt lat="46.74934" lon="-1.74049">
        <ele>25</ele>
        <time>2018-03-07T15:26:17Z</time>
      </trkpt>
      <trkpt lat="46.74938" lon="-1.74047">
        <ele>25</ele>
        <time>2018-03-07T15:27:17Z</time>
      </trkpt>
      <trkpt lat="46.74942" lon="-1.74045">
        <ele>25</ele>
        <time>2018-03-07T15:28:17Z</time>
      </trkpt>
      <trkpt lat="46.74963" lon="-1.74029">
        <ele>27</ele>
        <time>2018-03-07T15:29:17Z</time>
      </trkpt>
      <trkpt lat="46.74966" lon="-1.74027">
        <ele>27</ele>
        <time>2018-03-07T15:30:17Z</time>
      </trkpt>
      <trkpt lat="46.74973" lon="-1.7402">
        <ele>27</ele>
        <time>2018-03-07T15:31:17Z</time>
      </trkpt>
      <trkpt lat="46.74973" lon="-1.7402">
        <ele>27</ele>
        <time>2018-03-07T15:32:17Z</time>
      </trkpt>
      <trkpt lat="46.74944" lon="-1.73979">
        <ele>28</ele>
        <time>2018-03-07T15:33:17Z</time>
      </trkpt>
      <trkpt lat="46.74941" lon="-1.73975">
        <ele>28</ele>
        <time>2018-03-07T15:34:17Z</time>
      </trkpt>
      <trkpt lat="46.74937" lon="-1.73972">
        <ele>28</ele>
        <time>2018-03-07T15:35:17Z</time>
      </trkpt>
      <trkpt lat="46.74933" lon="-1.7397">
        <ele>28</ele>
        <time>2018-03-07T15:36:17Z</time>
      </trkpt>
      <trkpt lat="46.7493" lon="-1.73969">
        <ele>27</ele>
        <time>2018-03-07T15:37:17Z</time>
      </trkpt>
      <trkpt lat="46.74925" lon="-1.73968">
        <ele>27</ele>
        <time>2018-03-07T15:38:17Z</time>
      </trkpt>
      <trkpt lat="46.74921" lon="-1.73967">
        <ele>27</ele>
        <time>2018-03-07T15:39:17Z</time>
      </trkpt>
      <trkpt lat="46.74917" lon="-1.73966">
        <ele>27</ele>
        <time>2018-03-07T15:40:17Z</time>
      </trkpt>
      <trkpt lat="46.74912" lon="-1.73965">
        <ele>27</ele>
        <time>2018-03-07T15:41:17Z</time>
      </trkpt>
      <trkpt lat="46.74908" lon="-1.73962">
        <ele>27</ele>
        <time>2018-03-07T15:42:17Z</time>
      </trkpt>
      <trkpt lat="46.74904" lon="-1.73959">
        <ele>27</ele>
        <time>2018-03-07T15:43:17Z</time>
      </trkpt>
      <trkpt lat="46.74897" lon="-1.73949">
        <ele>28</ele>
        <time>2018-03-07T15:44:17Z</time>
      </trkpt>
      <trkpt lat="46.7489" lon="-1.73938">
        <ele>28</ele>
        <time>2018-03-07T15:45:17Z</time>
      </trkpt>
      <trkpt lat="46.74885" lon="-1.73926">
        <ele>29</ele>
        <time>2018-03-07T15:46:17Z</time>
      </trkpt>
      <trkpt lat="46.74882" lon="-1.7392">
        <ele>29</ele>
        <time>2018-03-07T15:47:17Z</time>
      </trkpt>
      <trkpt lat="46.74876" lon="-1.73908">
        <ele>29</ele>
        <time>2018-03-07T15:48:17Z</time>
      </trkpt>
      <trkpt lat="46.74875" lon="-1.73905">
        <ele>29</ele>
        <time>2018-03-07T15:49:17Z</time>
      </trkpt>
      <trkpt lat="46.74872" lon="-1.73903">
        <ele>29</ele>
        <time>2018-03-07T15:50:17Z</time>
      </trkpt>
      <trkpt lat="46.74871" lon="-1.73902">
        <ele>29</ele>
        <time>2018-03-07T15:51:17Z</time>
      </trkpt>
      <trkpt lat="46.74864" lon="-1.73883">
        <ele>30</ele>
        <time>2018-03-07T15:52:17Z</time>
      </trkpt>
      <trkpt lat="46.74864" lon="-1.73883">
        <ele>30</ele>
        <time>2018-03-07T15:53:17Z</time>
      </trkpt>
      <trkpt lat="46.74863" lon="-1.73883">
        <ele>30</ele>
        <time>2018-03-07T15:54:17Z</time>
      </trkpt>
      <trkpt lat="46.74863" lon="-1.73882">
        <ele>30</ele>
        <time>2018-03-07T15:55:17Z</time>
      </trkpt>
      <trkpt lat="46.74862" lon="-1.73882">
        <ele>30</ele>
        <time>2018-03-07T15:56:17Z</time>
      </trkpt>
      <trkpt lat="46.74861" lon="-1.73881">
        <ele>30</ele>
        <time>2018-03-07T15:57:17Z</time>
      </trkpt>
      <trkpt lat="46.7486" lon="-1.73881">
        <ele>30</ele>
        <time>2018-03-07T15:58:17Z</time>
      </trkpt>
      <trkpt lat="46.7486" lon="-1.7388">
        <ele>30</ele>
        <time>2018-03-07T15:59:17Z</time>
      </trkpt>
      <trkpt lat="46.74859" lon="-1.73879">
        <ele>30</ele>
        <time>2018-03-07T16:00:17Z</time>
      </trkpt>
      <trkpt lat="46.74859" lon="-1.73878">
        <ele>30</ele>
        <time>2018-03-07T16:01:17Z</time>
      </trkpt>
      <trkpt lat="46.74858" lon="-1.73878">
        <ele>30</ele>
        <time>2018-03-07T16:02:17Z</time>
      </trkpt>
      <trkpt lat="46.74858" lon="-1.73877">
        <ele>30</ele>
        <time>2018-03-07T16:03:17Z</time>
      </trkpt>
      <trkpt lat="46.74858" lon="-1.73876">
        <ele>30</ele>
        <time>2018-03-07T16:04:17Z</time>
      </trkpt>
      <trkpt lat="46.74858" lon="-1.73875">
        <ele>30</ele>
        <time>2018-03-07T16:05:17Z</time>
      </trkpt>
      <trkpt lat="46.74857" lon="-1.73875">
        <ele>30</ele>
        <time>2018-03-07T16:06:17Z</time>
      </trkpt>
      <trkpt lat="46.74857" lon="-1.73874">
        <ele>30</ele>
        <time>2018-03-07T16:07:17Z</time>
      </trkpt>
      <trkpt lat="46.74857" lon="-1.73873">
        <ele>30</ele>
        <time>2018-03-07T16:08:17Z</time>
      </trkpt>
      <trkpt lat="46.74857" lon="-1.73872">
        <ele>30</ele>
        <time>2018-03-07T16:09:17Z</time>
      </trkpt>
      <trkpt lat="46.74857" lon="-1.73871">
        <ele>30</ele>
        <time>2018-03-07T16:10:17Z</time>
      </trkpt>
      <trkpt lat="46.74857" lon="-1.7387">
        <ele>30</ele>
        <time>2018-03-07T16:11:17Z</time>
      </trkpt>
      <trkpt lat="46.74858" lon="-1.7387">
        <ele>30</ele>
        <time>2018-03-07T16:12:17Z</time>
      </trkpt>
      <trkpt lat="46.74858" lon="-1.73869">
        <ele>30</ele>
        <time>2018-03-07T16:13:17Z</time>
      </trkpt>
      <trkpt lat="46.74858" lon="-1.73868">
        <ele>30</ele>
        <time>2018-03-07T16:14:17Z</time>
      </trkpt>
      <trkpt lat="46.74858" lon="-1.73867">
        <ele>30</ele>
        <time>2018-03-07T16:15:17Z</time>
      </trkpt>
      <trkpt lat="46.74859" lon="-1.73867">
        <ele>30</ele>
        <time>2018-03-07T16:16:17Z</time>
      </trkpt>
      <trkpt lat="46.74859" lon="-1.73866">
        <ele>30</ele>
        <time>2018-03-07T16:17:17Z</time>
      </trkpt>
      <trkpt lat="46.7486" lon="-1.73865">
        <ele>30</ele>
        <time>2018-03-07T16:18:17Z</time>
      </trkpt>
      <trkpt lat="46.74861" lon="-1.73864">
        <ele>30</ele>
        <time>2018-03-07T16:19:17Z</time>
      </trkpt>
      <trkpt lat="46.74862" lon="-1.73864">
        <ele>30</ele>
        <time>2018-03-07T16:20:17Z</time>
      </trkpt>
      <trkpt lat="46.74862" lon="-1.73863">
        <ele>30</ele>
        <time>2018-03-07T16:21:17Z</time>
      </trkpt>
      <trkpt lat="46.74863" lon="-1.73863">
        <ele>30</ele>
        <time>2018-03-07T16:22:17Z</time>
      </trkpt>
      <trkpt lat="46.74864" lon="-1.73863">
        <ele>30</ele>
        <time>2018-03-07T16:23:17Z</time>
      </trkpt>
      <trkpt lat="46.74865" lon="-1.73863">
        <ele>31</ele>
        <time>2018-03-07T16:24:17Z</time>
      </trkpt>
      <trkpt lat="46.74866" lon="-1.73863">
        <ele>31</ele>
        <time>2018-03-07T16:25:17Z</time>
      </trkpt>
      <trkpt lat="46.74867" lon="-1.73863">
        <ele>31</ele>
        <time>2018-03-07T16:26:17Z</time>
      </trkpt>
      <trkpt lat="46.74868" lon="-1.73863">
        <ele>31</ele>
        <time>2018-03-07T16:27:17Z</time>
      </trkpt>
      <trkpt lat="46.74873" lon="-1.7386">
        <ele>31</ele>
        <time>2018-03-07T16:28:17Z</time>
      </trkpt>
      <trkpt lat="46.74877" lon="-1.73856">
        <ele>31</ele>
        <time>2018-03-07T16:29:17Z</time>
      </trkpt>
      <trkpt lat="46.74883" lon="-1.73854">
        <ele>32</ele>
        <time>2018-03-07T16:30:17Z</time>
      </trkpt>
      <trkpt lat="46.74908" lon="-1.73846">
        <ele>33</ele>
        <time>2018-03-07T16:31:17Z</time>
      </trkpt>
      <trkpt lat="46.74991" lon="-1.73849">
        <ele>38</ele>
        <time>2018-03-07T16:32:17Z</time>
      </trkpt>
      <trkpt lat="46.75012" lon="-1.73852">
        <ele>38</ele>
        <time>2018-03-07T16:33:17Z</time>
      </trkpt>
      <trkpt lat="46.75026" lon="-1.73853">
        <ele>39</ele>
        <time>2018-03-07T16:34:17Z</time>
      </trkpt>
      <trkpt lat="46.75035" lon="-1.73853">
        <ele>39</ele>
        <time>2018-03-07T16:35:17Z</time>
      </trkpt>
      <trkpt lat="46.75041" lon="-1.73853">
        <ele>40</ele>
        <time>2018-03-07T16:36:17Z</time>
      </trkpt>
      <trkpt lat="46.75118" lon="-1.73846">
        <ele>43</ele>
        <time>2018-03-07T16:37:17Z</time>
      </trkpt>
      <trkpt lat="46.75133" lon="-1.73845">
        <ele>44</ele>
        <time>2018-03-07T16:38:17Z</time>
      </trkpt>
      <trkpt lat="46.75153" lon="-1.73848">
        <ele>45</ele>
        <time>2018-03-07T16:39:17Z</time>
      </trkpt>
      <trkpt lat="46.75169" lon="-1.73854">
        <ele>46</ele>
        <time>2018-03-07T16:40:17Z</time>
      </trkpt>
      <trkpt lat="46.75183" lon="-1.73862">
        <ele>46</ele>
        <time>2018-03-07T16:41:17Z</time>
      </trkpt>
      <trkpt lat="46.75201" lon="-1.73873">
        <ele>46</ele>
        <time>2018-03-07T16:42:17Z</time>
      </trkpt>
      <trkpt lat="46.75211" lon="-1.73882">
        <ele>46</ele>
        <time>2018-03-07T16:43:17Z</time>
      </trkpt>
      <trkpt lat="46.75211" lon="-1.73882">
        <ele>46</ele>
        <time>2018-03-07T16:44:17Z</time>
      </trkpt>
      <trkpt lat="46.75216" lon="-1.73867">
        <ele>47</ele>
        <time>2018-03-07T16:45:17Z</time>
      </trkpt>
      <trkpt lat="46.75226" lon="-1.73846">
        <ele>47</ele>
        <time>2018-03-07T16:46:17Z</time>
      </trkpt>
      <trkpt lat="46.75243" lon="-1.7381">
        <ele>48</ele>
        <time>2018-03-07T16:47:17Z</time>
      </trkpt>
      <trkpt lat="46.75247" lon="-1.738">
        <ele>49</ele>
        <time>2018-03-07T16:48:17Z</time>
      </trkpt>
      <trkpt lat="46.75259" lon="-1.73776">
        <ele>50</ele>
        <time>2018-03-07T16:49:17Z</time>
      </trkpt>
      <trkpt lat="46.75268" lon="-1.73759">
        <ele>50</ele>
        <time>2018-03-07T16:50:17Z</time>
      </trkpt>
      <trkpt lat="46.75271" lon="-1.73754">
        <ele>50</ele>
        <time>2018-03-07T16:51:17Z</time>
      </trkpt>
      <trkpt lat="46.75276" lon="-1.73746">
        <ele>50</ele>
        <time>2018-03-07T16:52:17Z</time>
      </trkpt>
      <trkpt lat="46.75285" lon="-1.73733">
        <ele>51</ele>
        <time>2018-03-07T16:53:17Z</time>
      </trkpt>
      <trkpt lat="46.75292" lon="-1.73721">
        <ele>51</ele>
        <time>2018-03-07T16:54:17Z</time>
      </trkpt>
      <trkpt lat="46.75301" lon="-1.73709">
        <ele>51</ele>
        <time>2018-03-07T16:55:17Z</time>
      </trkpt>
      <trkpt lat="46.75305" lon="-1.73703">
        <ele>51</ele>
        <time>2018-03-07T16:56:17Z</time>
      </trkpt>
      <trkpt lat="46.75309" lon="-1.73698">
        <ele>51</ele>
        <time>2018-03-07T16:57:17Z</time>
      </trkpt>
      <trkpt lat="46.75319" lon="-1.73686">
        <ele>52</ele>
        <time>2018-03-07T16:58:17Z</time>
      </trkpt>
      <trkpt lat="46.75329" lon="-1.73675">
        <ele>52</ele>
        <time>2018-03-07T16:59:17Z</time>
      </trkpt>
      <trkpt lat="46.75344" lon="-1.73658">
        <ele>52</ele>
        <time>2018-03-07T17:00:17Z</time>
      </trkpt>
      <trkpt lat="46.7539" lon="-1.73612">
        <ele>53</ele>
        <time>2018-03-07T17:01:17Z</time>
      </trkpt>
      <trkpt lat="46.7541" lon="-1.73592">
        <ele>53</ele>
        <time>2018-03-07T17:02:17Z</time>
      </trkpt>
      <trkpt lat="46.75442" lon="-1.73561">
        <ele>54</ele>
        <time>2018-03-07T17:03:17Z</time>
      </trkpt>
      <trkpt lat="46.75452" lon="-1.7355">
        <ele>54</ele>
        <time>2018-03-07T17:04:17Z</time>
      </trkpt>
      <trkpt lat="46.75488" lon="-1.73511">
        <ele>56</ele>
        <time>2018-03-07T17:05:17Z</time>
      </trkpt>
      <trkpt lat="46.75511" lon="-1.73485">
        <ele>56</ele>
        <time>2018-03-07T17:06:17Z</time>
      </trkpt>
      <trkpt lat="46.75518" lon="-1.73476">
        <ele>56</ele>
        <time>2018-03-07T17:07:17Z</time>
      </trkpt>
      <trkpt lat="46.75524" lon="-1.73468">
        <ele>56</ele>
        <time>2018-03-07T17:08:17Z</time>
      </trkpt>
      <trkpt lat="46.75529" lon="-1.73461">
        <ele>56</ele>
        <time>2018-03-07T17:09:17Z</time>
      </trkpt>
      <trkpt lat="46.75534" lon="-1.73455">
        <ele>56</ele>
        <time>2018-03-07T17:10:17Z</time>
      </trkpt>
      <trkpt lat="46.75538" lon="-1.73448">
        <ele>56</ele>
        <time>2018-03-07T17:11:17Z</time>
      </trkpt>
      <trkpt lat="46.75541" lon="-1.73445">
        <ele>56</ele>
        <time>2018-03-07T17:12:17Z</time>
      </trkpt>
      <trkpt lat="46.75544" lon="-1.73439">
        <ele>56</ele>
        <time>2018-03-07T17:13:17Z</time>
      </trkpt>
      <trkpt lat="46.75553" lon="-1.73423">
        <ele>56</ele>
        <time>2018-03-07T17:14:17Z</time>
      </trkpt>
      <trkpt lat="46.75555" lon="-1.73418">
        <ele>56</ele>
        <time>2018-03-07T17:15:17Z</time>
      </trkpt>
      <trkpt lat="46.75557" lon="-1.73412">
        <ele>56</ele>
        <time>2018-03-07T17:16:17Z</time>
      </trkpt>
      <trkpt lat="46.7556" lon="-1.73403">
        <ele>56</ele>
        <time>2018-03-07T17:17:17Z</time>
      </trkpt>
      <trkpt lat="46.75564" lon="-1.7339">
        <ele>56</ele>
        <time>2018-03-07T17:18:17Z</time>
      </trkpt>
      <trkpt lat="46.75567" lon="-1.73377">
        <ele>56</ele>
        <time>2018-03-07T17:19:17Z</time>
      </trkpt>
      <trkpt lat="46.75575" lon="-1.73341">
        <ele>57</ele>
        <time>2018-03-07T17:20:17Z</time>
      </trkpt>
      <trkpt lat="46.75589" lon="-1.73274">
        <ele>56</ele>
        <time>2018-03-07T17:21:17Z</time>
      </trkpt>
      <trkpt lat="46.75598" lon="-1.73226">
        <ele>55</ele>
        <time>2018-03-07T17:22:17Z</time>
      </trkpt>
      <trkpt lat="46.75608" lon="-1.73181">
        <ele>54</ele>
        <time>2018-03-07T17:23:17Z</time>
      </trkpt>
      <trkpt lat="46.75612" lon="-1.73156">
        <ele>54</ele>
        <time>2018-03-07T17:24:17Z</time>
      </trkpt>
      <trkpt lat="46.75617" lon="-1.73128">
        <ele>54</ele>
        <time>2018-03-07T17:25:17Z</time>
      </trkpt>
      <trkpt lat="46.75616" lon="-1.7312">
        <ele>54</ele>
        <time>2018-03-07T17:26:17Z</time>
      </trkpt>
      <trkpt lat="46.75618" lon="-1.73089">
        <ele>53</ele>
        <time>2018-03-07T17:27:17Z</time>
      </trkpt>
      <trkpt lat="46.75616" lon="-1.73087">
        <ele>53</ele>
        <time>2018-03-07T17:28:17Z</time>
      </trkpt>
      <trkpt lat="46.75615" lon="-1.73085">
        <ele>53</ele>
        <time>2018-03-07T17:29:17Z</time>
      </trkpt>
      <trkpt lat="46.75614" lon="-1.73083">
        <ele>53</ele>
        <time>2018-03-07T17:30:17Z</time>
      </trkpt>
      <trkpt lat="46.75614" lon="-1.73082">
        <ele>53</ele>
        <time>2018-03-07T17:31:17Z</time>
      </trkpt>
      <trkpt lat="46.75614" lon="-1.73081">
        <ele>53</ele>
        <time>2018-03-07T17:32:17Z</time>
      </trkpt>
      <trkpt lat="46.75613" lon="-1.73078">
        <ele>53</ele>
        <time>2018-03-07T17:33:17Z</time>
      </trkpt>
      <trkpt lat="46.75613" lon="-1.73075">
        <ele>53</ele>
        <time>2018-03-07T17:34:17Z</time>
      </trkpt>
      <trkpt lat="46.75614" lon="-1.73071">
        <ele>53</ele>
        <time>2018-03-07T17:35:17Z</time>
      </trkpt>
      <trkpt lat="46.75615" lon="-1.73066">
        <ele>53</ele>
        <time>2018-03-07T17:36:17Z</time>
      </trkpt>
      <trkpt lat="46.75619" lon="-1.73049">
        <ele>54</ele>
        <time>2018-03-07T17:37:17Z</time>
      </trkpt>
      <trkpt lat="46.75623" lon="-1.73038">
        <ele>54</ele>
        <time>2018-03-07T17:38:17Z</time>
      </trkpt>
      <trkpt lat="46.75623" lon="-1.72992">
        <ele>55</ele>
        <time>2018-03-07T17:39:17Z</time>
      </trkpt>
      <trkpt lat="46.75623" lon="-1.72916">
        <ele>55</ele>
        <time>2018-03-07T17:40:17Z</time>
      </trkpt>
      <trkpt lat="46.75623" lon="-1.72887">
        <ele>55</ele>
        <time>2018-03-07T17:41:17Z</time>
      </trkpt>
      <trkpt lat="46.75624" lon="-1.7287">
        <ele>56</ele>
        <time>2018-03-07T17:42:17Z</time>
      </trkpt>
      <trkpt lat="46.75624" lon="-1.72845">
        <ele>56</ele>
        <time>2018-03-07T17:43:17Z</time>
      </trkpt>
      <trkpt lat="46.75625" lon="-1.72834">
        <ele>56</ele>
        <time>2018-03-07T17:44:17Z</time>
      </trkpt>
      <trkpt lat="46.75626" lon="-1.7282">
        <ele>57</ele>
        <time>2018-03-07T17:45:17Z</time>
      </trkpt>
      <trkpt lat="46.75626" lon="-1.72809">
        <ele>57</ele>
        <time>2018-03-07T17:46:17Z</time>
      </trkpt>
      <trkpt lat="46.75627" lon="-1.72797">
        <ele>57</ele>
        <time>2018-03-07T17:47:17Z</time>
      </trkpt>
      <trkpt lat="46.75628" lon="-1.72787">
        <ele>57</ele>
        <time>2018-03-07T17:48:17Z</time>
      </trkpt>
      <trkpt lat="46.75633" lon="-1.72721">
        <ele>58</ele>
        <time>2018-03-07T17:49:17Z</time>
      </trkpt>
      <trkpt lat="46.75638" lon="-1.72663">
        <ele>57</ele>
        <time>2018-03-07T17:50:17Z</time>
      </trkpt>
      <trkpt lat="46.75643" lon="-1.72615">
        <ele>56</ele>
        <time>2018-03-07T17:51:17Z</time>
      </trkpt>
      <trkpt lat="46.7565" lon="-1.72542">
        <ele>56</ele>
        <time>2018-03-07T17:52:17Z</time>
      </trkpt>
      <trkpt lat="46.75656" lon="-1.72493">
        <ele>56</ele>
        <time>2018-03-07T17:53:17Z</time>
      </trkpt>
      <trkpt lat="46.75657" lon="-1.72476">
        <ele>56</ele>
        <time>2018-03-07T17:54:17Z</time>
      </trkpt>
      <trkpt lat="46.75662" lon="-1.72434">
        <ele>56</ele>
        <time>2018-03-07T17:55:17Z</time>
      </trkpt>
      <trkpt lat="46.75661" lon="-1.72416">
        <ele>56</ele>
        <time>2018-03-07T17:56:17Z</time>
      </trkpt>
      <trkpt lat="46.75662" lon="-1.72342">
        <ele>56</ele>
        <time>2018-03-07T17:57:17Z</time>
      </trkpt>
      <trkpt lat="46.7566" lon="-1.72271">
        <ele>56</ele>
        <time>2018-03-07T17:58:17Z</time>
      </trkpt>
      <trkpt lat="46.7566" lon="-1.72244">
        <ele>56</ele>
        <time>2018-03-07T17:59:17Z</time>
      </trkpt>
      <trkpt lat="46.75657" lon="-1.72178">
        <ele>58</ele>
        <time>2018-03-07T18:00:17Z</time>
      </trkpt>
      <trkpt lat="46.75657" lon="-1.72169">
        <ele>58</ele>
        <time>2018-03-07T18:01:17Z</time>
      </trkpt>
      <trkpt lat="46.75651" lon="-1.72101">
        <ele>57</ele>
        <time>2018-03-07T18:02:17Z</time>
      </trkpt>
      <trkpt lat="46.75645" lon="-1.7204">
        <ele>57</ele>
        <time>2018-03-07T18:03:17Z</time>
      </trkpt>
      <trkpt lat="46.75646" lon="-1.72036">
        <ele>57</ele>
        <time>2018-03-07T18:04:17Z</time>
      </trkpt>
      <trkpt lat="46.75633" lon="-1.71906">
        <ele>56</ele>
        <time>2018-03-07T18:05:17Z</time>
      </trkpt>
      <trkpt lat="46.75633" lon="-1.71883">
        <ele>56</ele>
        <time>2018-03-07T18:06:17Z</time>
      </trkpt>
      <trkpt lat="46.75632" lon="-1.71874">
        <ele>56</ele>
        <time>2018-03-07T18:07:17Z</time>
      </trkpt>
      <trkpt lat="46.75632" lon="-1.71858">
        <ele>56</ele>
        <time>2018-03-07T18:08:17Z</time>
      </trkpt>
      <trkpt lat="46.75631" lon="-1.71831">
        <ele>56</ele>
        <time>2018-03-07T18:09:17Z</time>
      </trkpt>
      <trkpt lat="46.75631" lon="-1.71802">
        <ele>56</ele>
        <time>2018-03-07T18:10:17Z</time>
      </trkpt>
      <trkpt lat="46.75631" lon="-1.71789">
        <ele>57</ele>
        <time>2018-03-07T18:11:17Z</time>
      </trkpt>
      <trkpt lat="46.75631" lon="-1.7178">
        <ele>57</ele>
        <time>2018-03-07T18:12:17Z</time>
      </trkpt>
      <trkpt lat="46.75631" lon="-1.71767">
        <ele>57</ele>
        <time>2018-03-07T18:13:17Z</time>
      </trkpt>
      <trkpt lat="46.75632" lon="-1.71751">
        <ele>57</ele>
        <time>2018-03-07T18:14:17Z</time>
      </trkpt>
      <trkpt lat="46.75632" lon="-1.71736">
        <ele>57</ele>
        <time>2018-03-07T18:15:17Z</time>
      </trkpt>
      <trkpt lat="46.75632" lon="-1.71721">
        <ele>57</ele>
        <time>2018-03-07T18:16:17Z</time>
      </trkpt>
      <trkpt lat="46.75633" lon="-1.71706">
        <ele>57</ele>
        <time>2018-03-07T18:17:17Z</time>
      </trkpt>
      <trkpt lat="46.75633" lon="-1.71695">
        <ele>57</ele>
        <time>2018-03-07T18:18:17Z</time>
      </trkpt>
      <trkpt lat="46.75634" lon="-1.7168">
        <ele>57</ele>
        <time>2018-03-07T18:19:17Z</time>
      </trkpt>
      <trkpt lat="46.75635" lon="-1.71651">
        <ele>57</ele>
        <time>2018-03-07T18:20:17Z</time>
      </trkpt>
      <trkpt lat="46.75637" lon="-1.71635">
        <ele>57</ele>
        <time>2018-03-07T18:21:17Z</time>
      </trkpt>
      <trkpt lat="46.75639" lon="-1.71584">
        <ele>57</ele>
        <time>2018-03-07T18:22:17Z</time>
      </trkpt>
      <trkpt lat="46.75645" lon="-1.71506">
        <ele>58</ele>
        <time>2018-03-07T18:23:17Z</time>
      </trkpt>
      <trkpt lat="46.75645" lon="-1.71503">
        <ele>58</ele>
        <time>2018-03-07T18:24:17Z</time>
      </trkpt>
      <trkpt lat="46.75649" lon="-1.71449">
        <ele>59</ele>
        <time>2018-03-07T18:25:17Z</time>
      </trkpt>
      <trkpt lat="46.75656" lon="-1.71346">
        <ele>60</ele>
        <time>2018-03-07T18:26:17Z</time>
      </trkpt>
      <trkpt lat="46.75658" lon="-1.71296">
        <ele>60</ele>
        <time>2018-03-07T18:27:17Z</time>
      </trkpt>
      <trkpt lat="46.75659" lon="-1.7126">
        <ele>60</ele>
        <time>2018-03-07T18:28:17Z</time>
      </trkpt>
      <trkpt lat="46.75659" lon="-1.71235">
        <ele>60</ele>
        <time>2018-03-07T18:29:17Z</time>
      </trkpt>
      <trkpt lat="46.7566" lon="-1.71217">
        <ele>60</ele>
        <time>2018-03-07T18:30:17Z</time>
      </trkpt>
      <trkpt lat="46.7566" lon="-1.71199">
        <ele>60</ele>
        <time>2018-03-07T18:31:17Z</time>
      </trkpt>
      <trkpt lat="46.75661" lon="-1.7118">
        <ele>60</ele>
        <time>2018-03-07T18:32:17Z</time>
      </trkpt>
      <trkpt lat="46.75662" lon="-1.71157">
        <ele>60</ele>
        <time>2018-03-07T18:33:17Z</time>
      </trkpt>
      <trkpt lat="46.75662" lon="-1.71132">
        <ele>60</ele>
        <time>2018-03-07T18:34:17Z</time>
      </trkpt>
      <trkpt lat="46.75662" lon="-1.71111">
        <ele>59</ele>
        <time>2018-03-07T18:35:17Z</time>
      </trkpt>
      <trkpt lat="46.75662" lon="-1.71091">
        <ele>59</ele>
        <time>2018-03-07T18:36:17Z</time>
      </trkpt>
      <trkpt lat="46.75662" lon="-1.71047">
        <ele>59</ele>
        <time>2018-03-07T18:37:17Z</time>
      </trkpt>
      <trkpt lat="46.75661" lon="-1.71002">
        <ele>59</ele>
        <time>2018-03-07T18:38:17Z</time>
      </trkpt>
      <trkpt lat="46.7566" lon="-1.7096">
        <ele>60</ele>
        <time>2018-03-07T18:39:17Z</time>
      </trkpt>
      <trkpt lat="46.7566" lon="-1.70953">
        <ele>60</ele>
        <time>2018-03-07T18:40:17Z</time>
      </trkpt>
      <trkpt lat="46.75657" lon="-1.70877">
        <ele>61</ele>
        <time>2018-03-07T18:41:17Z</time>
      </trkpt>
      <trkpt lat="46.75655" lon="-1.70823">
        <ele>62</ele>
        <time>2018-03-07T18:42:17Z</time>
      </trkpt>
      <trkpt lat="46.75655" lon="-1.70806">
        <ele>62</ele>
        <time>2018-03-07T18:43:17Z</time>
      </trkpt>
      <trkpt lat="46.75654" lon="-1.7079">
        <ele>61</ele>
        <time>2018-03-07T18:44:17Z</time>
      </trkpt>
      <trkpt lat="46.75654" lon="-1.70772">
        <ele>61</ele>
        <time>2018-03-07T18:45:17Z</time>
      </trkpt>
      <trkpt lat="46.75654" lon="-1.70751">
        <ele>61</ele>
        <time>2018-03-07T18:46:17Z</time>
      </trkpt>
      <trkpt lat="46.75655" lon="-1.70726">
        <ele>60</ele>
        <time>2018-03-07T18:47:17Z</time>
      </trkpt>
      <trkpt lat="46.75656" lon="-1.70671">
        <ele>59</ele>
        <time>2018-03-07T18:48:17Z</time>
      </trkpt>
      <trkpt lat="46.7566" lon="-1.70572">
        <ele>59</ele>
        <time>2018-03-07T18:49:17Z</time>
      </trkpt>
      <trkpt lat="46.75662" lon="-1.70498">
        <ele>60</ele>
        <time>2018-03-07T18:50:17Z</time>
      </trkpt>
      <trkpt lat="46.75666" lon="-1.70422">
        <ele>61</ele>
        <time>2018-03-07T18:51:17Z</time>
      </trkpt>
      <trkpt lat="46.7567" lon="-1.70352">
        <ele>61</ele>
        <time>2018-03-07T18:52:17Z</time>
      </trkpt>
      <trkpt lat="46.75672" lon="-1.70323">
        <ele>61</ele>
        <time>2018-03-07T18:53:17Z</time>
      </trkpt>
      <trkpt lat="46.75673" lon="-1.70304">
        <ele>61</ele>
        <time>2018-03-07T18:54:17Z</time>
      </trkpt>
      <trkpt lat="46.75673" lon="-1.70286">
        <ele>61</ele>
        <time>2018-03-07T18:55:17Z</time>
      </trkpt>
      <trkpt lat="46.75673" lon="-1.70266">
        <ele>61</ele>
        <time>2018-03-07T18:56:17Z</time>
      </trkpt>
      <trkpt lat="46.75672" lon="-1.70246">
        <ele>61</ele>
        <time>2018-03-07T18:57:17Z</time>
      </trkpt>
      <trkpt lat="46.75671" lon="-1.70227">
        <ele>61</ele>
        <time>2018-03-07T18:58:17Z</time>
      </trkpt>
      <trkpt lat="46.7567" lon="-1.70205">
        <ele>61</ele>
        <time>2018-03-07T18:59:17Z</time>
      </trkpt>
      <trkpt lat="46.75666" lon="-1.70153">
        <ele>62</ele>
        <time>2018-03-07T19:00:17Z</time>
      </trkpt>
      <trkpt lat="46.7566" lon="-1.70095">
        <ele>61</ele>
        <time>2018-03-07T19:01:17Z</time>
      </trkpt>
      <trkpt lat="46.75656" lon="-1.70046">
        <ele>61</ele>
        <time>2018-03-07T19:02:17Z</time>
      </trkpt>
      <trkpt lat="46.75654" lon="-1.70015">
        <ele>62</ele>
        <time>2018-03-07T19:03:17Z</time>
      </trkpt>
      <trkpt lat="46.75653" lon="-1.70008">
        <ele>62</ele>
        <time>2018-03-07T19:04:17Z</time>
      </trkpt>
      <trkpt lat="46.75651" lon="-1.69993">
        <ele>62</ele>
        <time>2018-03-07T19:05:17Z</time>
      </trkpt>
      <trkpt lat="46.75648" lon="-1.69979">
        <ele>61</ele>
        <time>2018-03-07T19:06:17Z</time>
      </trkpt>
      <trkpt lat="46.75645" lon="-1.69967">
        <ele>61</ele>
        <time>2018-03-07T19:07:17Z</time>
      </trkpt>
      <trkpt lat="46.75641" lon="-1.69956">
        <ele>61</ele>
        <time>2018-03-07T19:08:17Z</time>
      </trkpt>
      <trkpt lat="46.75632" lon="-1.69934">
        <ele>61</ele>
        <time>2018-03-07T19:09:17Z</time>
      </trkpt>
      <trkpt lat="46.75627" lon="-1.6992">
        <ele>61</ele>
        <time>2018-03-07T19:10:17Z</time>
      </trkpt>
      <trkpt lat="46.75622" lon="-1.69903">
        <ele>60</ele>
        <time>2018-03-07T19:11:17Z</time>
      </trkpt>
      <trkpt lat="46.75618" lon="-1.69878">
        <ele>60</ele>
        <time>2018-03-07T19:12:17Z</time>
      </trkpt>
      <trkpt lat="46.75611" lon="-1.69841">
        <ele>59</ele>
        <time>2018-03-07T19:13:17Z</time>
      </trkpt>
      <trkpt lat="46.75607" lon="-1.69819">
        <ele>59</ele>
        <time>2018-03-07T19:14:17Z</time>
      </trkpt>
      <trkpt lat="46.75602" lon="-1.69782">
        <ele>59</ele>
        <time>2018-03-07T19:15:17Z</time>
      </trkpt>
      <trkpt lat="46.75596" lon="-1.69746">
        <ele>59</ele>
        <time>2018-03-07T19:16:17Z</time>
      </trkpt>
      <trkpt lat="46.75596" lon="-1.69742">
        <ele>59</ele>
        <time>2018-03-07T19:17:17Z</time>
      </trkpt>
      <trkpt lat="46.7559" lon="-1.69707">
        <ele>59</ele>
        <time>2018-03-07T19:18:17Z</time>
      </trkpt>
      <trkpt lat="46.75579" lon="-1.69642">
        <ele>58</ele>
        <time>2018-03-07T19:19:17Z</time>
      </trkpt>
      <trkpt lat="46.75575" lon="-1.69614">
        <ele>58</ele>
        <time>2018-03-07T19:20:17Z</time>
      </trkpt>
      <trkpt lat="46.75572" lon="-1.69595">
        <ele>58</ele>
        <time>2018-03-07T19:21:17Z</time>
      </trkpt>
      <trkpt lat="46.75568" lon="-1.69577">
        <ele>58</ele>
        <time>2018-03-07T19:22:17Z</time>
      </trkpt>
      <trkpt lat="46.75565" lon="-1.69562">
        <ele>58</ele>
        <time>2018-03-07T19:23:17Z</time>
      </trkpt>
      <trkpt lat="46.7556" lon="-1.69542">
        <ele>57</ele>
        <time>2018-03-07T19:24:17Z</time>
      </trkpt>
      <trkpt lat="46.75556" lon="-1.69526">
        <ele>57</ele>
        <time>2018-03-07T19:25:17Z</time>
      </trkpt>
      <trkpt lat="46.75552" lon="-1.69509">
        <ele>57</ele>
        <time>2018-03-07T19:26:17Z</time>
      </trkpt>
      <trkpt lat="46.75542" lon="-1.69475">
        <ele>56</ele>
        <time>2018-03-07T19:27:17Z</time>
      </trkpt>
      <trkpt lat="46.7553" lon="-1.6944">
        <ele>55</ele>
        <time>2018-03-07T19:28:17Z</time>
      </trkpt>
      <trkpt lat="46.7552" lon="-1.69411">
        <ele>55</ele>
        <time>2018-03-07T19:29:17Z</time>
      </trkpt>
      <trkpt lat="46.75502" lon="-1.69354">
        <ele>56</ele>
        <time>2018-03-07T19:30:17Z</time>
      </trkpt>
      <trkpt lat="46.75486" lon="-1.69306">
        <ele>56</ele>
        <time>2018-03-07T19:31:17Z</time>
      </trkpt>
      <trkpt lat="46.75472" lon="-1.69263">
        <ele>55</ele>
        <time>2018-03-07T19:32:17Z</time>
      </trkpt>
      <trkpt lat="46.75455" lon="-1.69214">
        <ele>54</ele>
        <time>2018-03-07T19:33:17Z</time>
      </trkpt>
      <trkpt lat="46.75439" lon="-1.69172">
        <ele>53</ele>
        <time>2018-03-07T19:34:17Z</time>
      </trkpt>
      <trkpt lat="46.75435" lon="-1.69163">
        <ele>53</ele>
        <time>2018-03-07T19:35:17Z</time>
      </trkpt>
      <trkpt lat="46.75421" lon="-1.69127">
        <ele>52</ele>
        <time>2018-03-07T19:36:17Z</time>
      </trkpt>
      <trkpt lat="46.75408" lon="-1.69097">
        <ele>50</ele>
        <time>2018-03-07T19:37:17Z</time>
      </trkpt>
      <trkpt lat="46.75394" lon="-1.69063">
        <ele>49</ele>
        <time>2018-03-07T19:38:17Z</time>
      </trkpt>
      <trkpt lat="46.75388" lon="-1.69045">
        <ele>49</ele>
        <time>2018-03-07T19:39:17Z</time>
      </trkpt>
      <trkpt lat="46.75385" lon="-1.6903">
        <ele>49</ele>
        <time>2018-03-07T19:40:17Z</time>
      </trkpt>
      <trkpt lat="46.75382" lon="-1.69009">
        <ele>48</ele>
        <time>2018-03-07T19:41:17Z</time>
      </trkpt>
      <trkpt lat="46.75382" lon="-1.6898">
        <ele>48</ele>
        <time>2018-03-07T19:42:17Z</time>
      </trkpt>
      <trkpt lat="46.75382" lon="-1.68964">
        <ele>47</ele>
        <time>2018-03-07T19:43:17Z</time>
      </trkpt>
      <trkpt lat="46.75381" lon="-1.68964">
        <ele>47</ele>
        <time>2018-03-07T19:44:17Z</time>
      </trkpt>
      <trkpt lat="46.7538" lon="-1.68963">
        <ele>47</ele>
        <time>2018-03-07T19:45:17Z</time>
      </trkpt>
      <trkpt lat="46.75379" lon="-1.68961">
        <ele>47</ele>
        <time>2018-03-07T19:46:17Z</time>
      </trkpt>
      <trkpt lat="46.75378" lon="-1.68959">
        <ele>47</ele>
        <time>2018-03-07T19:47:17Z</time>
      </trkpt>
      <trkpt lat="46.75378" lon="-1.68957">
        <ele>47</ele>
        <time>2018-03-07T19:48:17Z</time>
      </trkpt>
      <trkpt lat="46.75378" lon="-1.68955">
        <ele>47</ele>
        <time>2018-03-07T19:49:17Z</time>
      </trkpt>
      <trkpt lat="46.75379" lon="-1.68954">
        <ele>47</ele>
        <time>2018-03-07T19:50:17Z</time>
      </trkpt>
      <trkpt lat="46.7538" lon="-1.68953">
        <ele>47</ele>
        <time>2018-03-07T19:51:17Z</time>
      </trkpt>
      <trkpt lat="46.75382" lon="-1.68952">
        <ele>47</ele>
        <time>2018-03-07T19:52:17Z</time>
      </trkpt>
      <trkpt lat="46.75383" lon="-1.68952">
        <ele>47</ele>
        <time>2018-03-07T19:53:17Z</time>
      </trkpt>
      <trkpt lat="46.75385" lon="-1.68932">
        <ele>47</ele>
        <time>2018-03-07T19:54:17Z</time>
      </trkpt>
      <trkpt lat="46.75387" lon="-1.68906">
        <ele>46</ele>
        <time>2018-03-07T19:55:17Z</time>
      </trkpt>
      <trkpt lat="46.7539" lon="-1.68863">
        <ele>46</ele>
        <time>2018-03-07T19:56:17Z</time>
      </trkpt>
      <trkpt lat="46.75392" lon="-1.68828">
        <ele>46</ele>
        <time>2018-03-07T19:57:17Z</time>
      </trkpt>
      <trkpt lat="46.75394" lon="-1.68801">
        <ele>45</ele>
        <time>2018-03-07T19:58:17Z</time>
      </trkpt>
      <trkpt lat="46.75395" lon="-1.68778">
        <ele>44</ele>
        <time>2018-03-07T19:59:17Z</time>
      </trkpt>
      <trkpt lat="46.75397" lon="-1.68756">
        <ele>43</ele>
        <time>2018-03-07T20:00:17Z</time>
      </trkpt>
      <trkpt lat="46.75398" lon="-1.68739">
        <ele>43</ele>
        <time>2018-03-07T20:01:17Z</time>
      </trkpt>
      <trkpt lat="46.75399" lon="-1.68725">
        <ele>43</ele>
        <time>2018-03-07T20:02:17Z</time>
      </trkpt>
      <trkpt lat="46.75402" lon="-1.68688">
        <ele>42</ele>
        <time>2018-03-07T20:03:17Z</time>
      </trkpt>
      <trkpt lat="46.75404" lon="-1.68657">
        <ele>41</ele>
        <time>2018-03-07T20:04:17Z</time>
      </trkpt>
      <trkpt lat="46.75405" lon="-1.68643">
        <ele>41</ele>
        <time>2018-03-07T20:05:17Z</time>
      </trkpt>
      <trkpt lat="46.75407" lon="-1.68634">
        <ele>41</ele>
        <time>2018-03-07T20:06:17Z</time>
      </trkpt>
      <trkpt lat="46.75409" lon="-1.68625">
        <ele>41</ele>
        <time>2018-03-07T20:07:17Z</time>
      </trkpt>
      <trkpt lat="46.75411" lon="-1.6862">
        <ele>41</ele>
        <time>2018-03-07T20:08:17Z</time>
      </trkpt>
      <trkpt lat="46.75416" lon="-1.68608">
        <ele>41</ele>
        <time>2018-03-07T20:09:17Z</time>
      </trkpt>
      <trkpt lat="46.75419" lon="-1.68601">
        <ele>40</ele>
        <time>2018-03-07T20:10:17Z</time>
      </trkpt>
      <trkpt lat="46.75429" lon="-1.68591">
        <ele>40</ele>
        <time>2018-03-07T20:11:17Z</time>
      </trkpt>
      <trkpt lat="46.75441" lon="-1.6858">
        <ele>41</ele>
        <time>2018-03-07T20:12:17Z</time>
      </trkpt>
      <trkpt lat="46.75453" lon="-1.68573">
        <ele>41</ele>
        <time>2018-03-07T20:13:17Z</time>
      </trkpt>
      <trkpt lat="46.75454" lon="-1.68573">
        <ele>41</ele>
        <time>2018-03-07T20:14:17Z</time>
      </trkpt>
      <trkpt lat="46.75459" lon="-1.6857">
        <ele>41</ele>
        <time>2018-03-07T20:15:17Z</time>
      </trkpt>
      <trkpt lat="46.75462" lon="-1.68569">
        <ele>41</ele>
        <time>2018-03-07T20:16:17Z</time>
      </trkpt>
      <trkpt lat="46.75466" lon="-1.68569">
        <ele>41</ele>
        <time>2018-03-07T20:17:17Z</time>
      </trkpt>
      <trkpt lat="46.75472" lon="-1.6857">
        <ele>41</ele>
        <time>2018-03-07T20:18:17Z</time>
      </trkpt>
      <trkpt lat="46.75479" lon="-1.6857">
        <ele>41</ele>
        <time>2018-03-07T20:19:17Z</time>
      </trkpt>
      <trkpt lat="46.75482" lon="-1.6857">
        <ele>42</ele>
        <time>2018-03-07T20:20:17Z</time>
      </trkpt>
      <trkpt lat="46.75501" lon="-1.68572">
        <ele>42</ele>
        <time>2018-03-07T20:21:17Z</time>
      </trkpt>
      <trkpt lat="46.75501" lon="-1.68572">
        <ele>42</ele>
        <time>2018-03-07T20:22:17Z</time>
      </trkpt>
      <trkpt lat="46.75496" lon="-1.68539">
        <ele>42</ele>
        <time>2018-03-07T20:23:17Z</time>
      </trkpt>
      <trkpt lat="46.75489" lon="-1.68483">
        <ele>41</ele>
        <time>2018-03-07T20:24:17Z</time>
      </trkpt>
      <trkpt lat="46.75481" lon="-1.6842">
        <ele>39</ele>
        <time>2018-03-07T20:25:17Z</time>
      </trkpt>
      <trkpt lat="46.75476" lon="-1.68381">
        <ele>38</ele>
        <time>2018-03-07T20:26:17Z</time>
      </trkpt>
      <trkpt lat="46.75468" lon="-1.68322">
        <ele>37</ele>
        <time>2018-03-07T20:27:17Z</time>
      </trkpt>
      <trkpt lat="46.7546" lon="-1.68262">
        <ele>36</ele>
        <time>2018-03-07T20:28:17Z</time>
      </trkpt>
      <trkpt lat="46.75459" lon="-1.6825">
        <ele>36</ele>
        <time>2018-03-07T20:29:17Z</time>
      </trkpt>
      <trkpt lat="46.7545" lon="-1.68188">
        <ele>33</ele>
        <time>2018-03-07T20:30:17Z</time>
      </trkpt>
      <trkpt lat="46.75444" lon="-1.68144">
        <ele>31</ele>
        <time>2018-03-07T20:31:17Z</time>
      </trkpt>
      <trkpt lat="46.7544" lon="-1.68116">
        <ele>30</ele>
        <time>2018-03-07T20:32:17Z</time>
      </trkpt>
      <trkpt lat="46.75436" lon="-1.68087">
        <ele>30</ele>
        <time>2018-03-07T20:33:17Z</time>
      </trkpt>
      <trkpt lat="46.75433" lon="-1.68059">
        <ele>29</ele>
        <time>2018-03-07T20:34:17Z</time>
      </trkpt>
      <trkpt lat="46.7542" lon="-1.67975">
        <ele>28</ele>
        <time>2018-03-07T20:35:17Z</time>
      </trkpt>
      <trkpt lat="46.75411" lon="-1.67909">
        <ele>26</ele>
        <time>2018-03-07T20:36:17Z</time>
      </trkpt>
      <trkpt lat="46.75404" lon="-1.67846">
        <ele>23</ele>
        <time>2018-03-07T20:37:17Z</time>
      </trkpt>
      <trkpt lat="46.75398" lon="-1.67808">
        <ele>21</ele>
        <time>2018-03-07T20:38:17Z</time>
      </trkpt>
      <trkpt lat="46.75396" lon="-1.67797">
        <ele>21</ele>
        <time>2018-03-07T20:39:17Z</time>
      </trkpt>
      <trkpt lat="46.75391" lon="-1.67772">
        <ele>19</ele>
        <time>2018-03-07T20:40:17Z</time>
      </trkpt>
      <trkpt lat="46.75384" lon="-1.67745">
        <ele>18</ele>
        <time>2018-03-07T20:41:17Z</time>
      </trkpt>
      <trkpt lat="46.75374" lon="-1.67717">
        <ele>16</ele>
        <time>2018-03-07T20:42:17Z</time>
      </trkpt>
      <trkpt lat="46.75365" lon="-1.67695">
        <ele>14</ele>
        <time>2018-03-07T20:43:17Z</time>
      </trkpt>
      <trkpt lat="46.75364" lon="-1.67692">
        <ele>14</ele>
        <time>2018-03-07T20:44:17Z</time>
      </trkpt>
      <trkpt lat="46.75358" lon="-1.67678">
        <ele>13</ele>
        <time>2018-03-07T20:45:17Z</time>
      </trkpt>
      <trkpt lat="46.75346" lon="-1.67654">
        <ele>11</ele>
        <time>2018-03-07T20:46:17Z</time>
      </trkpt>
      <trkpt lat="46.75326" lon="-1.67619">
        <ele>10</ele>
        <time>2018-03-07T20:47:17Z</time>
      </trkpt>
      <trkpt lat="46.7531" lon="-1.67589">
        <ele>10</ele>
        <time>2018-03-07T20:48:17Z</time>
      </trkpt>
      <trkpt lat="46.75308" lon="-1.67585">
        <ele>10</ele>
        <time>2018-03-07T20:49:17Z</time>
      </trkpt>
      <trkpt lat="46.75302" lon="-1.67575">
        <ele>10</ele>
        <time>2018-03-07T20:50:17Z</time>
      </trkpt>
      <trkpt lat="46.75297" lon="-1.67566">
        <ele>11</ele>
        <time>2018-03-07T20:51:17Z</time>
      </trkpt>
      <trkpt lat="46.75295" lon="-1.67562">
        <ele>11</ele>
        <time>2018-03-07T20:52:17Z</time>
      </trkpt>
      <trkpt lat="46.75288" lon="-1.6755">
        <ele>11</ele>
        <time>2018-03-07T20:53:17Z</time>
      </trkpt>
      <trkpt lat="46.7528" lon="-1.67536">
        <ele>12</ele>
        <time>2018-03-07T20:54:17Z</time>
      </trkpt>
      <trkpt lat="46.75277" lon="-1.6753">
        <ele>12</ele>
        <time>2018-03-07T20:55:17Z</time>
      </trkpt>
      <trkpt lat="46.75265" lon="-1.67509">
        <ele>14</ele>
        <time>2018-03-07T20:56:17Z</time>
      </trkpt>
      <trkpt lat="46.75261" lon="-1.67501">
        <ele>14</ele>
        <time>2018-03-07T20:57:17Z</time>
      </trkpt>
      <trkpt lat="46.75254" lon="-1.67489">
        <ele>16</ele>
        <time>2018-03-07T20:58:17Z</time>
      </trkpt>
      <trkpt lat="46.75237" lon="-1.67456">
        <ele>19</ele>
        <time>2018-03-07T20:59:17Z</time>
      </trkpt>
      <trkpt lat="46.75228" lon="-1.67441">
        <ele>20</ele>
        <time>2018-03-07T21:00:17Z</time>
      </trkpt>
      <trkpt lat="46.75215" lon="-1.6742">
        <ele>22</ele>
        <time>2018-03-07T21:01:17Z</time>
      </trkpt>
      <trkpt lat="46.75202" lon="-1.67403">
        <ele>22</ele>
        <time>2018-03-07T21:02:17Z</time>
      </trkpt>
      <trkpt lat="46.75192" lon="-1.67393">
        <ele>23</ele>
        <time>2018-03-07T21:03:17Z</time>
      </trkpt>
      <trkpt lat="46.75185" lon="-1.67387">
        <ele>23</ele>
        <time>2018-03-07T21:04:17Z</time>
      </trkpt>
      <trkpt lat="46.75173" lon="-1.6738">
        <ele>23</ele>
        <time>2018-03-07T21:05:17Z</time>
      </trkpt>
      <trkpt lat="46.75163" lon="-1.67374">
        <ele>24</ele>
        <time>2018-03-07T21:06:17Z</time>
      </trkpt>
      <trkpt lat="46.75152" lon="-1.6737">
        <ele>24</ele>
        <time>2018-03-07T21:07:17Z</time>
      </trkpt>
      <trkpt lat="46.75142" lon="-1.67368">
        <ele>24</ele>
        <time>2018-03-07T21:08:17Z</time>
      </trkpt>
      <trkpt lat="46.75132" lon="-1.67367">
        <ele>24</ele>
        <time>2018-03-07T21:09:17Z</time>
      </trkpt>
      <trkpt lat="46.75122" lon="-1.67368">
        <ele>24</ele>
        <time>2018-03-07T21:10:17Z</time>
      </trkpt>
      <trkpt lat="46.75114" lon="-1.67369">
        <ele>24</ele>
        <time>2018-03-07T21:11:17Z</time>
      </trkpt>
      <trkpt lat="46.75106" lon="-1.6737">
        <ele>24</ele>
        <time>2018-03-07T21:12:17Z</time>
      </trkpt>
      <trkpt lat="46.751" lon="-1.67373">
        <ele>24</ele>
        <time>2018-03-07T21:13:17Z</time>
      </trkpt>
      <trkpt lat="46.75094" lon="-1.67376">
        <ele>23</ele>
        <time>2018-03-07T21:14:17Z</time>
      </trkpt>
      <trkpt lat="46.75086" lon="-1.6738">
        <ele>23</ele>
        <time>2018-03-07T21:15:17Z</time>
      </trkpt>
      <trkpt lat="46.75041" lon="-1.6741">
        <ele>23</ele>
        <time>2018-03-07T21:16:17Z</time>
      </trkpt>
      <trkpt lat="46.74987" lon="-1.67446">
        <ele>21</ele>
        <time>2018-03-07T21:17:17Z</time>
      </trkpt>
      <trkpt lat="46.74936" lon="-1.6748">
        <ele>20</ele>
        <time>2018-03-07T21:18:17Z</time>
      </trkpt>
      <trkpt lat="46.7489" lon="-1.67511">
        <ele>19</ele>
        <time>2018-03-07T21:19:17Z</time>
      </trkpt>
      <trkpt lat="46.7487" lon="-1.67524">
        <ele>18</ele>
        <time>2018-03-07T21:20:17Z</time>
      </trkpt>
      <trkpt lat="46.74868" lon="-1.67525">
        <ele>18</ele>
        <time>2018-03-07T21:21:17Z</time>
      </trkpt>
      <trkpt lat="46.74866" lon="-1.67527">
        <ele>18</ele>
        <time>2018-03-07T21:22:17Z</time>
      </trkpt>
      <trkpt lat="46.74832" lon="-1.67548">
        <ele>16</ele>
        <time>2018-03-07T21:23:17Z</time>
      </trkpt>
      <trkpt lat="46.74809" lon="-1.67564">
        <ele>17</ele>
        <time>2018-03-07T21:24:17Z</time>
      </trkpt>
      <trkpt lat="46.74789" lon="-1.67577">
        <ele>18</ele>
        <time>2018-03-07T21:25:17Z</time>
      </trkpt>
      <trkpt lat="46.7476" lon="-1.67596">
        <ele>19</ele>
        <time>2018-03-07T21:26:17Z</time>
      </trkpt>
      <trkpt lat="46.74734" lon="-1.67614">
        <ele>20</ele>
        <time>2018-03-07T21:27:17Z</time>
      </trkpt>
      <trkpt lat="46.74695" lon="-1.6764">
        <ele>21</ele>
        <time>2018-03-07T21:28:17Z</time>
      </trkpt>
      <trkpt lat="46.74679" lon="-1.6765">
        <ele>22</ele>
        <time>2018-03-07T21:29:17Z</time>
      </trkpt>
      <trkpt lat="46.74655" lon="-1.67665">
        <ele>22</ele>
        <time>2018-03-07T21:30:17Z</time>
      </trkpt>
      <trkpt lat="46.74628" lon="-1.67685">
        <ele>22</ele>
        <time>2018-03-07T21:31:17Z</time>
      </trkpt>
      <trkpt lat="46.74606" lon="-1.67702">
        <ele>21</ele>
        <time>2018-03-07T21:32:17Z</time>
      </trkpt>
      <trkpt lat="46.74597" lon="-1.67709">
        <ele>21</ele>
        <time>2018-03-07T21:33:17Z</time>
      </trkpt>
      <trkpt lat="46.74591" lon="-1.67716">
        <ele>21</ele>
        <time>2018-03-07T21:34:17Z</time>
      </trkpt>
      <trkpt lat="46.74584" lon="-1.67724">
        <ele>20</ele>
        <time>2018-03-07T21:35:17Z</time>
      </trkpt>
      <trkpt lat="46.74576" lon="-1.67732">
        <ele>20</ele>
        <time>2018-03-07T21:36:17Z</time>
      </trkpt>
      <trkpt lat="46.74569" lon="-1.67742">
        <ele>20</ele>
        <time>2018-03-07T21:37:17Z</time>
      </trkpt>
      <trkpt lat="46.74562" lon="-1.67752">
        <ele>21</ele>
        <time>2018-03-07T21:38:17Z</time>
      </trkpt>
      <trkpt lat="46.74554" lon="-1.67763">
        <ele>21</ele>
        <time>2018-03-07T21:39:17Z</time>
      </trkpt>
      <trkpt lat="46.74521" lon="-1.67814">
        <ele>24</ele>
        <time>2018-03-07T21:40:17Z</time>
      </trkpt>
      <trkpt lat="46.74487" lon="-1.67865">
        <ele>26</ele>
        <time>2018-03-07T21:41:17Z</time>
      </trkpt>
      <trkpt lat="46.74454" lon="-1.67917">
        <ele>29</ele>
        <time>2018-03-07T21:42:17Z</time>
      </trkpt>
      <trkpt lat="46.74429" lon="-1.67954">
        <ele>29</ele>
        <time>2018-03-07T21:43:17Z</time>
      </trkpt>
      <trkpt lat="46.74403" lon="-1.67996">
        <ele>30</ele>
        <time>2018-03-07T21:44:17Z</time>
      </trkpt>
      <trkpt lat="46.74394" lon="-1.68011">
        <ele>30</ele>
        <time>2018-03-07T21:45:17Z</time>
      </trkpt>
      <trkpt lat="46.74387" lon="-1.68026">
        <ele>31</ele>
        <time>2018-03-07T21:46:17Z</time>
      </trkpt>
      <trkpt lat="46.7438" lon="-1.68043">
        <ele>31</ele>
        <time>2018-03-07T21:47:17Z</time>
      </trkpt>
      <trkpt lat="46.74366" lon="-1.68079">
        <ele>31</ele>
        <time>2018-03-07T21:48:17Z</time>
      </trkpt>
      <trkpt lat="46.74352" lon="-1.68119">
        <ele>32</ele>
        <time>2018-03-07T21:49:17Z</time>
      </trkpt>
      <trkpt lat="46.74346" lon="-1.68135">
        <ele>32</ele>
        <time>2018-03-07T21:50:17Z</time>
      </trkpt>
      <trkpt lat="46.7434" lon="-1.68147">
        <ele>32</ele>
        <time>2018-03-07T21:51:17Z</time>
      </trkpt>
      <trkpt lat="46.74325" lon="-1.68168">
        <ele>32</ele>
        <time>2018-03-07T21:52:17Z</time>
      </trkpt>
      <trkpt lat="46.74321" lon="-1.68171">
        <ele>32</ele>
        <time>2018-03-07T21:53:17Z</time>
      </trkpt>
      <trkpt lat="46.74315" lon="-1.68175">
        <ele>32</ele>
        <time>2018-03-07T21:54:17Z</time>
      </trkpt>
      <trkpt lat="46.74307" lon="-1.68179">
        <ele>32</ele>
        <time>2018-03-07T21:55:17Z</time>
      </trkpt>
      <trkpt lat="46.74297" lon="-1.68183">
        <ele>32</ele>
        <time>2018-03-07T21:56:17Z</time>
      </trkpt>
      <trkpt lat="46.74288" lon="-1.68185">
        <ele>32</ele>
        <time>2018-03-07T21:57:17Z</time>
      </trkpt>
      <trkpt lat="46.74263" lon="-1.6819">
        <ele>32</ele>
        <time>2018-03-07T21:58:17Z</time>
      </trkpt>
      <trkpt lat="46.74214" lon="-1.682">
        <ele>32</ele>
        <time>2018-03-07T21:59:17Z</time>
      </trkpt>
      <trkpt lat="46.74138" lon="-1.68215">
        <ele>33</ele>
        <time>2018-03-07T22:00:17Z</time>
      </trkpt>
      <trkpt lat="46.74121" lon="-1.68218">
        <ele>33</ele>
        <time>2018-03-07T22:01:17Z</time>
      </trkpt>
      <trkpt lat="46.74091" lon="-1.6822">
        <ele>34</ele>
        <time>2018-03-07T22:02:17Z</time>
      </trkpt>
      <trkpt lat="46.74068" lon="-1.68219">
        <ele>34</ele>
        <time>2018-03-07T22:03:17Z</time>
      </trkpt>
      <trkpt lat="46.7404" lon="-1.68214">
        <ele>35</ele>
        <time>2018-03-07T22:04:17Z</time>
      </trkpt>
      <trkpt lat="46.74024" lon="-1.68209">
        <ele>35</ele>
        <time>2018-03-07T22:05:17Z</time>
      </trkpt>
      <trkpt lat="46.73949" lon="-1.68185">
        <ele>36</ele>
        <time>2018-03-07T22:06:17Z</time>
      </trkpt>
      <trkpt lat="46.73919" lon="-1.68176">
        <ele>36</ele>
        <time>2018-03-07T22:07:17Z</time>
      </trkpt>
      <trkpt lat="46.73896" lon="-1.68172">
        <ele>36</ele>
        <time>2018-03-07T22:08:17Z</time>
      </trkpt>
      <trkpt lat="46.73885" lon="-1.6817">
        <ele>36</ele>
        <time>2018-03-07T22:09:17Z</time>
      </trkpt>
      <trkpt lat="46.73876" lon="-1.68171">
        <ele>37</ele>
        <time>2018-03-07T22:10:17Z</time>
      </trkpt>
      <trkpt lat="46.73866" lon="-1.68171">
        <ele>37</ele>
        <time>2018-03-07T22:11:17Z</time>
      </trkpt>
      <trkpt lat="46.73857" lon="-1.68173">
        <ele>37</ele>
        <time>2018-03-07T22:12:17Z</time>
      </trkpt>
      <trkpt lat="46.73847" lon="-1.68176">
        <ele>37</ele>
        <time>2018-03-07T22:13:17Z</time>
      </trkpt>
      <trkpt lat="46.73829" lon="-1.68183">
        <ele>37</ele>
        <time>2018-03-07T22:14:17Z</time>
      </trkpt>
      <trkpt lat="46.73786" lon="-1.682">
        <ele>38</ele>
        <time>2018-03-07T22:15:17Z</time>
      </trkpt>
      <trkpt lat="46.73765" lon="-1.68211">
        <ele>38</ele>
        <time>2018-03-07T22:16:17Z</time>
      </trkpt>
      <trkpt lat="46.73698" lon="-1.68238">
        <ele>38</ele>
        <time>2018-03-07T22:17:17Z</time>
      </trkpt>
      <trkpt lat="46.73637" lon="-1.68263">
        <ele>39</ele>
        <time>2018-03-07T22:18:17Z</time>
      </trkpt>
      <trkpt lat="46.73591" lon="-1.68281">
        <ele>40</ele>
        <time>2018-03-07T22:19:17Z</time>
      </trkpt>
      <trkpt lat="46.73557" lon="-1.68288">
        <ele>40</ele>
        <time>2018-03-07T22:20:17Z</time>
      </trkpt>
      <trkpt lat="46.73534" lon="-1.6829">
        <ele>39</ele>
        <time>2018-03-07T22:21:17Z</time>
      </trkpt>
      <trkpt lat="46.73482" lon="-1.68291">
        <ele>39</ele>
        <time>2018-03-07T22:22:17Z</time>
      </trkpt>
      <trkpt lat="46.73464" lon="-1.6829">
        <ele>39</ele>
        <time>2018-03-07T22:23:17Z</time>
      </trkpt>
      <trkpt lat="46.73418" lon="-1.68289">
        <ele>40</ele>
        <time>2018-03-07T22:24:17Z</time>
      </trkpt>
      <trkpt lat="46.73383" lon="-1.68288">
        <ele>42</ele>
        <time>2018-03-07T22:25:17Z</time>
      </trkpt>
      <trkpt lat="46.73336" lon="-1.68287">
        <ele>43</ele>
        <time>2018-03-07T22:26:17Z</time>
      </trkpt>
      <trkpt lat="46.73313" lon="-1.68287">
        <ele>43</ele>
        <time>2018-03-07T22:27:17Z</time>
      </trkpt>
      <trkpt lat="46.73266" lon="-1.68286">
        <ele>44</ele>
        <time>2018-03-07T22:28:17Z</time>
      </trkpt>
      <trkpt lat="46.7322" lon="-1.68286">
        <ele>45</ele>
        <time>2018-03-07T22:29:17Z</time>
      </trkpt>
      <trkpt lat="46.73197" lon="-1.68285">
        <ele>45</ele>
        <time>2018-03-07T22:30:17Z</time>
      </trkpt>
      <trkpt lat="46.73162" lon="-1.68286">
        <ele>46</ele>
        <time>2018-03-07T22:31:17Z</time>
      </trkpt>
      <trkpt lat="46.73151" lon="-1.68286">
        <ele>46</ele>
        <time>2018-03-07T22:32:17Z</time>
      </trkpt>
      <trkpt lat="46.73138" lon="-1.68287">
        <ele>47</ele>
        <time>2018-03-07T22:33:17Z</time>
      </trkpt>
      <trkpt lat="46.73129" lon="-1.68288">
        <ele>47</ele>
        <time>2018-03-07T22:34:17Z</time>
      </trkpt>
      <trkpt lat="46.73117" lon="-1.68289">
        <ele>47</ele>
        <time>2018-03-07T22:35:17Z</time>
      </trkpt>
      <trkpt lat="46.73095" lon="-1.68293">
        <ele>47</ele>
        <time>2018-03-07T22:36:17Z</time>
      </trkpt>
      <trkpt lat="46.73084" lon="-1.68295">
        <ele>47</ele>
        <time>2018-03-07T22:37:17Z</time>
      </trkpt>
      <trkpt lat="46.73074" lon="-1.68298">
        <ele>47</ele>
        <time>2018-03-07T22:38:17Z</time>
      </trkpt>
      <trkpt lat="46.73051" lon="-1.68303">
        <ele>47</ele>
        <time>2018-03-07T22:39:17Z</time>
      </trkpt>
      <trkpt lat="46.73029" lon="-1.68308">
        <ele>47</ele>
        <time>2018-03-07T22:40:17Z</time>
      </trkpt>
      <trkpt lat="46.73012" lon="-1.68311">
        <ele>47</ele>
        <time>2018-03-07T22:41:17Z</time>
      </trkpt>
      <trkpt lat="46.72979" lon="-1.68318">
        <ele>47</ele>
        <time>2018-03-07T22:42:17Z</time>
      </trkpt>
      <trkpt lat="46.72962" lon="-1.68322">
        <ele>47</ele>
        <time>2018-03-07T22:43:17Z</time>
      </trkpt>
      <trkpt lat="46.7294" lon="-1.68326">
        <ele>48</ele>
        <time>2018-03-07T22:44:17Z</time>
      </trkpt>
      <trkpt lat="46.72918" lon="-1.6833">
        <ele>48</ele>
        <time>2018-03-07T22:45:17Z</time>
      </trkpt>
      <trkpt lat="46.72897" lon="-1.68334">
        <ele>48</ele>
        <time>2018-03-07T22:46:17Z</time>
      </trkpt>
      <trkpt lat="46.72886" lon="-1.68335">
        <ele>48</ele>
        <time>2018-03-07T22:47:17Z</time>
      </trkpt>
      <trkpt lat="46.72875" lon="-1.68336">
        <ele>48</ele>
        <time>2018-03-07T22:48:17Z</time>
      </trkpt>
      <trkpt lat="46.72865" lon="-1.68337">
        <ele>48</ele>
        <time>2018-03-07T22:49:17Z</time>
      </trkpt>
      <trkpt lat="46.72839" lon="-1.68336">
        <ele>48</ele>
        <time>2018-03-07T22:50:17Z</time>
      </trkpt>
      <trkpt lat="46.72832" lon="-1.68335">
        <ele>48</ele>
        <time>2018-03-07T22:51:17Z</time>
      </trkpt>
      <trkpt lat="46.7282" lon="-1.68333">
        <ele>48</ele>
        <time>2018-03-07T22:52:17Z</time>
      </trkpt>
      <trkpt lat="46.72809" lon="-1.6833">
        <ele>48</ele>
        <time>2018-03-07T22:53:17Z</time>
      </trkpt>
      <trkpt lat="46.72787" lon="-1.68323">
        <ele>48</ele>
        <time>2018-03-07T22:54:17Z</time>
      </trkpt>
      <trkpt lat="46.72773" lon="-1.68318">
        <ele>48</ele>
        <time>2018-03-07T22:55:17Z</time>
      </trkpt>
      <trkpt lat="46.72755" lon="-1.68311">
        <ele>47</ele>
        <time>2018-03-07T22:56:17Z</time>
      </trkpt>
      <trkpt lat="46.72722" lon="-1.68299">
        <ele>47</ele>
        <time>2018-03-07T22:57:17Z</time>
      </trkpt>
      <trkpt lat="46.7269" lon="-1.68287">
        <ele>47</ele>
        <time>2018-03-07T22:58:17Z</time>
      </trkpt>
      <trkpt lat="46.72658" lon="-1.68275">
        <ele>48</ele>
        <time>2018-03-07T22:59:17Z</time>
      </trkpt>
      <trkpt lat="46.72626" lon="-1.68263">
        <ele>48</ele>
        <time>2018-03-07T23:00:17Z</time>
      </trkpt>
      <trkpt lat="46.72594" lon="-1.68252">
        <ele>49</ele>
        <time>2018-03-07T23:01:17Z</time>
      </trkpt>
      <trkpt lat="46.72562" lon="-1.68242">
        <ele>49</ele>
        <time>2018-03-07T23:02:17Z</time>
      </trkpt>
      <trkpt lat="46.72532" lon="-1.68236">
        <ele>50</ele>
        <time>2018-03-07T23:03:17Z</time>
      </trkpt>
      <trkpt lat="46.72481" lon="-1.68234">
        <ele>50</ele>
        <time>2018-03-07T23:04:17Z</time>
      </trkpt>
      <trkpt lat="46.72452" lon="-1.68234">
        <ele>51</ele>
        <time>2018-03-07T23:05:17Z</time>
      </trkpt>
      <trkpt lat="46.72413" lon="-1.68234">
        <ele>52</ele>
        <time>2018-03-07T23:06:17Z</time>
      </trkpt>
      <trkpt lat="46.72403" lon="-1.68234">
        <ele>52</ele>
        <time>2018-03-07T23:07:17Z</time>
      </trkpt>
      <trkpt lat="46.72395" lon="-1.68233">
        <ele>51</ele>
        <time>2018-03-07T23:08:17Z</time>
      </trkpt>
      <trkpt lat="46.72386" lon="-1.68231">
        <ele>51</ele>
        <time>2018-03-07T23:09:17Z</time>
      </trkpt>
      <trkpt lat="46.72377" lon="-1.68227">
        <ele>51</ele>
        <time>2018-03-07T23:10:17Z</time>
      </trkpt>
      <trkpt lat="46.72369" lon="-1.68222">
        <ele>51</ele>
        <time>2018-03-07T23:11:17Z</time>
      </trkpt>
      <trkpt lat="46.7236" lon="-1.68216">
        <ele>51</ele>
        <time>2018-03-07T23:12:17Z</time>
      </trkpt>
      <trkpt lat="46.72341" lon="-1.68197">
        <ele>50</ele>
        <time>2018-03-07T23:13:17Z</time>
      </trkpt>
      <trkpt lat="46.72336" lon="-1.68189">
        <ele>50</ele>
        <time>2018-03-07T23:14:17Z</time>
      </trkpt>
      <trkpt lat="46.72329" lon="-1.6818">
        <ele>49</ele>
        <time>2018-03-07T23:15:17Z</time>
      </trkpt>
      <trkpt lat="46.72303" lon="-1.68134">
        <ele>49</ele>
        <time>2018-03-07T23:16:17Z</time>
      </trkpt>
      <trkpt lat="46.72246" lon="-1.68033">
        <ele>49</ele>
        <time>2018-03-07T23:17:17Z</time>
      </trkpt>
      <trkpt lat="46.72226" lon="-1.67998">
        <ele>49</ele>
        <time>2018-03-07T23:18:17Z</time>
      </trkpt>
      <trkpt lat="46.722" lon="-1.67951">
        <ele>49</ele>
        <time>2018-03-07T23:19:17Z</time>
      </trkpt>
      <trkpt lat="46.72154" lon="-1.67871">
        <ele>49</ele>
        <time>2018-03-07T23:20:17Z</time>
      </trkpt>
      <trkpt lat="46.7214" lon="-1.67846">
        <ele>49</ele>
        <time>2018-03-07T23:21:17Z</time>
      </trkpt>
      <trkpt lat="46.72122" lon="-1.67813">
        <ele>50</ele>
        <time>2018-03-07T23:22:17Z</time>
      </trkpt>
      <trkpt lat="46.72089" lon="-1.67756">
        <ele>50</ele>
        <time>2018-03-07T23:23:17Z</time>
      </trkpt>
      <trkpt lat="46.72058" lon="-1.67702">
        <ele>50</ele>
        <time>2018-03-07T23:24:17Z</time>
      </trkpt>
      <trkpt lat="46.71981" lon="-1.67568">
        <ele>50</ele>
        <time>2018-03-07T23:25:17Z</time>
      </trkpt>
      <trkpt lat="46.71966" lon="-1.67541">
        <ele>51</ele>
        <time>2018-03-07T23:26:17Z</time>
      </trkpt>
      <trkpt lat="46.71938" lon="-1.67492">
        <ele>51</ele>
        <time>2018-03-07T23:27:17Z</time>
      </trkpt>
      <trkpt lat="46.71922" lon="-1.67463">
        <ele>52</ele>
        <time>2018-03-07T23:28:17Z</time>
      </trkpt>
      <trkpt lat="46.71909" lon="-1.6744">
        <ele>52</ele>
        <time>2018-03-07T23:29:17Z</time>
      </trkpt>
      <trkpt lat="46.71891" lon="-1.6742">
        <ele>52</ele>
        <time>2018-03-07T23:30:17Z</time>
      </trkpt>
      <trkpt lat="46.71893" lon="-1.67412">
        <ele>52</ele>
        <time>2018-03-07T23:31:17Z</time>
      </trkpt>
      <trkpt lat="46.71887" lon="-1.67407">
        <ele>52</ele>
        <time>2018-03-07T23:32:17Z</time>
      </trkpt>
      <trkpt lat="46.71866" lon="-1.67389">
        <ele>53</ele>
        <time>2018-03-07T23:33:17Z</time>
      </trkpt>
      <trkpt lat="46.71834" lon="-1.6736">
        <ele>54</ele>
        <time>2018-03-07T23:34:17Z</time>
      </trkpt>
      <trkpt lat="46.71806" lon="-1.67335">
        <ele>53</ele>
        <time>2018-03-07T23:35:17Z</time>
      </trkpt>
      <trkpt lat="46.71774" lon="-1.67307">
        <ele>51</ele>
        <time>2018-03-07T23:36:17Z</time>
      </trkpt>
      <trkpt lat="46.7173" lon="-1.67268">
        <ele>49</ele>
        <time>2018-03-07T23:37:17Z</time>
      </trkpt>
      <trkpt lat="46.71693" lon="-1.67236">
        <ele>47</ele>
        <time>2018-03-07T23:38:17Z</time>
      </trkpt>
      <trkpt lat="46.71655" lon="-1.67203">
        <ele>47</ele>
        <time>2018-03-07T23:39:17Z</time>
      </trkpt>
      <trkpt lat="46.71636" lon="-1.67187">
        <ele>47</ele>
        <time>2018-03-07T23:40:17Z</time>
      </trkpt>
      <trkpt lat="46.71607" lon="-1.67162">
        <ele>48</ele>
        <time>2018-03-07T23:41:17Z</time>
      </trkpt>
      <trkpt lat="46.71571" lon="-1.67129">
        <ele>49</ele>
        <time>2018-03-07T23:42:17Z</time>
      </trkpt>
      <trkpt lat="46.71535" lon="-1.67099">
        <ele>50</ele>
        <time>2018-03-07T23:43:17Z</time>
      </trkpt>
      <trkpt lat="46.715" lon="-1.67068">
        <ele>50</ele>
        <time>2018-03-07T23:44:17Z</time>
      </trkpt>
      <trkpt lat="46.71475" lon="-1.67048">
        <ele>51</ele>
        <time>2018-03-07T23:45:17Z</time>
      </trkpt>
      <trkpt lat="46.71455" lon="-1.67031">
        <ele>51</ele>
        <time>2018-03-07T23:46:17Z</time>
      </trkpt>
      <trkpt lat="46.71373" lon="-1.66964">
        <ele>49</ele>
        <time>2018-03-07T23:47:17Z</time>
      </trkpt>
      <trkpt lat="46.71314" lon="-1.66917">
        <ele>46</ele>
        <time>2018-03-07T23:48:17Z</time>
      </trkpt>
      <trkpt lat="46.71233" lon="-1.66852">
        <ele>42</ele>
        <time>2018-03-07T23:49:17Z</time>
      </trkpt>
      <trkpt lat="46.71204" lon="-1.66829">
        <ele>41</ele>
        <time>2018-03-07T23:50:17Z</time>
      </trkpt>
      <trkpt lat="46.7118" lon="-1.6681">
        <ele>40</ele>
        <time>2018-03-07T23:51:17Z</time>
      </trkpt>
      <trkpt lat="46.71163" lon="-1.66796">
        <ele>40</ele>
        <time>2018-03-07T23:52:17Z</time>
      </trkpt>
      <trkpt lat="46.71149" lon="-1.66785">
        <ele>40</ele>
        <time>2018-03-07T23:53:17Z</time>
      </trkpt>
      <trkpt lat="46.71007" lon="-1.6667">
        <ele>39</ele>
        <time>2018-03-07T23:54:17Z</time>
      </trkpt>
      <trkpt lat="46.70957" lon="-1.6663">
        <ele>39</ele>
        <time>2018-03-07T23:55:17Z</time>
      </trkpt>
      <trkpt lat="46.70928" lon="-1.66607">
        <ele>39</ele>
        <time>2018-03-07T23:56:17Z</time>
      </trkpt>
      <trkpt lat="46.70898" lon="-1.66583">
        <ele>40</ele>
        <time>2018-03-07T23:57:17Z</time>
      </trkpt>
      <trkpt lat="46.70886" lon="-1.66574">
        <ele>40</ele>
        <time>2018-03-07T23:58:17Z</time>
      </trkpt>
      <trkpt lat="46.70868" lon="-1.6656">
        <ele>40</ele>
        <time>2018-03-07T23:59:17Z</time>
      </trkpt>
      <trkpt lat="46.70635" lon="-1.66383">
        <ele>42</ele>
        <time>2018-03-08T00:00:17Z</time>
      </trkpt>
      <trkpt lat="46.70625" lon="-1.66376">
        <ele>42</ele>
        <time>2018-03-08T00:01:17Z</time>
      </trkpt>
      <trkpt lat="46.70596" lon="-1.66354">
        <ele>42</ele>
        <time>2018-03-08T00:02:17Z</time>
      </trkpt>
      <trkpt lat="46.70567" lon="-1.66333">
        <ele>43</ele>
        <time>2018-03-08T00:03:17Z</time>
      </trkpt>
      <trkpt lat="46.70549" lon="-1.6632">
        <ele>43</ele>
        <time>2018-03-08T00:04:17Z</time>
      </trkpt>
      <trkpt lat="46.70523" lon="-1.66298">
        <ele>42</ele>
        <time>2018-03-08T00:05:17Z</time>
      </trkpt>
      <trkpt lat="46.70514" lon="-1.66287">
        <ele>42</ele>
        <time>2018-03-08T00:06:17Z</time>
      </trkpt>
      <trkpt lat="46.70498" lon="-1.66268">
        <ele>41</ele>
        <time>2018-03-08T00:07:17Z</time>
      </trkpt>
      <trkpt lat="46.70474" lon="-1.66237">
        <ele>41</ele>
        <time>2018-03-08T00:08:17Z</time>
      </trkpt>
      <trkpt lat="46.70459" lon="-1.66216">
        <ele>40</ele>
        <time>2018-03-08T00:09:17Z</time>
      </trkpt>
      <trkpt lat="46.70444" lon="-1.66194">
        <ele>40</ele>
        <time>2018-03-08T00:10:17Z</time>
      </trkpt>
      <trkpt lat="46.70436" lon="-1.66182">
        <ele>39</ele>
        <time>2018-03-08T00:11:17Z</time>
      </trkpt>
      <trkpt lat="46.70413" lon="-1.66146">
        <ele>39</ele>
        <time>2018-03-08T00:12:17Z</time>
      </trkpt>
      <trkpt lat="46.7039" lon="-1.66107">
        <ele>38</ele>
        <time>2018-03-08T00:13:17Z</time>
      </trkpt>
      <trkpt lat="46.70343" lon="-1.66031">
        <ele>38</ele>
        <time>2018-03-08T00:14:17Z</time>
      </trkpt>
      <trkpt lat="46.70319" lon="-1.65993">
        <ele>38</ele>
        <time>2018-03-08T00:15:17Z</time>
      </trkpt>
      <trkpt lat="46.70296" lon="-1.65955">
        <ele>38</ele>
        <time>2018-03-08T00:16:17Z</time>
      </trkpt>
      <trkpt lat="46.7028" lon="-1.65929">
        <ele>39</ele>
        <time>2018-03-08T00:17:17Z</time>
      </trkpt>
      <trkpt lat="46.70256" lon="-1.65892">
        <ele>40</ele>
        <time>2018-03-08T00:18:17Z</time>
      </trkpt>
      <trkpt lat="46.70241" lon="-1.65868">
        <ele>41</ele>
        <time>2018-03-08T00:19:17Z</time>
      </trkpt>
      <trkpt lat="46.70226" lon="-1.65845">
        <ele>41</ele>
        <time>2018-03-08T00:20:17Z</time>
      </trkpt>
      <trkpt lat="46.70218" lon="-1.65832">
        <ele>42</ele>
        <time>2018-03-08T00:21:17Z</time>
      </trkpt>
      <trkpt lat="46.7021" lon="-1.6582">
        <ele>42</ele>
        <time>2018-03-08T00:22:17Z</time>
      </trkpt>
      <trkpt lat="46.70188" lon="-1.65785">
        <ele>43</ele>
        <time>2018-03-08T00:23:17Z</time>
      </trkpt>
      <trkpt lat="46.70167" lon="-1.65751">
        <ele>43</ele>
        <time>2018-03-08T00:24:17Z</time>
      </trkpt>
      <trkpt lat="46.70157" lon="-1.65738">
        <ele>43</ele>
        <time>2018-03-08T00:25:17Z</time>
      </trkpt>
      <trkpt lat="46.70157" lon="-1.65738">
        <ele>43</ele>
        <time>2018-03-08T00:26:17Z</time>
      </trkpt>
      <trkpt lat="46.70153" lon="-1.65742">
        <ele>43</ele>
        <time>2018-03-08T00:27:17Z</time>
      </trkpt>
      <trkpt lat="46.70147" lon="-1.6575">
        <ele>43</ele>
        <time>2018-03-08T00:28:17Z</time>
      </trkpt>
      <trkpt lat="46.70137" lon="-1.65761">
        <ele>44</ele>
        <time>2018-03-08T00:29:17Z</time>
      </trkpt>
      <trkpt lat="46.70127" lon="-1.65773">
        <ele>44</ele>
        <time>2018-03-08T00:30:17Z</time>
      </trkpt>
      <trkpt lat="46.70114" lon="-1.65788">
        <ele>45</ele>
        <time>2018-03-08T00:31:17Z</time>
      </trkpt>
      <trkpt lat="46.70102" lon="-1.65803">
        <ele>45</ele>
        <time>2018-03-08T00:32:17Z</time>
      </trkpt>
      <trkpt lat="46.70088" lon="-1.6582">
        <ele>46</ele>
        <time>2018-03-08T00:33:17Z</time>
      </trkpt>
      <trkpt lat="46.70078" lon="-1.65831">
        <ele>46</ele>
        <time>2018-03-08T00:34:17Z</time>
      </trkpt>
      <trkpt lat="46.70068" lon="-1.65843">
        <ele>46</ele>
        <time>2018-03-08T00:35:17Z</time>
      </trkpt>
      <trkpt lat="46.70057" lon="-1.65856">
        <ele>46</ele>
        <time>2018-03-08T00:36:17Z</time>
      </trkpt>
      <trkpt lat="46.7004" lon="-1.65877">
        <ele>47</ele>
        <time>2018-03-08T00:37:17Z</time>
      </trkpt>
      <trkpt lat="46.70022" lon="-1.65898">
        <ele>47</ele>
        <time>2018-03-08T00:38:17Z</time>
      </trkpt>
      <trkpt lat="46.70004" lon="-1.6592">
        <ele>47</ele>
        <time>2018-03-08T00:39:17Z</time>
      </trkpt>
      <trkpt lat="46.69991" lon="-1.65934">
        <ele>47</ele>
        <time>2018-03-08T00:40:17Z</time>
      </trkpt>
      <trkpt lat="46.69972" lon="-1.65957">
        <ele>46</ele>
        <time>2018-03-08T00:41:17Z</time>
      </trkpt>
      <trkpt lat="46.69952" lon="-1.65981">
        <ele>46</ele>
        <time>2018-03-08T00:42:17Z</time>
      </trkpt>
      <trkpt lat="46.69925" lon="-1.66014">
        <ele>46</ele>
        <time>2018-03-08T00:43:17Z</time>
      </trkpt>
      <trkpt lat="46.69909" lon="-1.66031">
        <ele>46</ele>
        <time>2018-03-08T00:44:17Z</time>
      </trkpt>
      <trkpt lat="46.69903" lon="-1.66039">
        <ele>46</ele>
        <time>2018-03-08T00:45:17Z</time>
      </trkpt>
      <trkpt lat="46.69889" lon="-1.66056">
        <ele>46</ele>
        <time>2018-03-08T00:46:17Z</time>
      </trkpt>
      <trkpt lat="46.69867" lon="-1.66083">
        <ele>46</ele>
        <time>2018-03-08T00:47:17Z</time>
      </trkpt>
      <trkpt lat="46.69844" lon="-1.6611">
        <ele>46</ele>
        <time>2018-03-08T00:48:17Z</time>
      </trkpt>
      <trkpt lat="46.69823" lon="-1.66135">
        <ele>46</ele>
        <time>2018-03-08T00:49:17Z</time>
      </trkpt>
      <trkpt lat="46.69812" lon="-1.66148">
        <ele>46</ele>
        <time>2018-03-08T00:50:17Z</time>
      </trkpt>
      <trkpt lat="46.69801" lon="-1.66161">
        <ele>45</ele>
        <time>2018-03-08T00:51:17Z</time>
      </trkpt>
      <trkpt lat="46.69779" lon="-1.66187">
        <ele>45</ele>
        <time>2018-03-08T00:52:17Z</time>
      </trkpt>
      <trkpt lat="46.69765" lon="-1.66204">
        <ele>44</ele>
        <time>2018-03-08T00:53:17Z</time>
      </trkpt>
      <trkpt lat="46.69743" lon="-1.6623">
        <ele>44</ele>
        <time>2018-03-08T00:54:17Z</time>
      </trkpt>
      <trkpt lat="46.69729" lon="-1.66247">
        <ele>43</ele>
        <time>2018-03-08T00:55:17Z</time>
      </trkpt>
      <trkpt lat="46.69714" lon="-1.66264">
        <ele>43</ele>
        <time>2018-03-08T00:56:17Z</time>
      </trkpt>
      <trkpt lat="46.69707" lon="-1.66273">
        <ele>43</ele>
        <time>2018-03-08T00:57:17Z</time>
      </trkpt>
      <trkpt lat="46.69699" lon="-1.66282">
        <ele>43</ele>
        <time>2018-03-08T00:58:17Z</time>
      </trkpt>
      <trkpt lat="46.69686" lon="-1.66298">
        <ele>43</ele>
        <time>2018-03-08T00:59:17Z</time>
      </trkpt>
      <trkpt lat="46.69666" lon="-1.66322">
        <ele>43</ele>
        <time>2018-03-08T01:00:17Z</time>
      </trkpt>
      <trkpt lat="46.69648" lon="-1.66343">
        <ele>42</ele>
        <time>2018-03-08T01:01:17Z</time>
      </trkpt>
      <trkpt lat="46.69629" lon="-1.66364">
        <ele>41</ele>
        <time>2018-03-08T01:02:17Z</time>
      </trkpt>
      <trkpt lat="46.6962" lon="-1.6637">
        <ele>40</ele>
        <time>2018-03-08T01:03:17Z</time>
      </trkpt>
      <trkpt lat="46.69617" lon="-1.66372">
        <ele>40</ele>
        <time>2018-03-08T01:04:17Z</time>
      </trkpt>
      <trkpt lat="46.69613" lon="-1.66375">
        <ele>40</ele>
        <time>2018-03-08T01:05:17Z</time>
      </trkpt>
      <trkpt lat="46.69606" lon="-1.66378">
        <ele>39</ele>
        <time>2018-03-08T01:06:17Z</time>
      </trkpt>
      <trkpt lat="46.69601" lon="-1.66381">
        <ele>39</ele>
        <time>2018-03-08T01:07:17Z</time>
      </trkpt>
      <trkpt lat="46.69594" lon="-1.66382">
        <ele>38</ele>
        <time>2018-03-08T01:08:17Z</time>
      </trkpt>
      <trkpt lat="46.69587" lon="-1.66383">
        <ele>38</ele>
        <time>2018-03-08T01:09:17Z</time>
      </trkpt>
      <trkpt lat="46.6958" lon="-1.66384">
        <ele>38</ele>
        <time>2018-03-08T01:10:17Z</time>
      </trkpt>
      <trkpt lat="46.69563" lon="-1.66383">
        <ele>37</ele>
        <time>2018-03-08T01:11:17Z</time>
      </trkpt>
      <trkpt lat="46.69542" lon="-1.66382">
        <ele>37</ele>
        <time>2018-03-08T01:12:17Z</time>
      </trkpt>
      <trkpt lat="46.69514" lon="-1.6638">
        <ele>36</ele>
        <time>2018-03-08T01:13:17Z</time>
      </trkpt>
      <trkpt lat="46.69468" lon="-1.66378">
        <ele>35</ele>
        <time>2018-03-08T01:14:17Z</time>
      </trkpt>
      <trkpt lat="46.69405" lon="-1.66375">
        <ele>35</ele>
        <time>2018-03-08T01:15:17Z</time>
      </trkpt>
      <trkpt lat="46.69391" lon="-1.66375">
        <ele>34</ele>
        <time>2018-03-08T01:16:17Z</time>
      </trkpt>
      <trkpt lat="46.69387" lon="-1.66374">
        <ele>34</ele>
        <time>2018-03-08T01:17:17Z</time>
      </trkpt>
      <trkpt lat="46.69376" lon="-1.66375">
        <ele>34</ele>
        <time>2018-03-08T01:18:17Z</time>
      </trkpt>
      <trkpt lat="46.69367" lon="-1.66375">
        <ele>34</ele>
        <time>2018-03-08T01:19:17Z</time>
      </trkpt>
      <trkpt lat="46.69357" lon="-1.66377">
        <ele>34</ele>
        <time>2018-03-08T01:20:17Z</time>
      </trkpt>
      <trkpt lat="46.69348" lon="-1.66378">
        <ele>33</ele>
        <time>2018-03-08T01:21:17Z</time>
      </trkpt>
      <trkpt lat="46.69333" lon="-1.66382">
        <ele>33</ele>
        <time>2018-03-08T01:22:17Z</time>
      </trkpt>
      <trkpt lat="46.69315" lon="-1.66386">
        <ele>33</ele>
        <time>2018-03-08T01:23:17Z</time>
      </trkpt>
      <trkpt lat="46.69305" lon="-1.66387">
        <ele>32</ele>
        <time>2018-03-08T01:24:17Z</time>
      </trkpt>
      <trkpt lat="46.69294" lon="-1.66388">
        <ele>32</ele>
        <time>2018-03-08T01:25:17Z</time>
      </trkpt>
      <trkpt lat="46.69284" lon="-1.66389">
        <ele>32</ele>
        <time>2018-03-08T01:26:17Z</time>
      </trkpt>
      <trkpt lat="46.69276" lon="-1.66388">
        <ele>31</ele>
        <time>2018-03-08T01:27:17Z</time>
      </trkpt>
      <trkpt lat="46.69267" lon="-1.66387">
        <ele>31</ele>
        <time>2018-03-08T01:28:17Z</time>
      </trkpt>
      <trkpt lat="46.69257" lon="-1.66385">
        <ele>31</ele>
        <time>2018-03-08T01:29:17Z</time>
      </trkpt>
      <trkpt lat="46.69248" lon="-1.66383">
        <ele>30</ele>
        <time>2018-03-08T01:30:17Z</time>
      </trkpt>
      <trkpt lat="46.69241" lon="-1.6638">
        <ele>30</ele>
        <time>2018-03-08T01:31:17Z</time>
      </trkpt>
      <trkpt lat="46.69233" lon="-1.66377">
        <ele>30</ele>
        <time>2018-03-08T01:32:17Z</time>
      </trkpt>
      <trkpt lat="46.69225" lon="-1.66373">
        <ele>30</ele>
        <time>2018-03-08T01:33:17Z</time>
      </trkpt>
      <trkpt lat="46.69209" lon="-1.66362">
        <ele>29</ele>
        <time>2018-03-08T01:34:17Z</time>
      </trkpt>
      <trkpt lat="46.6917" lon="-1.66333">
        <ele>28</ele>
        <time>2018-03-08T01:35:17Z</time>
      </trkpt>
      <trkpt lat="46.69151" lon="-1.6632">
        <ele>27</ele>
        <time>2018-03-08T01:36:17Z</time>
      </trkpt>
      <trkpt lat="46.69139" lon="-1.66313">
        <ele>26</ele>
        <time>2018-03-08T01:37:17Z</time>
      </trkpt>
      <trkpt lat="46.69131" lon="-1.6631">
        <ele>25</ele>
        <time>2018-03-08T01:38:17Z</time>
      </trkpt>
      <trkpt lat="46.69123" lon="-1.66309">
        <ele>25</ele>
        <time>2018-03-08T01:39:17Z</time>
      </trkpt>
      <trkpt lat="46.69113" lon="-1.66309">
        <ele>24</ele>
        <time>2018-03-08T01:40:17Z</time>
      </trkpt>
      <trkpt lat="46.69103" lon="-1.6631">
        <ele>23</ele>
        <time>2018-03-08T01:41:17Z</time>
      </trkpt>
      <trkpt lat="46.69094" lon="-1.66312">
        <ele>23</ele>
        <time>2018-03-08T01:42:17Z</time>
      </trkpt>
      <trkpt lat="46.69083" lon="-1.66317">
        <ele>22</ele>
        <time>2018-03-08T01:43:17Z</time>
      </trkpt>
      <trkpt lat="46.6907" lon="-1.66322">
        <ele>22</ele>
        <time>2018-03-08T01:44:17Z</time>
      </trkpt>
      <trkpt lat="46.69067" lon="-1.66323">
        <ele>22</ele>
        <time>2018-03-08T01:45:17Z</time>
      </trkpt>
      <trkpt lat="46.69053" lon="-1.6633">
        <ele>22</ele>
        <time>2018-03-08T01:46:17Z</time>
      </trkpt>
      <trkpt lat="46.69042" lon="-1.66336">
        <ele>22</ele>
        <time>2018-03-08T01:47:17Z</time>
      </trkpt>
      <trkpt lat="46.69027" lon="-1.66346">
        <ele>22</ele>
        <time>2018-03-08T01:48:17Z</time>
      </trkpt>
      <trkpt lat="46.69024" lon="-1.66348">
        <ele>22</ele>
        <time>2018-03-08T01:49:17Z</time>
      </trkpt>
      <trkpt lat="46.69019" lon="-1.66353">
        <ele>22</ele>
        <time>2018-03-08T01:50:17Z</time>
      </trkpt>
      <trkpt lat="46.69013" lon="-1.66362">
        <ele>22</ele>
        <time>2018-03-08T01:51:17Z</time>
      </trkpt>
      <trkpt lat="46.69008" lon="-1.66371">
        <ele>22</ele>
        <time>2018-03-08T01:52:17Z</time>
      </trkpt>
      <trkpt lat="46.69004" lon="-1.66378">
        <ele>22</ele>
        <time>2018-03-08T01:53:17Z</time>
      </trkpt>
      <trkpt lat="46.68991" lon="-1.66405">
        <ele>22</ele>
        <time>2018-03-08T01:54:17Z</time>
      </trkpt>
      <trkpt lat="46.68988" lon="-1.66413">
        <ele>23</ele>
        <time>2018-03-08T01:55:17Z</time>
      </trkpt>
      <trkpt lat="46.68965" lon="-1.66464">
        <ele>23</ele>
        <time>2018-03-08T01:56:17Z</time>
      </trkpt>
      <trkpt lat="46.68952" lon="-1.66497">
        <ele>23</ele>
        <time>2018-03-08T01:57:17Z</time>
      </trkpt>
      <trkpt lat="46.6894" lon="-1.66523">
        <ele>24</ele>
        <time>2018-03-08T01:58:17Z</time>
      </trkpt>
      <trkpt lat="46.68931" lon="-1.66545">
        <ele>24</ele>
        <time>2018-03-08T01:59:17Z</time>
      </trkpt>
      <trkpt lat="46.68925" lon="-1.66556">
        <ele>24</ele>
        <time>2018-03-08T02:00:17Z</time>
      </trkpt>
      <trkpt lat="46.68918" lon="-1.66569">
        <ele>25</ele>
        <time>2018-03-08T02:01:17Z</time>
      </trkpt>
      <trkpt lat="46.68912" lon="-1.6658">
        <ele>25</ele>
        <time>2018-03-08T02:02:17Z</time>
      </trkpt>
      <trkpt lat="46.68903" lon="-1.66593">
        <ele>26</ele>
        <time>2018-03-08T02:03:17Z</time>
      </trkpt>
      <trkpt lat="46.68896" lon="-1.66602">
        <ele>26</ele>
        <time>2018-03-08T02:04:17Z</time>
      </trkpt>
      <trkpt lat="46.68889" lon="-1.6661">
        <ele>27</ele>
        <time>2018-03-08T02:05:17Z</time>
      </trkpt>
      <trkpt lat="46.68881" lon="-1.66618">
        <ele>27</ele>
        <time>2018-03-08T02:06:17Z</time>
      </trkpt>
      <trkpt lat="46.68873" lon="-1.66626">
        <ele>28</ele>
        <time>2018-03-08T02:07:17Z</time>
      </trkpt>
      <trkpt lat="46.6887" lon="-1.66628">
        <ele>28</ele>
        <time>2018-03-08T02:08:17Z</time>
      </trkpt>
      <trkpt lat="46.68865" lon="-1.66633">
        <ele>28</ele>
        <time>2018-03-08T02:09:17Z</time>
      </trkpt>
      <trkpt lat="46.68854" lon="-1.66642">
        <ele>29</ele>
        <time>2018-03-08T02:10:17Z</time>
      </trkpt>
      <trkpt lat="46.68799" lon="-1.66684">
        <ele>31</ele>
        <time>2018-03-08T02:11:17Z</time>
      </trkpt>
      <trkpt lat="46.68781" lon="-1.66699">
        <ele>32</ele>
        <time>2018-03-08T02:12:17Z</time>
      </trkpt>
      <trkpt lat="46.6871" lon="-1.66756">
        <ele>35</ele>
        <time>2018-03-08T02:13:17Z</time>
      </trkpt>
      <trkpt lat="46.68655" lon="-1.66801">
        <ele>35</ele>
        <time>2018-03-08T02:14:17Z</time>
      </trkpt>
      <trkpt lat="46.68638" lon="-1.66814">
        <ele>35</ele>
        <time>2018-03-08T02:15:17Z</time>
      </trkpt>
      <trkpt lat="46.68584" lon="-1.66854">
        <ele>35</ele>
        <time>2018-03-08T02:16:17Z</time>
      </trkpt>
      <trkpt lat="46.68582" lon="-1.66862">
        <ele>35</ele>
        <time>2018-03-08T02:17:17Z</time>
      </trkpt>
      <trkpt lat="46.68577" lon="-1.66869">
        <ele>35</ele>
        <time>2018-03-08T02:18:17Z</time>
      </trkpt>
      <trkpt lat="46.68563" lon="-1.66881">
        <ele>35</ele>
        <time>2018-03-08T02:19:17Z</time>
      </trkpt>
      <trkpt lat="46.68538" lon="-1.66901">
        <ele>35</ele>
        <time>2018-03-08T02:20:17Z</time>
      </trkpt>
      <trkpt lat="46.68512" lon="-1.66921">
        <ele>36</ele>
        <time>2018-03-08T02:21:17Z</time>
      </trkpt>
      <trkpt lat="46.68471" lon="-1.66954">
        <ele>34</ele>
        <time>2018-03-08T02:22:17Z</time>
      </trkpt>
      <trkpt lat="46.68459" lon="-1.66965">
        <ele>34</ele>
        <time>2018-03-08T02:23:17Z</time>
      </trkpt>
      <trkpt lat="46.68442" lon="-1.66981">
        <ele>34</ele>
        <time>2018-03-08T02:24:17Z</time>
      </trkpt>
      <trkpt lat="46.68426" lon="-1.67002">
        <ele>33</ele>
        <time>2018-03-08T02:25:17Z</time>
      </trkpt>
      <trkpt lat="46.68406" lon="-1.67034">
        <ele>34</ele>
        <time>2018-03-08T02:26:17Z</time>
      </trkpt>
      <trkpt lat="46.68387" lon="-1.67066">
        <ele>35</ele>
        <time>2018-03-08T02:27:17Z</time>
      </trkpt>
      <trkpt lat="46.68373" lon="-1.67091">
        <ele>36</ele>
        <time>2018-03-08T02:28:17Z</time>
      </trkpt>
      <trkpt lat="46.68354" lon="-1.67122">
        <ele>36</ele>
        <time>2018-03-08T02:29:17Z</time>
      </trkpt>
      <trkpt lat="46.68339" lon="-1.67147">
        <ele>37</ele>
        <time>2018-03-08T02:30:17Z</time>
      </trkpt>
      <trkpt lat="46.68324" lon="-1.67172">
        <ele>37</ele>
        <time>2018-03-08T02:31:17Z</time>
      </trkpt>
      <trkpt lat="46.68314" lon="-1.67188">
        <ele>37</ele>
        <time>2018-03-08T02:32:17Z</time>
      </trkpt>
      <trkpt lat="46.68305" lon="-1.67205">
        <ele>36</ele>
        <time>2018-03-08T02:33:17Z</time>
      </trkpt>
      <trkpt lat="46.6829" lon="-1.67229">
        <ele>36</ele>
        <time>2018-03-08T02:34:17Z</time>
      </trkpt>
      <trkpt lat="46.68275" lon="-1.67253">
        <ele>35</ele>
        <time>2018-03-08T02:35:17Z</time>
      </trkpt>
      <trkpt lat="46.68265" lon="-1.67269">
        <ele>35</ele>
        <time>2018-03-08T02:36:17Z</time>
      </trkpt>
      <trkpt lat="46.68256" lon="-1.67284">
        <ele>35</ele>
        <time>2018-03-08T02:37:17Z</time>
      </trkpt>
      <trkpt lat="46.68251" lon="-1.67292">
        <ele>35</ele>
        <time>2018-03-08T02:38:17Z</time>
      </trkpt>
      <trkpt lat="46.68242" lon="-1.67308">
        <ele>35</ele>
        <time>2018-03-08T02:39:17Z</time>
      </trkpt>
      <trkpt lat="46.68233" lon="-1.67323">
        <ele>35</ele>
        <time>2018-03-08T02:40:17Z</time>
      </trkpt>
      <trkpt lat="46.68215" lon="-1.67355">
        <ele>35</ele>
        <time>2018-03-08T02:41:17Z</time>
      </trkpt>
      <trkpt lat="46.68207" lon="-1.67371">
        <ele>34</ele>
        <time>2018-03-08T02:42:17Z</time>
      </trkpt>
      <trkpt lat="46.68203" lon="-1.67379">
        <ele>34</ele>
        <time>2018-03-08T02:43:17Z</time>
      </trkpt>
      <trkpt lat="46.682" lon="-1.67388">
        <ele>34</ele>
        <time>2018-03-08T02:44:17Z</time>
      </trkpt>
      <trkpt lat="46.68196" lon="-1.67396">
        <ele>34</ele>
        <time>2018-03-08T02:45:17Z</time>
      </trkpt>
      <trkpt lat="46.68194" lon="-1.67405">
        <ele>34</ele>
        <time>2018-03-08T02:46:17Z</time>
      </trkpt>
      <trkpt lat="46.68189" lon="-1.67422">
        <ele>34</ele>
        <time>2018-03-08T02:47:17Z</time>
      </trkpt>
      <trkpt lat="46.68187" lon="-1.67433">
        <ele>33</ele>
        <time>2018-03-08T02:48:17Z</time>
      </trkpt>
      <trkpt lat="46.68184" lon="-1.67443">
        <ele>33</ele>
        <time>2018-03-08T02:49:17Z</time>
      </trkpt>
      <trkpt lat="46.68181" lon="-1.67469">
        <ele>32</ele>
        <time>2018-03-08T02:50:17Z</time>
      </trkpt>
      <trkpt lat="46.6818" lon="-1.6748">
        <ele>31</ele>
        <time>2018-03-08T02:51:17Z</time>
      </trkpt>
      <trkpt lat="46.68178" lon="-1.67489">
        <ele>31</ele>
        <time>2018-03-08T02:52:17Z</time>
      </trkpt>
      <trkpt lat="46.68176" lon="-1.67509">
        <ele>30</ele>
        <time>2018-03-08T02:53:17Z</time>
      </trkpt>
      <trkpt lat="46.68172" lon="-1.67539">
        <ele>29</ele>
        <time>2018-03-08T02:54:17Z</time>
      </trkpt>
      <trkpt lat="46.68168" lon="-1.67571">
        <ele>27</ele>
        <time>2018-03-08T02:55:17Z</time>
      </trkpt>
      <trkpt lat="46.68165" lon="-1.67591">
        <ele>27</ele>
        <time>2018-03-08T02:56:17Z</time>
      </trkpt>
      <trkpt lat="46.6816" lon="-1.67623">
        <ele>26</ele>
        <time>2018-03-08T02:57:17Z</time>
      </trkpt>
      <trkpt lat="46.68157" lon="-1.67644">
        <ele>25</ele>
        <time>2018-03-08T02:58:17Z</time>
      </trkpt>
      <trkpt lat="46.68152" lon="-1.67687">
        <ele>24</ele>
        <time>2018-03-08T02:59:17Z</time>
      </trkpt>
      <trkpt lat="46.68146" lon="-1.67733">
        <ele>25</ele>
        <time>2018-03-08T03:00:17Z</time>
      </trkpt>
      <trkpt lat="46.6814" lon="-1.67777">
        <ele>25</ele>
        <time>2018-03-08T03:01:17Z</time>
      </trkpt>
      <trkpt lat="46.68135" lon="-1.67818">
        <ele>25</ele>
        <time>2018-03-08T03:02:17Z</time>
      </trkpt>
      <trkpt lat="46.68132" lon="-1.67837">
        <ele>25</ele>
        <time>2018-03-08T03:03:17Z</time>
      </trkpt>
      <trkpt lat="46.6813" lon="-1.67846">
        <ele>25</ele>
        <time>2018-03-08T03:04:17Z</time>
      </trkpt>
      <trkpt lat="46.68129" lon="-1.67854">
        <ele>26</ele>
        <time>2018-03-08T03:05:17Z</time>
      </trkpt>
      <trkpt lat="46.68126" lon="-1.67861">
        <ele>26</ele>
        <time>2018-03-08T03:06:17Z</time>
      </trkpt>
      <trkpt lat="46.68123" lon="-1.67867">
        <ele>26</ele>
        <time>2018-03-08T03:07:17Z</time>
      </trkpt>
      <trkpt lat="46.68121" lon="-1.67872">
        <ele>26</ele>
        <time>2018-03-08T03:08:17Z</time>
      </trkpt>
      <trkpt lat="46.6811" lon="-1.67882">
        <ele>26</ele>
        <time>2018-03-08T03:09:17Z</time>
      </trkpt>
      <trkpt lat="46.68107" lon="-1.67883">
        <ele>26</ele>
        <time>2018-03-08T03:10:17Z</time>
      </trkpt>
      <trkpt lat="46.68097" lon="-1.67885">
        <ele>27</ele>
        <time>2018-03-08T03:11:17Z</time>
      </trkpt>
      <trkpt lat="46.6808" lon="-1.67885">
        <ele>27</ele>
        <time>2018-03-08T03:12:17Z</time>
      </trkpt>
      <trkpt lat="46.68062" lon="-1.67881">
        <ele>28</ele>
        <time>2018-03-08T03:13:17Z</time>
      </trkpt>
      <trkpt lat="46.68036" lon="-1.6787">
        <ele>29</ele>
        <time>2018-03-08T03:14:17Z</time>
      </trkpt>
      <trkpt lat="46.68012" lon="-1.67859">
        <ele>30</ele>
        <time>2018-03-08T03:15:17Z</time>
      </trkpt>
      <trkpt lat="46.67982" lon="-1.67844">
        <ele>31</ele>
        <time>2018-03-08T03:16:17Z</time>
      </trkpt>
      <trkpt lat="46.67959" lon="-1.67833">
        <ele>31</ele>
        <time>2018-03-08T03:17:17Z</time>
      </trkpt>
      <trkpt lat="46.67954" lon="-1.6783">
        <ele>30</ele>
        <time>2018-03-08T03:18:17Z</time>
      </trkpt>
      <trkpt lat="46.67943" lon="-1.67824">
        <ele>30</ele>
        <time>2018-03-08T03:19:17Z</time>
      </trkpt>
      <trkpt lat="46.67925" lon="-1.67815">
        <ele>30</ele>
        <time>2018-03-08T03:20:17Z</time>
      </trkpt>
      <trkpt lat="46.67907" lon="-1.67808">
        <ele>30</ele>
        <time>2018-03-08T03:21:17Z</time>
      </trkpt>
      <trkpt lat="46.67889" lon="-1.67801">
        <ele>31</ele>
        <time>2018-03-08T03:22:17Z</time>
      </trkpt>
      <trkpt lat="46.67876" lon="-1.67799">
        <ele>31</ele>
        <time>2018-03-08T03:23:17Z</time>
      </trkpt>
      <trkpt lat="46.67864" lon="-1.67797">
        <ele>31</ele>
        <time>2018-03-08T03:24:17Z</time>
      </trkpt>
      <trkpt lat="46.67846" lon="-1.67799">
        <ele>32</ele>
        <time>2018-03-08T03:25:17Z</time>
      </trkpt>
      <trkpt lat="46.67834" lon="-1.67801">
        <ele>32</ele>
        <time>2018-03-08T03:26:17Z</time>
      </trkpt>
      <trkpt lat="46.67807" lon="-1.67808">
        <ele>32</ele>
        <time>2018-03-08T03:27:17Z</time>
      </trkpt>
      <trkpt lat="46.67789" lon="-1.67812">
        <ele>32</ele>
        <time>2018-03-08T03:28:17Z</time>
      </trkpt>
      <trkpt lat="46.67778" lon="-1.67815">
        <ele>32</ele>
        <time>2018-03-08T03:29:17Z</time>
      </trkpt>
      <trkpt lat="46.67773" lon="-1.67815">
        <ele>32</ele>
        <time>2018-03-08T03:30:17Z</time>
      </trkpt>
      <trkpt lat="46.67754" lon="-1.67816">
        <ele>32</ele>
        <time>2018-03-08T03:31:17Z</time>
      </trkpt>
      <trkpt lat="46.67729" lon="-1.67816">
        <ele>32</ele>
        <time>2018-03-08T03:32:17Z</time>
      </trkpt>
      <trkpt lat="46.67707" lon="-1.67815">
        <ele>33</ele>
        <time>2018-03-08T03:33:17Z</time>
      </trkpt>
      <trkpt lat="46.6769" lon="-1.67816">
        <ele>33</ele>
        <time>2018-03-08T03:34:17Z</time>
      </trkpt>
      <trkpt lat="46.67673" lon="-1.67819">
        <ele>34</ele>
        <time>2018-03-08T03:35:17Z</time>
      </trkpt>
      <trkpt lat="46.67658" lon="-1.67827">
        <ele>35</ele>
        <time>2018-03-08T03:36:17Z</time>
      </trkpt>
      <trkpt lat="46.67634" lon="-1.67839">
        <ele>36</ele>
        <time>2018-03-08T03:37:17Z</time>
      </trkpt>
      <trkpt lat="46.67634" lon="-1.67839">
        <ele>36</ele>
        <time>2018-03-08T03:38:17Z</time>
      </trkpt>
      <trkpt lat="46.67636" lon="-1.67849">
        <ele>36</ele>
        <time>2018-03-08T03:39:17Z</time>
      </trkpt>
      <trkpt lat="46.6764" lon="-1.67875">
        <ele>36</ele>
        <time>2018-03-08T03:40:17Z</time>
      </trkpt>
      <trkpt lat="46.67656" lon="-1.67946">
        <ele>34</ele>
        <time>2018-03-08T03:41:17Z</time>
      </trkpt>
      <trkpt lat="46.67665" lon="-1.67984">
        <ele>33</ele>
        <time>2018-03-08T03:42:17Z</time>
      </trkpt>
      <trkpt lat="46.67673" lon="-1.68018">
        <ele>33</ele>
        <time>2018-03-08T03:43:17Z</time>
      </trkpt>
      <trkpt lat="46.67682" lon="-1.6806">
        <ele>31</ele>
        <time>2018-03-08T03:44:17Z</time>
      </trkpt>
      <trkpt lat="46.67691" lon="-1.68099">
        <ele>30</ele>
        <time>2018-03-08T03:45:17Z</time>
      </trkpt>
      <trkpt lat="46.67694" lon="-1.68112">
        <ele>29</ele>
        <time>2018-03-08T03:46:17Z</time>
      </trkpt>
      <trkpt lat="46.67697" lon="-1.68121">
        <ele>29</ele>
        <time>2018-03-08T03:47:17Z</time>
      </trkpt>
      <trkpt lat="46.67699" lon="-1.68128">
        <ele>28</ele>
        <time>2018-03-08T03:48:17Z</time>
      </trkpt>
      <trkpt lat="46.677" lon="-1.68132">
        <ele>28</ele>
        <time>2018-03-08T03:49:17Z</time>
      </trkpt>
      <trkpt lat="46.67701" lon="-1.68136">
        <ele>28</ele>
        <time>2018-03-08T03:50:17Z</time>
      </trkpt>
      <trkpt lat="46.67703" lon="-1.68151">
        <ele>27</ele>
        <time>2018-03-08T03:51:17Z</time>
      </trkpt>
      <trkpt lat="46.67706" lon="-1.68173">
        <ele>27</ele>
        <time>2018-03-08T03:52:17Z</time>
      </trkpt>
      <trkpt lat="46.67706" lon="-1.68176">
        <ele>27</ele>
        <time>2018-03-08T03:53:17Z</time>
      </trkpt>
      <trkpt lat="46.67707" lon="-1.68183">
        <ele>26</ele>
        <time>2018-03-08T03:54:17Z</time>
      </trkpt>
      <trkpt lat="46.67711" lon="-1.68208">
        <ele>26</ele>
        <time>2018-03-08T03:55:17Z</time>
      </trkpt>
      <trkpt lat="46.67717" lon="-1.6824">
        <ele>25</ele>
        <time>2018-03-08T03:56:17Z</time>
      </trkpt>
      <trkpt lat="46.6772" lon="-1.68252">
        <ele>25</ele>
        <time>2018-03-08T03:57:17Z</time>
      </trkpt>
      <trkpt lat="46.67724" lon="-1.68273">
        <ele>25</ele>
        <time>2018-03-08T03:58:17Z</time>
      </trkpt>
      <trkpt lat="46.67728" lon="-1.68296">
        <ele>24</ele>
        <time>2018-03-08T03:59:17Z</time>
      </trkpt>
      <trkpt lat="46.67733" lon="-1.68322">
        <ele>24</ele>
        <time>2018-03-08T04:00:17Z</time>
      </trkpt>
      <trkpt lat="46.67737" lon="-1.68347">
        <ele>24</ele>
        <time>2018-03-08T04:01:17Z</time>
      </trkpt>
      <trkpt lat="46.67742" lon="-1.68373">
        <ele>24</ele>
        <time>2018-03-08T04:02:17Z</time>
      </trkpt>
      <trkpt lat="46.67746" lon="-1.68391">
        <ele>25</ele>
        <time>2018-03-08T04:03:17Z</time>
      </trkpt>
      <trkpt lat="46.67749" lon="-1.68409">
        <ele>25</ele>
        <time>2018-03-08T04:04:17Z</time>
      </trkpt>
      <trkpt lat="46.67753" lon="-1.68427">
        <ele>25</ele>
        <time>2018-03-08T04:05:17Z</time>
      </trkpt>
      <trkpt lat="46.67756" lon="-1.68448">
        <ele>25</ele>
        <time>2018-03-08T04:06:17Z</time>
      </trkpt>
      <trkpt lat="46.6776" lon="-1.68466">
        <ele>25</ele>
        <time>2018-03-08T04:07:17Z</time>
      </trkpt>
      <trkpt lat="46.6776" lon="-1.68469">
        <ele>25</ele>
        <time>2018-03-08T04:08:17Z</time>
      </trkpt>
      <trkpt lat="46.67762" lon="-1.6848">
        <ele>25</ele>
        <time>2018-03-08T04:09:17Z</time>
      </trkpt>
      <trkpt lat="46.67765" lon="-1.68493">
        <ele>26</ele>
        <time>2018-03-08T04:10:17Z</time>
      </trkpt>
      <trkpt lat="46.67766" lon="-1.685">
        <ele>26</ele>
        <time>2018-03-08T04:11:17Z</time>
      </trkpt>
      <trkpt lat="46.67772" lon="-1.68539">
        <ele>26</ele>
        <time>2018-03-08T04:12:17Z</time>
      </trkpt>
      <trkpt lat="46.6778" lon="-1.68583">
        <ele>27</ele>
        <time>2018-03-08T04:13:17Z</time>
      </trkpt>
      <trkpt lat="46.67783" lon="-1.68599">
        <ele>26</ele>
        <time>2018-03-08T04:14:17Z</time>
      </trkpt>
      <trkpt lat="46.67787" lon="-1.68611">
        <ele>26</ele>
        <time>2018-03-08T04:15:17Z</time>
      </trkpt>
      <trkpt lat="46.67791" lon="-1.68624">
        <ele>26</ele>
        <time>2018-03-08T04:16:17Z</time>
      </trkpt>
      <trkpt lat="46.67794" lon="-1.6863">
        <ele>26</ele>
        <time>2018-03-08T04:17:17Z</time>
      </trkpt>
      <trkpt lat="46.67796" lon="-1.68635">
        <ele>26</ele>
        <time>2018-03-08T04:18:17Z</time>
      </trkpt>
      <trkpt lat="46.67802" lon="-1.68648">
        <ele>26</ele>
        <time>2018-03-08T04:19:17Z</time>
      </trkpt>
      <trkpt lat="46.67808" lon="-1.68657">
        <ele>26</ele>
        <time>2018-03-08T04:20:17Z</time>
      </trkpt>
      <trkpt lat="46.67814" lon="-1.68665">
        <ele>26</ele>
        <time>2018-03-08T04:21:17Z</time>
      </trkpt>
      <trkpt lat="46.6782" lon="-1.68671">
        <ele>26</ele>
        <time>2018-03-08T04:22:17Z</time>
      </trkpt>
      <trkpt lat="46.67827" lon="-1.68677">
        <ele>26</ele>
        <time>2018-03-08T04:23:17Z</time>
      </trkpt>
      <trkpt lat="46.67833" lon="-1.68682">
        <ele>25</ele>
        <time>2018-03-08T04:24:17Z</time>
      </trkpt>
      <trkpt lat="46.67848" lon="-1.68691">
        <ele>25</ele>
        <time>2018-03-08T04:25:17Z</time>
      </trkpt>
      <trkpt lat="46.67864" lon="-1.687">
        <ele>25</ele>
        <time>2018-03-08T04:26:17Z</time>
      </trkpt>
      <trkpt lat="46.67881" lon="-1.68709">
        <ele>24</ele>
        <time>2018-03-08T04:27:17Z</time>
      </trkpt>
      <trkpt lat="46.67899" lon="-1.68719">
        <ele>24</ele>
        <time>2018-03-08T04:28:17Z</time>
      </trkpt>
      <trkpt lat="46.67918" lon="-1.68729">
        <ele>23</ele>
        <time>2018-03-08T04:29:17Z</time>
      </trkpt>
      <trkpt lat="46.67931" lon="-1.68735">
        <ele>23</ele>
        <time>2018-03-08T04:30:17Z</time>
      </trkpt>
      <trkpt lat="46.67937" lon="-1.68738">
        <ele>23</ele>
        <time>2018-03-08T04:31:17Z</time>
      </trkpt>
      <trkpt lat="46.67943" lon="-1.68741">
        <ele>23</ele>
        <time>2018-03-08T04:32:17Z</time>
      </trkpt>
      <trkpt lat="46.6795" lon="-1.68744">
        <ele>22</ele>
        <time>2018-03-08T04:33:17Z</time>
      </trkpt>
      <trkpt lat="46.67957" lon="-1.68748">
        <ele>22</ele>
        <time>2018-03-08T04:34:17Z</time>
      </trkpt>
      <trkpt lat="46.67963" lon="-1.68751">
        <ele>22</ele>
        <time>2018-03-08T04:35:17Z</time>
      </trkpt>
      <trkpt lat="46.67982" lon="-1.6876">
        <ele>21</ele>
        <time>2018-03-08T04:36:17Z</time>
      </trkpt>
      <trkpt lat="46.68001" lon="-1.68769">
        <ele>21</ele>
        <time>2018-03-08T04:37:17Z</time>
      </trkpt>
      <trkpt lat="46.68014" lon="-1.68775">
        <ele>21</ele>
        <time>2018-03-08T04:38:17Z</time>
      </trkpt>
      <trkpt lat="46.68022" lon="-1.68779">
        <ele>22</ele>
        <time>2018-03-08T04:39:17Z</time>
      </trkpt>
      <trkpt lat="46.68028" lon="-1.68784">
        <ele>22</ele>
        <time>2018-03-08T04:40:17Z</time>
      </trkpt>
      <trkpt lat="46.68036" lon="-1.68789">
        <ele>22</ele>
        <time>2018-03-08T04:41:17Z</time>
      </trkpt>
      <trkpt lat="46.68042" lon="-1.68796">
        <ele>23</ele>
        <time>2018-03-08T04:42:17Z</time>
      </trkpt>
      <trkpt lat="46.68046" lon="-1.68801">
        <ele>23</ele>
        <time>2018-03-08T04:43:17Z</time>
      </trkpt>
      <trkpt lat="46.68052" lon="-1.68809">
        <ele>23</ele>
        <time>2018-03-08T04:44:17Z</time>
      </trkpt>
      <trkpt lat="46.68058" lon="-1.68823">
        <ele>24</ele>
        <time>2018-03-08T04:45:17Z</time>
      </trkpt>
      <trkpt lat="46.68062" lon="-1.68838">
        <ele>25</ele>
        <time>2018-03-08T04:46:17Z</time>
      </trkpt>
      <trkpt lat="46.68064" lon="-1.6885">
        <ele>25</ele>
        <time>2018-03-08T04:47:17Z</time>
      </trkpt>
      <trkpt lat="46.68066" lon="-1.6887">
        <ele>26</ele>
        <time>2018-03-08T04:48:17Z</time>
      </trkpt>
      <trkpt lat="46.68066" lon="-1.68888">
        <ele>26</ele>
        <time>2018-03-08T04:49:17Z</time>
      </trkpt>
      <trkpt lat="46.68064" lon="-1.68919">
        <ele>27</ele>
        <time>2018-03-08T04:50:17Z</time>
      </trkpt>
      <trkpt lat="46.68061" lon="-1.68962">
        <ele>27</ele>
        <time>2018-03-08T04:51:17Z</time>
      </trkpt>
      <trkpt lat="46.68058" lon="-1.68992">
        <ele>27</ele>
        <time>2018-03-08T04:52:17Z</time>
      </trkpt>
      <trkpt lat="46.68056" lon="-1.69016">
        <ele>27</ele>
        <time>2018-03-08T04:53:17Z</time>
      </trkpt>
      <trkpt lat="46.68054" lon="-1.69036">
        <ele>27</ele>
        <time>2018-03-08T04:54:17Z</time>
      </trkpt>
      <trkpt lat="46.68046" lon="-1.69093">
        <ele>26</ele>
        <time>2018-03-08T04:55:17Z</time>
      </trkpt>
      <trkpt lat="46.68044" lon="-1.69117">
        <ele>26</ele>
        <time>2018-03-08T04:56:17Z</time>
      </trkpt>
      <trkpt lat="46.68043" lon="-1.69141">
        <ele>25</ele>
        <time>2018-03-08T04:57:17Z</time>
      </trkpt>
      <trkpt lat="46.68044" lon="-1.69245">
        <ele>26</ele>
        <time>2018-03-08T04:58:17Z</time>
      </trkpt>
      <trkpt lat="46.68046" lon="-1.69285">
        <ele>26</ele>
        <time>2018-03-08T04:59:17Z</time>
      </trkpt>
      <trkpt lat="46.68047" lon="-1.69306">
        <ele>26</ele>
        <time>2018-03-08T05:00:17Z</time>
      </trkpt>
      <trkpt lat="46.68047" lon="-1.69326">
        <ele>26</ele>
        <time>2018-03-08T05:01:17Z</time>
      </trkpt>
      <trkpt lat="46.68048" lon="-1.69369">
        <ele>25</ele>
        <time>2018-03-08T05:02:17Z</time>
      </trkpt>
      <trkpt lat="46.6805" lon="-1.69409">
        <ele>24</ele>
        <time>2018-03-08T05:03:17Z</time>
      </trkpt>
      <trkpt lat="46.68051" lon="-1.69451">
        <ele>24</ele>
        <time>2018-03-08T05:04:17Z</time>
      </trkpt>
      <trkpt lat="46.68053" lon="-1.69491">
        <ele>24</ele>
        <time>2018-03-08T05:05:17Z</time>
      </trkpt>
      <trkpt lat="46.68054" lon="-1.69532">
        <ele>24</ele>
        <time>2018-03-08T05:06:17Z</time>
      </trkpt>
      <trkpt lat="46.68055" lon="-1.69572">
        <ele>24</ele>
        <time>2018-03-08T05:07:17Z</time>
      </trkpt>
      <trkpt lat="46.68058" lon="-1.69624">
        <ele>25</ele>
        <time>2018-03-08T05:08:17Z</time>
      </trkpt>
      <trkpt lat="46.68064" lon="-1.69679">
        <ele>27</ele>
        <time>2018-03-08T05:09:17Z</time>
      </trkpt>
      <trkpt lat="46.68071" lon="-1.69728">
        <ele>29</ele>
        <time>2018-03-08T05:10:17Z</time>
      </trkpt>
      <trkpt lat="46.68096" lon="-1.69846">
        <ele>34</ele>
        <time>2018-03-08T05:11:17Z</time>
      </trkpt>
      <trkpt lat="46.681" lon="-1.69864">
        <ele>34</ele>
        <time>2018-03-08T05:12:17Z</time>
      </trkpt>
      <trkpt lat="46.6811" lon="-1.69893">
        <ele>34</ele>
        <time>2018-03-08T05:13:17Z</time>
      </trkpt>
      <trkpt lat="46.68121" lon="-1.69918">
        <ele>35</ele>
        <time>2018-03-08T05:14:17Z</time>
      </trkpt>
      <trkpt lat="46.68128" lon="-1.69931">
        <ele>35</ele>
        <time>2018-03-08T05:15:17Z</time>
      </trkpt>
      <trkpt lat="46.68136" lon="-1.69944">
        <ele>36</ele>
        <time>2018-03-08T05:16:17Z</time>
      </trkpt>
      <trkpt lat="46.68148" lon="-1.69959">
        <ele>37</ele>
        <time>2018-03-08T05:17:17Z</time>
      </trkpt>
      <trkpt lat="46.68163" lon="-1.69978">
        <ele>38</ele>
        <time>2018-03-08T05:18:17Z</time>
      </trkpt>
      <trkpt lat="46.68177" lon="-1.69992">
        <ele>37</ele>
        <time>2018-03-08T05:19:17Z</time>
      </trkpt>
      <trkpt lat="46.68194" lon="-1.70014">
        <ele>37</ele>
        <time>2018-03-08T05:20:17Z</time>
      </trkpt>
      <trkpt lat="46.68215" lon="-1.70038">
        <ele>36</ele>
        <time>2018-03-08T05:21:17Z</time>
      </trkpt>
      <trkpt lat="46.68231" lon="-1.70062">
        <ele>35</ele>
        <time>2018-03-08T05:22:17Z</time>
      </trkpt>
      <trkpt lat="46.68238" lon="-1.70077">
        <ele>35</ele>
        <time>2018-03-08T05:23:17Z</time>
      </trkpt>
      <trkpt lat="46.68244" lon="-1.70092">
        <ele>35</ele>
        <time>2018-03-08T05:24:17Z</time>
      </trkpt>
      <trkpt lat="46.6825" lon="-1.70114">
        <ele>36</ele>
        <time>2018-03-08T05:25:17Z</time>
      </trkpt>
      <trkpt lat="46.68255" lon="-1.70143">
        <ele>36</ele>
        <time>2018-03-08T05:26:17Z</time>
      </trkpt>
      <trkpt lat="46.68257" lon="-1.70169">
        <ele>37</ele>
        <time>2018-03-08T05:27:17Z</time>
      </trkpt>
      <trkpt lat="46.68257" lon="-1.70219">
        <ele>38</ele>
        <time>2018-03-08T05:28:17Z</time>
      </trkpt>
      <trkpt lat="46.68257" lon="-1.70219">
        <ele>38</ele>
        <time>2018-03-08T05:29:17Z</time>
      </trkpt>
      <trkpt lat="46.68257" lon="-1.70221">
        <ele>38</ele>
        <time>2018-03-08T05:30:17Z</time>
      </trkpt>
      <trkpt lat="46.68258" lon="-1.70271">
        <ele>40</ele>
        <time>2018-03-08T05:31:17Z</time>
      </trkpt>
      <trkpt lat="46.68258" lon="-1.70316">
        <ele>41</ele>
        <time>2018-03-08T05:32:17Z</time>
      </trkpt>
      <trkpt lat="46.68259" lon="-1.70337">
        <ele>42</ele>
        <time>2018-03-08T05:33:17Z</time>
      </trkpt>
      <trkpt lat="46.68263" lon="-1.70381">
        <ele>43</ele>
        <time>2018-03-08T05:34:17Z</time>
      </trkpt>
      <trkpt lat="46.68271" lon="-1.70435">
        <ele>45</ele>
        <time>2018-03-08T05:35:17Z</time>
      </trkpt>
      <trkpt lat="46.68284" lon="-1.70491">
        <ele>45</ele>
        <time>2018-03-08T05:36:17Z</time>
      </trkpt>
      <trkpt lat="46.68299" lon="-1.70552">
        <ele>46</ele>
        <time>2018-03-08T05:37:17Z</time>
      </trkpt>
      <trkpt lat="46.68317" lon="-1.70631">
        <ele>47</ele>
        <time>2018-03-08T05:38:17Z</time>
      </trkpt>
      <trkpt lat="46.68339" lon="-1.70714">
        <ele>48</ele>
        <time>2018-03-08T05:39:17Z</time>
      </trkpt>
      <trkpt lat="46.68356" lon="-1.70784">
        <ele>50</ele>
        <time>2018-03-08T05:40:17Z</time>
      </trkpt>
      <trkpt lat="46.68368" lon="-1.70831">
        <ele>50</ele>
        <time>2018-03-08T05:41:17Z</time>
      </trkpt>
      <trkpt lat="46.68375" lon="-1.70873">
        <ele>51</ele>
        <time>2018-03-08T05:42:17Z</time>
      </trkpt>
      <trkpt lat="46.68379" lon="-1.70903">
        <ele>52</ele>
        <time>2018-03-08T05:43:17Z</time>
      </trkpt>
      <trkpt lat="46.6838" lon="-1.70922">
        <ele>52</ele>
        <time>2018-03-08T05:44:17Z</time>
      </trkpt>
      <trkpt lat="46.68381" lon="-1.70947">
        <ele>52</ele>
        <time>2018-03-08T05:45:17Z</time>
      </trkpt>
      <trkpt lat="46.6838" lon="-1.70975">
        <ele>53</ele>
        <time>2018-03-08T05:46:17Z</time>
      </trkpt>
      <trkpt lat="46.68379" lon="-1.71001">
        <ele>53</ele>
        <time>2018-03-08T05:47:17Z</time>
      </trkpt>
      <trkpt lat="46.68377" lon="-1.71036">
        <ele>54</ele>
        <time>2018-03-08T05:48:17Z</time>
      </trkpt>
      <trkpt lat="46.68374" lon="-1.71103">
        <ele>54</ele>
        <time>2018-03-08T05:49:17Z</time>
      </trkpt>
      <trkpt lat="46.68372" lon="-1.71141">
        <ele>54</ele>
        <time>2018-03-08T05:50:17Z</time>
      </trkpt>
      <trkpt lat="46.6837" lon="-1.71179">
        <ele>54</ele>
        <time>2018-03-08T05:51:17Z</time>
      </trkpt>
      <trkpt lat="46.68367" lon="-1.71208">
        <ele>54</ele>
        <time>2018-03-08T05:52:17Z</time>
      </trkpt>
      <trkpt lat="46.68365" lon="-1.71235">
        <ele>53</ele>
        <time>2018-03-08T05:53:17Z</time>
      </trkpt>
      <trkpt lat="46.68358" lon="-1.71278">
        <ele>53</ele>
        <time>2018-03-08T05:54:17Z</time>
      </trkpt>
      <trkpt lat="46.68351" lon="-1.71325">
        <ele>52</ele>
        <time>2018-03-08T05:55:17Z</time>
      </trkpt>
      <trkpt lat="46.68343" lon="-1.71375">
        <ele>51</ele>
        <time>2018-03-08T05:56:17Z</time>
      </trkpt>
      <trkpt lat="46.68337" lon="-1.71414">
        <ele>51</ele>
        <time>2018-03-08T05:57:17Z</time>
      </trkpt>
      <trkpt lat="46.68329" lon="-1.71466">
        <ele>51</ele>
        <time>2018-03-08T05:58:17Z</time>
      </trkpt>
      <trkpt lat="46.68323" lon="-1.71507">
        <ele>50</ele>
        <time>2018-03-08T05:59:17Z</time>
      </trkpt>
      <trkpt lat="46.68318" lon="-1.71539">
        <ele>50</ele>
        <time>2018-03-08T06:00:17Z</time>
      </trkpt>
      <trkpt lat="46.68311" lon="-1.71582">
        <ele>49</ele>
        <time>2018-03-08T06:01:17Z</time>
      </trkpt>
      <trkpt lat="46.68303" lon="-1.71634">
        <ele>49</ele>
        <time>2018-03-08T06:02:17Z</time>
      </trkpt>
      <trkpt lat="46.68294" lon="-1.71693">
        <ele>50</ele>
        <time>2018-03-08T06:03:17Z</time>
      </trkpt>
      <trkpt lat="46.68286" lon="-1.71739">
        <ele>49</ele>
        <time>2018-03-08T06:04:17Z</time>
      </trkpt>
      <trkpt lat="46.68279" lon="-1.71789">
        <ele>50</ele>
        <time>2018-03-08T06:05:17Z</time>
      </trkpt>
      <trkpt lat="46.68271" lon="-1.7184">
        <ele>51</ele>
        <time>2018-03-08T06:06:17Z</time>
      </trkpt>
      <trkpt lat="46.68264" lon="-1.71881">
        <ele>53</ele>
        <time>2018-03-08T06:07:17Z</time>
      </trkpt>
      <trkpt lat="46.68261" lon="-1.71902">
        <ele>54</ele>
        <time>2018-03-08T06:08:17Z</time>
      </trkpt>
      <trkpt lat="46.68257" lon="-1.71918">
        <ele>54</ele>
        <time>2018-03-08T06:09:17Z</time>
      </trkpt>
      <trkpt lat="46.68256" lon="-1.7192">
        <ele>54</ele>
        <time>2018-03-08T06:10:17Z</time>
      </trkpt>
      <trkpt lat="46.68255" lon="-1.71923">
        <ele>54</ele>
        <time>2018-03-08T06:11:17Z</time>
      </trkpt>
      <trkpt lat="46.6825" lon="-1.71931">
        <ele>54</ele>
        <time>2018-03-08T06:12:17Z</time>
      </trkpt>
      <trkpt lat="46.68238" lon="-1.71947">
        <ele>54</ele>
        <time>2018-03-08T06:13:17Z</time>
      </trkpt>
      <trkpt lat="46.68232" lon="-1.71954">
        <ele>54</ele>
        <time>2018-03-08T06:14:17Z</time>
      </trkpt>
      <trkpt lat="46.6823" lon="-1.71961">
        <ele>54</ele>
        <time>2018-03-08T06:15:17Z</time>
      </trkpt>
      <trkpt lat="46.68225" lon="-1.71977">
        <ele>54</ele>
        <time>2018-03-08T06:16:17Z</time>
      </trkpt>
      <trkpt lat="46.68225" lon="-1.71977">
        <ele>54</ele>
        <time>2018-03-08T06:17:17Z</time>
      </trkpt>
      <trkpt lat="46.68218" lon="-1.72009">
        <ele>54</ele>
        <time>2018-03-08T06:18:17Z</time>
      </trkpt>
      <trkpt lat="46.68214" lon="-1.7203">
        <ele>54</ele>
        <time>2018-03-08T06:19:17Z</time>
      </trkpt>
      <trkpt lat="46.68206" lon="-1.72075">
        <ele>54</ele>
        <time>2018-03-08T06:20:17Z</time>
      </trkpt>
      <trkpt lat="46.68196" lon="-1.72131">
        <ele>53</ele>
        <time>2018-03-08T06:21:17Z</time>
      </trkpt>
      <trkpt lat="46.68193" lon="-1.72148">
        <ele>53</ele>
        <time>2018-03-08T06:22:17Z</time>
      </trkpt>
      <trkpt lat="46.68184" lon="-1.72208">
        <ele>53</ele>
        <time>2018-03-08T06:23:17Z</time>
      </trkpt>
      <trkpt lat="46.6818" lon="-1.7223">
        <ele>52</ele>
        <time>2018-03-08T06:24:17Z</time>
      </trkpt>
      <trkpt lat="46.68172" lon="-1.72282">
        <ele>52</ele>
        <time>2018-03-08T06:25:17Z</time>
      </trkpt>
      <trkpt lat="46.68165" lon="-1.72324">
        <ele>52</ele>
        <time>2018-03-08T06:26:17Z</time>
      </trkpt>
      <trkpt lat="46.68164" lon="-1.72334">
        <ele>52</ele>
        <time>2018-03-08T06:27:17Z</time>
      </trkpt>
      <trkpt lat="46.68158" lon="-1.72367">
        <ele>53</ele>
        <time>2018-03-08T06:28:17Z</time>
      </trkpt>
      <trkpt lat="46.68158" lon="-1.72384">
        <ele>53</ele>
        <time>2018-03-08T06:29:17Z</time>
      </trkpt>
      <trkpt lat="46.68159" lon="-1.72389">
        <ele>53</ele>
        <time>2018-03-08T06:30:17Z</time>
      </trkpt>
      <trkpt lat="46.68168" lon="-1.72413">
        <ele>54</ele>
        <time>2018-03-08T06:31:17Z</time>
      </trkpt>
      <trkpt lat="46.68188" lon="-1.72444">
        <ele>54</ele>
        <time>2018-03-08T06:32:17Z</time>
      </trkpt>
      <trkpt lat="46.68214" lon="-1.72483">
        <ele>55</ele>
        <time>2018-03-08T06:33:17Z</time>
      </trkpt>
      <trkpt lat="46.68236" lon="-1.72517">
        <ele>56</ele>
        <time>2018-03-08T06:34:17Z</time>
      </trkpt>
      <trkpt lat="46.68268" lon="-1.72563">
        <ele>56</ele>
        <time>2018-03-08T06:35:17Z</time>
      </trkpt>
      <trkpt lat="46.68278" lon="-1.72575">
        <ele>57</ele>
        <time>2018-03-08T06:36:17Z</time>
      </trkpt>
      <trkpt lat="46.68278" lon="-1.72575">
        <ele>57</ele>
        <time>2018-03-08T06:37:17Z</time>
      </trkpt>
      <trkpt lat="46.68269" lon="-1.7261">
        <ele>56</ele>
        <time>2018-03-08T06:38:17Z</time>
      </trkpt>
      <trkpt lat="46.68266" lon="-1.72621">
        <ele>56</ele>
        <time>2018-03-08T06:39:17Z</time>
      </trkpt>
      <trkpt lat="46.68263" lon="-1.72627">
        <ele>56</ele>
        <time>2018-03-08T06:40:17Z</time>
      </trkpt>
      <trkpt lat="46.68252" lon="-1.72655">
        <ele>56</ele>
        <time>2018-03-08T06:41:17Z</time>
      </trkpt>
      <trkpt lat="46.68228" lon="-1.72705">
        <ele>56</ele>
        <time>2018-03-08T06:42:17Z</time>
      </trkpt>
      <trkpt lat="46.68205" lon="-1.72753">
        <ele>56</ele>
        <time>2018-03-08T06:43:17Z</time>
      </trkpt>
      <trkpt lat="46.68183" lon="-1.72801">
        <ele>56</ele>
        <time>2018-03-08T06:44:17Z</time>
      </trkpt>
      <trkpt lat="46.68164" lon="-1.72843">
        <ele>57</ele>
        <time>2018-03-08T06:45:17Z</time>
      </trkpt>
      <trkpt lat="46.68155" lon="-1.72862">
        <ele>57</ele>
        <time>2018-03-08T06:46:17Z</time>
      </trkpt>
      <trkpt lat="46.68124" lon="-1.72932">
        <ele>57</ele>
        <time>2018-03-08T06:47:17Z</time>
      </trkpt>
      <trkpt lat="46.68099" lon="-1.72985">
        <ele>57</ele>
        <time>2018-03-08T06:48:17Z</time>
      </trkpt>
      <trkpt lat="46.68075" lon="-1.73037">
        <ele>57</ele>
        <time>2018-03-08T06:49:17Z</time>
      </trkpt>
      <trkpt lat="46.68058" lon="-1.73071">
        <ele>57</ele>
        <time>2018-03-08T06:50:17Z</time>
      </trkpt>
      <trkpt lat="46.68052" lon="-1.73087">
        <ele>57</ele>
        <time>2018-03-08T06:51:17Z</time>
      </trkpt>
      <trkpt lat="46.6804" lon="-1.73107">
        <ele>57</ele>
        <time>2018-03-08T06:52:17Z</time>
      </trkpt>
      <trkpt lat="46.68017" lon="-1.73152">
        <ele>57</ele>
        <time>2018-03-08T06:53:17Z</time>
      </trkpt>
      <trkpt lat="46.6799" lon="-1.7319">
        <ele>56</ele>
        <time>2018-03-08T06:54:17Z</time>
      </trkpt>
      <trkpt lat="46.67973" lon="-1.73214">
        <ele>56</ele>
        <time>2018-03-08T06:55:17Z</time>
      </trkpt>
      <trkpt lat="46.67943" lon="-1.73253">
        <ele>55</ele>
        <time>2018-03-08T06:56:17Z</time>
      </trkpt>
      <trkpt lat="46.67918" lon="-1.73284">
        <ele>55</ele>
        <time>2018-03-08T06:57:17Z</time>
      </trkpt>
      <trkpt lat="46.67895" lon="-1.73314">
        <ele>54</ele>
        <time>2018-03-08T06:58:17Z</time>
      </trkpt>
      <trkpt lat="46.67883" lon="-1.73328">
        <ele>54</ele>
        <time>2018-03-08T06:59:17Z</time>
      </trkpt>
      <trkpt lat="46.67858" lon="-1.7336">
        <ele>54</ele>
        <time>2018-03-08T07:00:17Z</time>
      </trkpt>
      <trkpt lat="46.67828" lon="-1.734">
        <ele>55</ele>
        <time>2018-03-08T07:01:17Z</time>
      </trkpt>
      <trkpt lat="46.67807" lon="-1.73435">
        <ele>55</ele>
        <time>2018-03-08T07:02:17Z</time>
      </trkpt>
      <trkpt lat="46.67794" lon="-1.7346">
        <ele>56</ele>
        <time>2018-03-08T07:03:17Z</time>
      </trkpt>
      <trkpt lat="46.67788" lon="-1.73472">
        <ele>56</ele>
        <time>2018-03-08T07:04:17Z</time>
      </trkpt>
      <trkpt lat="46.6778" lon="-1.73487">
        <ele>57</ele>
        <time>2018-03-08T07:05:17Z</time>
      </trkpt>
      <trkpt lat="46.6776" lon="-1.73529">
        <ele>57</ele>
        <time>2018-03-08T07:06:17Z</time>
      </trkpt>
      <trkpt lat="46.67736" lon="-1.73571">
        <ele>56</ele>
        <time>2018-03-08T07:07:17Z</time>
      </trkpt>
      <trkpt lat="46.67717" lon="-1.73602">
        <ele>56</ele>
        <time>2018-03-08T07:08:17Z</time>
      </trkpt>
      <trkpt lat="46.67702" lon="-1.73625">
        <ele>56</ele>
        <time>2018-03-08T07:09:17Z</time>
      </trkpt>
      <trkpt lat="46.67688" lon="-1.73647">
        <ele>55</ele>
        <time>2018-03-08T07:10:17Z</time>
      </trkpt>
      <trkpt lat="46.67673" lon="-1.7367">
        <ele>55</ele>
        <time>2018-03-08T07:11:17Z</time>
      </trkpt>
      <trkpt lat="46.67654" lon="-1.73705">
        <ele>55</ele>
        <time>2018-03-08T07:12:17Z</time>
      </trkpt>
      <trkpt lat="46.67649" lon="-1.73715">
        <ele>55</ele>
        <time>2018-03-08T07:13:17Z</time>
      </trkpt>
      <trkpt lat="46.67646" lon="-1.73722">
        <ele>55</ele>
        <time>2018-03-08T07:14:17Z</time>
      </trkpt>
      <trkpt lat="46.67641" lon="-1.73732">
        <ele>56</ele>
        <time>2018-03-08T07:15:17Z</time>
      </trkpt>
      <trkpt lat="46.67638" lon="-1.73739">
        <ele>56</ele>
        <time>2018-03-08T07:16:17Z</time>
      </trkpt>
      <trkpt lat="46.67635" lon="-1.73748">
        <ele>56</ele>
        <time>2018-03-08T07:17:17Z</time>
      </trkpt>
      <trkpt lat="46.6763" lon="-1.7376">
        <ele>56</ele>
        <time>2018-03-08T07:18:17Z</time>
      </trkpt>
      <trkpt lat="46.67628" lon="-1.73767">
        <ele>56</ele>
        <time>2018-03-08T07:19:17Z</time>
      </trkpt>
      <trkpt lat="46.67626" lon="-1.73772">
        <ele>56</ele>
        <time>2018-03-08T07:20:17Z</time>
      </trkpt>
      <trkpt lat="46.67616" lon="-1.73811">
        <ele>57</ele>
        <time>2018-03-08T07:21:17Z</time>
      </trkpt>
      <trkpt lat="46.676" lon="-1.7387">
        <ele>57</ele>
        <time>2018-03-08T07:22:17Z</time>
      </trkpt>
      <trkpt lat="46.67588" lon="-1.73917">
        <ele>57</ele>
        <time>2018-03-08T07:23:17Z</time>
      </trkpt>
      <trkpt lat="46.67584" lon="-1.73933">
        <ele>57</ele>
        <time>2018-03-08T07:24:17Z</time>
      </trkpt>
      <trkpt lat="46.67573" lon="-1.73977">
        <ele>56</ele>
        <time>2018-03-08T07:25:17Z</time>
      </trkpt>
      <trkpt lat="46.6757" lon="-1.73991">
        <ele>56</ele>
        <time>2018-03-08T07:26:17Z</time>
      </trkpt>
      <trkpt lat="46.67567" lon="-1.74002">
        <ele>56</ele>
        <time>2018-03-08T07:27:17Z</time>
      </trkpt>
      <trkpt lat="46.67565" lon="-1.74013">
        <ele>56</ele>
        <time>2018-03-08T07:28:17Z</time>
      </trkpt>
      <trkpt lat="46.67564" lon="-1.7402">
        <ele>56</ele>
        <time>2018-03-08T07:29:17Z</time>
      </trkpt>
      <trkpt lat="46.67562" lon="-1.7403">
        <ele>56</ele>
        <time>2018-03-08T07:30:17Z</time>
      </trkpt>
      <trkpt lat="46.67561" lon="-1.74041">
        <ele>56</ele>
        <time>2018-03-08T07:31:17Z</time>
      </trkpt>
      <trkpt lat="46.67559" lon="-1.74058">
        <ele>56</ele>
        <time>2018-03-08T07:32:17Z</time>
      </trkpt>
      <trkpt lat="46.67558" lon="-1.7407">
        <ele>56</ele>
        <time>2018-03-08T07:33:17Z</time>
      </trkpt>
      <trkpt lat="46.67556" lon="-1.74086">
        <ele>56</ele>
        <time>2018-03-08T07:34:17Z</time>
      </trkpt>
      <trkpt lat="46.67554" lon="-1.74112">
        <ele>56</ele>
        <time>2018-03-08T07:35:17Z</time>
      </trkpt>
      <trkpt lat="46.67553" lon="-1.74134">
        <ele>56</ele>
        <time>2018-03-08T07:36:17Z</time>
      </trkpt>
      <trkpt lat="46.67551" lon="-1.74173">
        <ele>55</ele>
        <time>2018-03-08T07:37:17Z</time>
      </trkpt>
      <trkpt lat="46.67551" lon="-1.74185">
        <ele>55</ele>
        <time>2018-03-08T07:38:17Z</time>
      </trkpt>
      <trkpt lat="46.6755" lon="-1.74196">
        <ele>56</ele>
        <time>2018-03-08T07:39:17Z</time>
      </trkpt>
      <trkpt lat="46.6755" lon="-1.74219">
        <ele>56</ele>
        <time>2018-03-08T07:40:17Z</time>
      </trkpt>
      <trkpt lat="46.6755" lon="-1.74269">
        <ele>56</ele>
        <time>2018-03-08T07:41:17Z</time>
      </trkpt>
      <trkpt lat="46.67551" lon="-1.74311">
        <ele>55</ele>
        <time>2018-03-08T07:42:17Z</time>
      </trkpt>
      <trkpt lat="46.67551" lon="-1.74341">
        <ele>55</ele>
        <time>2018-03-08T07:43:17Z</time>
      </trkpt>
      <trkpt lat="46.67551" lon="-1.74348">
        <ele>55</ele>
        <time>2018-03-08T07:44:17Z</time>
      </trkpt>
      <trkpt lat="46.67551" lon="-1.74355">
        <ele>56</ele>
        <time>2018-03-08T07:45:17Z</time>
      </trkpt>
      <trkpt lat="46.67551" lon="-1.74362">
        <ele>56</ele>
        <time>2018-03-08T07:46:17Z</time>
      </trkpt>
      <trkpt lat="46.6755" lon="-1.74368">
        <ele>56</ele>
        <time>2018-03-08T07:47:17Z</time>
      </trkpt>
      <trkpt lat="46.6755" lon="-1.74375">
        <ele>56</ele>
        <time>2018-03-08T07:48:17Z</time>
      </trkpt>
      <trkpt lat="46.67548" lon="-1.7439">
        <ele>56</ele>
        <time>2018-03-08T07:49:17Z</time>
      </trkpt>
      <trkpt lat="46.67546" lon="-1.74405">
        <ele>56</ele>
        <time>2018-03-08T07:50:17Z</time>
      </trkpt>
      <trkpt lat="46.67541" lon="-1.7444">
        <ele>56</ele>
        <time>2018-03-08T07:51:17Z</time>
      </trkpt>
      <trkpt lat="46.67539" lon="-1.7445">
        <ele>56</ele>
        <time>2018-03-08T07:52:17Z</time>
      </trkpt>
      <trkpt lat="46.67537" lon="-1.74466">
        <ele>56</ele>
        <time>2018-03-08T07:53:17Z</time>
      </trkpt>
      <trkpt lat="46.67536" lon="-1.74472">
        <ele>56</ele>
        <time>2018-03-08T07:54:17Z</time>
      </trkpt>
      <trkpt lat="46.67535" lon="-1.74478">
        <ele>56</ele>
        <time>2018-03-08T07:55:17Z</time>
      </trkpt>
      <trkpt lat="46.67533" lon="-1.74483">
        <ele>56</ele>
        <time>2018-03-08T07:56:17Z</time>
      </trkpt>
      <trkpt lat="46.67532" lon="-1.74489">
        <ele>56</ele>
        <time>2018-03-08T07:57:17Z</time>
      </trkpt>
      <trkpt lat="46.67528" lon="-1.74505">
        <ele>56</ele>
        <time>2018-03-08T07:58:17Z</time>
      </trkpt>
      <trkpt lat="46.67523" lon="-1.7452">
        <ele>56</ele>
        <time>2018-03-08T07:59:17Z</time>
      </trkpt>
      <trkpt lat="46.6752" lon="-1.74532">
        <ele>56</ele>
        <time>2018-03-08T08:00:17Z</time>
      </trkpt>
      <trkpt lat="46.67517" lon="-1.74543">
        <ele>57</ele>
        <time>2018-03-08T08:01:17Z</time>
      </trkpt>
      <trkpt lat="46.67513" lon="-1.74555">
        <ele>57</ele>
        <time>2018-03-08T08:02:17Z</time>
      </trkpt>
      <trkpt lat="46.67508" lon="-1.74569">
        <ele>57</ele>
        <time>2018-03-08T08:03:17Z</time>
      </trkpt>
      <trkpt lat="46.67505" lon="-1.7458">
        <ele>58</ele>
        <time>2018-03-08T08:04:17Z</time>
      </trkpt>
      <trkpt lat="46.67504" lon="-1.74584">
        <ele>58</ele>
        <time>2018-03-08T08:05:17Z</time>
      </trkpt>
      <trkpt lat="46.67502" lon="-1.74587">
        <ele>58</ele>
        <time>2018-03-08T08:06:17Z</time>
      </trkpt>
      <trkpt lat="46.675" lon="-1.74593">
        <ele>58</ele>
        <time>2018-03-08T08:07:17Z</time>
      </trkpt>
      <trkpt lat="46.67496" lon="-1.74603">
        <ele>58</ele>
        <time>2018-03-08T08:08:17Z</time>
      </trkpt>
      <trkpt lat="46.67493" lon="-1.74612">
        <ele>58</ele>
        <time>2018-03-08T08:09:17Z</time>
      </trkpt>
      <trkpt lat="46.6749" lon="-1.7462">
        <ele>58</ele>
        <time>2018-03-08T08:10:17Z</time>
      </trkpt>
      <trkpt lat="46.67486" lon="-1.7463">
        <ele>58</ele>
        <time>2018-03-08T08:11:17Z</time>
      </trkpt>
      <trkpt lat="46.67483" lon="-1.74636">
        <ele>58</ele>
        <time>2018-03-08T08:12:17Z</time>
      </trkpt>
      <trkpt lat="46.67479" lon="-1.74645">
        <ele>58</ele>
        <time>2018-03-08T08:13:17Z</time>
      </trkpt>
      <trkpt lat="46.67472" lon="-1.74661">
        <ele>58</ele>
        <time>2018-03-08T08:14:17Z</time>
      </trkpt>
      <trkpt lat="46.6747" lon="-1.74665">
        <ele>58</ele>
        <time>2018-03-08T08:15:17Z</time>
      </trkpt>
      <trkpt lat="46.67464" lon="-1.74677">
        <ele>58</ele>
        <time>2018-03-08T08:16:17Z</time>
      </trkpt>
      <trkpt lat="46.6746" lon="-1.74685">
        <ele>58</ele>
        <time>2018-03-08T08:17:17Z</time>
      </trkpt>
      <trkpt lat="46.67453" lon="-1.74697">
        <ele>58</ele>
        <time>2018-03-08T08:18:17Z</time>
      </trkpt>
      <trkpt lat="46.67434" lon="-1.74731">
        <ele>57</ele>
        <time>2018-03-08T08:19:17Z</time>
      </trkpt>
      <trkpt lat="46.67419" lon="-1.74759">
        <ele>57</ele>
        <time>2018-03-08T08:20:17Z</time>
      </trkpt>
      <trkpt lat="46.67414" lon="-1.74767">
        <ele>57</ele>
        <time>2018-03-08T08:21:17Z</time>
      </trkpt>
      <trkpt lat="46.67402" lon="-1.74791">
        <ele>56</ele>
        <time>2018-03-08T08:22:17Z</time>
      </trkpt>
      <trkpt lat="46.6738" lon="-1.74835">
        <ele>56</ele>
        <time>2018-03-08T08:23:17Z</time>
      </trkpt>
      <trkpt lat="46.67367" lon="-1.7486">
        <ele>56</ele>
        <time>2018-03-08T08:24:17Z</time>
      </trkpt>
      <trkpt lat="46.67358" lon="-1.74879">
        <ele>56</ele>
        <time>2018-03-08T08:25:17Z</time>
      </trkpt>
      <trkpt lat="46.67356" lon="-1.74883">
        <ele>56</ele>
        <time>2018-03-08T08:26:17Z</time>
      </trkpt>
      <trkpt lat="46.67354" lon="-1.74887">
        <ele>56</ele>
        <time>2018-03-08T08:27:17Z</time>
      </trkpt>
      <trkpt lat="46.67353" lon="-1.7489">
        <ele>56</ele>
        <time>2018-03-08T08:28:17Z</time>
      </trkpt>
      <trkpt lat="46.67351" lon="-1.74898">
        <ele>56</ele>
        <time>2018-03-08T08:29:17Z</time>
      </trkpt>
      <trkpt lat="46.67349" lon="-1.74904">
        <ele>56</ele>
        <time>2018-03-08T08:30:17Z</time>
      </trkpt>
      <trkpt lat="46.67344" lon="-1.74923">
        <ele>56</ele>
        <time>2018-03-08T08:31:17Z</time>
      </trkpt>
      <trkpt lat="46.6734" lon="-1.74943">
        <ele>56</ele>
        <time>2018-03-08T08:32:17Z</time>
      </trkpt>
      <trkpt lat="46.67338" lon="-1.74952">
        <ele>56</ele>
        <time>2018-03-08T08:33:17Z</time>
      </trkpt>
      <trkpt lat="46.67337" lon="-1.74956">
        <ele>56</ele>
        <time>2018-03-08T08:34:17Z</time>
      </trkpt>
      <trkpt lat="46.67336" lon="-1.74959">
        <ele>56</ele>
        <time>2018-03-08T08:35:17Z</time>
      </trkpt>
      <trkpt lat="46.67334" lon="-1.74964">
        <ele>56</ele>
        <time>2018-03-08T08:36:17Z</time>
      </trkpt>
      <trkpt lat="46.67333" lon="-1.74969">
        <ele>56</ele>
        <time>2018-03-08T08:37:17Z</time>
      </trkpt>
      <trkpt lat="46.67331" lon="-1.74975">
        <ele>56</ele>
        <time>2018-03-08T08:38:17Z</time>
      </trkpt>
      <trkpt lat="46.6733" lon="-1.74979">
        <ele>56</ele>
        <time>2018-03-08T08:39:17Z</time>
      </trkpt>
      <trkpt lat="46.67329" lon="-1.74984">
        <ele>56</ele>
        <time>2018-03-08T08:40:17Z</time>
      </trkpt>
      <trkpt lat="46.67323" lon="-1.74998">
        <ele>56</ele>
        <time>2018-03-08T08:41:17Z</time>
      </trkpt>
      <trkpt lat="46.6732" lon="-1.75006">
        <ele>56</ele>
        <time>2018-03-08T08:42:17Z</time>
      </trkpt>
      <trkpt lat="46.67318" lon="-1.75011">
        <ele>56</ele>
        <time>2018-03-08T08:43:17Z</time>
      </trkpt>
      <trkpt lat="46.67317" lon="-1.75017">
        <ele>55</ele>
        <time>2018-03-08T08:44:17Z</time>
      </trkpt>
      <trkpt lat="46.67315" lon="-1.75025">
        <ele>55</ele>
        <time>2018-03-08T08:45:17Z</time>
      </trkpt>
      <trkpt lat="46.67312" lon="-1.75037">
        <ele>55</ele>
        <time>2018-03-08T08:46:17Z</time>
      </trkpt>
      <trkpt lat="46.67307" lon="-1.75056">
        <ele>55</ele>
        <time>2018-03-08T08:47:17Z</time>
      </trkpt>
      <trkpt lat="46.67305" lon="-1.75064">
        <ele>55</ele>
        <time>2018-03-08T08:48:17Z</time>
      </trkpt>
      <trkpt lat="46.67302" lon="-1.7507">
        <ele>55</ele>
        <time>2018-03-08T08:49:17Z</time>
      </trkpt>
      <trkpt lat="46.673" lon="-1.75074">
        <ele>55</ele>
        <time>2018-03-08T08:50:17Z</time>
      </trkpt>
      <trkpt lat="46.67299" lon="-1.75077">
        <ele>55</ele>
        <time>2018-03-08T08:51:17Z</time>
      </trkpt>
      <trkpt lat="46.67296" lon="-1.75081">
        <ele>55</ele>
        <time>2018-03-08T08:52:17Z</time>
      </trkpt>
      <trkpt lat="46.67293" lon="-1.75087">
        <ele>55</ele>
        <time>2018-03-08T08:53:17Z</time>
      </trkpt>
      <trkpt lat="46.67286" lon="-1.75095">
        <ele>54</ele>
        <time>2018-03-08T08:54:17Z</time>
      </trkpt>
      <trkpt lat="46.67282" lon="-1.75101">
        <ele>54</ele>
        <time>2018-03-08T08:55:17Z</time>
      </trkpt>
      <trkpt lat="46.67264" lon="-1.7513">
        <ele>54</ele>
        <time>2018-03-08T08:56:17Z</time>
      </trkpt>
      <trkpt lat="46.67253" lon="-1.75145">
        <ele>54</ele>
        <time>2018-03-08T08:57:17Z</time>
      </trkpt>
      <trkpt lat="46.67246" lon="-1.75157">
        <ele>54</ele>
        <time>2018-03-08T08:58:17Z</time>
      </trkpt>
      <trkpt lat="46.67244" lon="-1.75162">
        <ele>54</ele>
        <time>2018-03-08T08:59:17Z</time>
      </trkpt>
      <trkpt lat="46.67237" lon="-1.75172">
        <ele>54</ele>
        <time>2018-03-08T09:00:17Z</time>
      </trkpt>
      <trkpt lat="46.67233" lon="-1.75177">
        <ele>54</ele>
        <time>2018-03-08T09:01:17Z</time>
      </trkpt>
      <trkpt lat="46.67231" lon="-1.75183">
        <ele>54</ele>
        <time>2018-03-08T09:02:17Z</time>
      </trkpt>
      <trkpt lat="46.67229" lon="-1.75188">
        <ele>54</ele>
        <time>2018-03-08T09:03:17Z</time>
      </trkpt>
      <trkpt lat="46.67228" lon="-1.75191">
        <ele>54</ele>
        <time>2018-03-08T09:04:17Z</time>
      </trkpt>
      <trkpt lat="46.67227" lon="-1.75197">
        <ele>54</ele>
        <time>2018-03-08T09:05:17Z</time>
      </trkpt>
      <trkpt lat="46.67226" lon="-1.75202">
        <ele>54</ele>
        <time>2018-03-08T09:06:17Z</time>
      </trkpt>
      <trkpt lat="46.67226" lon="-1.75207">
        <ele>54</ele>
        <time>2018-03-08T09:07:17Z</time>
      </trkpt>
      <trkpt lat="46.67226" lon="-1.75212">
        <ele>54</ele>
        <time>2018-03-08T09:08:17Z</time>
      </trkpt>
      <trkpt lat="46.67225" lon="-1.75255">
        <ele>55</ele>
        <time>2018-03-08T09:09:17Z</time>
      </trkpt>
      <trkpt lat="46.67224" lon="-1.75307">
        <ele>54</ele>
        <time>2018-03-08T09:10:17Z</time>
      </trkpt>
      <trkpt lat="46.67224" lon="-1.75333">
        <ele>53</ele>
        <time>2018-03-08T09:11:17Z</time>
      </trkpt>
      <trkpt lat="46.67223" lon="-1.75364">
        <ele>52</ele>
        <time>2018-03-08T09:12:17Z</time>
      </trkpt>
      <trkpt lat="46.67223" lon="-1.75374">
        <ele>52</ele>
        <time>2018-03-08T09:13:17Z</time>
      </trkpt>
      <trkpt lat="46.67224" lon="-1.75382">
        <ele>52</ele>
        <time>2018-03-08T09:14:17Z</time>
      </trkpt>
      <trkpt lat="46.67224" lon="-1.75388">
        <ele>52</ele>
        <time>2018-03-08T09:15:17Z</time>
      </trkpt>
      <trkpt lat="46.67225" lon="-1.75397">
        <ele>51</ele>
        <time>2018-03-08T09:16:17Z</time>
      </trkpt>
      <trkpt lat="46.67226" lon="-1.75404">
        <ele>51</ele>
        <time>2018-03-08T09:17:17Z</time>
      </trkpt>
      <trkpt lat="46.67227" lon="-1.75411">
        <ele>51</ele>
        <time>2018-03-08T09:18:17Z</time>
      </trkpt>
      <trkpt lat="46.67235" lon="-1.75442">
        <ele>51</ele>
        <time>2018-03-08T09:19:17Z</time>
      </trkpt>
      <trkpt lat="46.67241" lon="-1.75466">
        <ele>51</ele>
        <time>2018-03-08T09:20:17Z</time>
      </trkpt>
      <trkpt lat="46.67244" lon="-1.75477">
        <ele>51</ele>
        <time>2018-03-08T09:21:17Z</time>
      </trkpt>
      <trkpt lat="46.67246" lon="-1.75487">
        <ele>51</ele>
        <time>2018-03-08T09:22:17Z</time>
      </trkpt>
      <trkpt lat="46.6725" lon="-1.75503">
        <ele>51</ele>
        <time>2018-03-08T09:23:17Z</time>
      </trkpt>
      <trkpt lat="46.67253" lon="-1.75521">
        <ele>51</ele>
        <time>2018-03-08T09:24:17Z</time>
      </trkpt>
      <trkpt lat="46.67258" lon="-1.75551">
        <ele>51</ele>
        <time>2018-03-08T09:25:17Z</time>
      </trkpt>
      <trkpt lat="46.67262" lon="-1.75584">
        <ele>50</ele>
        <time>2018-03-08T09:26:17Z</time>
      </trkpt>
      <trkpt lat="46.67265" lon="-1.75607">
        <ele>50</ele>
        <time>2018-03-08T09:27:17Z</time>
      </trkpt>
      <trkpt lat="46.67268" lon="-1.7563">
        <ele>51</ele>
        <time>2018-03-08T09:28:17Z</time>
      </trkpt>
      <trkpt lat="46.67273" lon="-1.75664">
        <ele>51</ele>
        <time>2018-03-08T09:29:17Z</time>
      </trkpt>
      <trkpt lat="46.67278" lon="-1.75703">
        <ele>51</ele>
        <time>2018-03-08T09:30:17Z</time>
      </trkpt>
      <trkpt lat="46.67283" lon="-1.75731">
        <ele>52</ele>
        <time>2018-03-08T09:31:17Z</time>
      </trkpt>
      <trkpt lat="46.67285" lon="-1.75745">
        <ele>52</ele>
        <time>2018-03-08T09:32:17Z</time>
      </trkpt>
      <trkpt lat="46.67286" lon="-1.75751">
        <ele>52</ele>
        <time>2018-03-08T09:33:17Z</time>
      </trkpt>
      <trkpt lat="46.67288" lon="-1.75759">
        <ele>52</ele>
        <time>2018-03-08T09:34:17Z</time>
      </trkpt>
      <trkpt lat="46.6729" lon="-1.75767">
        <ele>52</ele>
        <time>2018-03-08T09:35:17Z</time>
      </trkpt>
      <trkpt lat="46.67293" lon="-1.75779">
        <ele>52</ele>
        <time>2018-03-08T09:36:17Z</time>
      </trkpt>
      <trkpt lat="46.67298" lon="-1.75795">
        <ele>52</ele>
        <time>2018-03-08T09:37:17Z</time>
      </trkpt>
      <trkpt lat="46.67303" lon="-1.75814">
        <ele>52</ele>
        <time>2018-03-08T09:38:17Z</time>
      </trkpt>
      <trkpt lat="46.67304" lon="-1.75838">
        <ele>52</ele>
        <time>2018-03-08T09:39:17Z</time>
      </trkpt>
      <trkpt lat="46.67303" lon="-1.75862">
        <ele>52</ele>
        <time>2018-03-08T09:40:17Z</time>
      </trkpt>
      <trkpt lat="46.67304" lon="-1.75869">
        <ele>52</ele>
        <time>2018-03-08T09:41:17Z</time>
      </trkpt>
      <trkpt lat="46.67304" lon="-1.75875">
        <ele>52</ele>
        <time>2018-03-08T09:42:17Z</time>
      </trkpt>
      <trkpt lat="46.67301" lon="-1.75912">
        <ele>52</ele>
        <time>2018-03-08T09:43:17Z</time>
      </trkpt>
      <trkpt lat="46.67298" lon="-1.75924">
        <ele>52</ele>
        <time>2018-03-08T09:44:17Z</time>
      </trkpt>
      <trkpt lat="46.67295" lon="-1.75945">
        <ele>52</ele>
        <time>2018-03-08T09:45:17Z</time>
      </trkpt>
      <trkpt lat="46.67292" lon="-1.75975">
        <ele>52</ele>
        <time>2018-03-08T09:46:17Z</time>
      </trkpt>
      <trkpt lat="46.67289" lon="-1.76008">
        <ele>52</ele>
        <time>2018-03-08T09:47:17Z</time>
      </trkpt>
      <trkpt lat="46.67285" lon="-1.76045">
        <ele>52</ele>
        <time>2018-03-08T09:48:17Z</time>
      </trkpt>
      <trkpt lat="46.67281" lon="-1.7608">
        <ele>52</ele>
        <time>2018-03-08T09:49:17Z</time>
      </trkpt>
      <trkpt lat="46.67277" lon="-1.76114">
        <ele>52</ele>
        <time>2018-03-08T09:50:17Z</time>
      </trkpt>
      <trkpt lat="46.67274" lon="-1.76138">
        <ele>52</ele>
        <time>2018-03-08T09:51:17Z</time>
      </trkpt>
      <trkpt lat="46.67272" lon="-1.76156">
        <ele>52</ele>
        <time>2018-03-08T09:52:17Z</time>
      </trkpt>
      <trkpt lat="46.6727" lon="-1.76168">
        <ele>52</ele>
        <time>2018-03-08T09:53:17Z</time>
      </trkpt>
      <trkpt lat="46.67269" lon="-1.76175">
        <ele>52</ele>
        <time>2018-03-08T09:54:17Z</time>
      </trkpt>
      <trkpt lat="46.67267" lon="-1.76183">
        <ele>52</ele>
        <time>2018-03-08T09:55:17Z</time>
      </trkpt>
      <trkpt lat="46.67262" lon="-1.76199">
        <ele>52</ele>
        <time>2018-03-08T09:56:17Z</time>
      </trkpt>
      <trkpt lat="46.67255" lon="-1.76217">
        <ele>51</ele>
        <time>2018-03-08T09:57:17Z</time>
      </trkpt>
      <trkpt lat="46.67249" lon="-1.76231">
        <ele>51</ele>
        <time>2018-03-08T09:58:17Z</time>
      </trkpt>
      <trkpt lat="46.67244" lon="-1.76243">
        <ele>51</ele>
        <time>2018-03-08T09:59:17Z</time>
      </trkpt>
      <trkpt lat="46.67234" lon="-1.76268">
        <ele>51</ele>
        <time>2018-03-08T10:00:17Z</time>
      </trkpt>
      <trkpt lat="46.67226" lon="-1.76284">
        <ele>51</ele>
        <time>2018-03-08T10:01:17Z</time>
      </trkpt>
      <trkpt lat="46.67214" lon="-1.76309">
        <ele>51</ele>
        <time>2018-03-08T10:02:17Z</time>
      </trkpt>
      <trkpt lat="46.67207" lon="-1.76324">
        <ele>51</ele>
        <time>2018-03-08T10:03:17Z</time>
      </trkpt>
      <trkpt lat="46.672" lon="-1.76338">
        <ele>51</ele>
        <time>2018-03-08T10:04:17Z</time>
      </trkpt>
      <trkpt lat="46.67187" lon="-1.76364">
        <ele>51</ele>
        <time>2018-03-08T10:05:17Z</time>
      </trkpt>
      <trkpt lat="46.67184" lon="-1.76371">
        <ele>51</ele>
        <time>2018-03-08T10:06:17Z</time>
      </trkpt>
      <trkpt lat="46.67182" lon="-1.76374">
        <ele>51</ele>
        <time>2018-03-08T10:07:17Z</time>
      </trkpt>
      <trkpt lat="46.6718" lon="-1.7638">
        <ele>51</ele>
        <time>2018-03-08T10:08:17Z</time>
      </trkpt>
      <trkpt lat="46.67176" lon="-1.76389">
        <ele>51</ele>
        <time>2018-03-08T10:09:17Z</time>
      </trkpt>
      <trkpt lat="46.67171" lon="-1.76406">
        <ele>50</ele>
        <time>2018-03-08T10:10:17Z</time>
      </trkpt>
      <trkpt lat="46.67166" lon="-1.76425">
        <ele>50</ele>
        <time>2018-03-08T10:11:17Z</time>
      </trkpt>
      <trkpt lat="46.6715" lon="-1.76484">
        <ele>50</ele>
        <time>2018-03-08T10:12:17Z</time>
      </trkpt>
      <trkpt lat="46.6714" lon="-1.76523">
        <ele>50</ele>
        <time>2018-03-08T10:13:17Z</time>
      </trkpt>
      <trkpt lat="46.67133" lon="-1.76546">
        <ele>50</ele>
        <time>2018-03-08T10:14:17Z</time>
      </trkpt>
      <trkpt lat="46.6713" lon="-1.7656">
        <ele>50</ele>
        <time>2018-03-08T10:15:17Z</time>
      </trkpt>
      <trkpt lat="46.67126" lon="-1.76576">
        <ele>50</ele>
        <time>2018-03-08T10:16:17Z</time>
      </trkpt>
      <trkpt lat="46.67125" lon="-1.76581">
        <ele>50</ele>
        <time>2018-03-08T10:17:17Z</time>
      </trkpt>
      <trkpt lat="46.67123" lon="-1.76589">
        <ele>50</ele>
        <time>2018-03-08T10:18:17Z</time>
      </trkpt>
      <trkpt lat="46.67121" lon="-1.76598">
        <ele>50</ele>
        <time>2018-03-08T10:19:17Z</time>
      </trkpt>
      <trkpt lat="46.67121" lon="-1.76604">
        <ele>50</ele>
        <time>2018-03-08T10:20:17Z</time>
      </trkpt>
      <trkpt lat="46.67119" lon="-1.76618">
        <ele>51</ele>
        <time>2018-03-08T10:21:17Z</time>
      </trkpt>
      <trkpt lat="46.67117" lon="-1.7664">
        <ele>51</ele>
        <time>2018-03-08T10:22:17Z</time>
      </trkpt>
      <trkpt lat="46.67115" lon="-1.76663">
        <ele>51</ele>
        <time>2018-03-08T10:23:17Z</time>
      </trkpt>
      <trkpt lat="46.67114" lon="-1.76683">
        <ele>51</ele>
        <time>2018-03-08T10:24:17Z</time>
      </trkpt>
      <trkpt lat="46.67112" lon="-1.76704">
        <ele>52</ele>
        <time>2018-03-08T10:25:17Z</time>
      </trkpt>
      <trkpt lat="46.6711" lon="-1.76721">
        <ele>52</ele>
        <time>2018-03-08T10:26:17Z</time>
      </trkpt>
      <trkpt lat="46.67109" lon="-1.76734">
        <ele>52</ele>
        <time>2018-03-08T10:27:17Z</time>
      </trkpt>
      <trkpt lat="46.67108" lon="-1.76743">
        <ele>52</ele>
        <time>2018-03-08T10:28:17Z</time>
      </trkpt>
      <trkpt lat="46.67107" lon="-1.76753">
        <ele>52</ele>
        <time>2018-03-08T10:29:17Z</time>
      </trkpt>
      <trkpt lat="46.67104" lon="-1.76764">
        <ele>52</ele>
        <time>2018-03-08T10:30:17Z</time>
      </trkpt>
      <trkpt lat="46.67103" lon="-1.76772">
        <ele>52</ele>
        <time>2018-03-08T10:31:17Z</time>
      </trkpt>
      <trkpt lat="46.67095" lon="-1.76807">
        <ele>52</ele>
        <time>2018-03-08T10:32:17Z</time>
      </trkpt>
      <trkpt lat="46.67084" lon="-1.76857">
        <ele>52</ele>
        <time>2018-03-08T10:33:17Z</time>
      </trkpt>
      <trkpt lat="46.67075" lon="-1.76904">
        <ele>52</ele>
        <time>2018-03-08T10:34:17Z</time>
      </trkpt>
      <trkpt lat="46.67073" lon="-1.76914">
        <ele>52</ele>
        <time>2018-03-08T10:35:17Z</time>
      </trkpt>
      <trkpt lat="46.6707" lon="-1.76927">
        <ele>52</ele>
        <time>2018-03-08T10:36:17Z</time>
      </trkpt>
      <trkpt lat="46.67067" lon="-1.76944">
        <ele>52</ele>
        <time>2018-03-08T10:37:17Z</time>
      </trkpt>
      <trkpt lat="46.67061" lon="-1.7699">
        <ele>52</ele>
        <time>2018-03-08T10:38:17Z</time>
      </trkpt>
      <trkpt lat="46.67055" lon="-1.77029">
        <ele>51</ele>
        <time>2018-03-08T10:39:17Z</time>
      </trkpt>
      <trkpt lat="46.67053" lon="-1.77046">
        <ele>51</ele>
        <time>2018-03-08T10:40:17Z</time>
      </trkpt>
      <trkpt lat="46.67052" lon="-1.77057">
        <ele>51</ele>
        <time>2018-03-08T10:41:17Z</time>
      </trkpt>
      <trkpt lat="46.6705" lon="-1.77066">
        <ele>51</ele>
        <time>2018-03-08T10:42:17Z</time>
      </trkpt>
      <trkpt lat="46.6705" lon="-1.77071">
        <ele>51</ele>
        <time>2018-03-08T10:43:17Z</time>
      </trkpt>
      <trkpt lat="46.67048" lon="-1.77084">
        <ele>51</ele>
        <time>2018-03-08T10:44:17Z</time>
      </trkpt>
      <trkpt lat="46.67044" lon="-1.77105">
        <ele>50</ele>
        <time>2018-03-08T10:45:17Z</time>
      </trkpt>
      <trkpt lat="46.67038" lon="-1.77144">
        <ele>50</ele>
        <time>2018-03-08T10:46:17Z</time>
      </trkpt>
      <trkpt lat="46.6703" lon="-1.77186">
        <ele>49</ele>
        <time>2018-03-08T10:47:17Z</time>
      </trkpt>
      <trkpt lat="46.67021" lon="-1.77237">
        <ele>49</ele>
        <time>2018-03-08T10:48:17Z</time>
      </trkpt>
      <trkpt lat="46.67015" lon="-1.77269">
        <ele>49</ele>
        <time>2018-03-08T10:49:17Z</time>
      </trkpt>
      <trkpt lat="46.6701" lon="-1.77298">
        <ele>48</ele>
        <time>2018-03-08T10:50:17Z</time>
      </trkpt>
      <trkpt lat="46.67008" lon="-1.77312">
        <ele>48</ele>
        <time>2018-03-08T10:51:17Z</time>
      </trkpt>
      <trkpt lat="46.67005" lon="-1.77325">
        <ele>48</ele>
        <time>2018-03-08T10:52:17Z</time>
      </trkpt>
      <trkpt lat="46.67001" lon="-1.77341">
        <ele>48</ele>
        <time>2018-03-08T10:53:17Z</time>
      </trkpt>
      <trkpt lat="46.66994" lon="-1.77369">
        <ele>47</ele>
        <time>2018-03-08T10:54:17Z</time>
      </trkpt>
      <trkpt lat="46.66988" lon="-1.77391">
        <ele>47</ele>
        <time>2018-03-08T10:55:17Z</time>
      </trkpt>
      <trkpt lat="46.6698" lon="-1.77417">
        <ele>47</ele>
        <time>2018-03-08T10:56:17Z</time>
      </trkpt>
      <trkpt lat="46.66971" lon="-1.77451">
        <ele>47</ele>
        <time>2018-03-08T10:57:17Z</time>
      </trkpt>
      <trkpt lat="46.66967" lon="-1.77465">
        <ele>47</ele>
        <time>2018-03-08T10:58:17Z</time>
      </trkpt>
      <trkpt lat="46.66964" lon="-1.77476">
        <ele>47</ele>
        <time>2018-03-08T10:59:17Z</time>
      </trkpt>
      <trkpt lat="46.66962" lon="-1.77484">
        <ele>47</ele>
        <time>2018-03-08T11:00:17Z</time>
      </trkpt>
      <trkpt lat="46.6696" lon="-1.77493">
        <ele>47</ele>
        <time>2018-03-08T11:01:17Z</time>
      </trkpt>
      <trkpt lat="46.66958" lon="-1.77501">
        <ele>47</ele>
        <time>2018-03-08T11:02:17Z</time>
      </trkpt>
      <trkpt lat="46.66957" lon="-1.7751">
        <ele>47</ele>
        <time>2018-03-08T11:03:17Z</time>
      </trkpt>
      <trkpt lat="46.66957" lon="-1.77515">
        <ele>47</ele>
        <time>2018-03-08T11:04:17Z</time>
      </trkpt>
      <trkpt lat="46.66957" lon="-1.7752">
        <ele>47</ele>
        <time>2018-03-08T11:05:17Z</time>
      </trkpt>
      <trkpt lat="46.66957" lon="-1.77528">
        <ele>47</ele>
        <time>2018-03-08T11:06:17Z</time>
      </trkpt>
      <trkpt lat="46.66958" lon="-1.77537">
        <ele>47</ele>
        <time>2018-03-08T11:07:17Z</time>
      </trkpt>
      <trkpt lat="46.66959" lon="-1.77544">
        <ele>46</ele>
        <time>2018-03-08T11:08:17Z</time>
      </trkpt>
      <trkpt lat="46.6696" lon="-1.77551">
        <ele>46</ele>
        <time>2018-03-08T11:09:17Z</time>
      </trkpt>
      <trkpt lat="46.66962" lon="-1.77558">
        <ele>46</ele>
        <time>2018-03-08T11:10:17Z</time>
      </trkpt>
      <trkpt lat="46.66971" lon="-1.77577">
        <ele>46</ele>
        <time>2018-03-08T11:11:17Z</time>
      </trkpt>
      <trkpt lat="46.66984" lon="-1.77605">
        <ele>46</ele>
        <time>2018-03-08T11:12:17Z</time>
      </trkpt>
      <trkpt lat="46.66998" lon="-1.77631">
        <ele>45</ele>
        <time>2018-03-08T11:13:17Z</time>
      </trkpt>
      <trkpt lat="46.67016" lon="-1.77669">
        <ele>45</ele>
        <time>2018-03-08T11:14:17Z</time>
      </trkpt>
      <trkpt lat="46.67033" lon="-1.77706">
        <ele>45</ele>
        <time>2018-03-08T11:15:17Z</time>
      </trkpt>
      <trkpt lat="46.67054" lon="-1.7775">
        <ele>44</ele>
        <time>2018-03-08T11:16:17Z</time>
      </trkpt>
      <trkpt lat="46.67055" lon="-1.77752">
        <ele>44</ele>
        <time>2018-03-08T11:17:17Z</time>
      </trkpt>
      <trkpt lat="46.6706" lon="-1.77764">
        <ele>44</ele>
        <time>2018-03-08T11:18:17Z</time>
      </trkpt>
      <trkpt lat="46.67069" lon="-1.77781">
        <ele>44</ele>
        <time>2018-03-08T11:19:17Z</time>
      </trkpt>
      <trkpt lat="46.67095" lon="-1.77835">
        <ele>43</ele>
        <time>2018-03-08T11:20:17Z</time>
      </trkpt>
      <trkpt lat="46.67116" lon="-1.77878">
        <ele>43</ele>
        <time>2018-03-08T11:21:17Z</time>
      </trkpt>
      <trkpt lat="46.67132" lon="-1.77911">
        <ele>43</ele>
        <time>2018-03-08T11:22:17Z</time>
      </trkpt>
      <trkpt lat="46.6714" lon="-1.77931">
        <ele>42</ele>
        <time>2018-03-08T11:23:17Z</time>
      </trkpt>
      <trkpt lat="46.67147" lon="-1.77951">
        <ele>42</ele>
        <time>2018-03-08T11:24:17Z</time>
      </trkpt>
      <trkpt lat="46.67152" lon="-1.77971">
        <ele>42</ele>
        <time>2018-03-08T11:25:17Z</time>
      </trkpt>
      <trkpt lat="46.67154" lon="-1.77993">
        <ele>41</ele>
        <time>2018-03-08T11:26:17Z</time>
      </trkpt>
      <trkpt lat="46.67155" lon="-1.78015">
        <ele>41</ele>
        <time>2018-03-08T11:27:17Z</time>
      </trkpt>
      <trkpt lat="46.67155" lon="-1.78038">
        <ele>41</ele>
        <time>2018-03-08T11:28:17Z</time>
      </trkpt>
      <trkpt lat="46.67157" lon="-1.7806">
        <ele>41</ele>
        <time>2018-03-08T11:29:17Z</time>
      </trkpt>
      <trkpt lat="46.67158" lon="-1.78077">
        <ele>41</ele>
        <time>2018-03-08T11:30:17Z</time>
      </trkpt>
      <trkpt lat="46.67161" lon="-1.78106">
        <ele>41</ele>
        <time>2018-03-08T11:31:17Z</time>
      </trkpt>
      <trkpt lat="46.67165" lon="-1.78136">
        <ele>40</ele>
        <time>2018-03-08T11:32:17Z</time>
      </trkpt>
      <trkpt lat="46.67169" lon="-1.78158">
        <ele>40</ele>
        <time>2018-03-08T11:33:17Z</time>
      </trkpt>
      <trkpt lat="46.67172" lon="-1.78177">
        <ele>40</ele>
        <time>2018-03-08T11:34:17Z</time>
      </trkpt>
      <trkpt lat="46.67174" lon="-1.78185">
        <ele>40</ele>
        <time>2018-03-08T11:35:17Z</time>
      </trkpt>
      <trkpt lat="46.67176" lon="-1.78192">
        <ele>39</ele>
        <time>2018-03-08T11:36:17Z</time>
      </trkpt>
      <trkpt lat="46.67181" lon="-1.78202">
        <ele>39</ele>
        <time>2018-03-08T11:37:17Z</time>
      </trkpt>
      <trkpt lat="46.67186" lon="-1.78212">
        <ele>39</ele>
        <time>2018-03-08T11:38:17Z</time>
      </trkpt>
      <trkpt lat="46.67196" lon="-1.78221">
        <ele>39</ele>
        <time>2018-03-08T11:39:17Z</time>
      </trkpt>
      <trkpt lat="46.67201" lon="-1.78226">
        <ele>38</ele>
        <time>2018-03-08T11:40:17Z</time>
      </trkpt>
      <trkpt lat="46.67208" lon="-1.7823">
        <ele>38</ele>
        <time>2018-03-08T11:41:17Z</time>
      </trkpt>
      <trkpt lat="46.67221" lon="-1.78237">
        <ele>38</ele>
        <time>2018-03-08T11:42:17Z</time>
      </trkpt>
      <trkpt lat="46.67251" lon="-1.78249">
        <ele>37</ele>
        <time>2018-03-08T11:43:17Z</time>
      </trkpt>
      <trkpt lat="46.67273" lon="-1.78259">
        <ele>37</ele>
        <time>2018-03-08T11:44:17Z</time>
      </trkpt>
      <trkpt lat="46.67307" lon="-1.78274">
        <ele>37</ele>
        <time>2018-03-08T11:45:17Z</time>
      </trkpt>
      <trkpt lat="46.67315" lon="-1.78278">
        <ele>37</ele>
        <time>2018-03-08T11:46:17Z</time>
      </trkpt>
      <trkpt lat="46.67324" lon="-1.78284">
        <ele>37</ele>
        <time>2018-03-08T11:47:17Z</time>
      </trkpt>
      <trkpt lat="46.6733" lon="-1.78289">
        <ele>37</ele>
        <time>2018-03-08T11:48:17Z</time>
      </trkpt>
      <trkpt lat="46.67336" lon="-1.78294">
        <ele>37</ele>
        <time>2018-03-08T11:49:17Z</time>
      </trkpt>
      <trkpt lat="46.67341" lon="-1.78301">
        <ele>37</ele>
        <time>2018-03-08T11:50:17Z</time>
      </trkpt>
      <trkpt lat="46.67347" lon="-1.78309">
        <ele>37</ele>
        <time>2018-03-08T11:51:17Z</time>
      </trkpt>
      <trkpt lat="46.67351" lon="-1.78317">
        <ele>37</ele>
        <time>2018-03-08T11:52:17Z</time>
      </trkpt>
      <trkpt lat="46.67355" lon="-1.78325">
        <ele>37</ele>
        <time>2018-03-08T11:53:17Z</time>
      </trkpt>
      <trkpt lat="46.67362" lon="-1.78345">
        <ele>37</ele>
        <time>2018-03-08T11:54:17Z</time>
      </trkpt>
      <trkpt lat="46.67368" lon="-1.78363">
        <ele>37</ele>
        <time>2018-03-08T11:55:17Z</time>
      </trkpt>
      <trkpt lat="46.67373" lon="-1.78382">
        <ele>37</ele>
        <time>2018-03-08T11:56:17Z</time>
      </trkpt>
      <trkpt lat="46.67379" lon="-1.78401">
        <ele>37</ele>
        <time>2018-03-08T11:57:17Z</time>
      </trkpt>
      <trkpt lat="46.67389" lon="-1.78426">
        <ele>37</ele>
        <time>2018-03-08T11:58:17Z</time>
      </trkpt>
      <trkpt lat="46.67402" lon="-1.78457">
        <ele>37</ele>
        <time>2018-03-08T11:59:17Z</time>
      </trkpt>
      <trkpt lat="46.6741" lon="-1.78476">
        <ele>36</ele>
        <time>2018-03-08T12:00:17Z</time>
      </trkpt>
      <trkpt lat="46.67421" lon="-1.78499">
        <ele>36</ele>
        <time>2018-03-08T12:01:17Z</time>
      </trkpt>
      <trkpt lat="46.67431" lon="-1.78524">
        <ele>36</ele>
        <time>2018-03-08T12:02:17Z</time>
      </trkpt>
      <trkpt lat="46.67437" lon="-1.78527">
        <ele>36</ele>
        <time>2018-03-08T12:03:17Z</time>
      </trkpt>
      <trkpt lat="46.67446" lon="-1.78538">
        <ele>36</ele>
        <time>2018-03-08T12:04:17Z</time>
      </trkpt>
      <trkpt lat="46.67451" lon="-1.78547">
        <ele>36</ele>
        <time>2018-03-08T12:05:17Z</time>
      </trkpt>
      <trkpt lat="46.67454" lon="-1.78553">
        <ele>36</ele>
        <time>2018-03-08T12:06:17Z</time>
      </trkpt>
      <trkpt lat="46.67455" lon="-1.78556">
        <ele>36</ele>
        <time>2018-03-08T12:07:17Z</time>
      </trkpt>
      <trkpt lat="46.67456" lon="-1.78562">
        <ele>36</ele>
        <time>2018-03-08T12:08:17Z</time>
      </trkpt>
      <trkpt lat="46.6746" lon="-1.78579">
        <ele>36</ele>
        <time>2018-03-08T12:09:17Z</time>
      </trkpt>
      <trkpt lat="46.67462" lon="-1.78591">
        <ele>35</ele>
        <time>2018-03-08T12:10:17Z</time>
      </trkpt>
      <trkpt lat="46.67465" lon="-1.78601">
        <ele>35</ele>
        <time>2018-03-08T12:11:17Z</time>
      </trkpt>
      <trkpt lat="46.67471" lon="-1.78619">
        <ele>35</ele>
        <time>2018-03-08T12:12:17Z</time>
      </trkpt>
      <trkpt lat="46.67481" lon="-1.78658">
        <ele>36</ele>
        <time>2018-03-08T12:13:17Z</time>
      </trkpt>
      <trkpt lat="46.67491" lon="-1.78695">
        <ele>36</ele>
        <time>2018-03-08T12:14:17Z</time>
      </trkpt>
      <trkpt lat="46.67499" lon="-1.78726">
        <ele>36</ele>
        <time>2018-03-08T12:15:17Z</time>
      </trkpt>
      <trkpt lat="46.67506" lon="-1.78755">
        <ele>36</ele>
        <time>2018-03-08T12:16:17Z</time>
      </trkpt>
      <trkpt lat="46.67513" lon="-1.78783">
        <ele>36</ele>
        <time>2018-03-08T12:17:17Z</time>
      </trkpt>
      <trkpt lat="46.67515" lon="-1.78791">
        <ele>36</ele>
        <time>2018-03-08T12:18:17Z</time>
      </trkpt>
      <trkpt lat="46.67523" lon="-1.78821">
        <ele>36</ele>
        <time>2018-03-08T12:19:17Z</time>
      </trkpt>
      <trkpt lat="46.67527" lon="-1.78838">
        <ele>36</ele>
        <time>2018-03-08T12:20:17Z</time>
      </trkpt>
      <trkpt lat="46.67532" lon="-1.7886">
        <ele>36</ele>
        <time>2018-03-08T12:21:17Z</time>
      </trkpt>
      <trkpt lat="46.6754" lon="-1.78889">
        <ele>36</ele>
        <time>2018-03-08T12:22:17Z</time>
      </trkpt>
      <trkpt lat="46.67545" lon="-1.78909">
        <ele>36</ele>
        <time>2018-03-08T12:23:17Z</time>
      </trkpt>
      <trkpt lat="46.67551" lon="-1.78936">
        <ele>37</ele>
        <time>2018-03-08T12:24:17Z</time>
      </trkpt>
      <trkpt lat="46.67556" lon="-1.78967">
        <ele>39</ele>
        <time>2018-03-08T12:25:17Z</time>
      </trkpt>
      <trkpt lat="46.67559" lon="-1.7899">
        <ele>40</ele>
        <time>2018-03-08T12:26:17Z</time>
      </trkpt>
      <trkpt lat="46.67565" lon="-1.79025">
        <ele>41</ele>
        <time>2018-03-08T12:27:17Z</time>
      </trkpt>
      <trkpt lat="46.67569" lon="-1.79056">
        <ele>41</ele>
        <time>2018-03-08T12:28:17Z</time>
      </trkpt>
      <trkpt lat="46.67572" lon="-1.79082">
        <ele>42</ele>
        <time>2018-03-08T12:29:17Z</time>
      </trkpt>
      <trkpt lat="46.67575" lon="-1.79106">
        <ele>42</ele>
        <time>2018-03-08T12:30:17Z</time>
      </trkpt>
      <trkpt lat="46.67576" lon="-1.79128">
        <ele>42</ele>
        <time>2018-03-08T12:31:17Z</time>
      </trkpt>
      <trkpt lat="46.67576" lon="-1.79159">
        <ele>43</ele>
        <time>2018-03-08T12:32:17Z</time>
      </trkpt>
      <trkpt lat="46.67576" lon="-1.79175">
        <ele>43</ele>
        <time>2018-03-08T12:33:17Z</time>
      </trkpt>
      <trkpt lat="46.67577" lon="-1.79214">
        <ele>43</ele>
        <time>2018-03-08T12:34:17Z</time>
      </trkpt>
      <trkpt lat="46.67578" lon="-1.79253">
        <ele>43</ele>
        <time>2018-03-08T12:35:17Z</time>
      </trkpt>
      <trkpt lat="46.67579" lon="-1.79279">
        <ele>43</ele>
        <time>2018-03-08T12:36:17Z</time>
      </trkpt>
      <trkpt lat="46.6758" lon="-1.79328">
        <ele>42</ele>
        <time>2018-03-08T12:37:17Z</time>
      </trkpt>
      <trkpt lat="46.6758" lon="-1.7934">
        <ele>42</ele>
        <time>2018-03-08T12:38:17Z</time>
      </trkpt>
      <trkpt lat="46.67581" lon="-1.79355">
        <ele>42</ele>
        <time>2018-03-08T12:39:17Z</time>
      </trkpt>
      <trkpt lat="46.67583" lon="-1.79372">
        <ele>42</ele>
        <time>2018-03-08T12:40:17Z</time>
      </trkpt>
      <trkpt lat="46.67586" lon="-1.79387">
        <ele>41</ele>
        <time>2018-03-08T12:41:17Z</time>
      </trkpt>
      <trkpt lat="46.6759" lon="-1.79398">
        <ele>41</ele>
        <time>2018-03-08T12:42:17Z</time>
      </trkpt>
      <trkpt lat="46.67593" lon="-1.79407">
        <ele>41</ele>
        <time>2018-03-08T12:43:17Z</time>
      </trkpt>
      <trkpt lat="46.67596" lon="-1.79417">
        <ele>41</ele>
        <time>2018-03-08T12:44:17Z</time>
      </trkpt>
      <trkpt lat="46.67599" lon="-1.79426">
        <ele>41</ele>
        <time>2018-03-08T12:45:17Z</time>
      </trkpt>
      <trkpt lat="46.67609" lon="-1.7945">
        <ele>40</ele>
        <time>2018-03-08T12:46:17Z</time>
      </trkpt>
      <trkpt lat="46.6762" lon="-1.79477">
        <ele>40</ele>
        <time>2018-03-08T12:47:17Z</time>
      </trkpt>
      <trkpt lat="46.67623" lon="-1.79488">
        <ele>40</ele>
        <time>2018-03-08T12:48:17Z</time>
      </trkpt>
      <trkpt lat="46.67627" lon="-1.79499">
        <ele>39</ele>
        <time>2018-03-08T12:49:17Z</time>
      </trkpt>
      <trkpt lat="46.67629" lon="-1.79509">
        <ele>39</ele>
        <time>2018-03-08T12:50:17Z</time>
      </trkpt>
      <trkpt lat="46.67631" lon="-1.79521">
        <ele>39</ele>
        <time>2018-03-08T12:51:17Z</time>
      </trkpt>
      <trkpt lat="46.67634" lon="-1.79544">
        <ele>40</ele>
        <time>2018-03-08T12:52:17Z</time>
      </trkpt>
      <trkpt lat="46.67634" lon="-1.79556">
        <ele>40</ele>
        <time>2018-03-08T12:53:17Z</time>
      </trkpt>
      <trkpt lat="46.67634" lon="-1.79568">
        <ele>40</ele>
        <time>2018-03-08T12:54:17Z</time>
      </trkpt>
      <trkpt lat="46.67633" lon="-1.79592">
        <ele>40</ele>
        <time>2018-03-08T12:55:17Z</time>
      </trkpt>
      <trkpt lat="46.6763" lon="-1.79615">
        <ele>40</ele>
        <time>2018-03-08T12:56:17Z</time>
      </trkpt>
      <trkpt lat="46.67625" lon="-1.79639">
        <ele>40</ele>
        <time>2018-03-08T12:57:17Z</time>
      </trkpt>
      <trkpt lat="46.6762" lon="-1.79658">
        <ele>40</ele>
        <time>2018-03-08T12:58:17Z</time>
      </trkpt>
      <trkpt lat="46.67613" lon="-1.79687">
        <ele>41</ele>
        <time>2018-03-08T12:59:17Z</time>
      </trkpt>
      <trkpt lat="46.6761" lon="-1.79707">
        <ele>41</ele>
        <time>2018-03-08T13:00:17Z</time>
      </trkpt>
      <trkpt lat="46.67607" lon="-1.79732">
        <ele>41</ele>
        <time>2018-03-08T13:01:17Z</time>
      </trkpt>
      <trkpt lat="46.67605" lon="-1.79761">
        <ele>41</ele>
        <time>2018-03-08T13:02:17Z</time>
      </trkpt>
      <trkpt lat="46.67604" lon="-1.79787">
        <ele>42</ele>
        <time>2018-03-08T13:03:17Z</time>
      </trkpt>
      <trkpt lat="46.67603" lon="-1.79809">
        <ele>42</ele>
        <time>2018-03-08T13:04:17Z</time>
      </trkpt>
      <trkpt lat="46.67601" lon="-1.79826">
        <ele>42</ele>
        <time>2018-03-08T13:05:17Z</time>
      </trkpt>
      <trkpt lat="46.67599" lon="-1.79837">
        <ele>42</ele>
        <time>2018-03-08T13:06:17Z</time>
      </trkpt>
      <trkpt lat="46.67597" lon="-1.79849">
        <ele>42</ele>
        <time>2018-03-08T13:07:17Z</time>
      </trkpt>
      <trkpt lat="46.67594" lon="-1.79861">
        <ele>42</ele>
        <time>2018-03-08T13:08:17Z</time>
      </trkpt>
      <trkpt lat="46.67589" lon="-1.79878">
        <ele>42</ele>
        <time>2018-03-08T13:09:17Z</time>
      </trkpt>
      <trkpt lat="46.67583" lon="-1.79895">
        <ele>41</ele>
        <time>2018-03-08T13:10:17Z</time>
      </trkpt>
      <trkpt lat="46.67579" lon="-1.79906">
        <ele>41</ele>
        <time>2018-03-08T13:11:17Z</time>
      </trkpt>
      <trkpt lat="46.67575" lon="-1.79917">
        <ele>41</ele>
        <time>2018-03-08T13:12:17Z</time>
      </trkpt>
      <trkpt lat="46.67568" lon="-1.79939">
        <ele>40</ele>
        <time>2018-03-08T13:13:17Z</time>
      </trkpt>
      <trkpt lat="46.67561" lon="-1.79961">
        <ele>40</ele>
        <time>2018-03-08T13:14:17Z</time>
      </trkpt>
      <trkpt lat="46.6756" lon="-1.79973">
        <ele>39</ele>
        <time>2018-03-08T13:15:17Z</time>
      </trkpt>
      <trkpt lat="46.67558" lon="-1.79986">
        <ele>39</ele>
        <time>2018-03-08T13:16:17Z</time>
      </trkpt>
      <trkpt lat="46.67556" lon="-1.79998">
        <ele>39</ele>
        <time>2018-03-08T13:17:17Z</time>
      </trkpt>
      <trkpt lat="46.67553" lon="-1.80026">
        <ele>39</ele>
        <time>2018-03-08T13:18:17Z</time>
      </trkpt>
      <trkpt lat="46.67553" lon="-1.80032">
        <ele>39</ele>
        <time>2018-03-08T13:19:17Z</time>
      </trkpt>
      <trkpt lat="46.6755" lon="-1.80059">
        <ele>38</ele>
        <time>2018-03-08T13:20:17Z</time>
      </trkpt>
      <trkpt lat="46.67549" lon="-1.80084">
        <ele>38</ele>
        <time>2018-03-08T13:21:17Z</time>
      </trkpt>
      <trkpt lat="46.67548" lon="-1.80112">
        <ele>38</ele>
        <time>2018-03-08T13:22:17Z</time>
      </trkpt>
      <trkpt lat="46.67548" lon="-1.8014">
        <ele>37</ele>
        <time>2018-03-08T13:23:17Z</time>
      </trkpt>
      <trkpt lat="46.67549" lon="-1.80168">
        <ele>37</ele>
        <time>2018-03-08T13:24:17Z</time>
      </trkpt>
      <trkpt lat="46.67551" lon="-1.80193">
        <ele>36</ele>
        <time>2018-03-08T13:25:17Z</time>
      </trkpt>
      <trkpt lat="46.67555" lon="-1.80217">
        <ele>36</ele>
        <time>2018-03-08T13:26:17Z</time>
      </trkpt>
      <trkpt lat="46.67559" lon="-1.80243">
        <ele>36</ele>
        <time>2018-03-08T13:27:17Z</time>
      </trkpt>
      <trkpt lat="46.67564" lon="-1.80267">
        <ele>36</ele>
        <time>2018-03-08T13:28:17Z</time>
      </trkpt>
      <trkpt lat="46.67566" lon="-1.80289">
        <ele>36</ele>
        <time>2018-03-08T13:29:17Z</time>
      </trkpt>
      <trkpt lat="46.67569" lon="-1.8031">
        <ele>37</ele>
        <time>2018-03-08T13:30:17Z</time>
      </trkpt>
      <trkpt lat="46.67569" lon="-1.80328">
        <ele>37</ele>
        <time>2018-03-08T13:31:17Z</time>
      </trkpt>
      <trkpt lat="46.6757" lon="-1.80352">
        <ele>37</ele>
        <time>2018-03-08T13:32:17Z</time>
      </trkpt>
      <trkpt lat="46.6757" lon="-1.80378">
        <ele>37</ele>
        <time>2018-03-08T13:33:17Z</time>
      </trkpt>
      <trkpt lat="46.6757" lon="-1.80409">
        <ele>37</ele>
        <time>2018-03-08T13:34:17Z</time>
      </trkpt>
      <trkpt lat="46.67571" lon="-1.80439">
        <ele>37</ele>
        <time>2018-03-08T13:35:17Z</time>
      </trkpt>
      <trkpt lat="46.67571" lon="-1.80464">
        <ele>37</ele>
        <time>2018-03-08T13:36:17Z</time>
      </trkpt>
      <trkpt lat="46.67571" lon="-1.80495">
        <ele>37</ele>
        <time>2018-03-08T13:37:17Z</time>
      </trkpt>
      <trkpt lat="46.67572" lon="-1.80522">
        <ele>37</ele>
        <time>2018-03-08T13:38:17Z</time>
      </trkpt>
      <trkpt lat="46.67572" lon="-1.80542">
        <ele>37</ele>
        <time>2018-03-08T13:39:17Z</time>
      </trkpt>
      <trkpt lat="46.67571" lon="-1.80579">
        <ele>38</ele>
        <time>2018-03-08T13:40:17Z</time>
      </trkpt>
      <trkpt lat="46.67571" lon="-1.80611">
        <ele>38</ele>
        <time>2018-03-08T13:41:17Z</time>
      </trkpt>
      <trkpt lat="46.6757" lon="-1.80645">
        <ele>37</ele>
        <time>2018-03-08T13:42:17Z</time>
      </trkpt>
      <trkpt lat="46.67571" lon="-1.80684">
        <ele>37</ele>
        <time>2018-03-08T13:43:17Z</time>
      </trkpt>
      <trkpt lat="46.67572" lon="-1.80697">
        <ele>37</ele>
        <time>2018-03-08T13:44:17Z</time>
      </trkpt>
      <trkpt lat="46.67573" lon="-1.80715">
        <ele>36</ele>
        <time>2018-03-08T13:45:17Z</time>
      </trkpt>
      <trkpt lat="46.67573" lon="-1.80732">
        <ele>36</ele>
        <time>2018-03-08T13:46:17Z</time>
      </trkpt>
      <trkpt lat="46.67571" lon="-1.80759">
        <ele>36</ele>
        <time>2018-03-08T13:47:17Z</time>
      </trkpt>
      <trkpt lat="46.67569" lon="-1.80785">
        <ele>36</ele>
        <time>2018-03-08T13:48:17Z</time>
      </trkpt>
      <trkpt lat="46.67565" lon="-1.80813">
        <ele>36</ele>
        <time>2018-03-08T13:49:17Z</time>
      </trkpt>
      <trkpt lat="46.67562" lon="-1.80834">
        <ele>35</ele>
        <time>2018-03-08T13:50:17Z</time>
      </trkpt>
      <trkpt lat="46.67555" lon="-1.80865">
        <ele>35</ele>
        <time>2018-03-08T13:51:17Z</time>
      </trkpt>
      <trkpt lat="46.67545" lon="-1.80903">
        <ele>35</ele>
        <time>2018-03-08T13:52:17Z</time>
      </trkpt>
      <trkpt lat="46.67525" lon="-1.80989">
        <ele>33</ele>
        <time>2018-03-08T13:53:17Z</time>
      </trkpt>
      <trkpt lat="46.67521" lon="-1.81013">
        <ele>32</ele>
        <time>2018-03-08T13:54:17Z</time>
      </trkpt>
      <trkpt lat="46.67518" lon="-1.81026">
        <ele>32</ele>
        <time>2018-03-08T13:55:17Z</time>
      </trkpt>
      <trkpt lat="46.67514" lon="-1.81053">
        <ele>32</ele>
        <time>2018-03-08T13:56:17Z</time>
      </trkpt>
      <trkpt lat="46.67511" lon="-1.81078">
        <ele>31</ele>
        <time>2018-03-08T13:57:17Z</time>
      </trkpt>
      <trkpt lat="46.67508" lon="-1.81105">
        <ele>32</ele>
        <time>2018-03-08T13:58:17Z</time>
      </trkpt>
      <trkpt lat="46.67506" lon="-1.81131">
        <ele>33</ele>
        <time>2018-03-08T13:59:17Z</time>
      </trkpt>
      <trkpt lat="46.67506" lon="-1.81156">
        <ele>34</ele>
        <time>2018-03-08T14:00:17Z</time>
      </trkpt>
      <trkpt lat="46.67505" lon="-1.81181">
        <ele>34</ele>
        <time>2018-03-08T14:01:17Z</time>
      </trkpt>
      <trkpt lat="46.67505" lon="-1.81206">
        <ele>35</ele>
        <time>2018-03-08T14:02:17Z</time>
      </trkpt>
      <trkpt lat="46.67504" lon="-1.81229">
        <ele>36</ele>
        <time>2018-03-08T14:03:17Z</time>
      </trkpt>
      <trkpt lat="46.67504" lon="-1.81254">
        <ele>36</ele>
        <time>2018-03-08T14:04:17Z</time>
      </trkpt>
      <trkpt lat="46.67503" lon="-1.81276">
        <ele>36</ele>
        <time>2018-03-08T14:05:17Z</time>
      </trkpt>
      <trkpt lat="46.67501" lon="-1.81301">
        <ele>35</ele>
        <time>2018-03-08T14:06:17Z</time>
      </trkpt>
      <trkpt lat="46.67498" lon="-1.81323">
        <ele>35</ele>
        <time>2018-03-08T14:07:17Z</time>
      </trkpt>
      <trkpt lat="46.67493" lon="-1.81347">
        <ele>35</ele>
        <time>2018-03-08T14:08:17Z</time>
      </trkpt>
      <trkpt lat="46.67488" lon="-1.8137">
        <ele>35</ele>
        <time>2018-03-08T14:09:17Z</time>
      </trkpt>
      <trkpt lat="46.67481" lon="-1.81393">
        <ele>35</ele>
        <time>2018-03-08T14:10:17Z</time>
      </trkpt>
      <trkpt lat="46.67471" lon="-1.8142">
        <ele>35</ele>
        <time>2018-03-08T14:11:17Z</time>
      </trkpt>
      <trkpt lat="46.67465" lon="-1.81438">
        <ele>35</ele>
        <time>2018-03-08T14:12:17Z</time>
      </trkpt>
      <trkpt lat="46.67457" lon="-1.81468">
        <ele>35</ele>
        <time>2018-03-08T14:13:17Z</time>
      </trkpt>
      <trkpt lat="46.67449" lon="-1.81501">
        <ele>35</ele>
        <time>2018-03-08T14:14:17Z</time>
      </trkpt>
      <trkpt lat="46.67442" lon="-1.81528">
        <ele>34</ele>
        <time>2018-03-08T14:15:17Z</time>
      </trkpt>
      <trkpt lat="46.67432" lon="-1.81568">
        <ele>33</ele>
        <time>2018-03-08T14:16:17Z</time>
      </trkpt>
      <trkpt lat="46.67426" lon="-1.81595">
        <ele>32</ele>
        <time>2018-03-08T14:17:17Z</time>
      </trkpt>
      <trkpt lat="46.67422" lon="-1.81623">
        <ele>32</ele>
        <time>2018-03-08T14:18:17Z</time>
      </trkpt>
      <trkpt lat="46.67418" lon="-1.81652">
        <ele>32</ele>
        <time>2018-03-08T14:19:17Z</time>
      </trkpt>
      <trkpt lat="46.67416" lon="-1.81674">
        <ele>32</ele>
        <time>2018-03-08T14:20:17Z</time>
      </trkpt>
      <trkpt lat="46.67414" lon="-1.81695">
        <ele>32</ele>
        <time>2018-03-08T14:21:17Z</time>
      </trkpt>
      <trkpt lat="46.6741" lon="-1.8174">
        <ele>32</ele>
        <time>2018-03-08T14:22:17Z</time>
      </trkpt>
      <trkpt lat="46.67406" lon="-1.81783">
        <ele>32</ele>
        <time>2018-03-08T14:23:17Z</time>
      </trkpt>
      <trkpt lat="46.67402" lon="-1.81808">
        <ele>32</ele>
        <time>2018-03-08T14:24:17Z</time>
      </trkpt>
      <trkpt lat="46.67399" lon="-1.81824">
        <ele>32</ele>
        <time>2018-03-08T14:25:17Z</time>
      </trkpt>
      <trkpt lat="46.67395" lon="-1.81838">
        <ele>32</ele>
        <time>2018-03-08T14:26:17Z</time>
      </trkpt>
      <trkpt lat="46.67391" lon="-1.81851">
        <ele>32</ele>
        <time>2018-03-08T14:27:17Z</time>
      </trkpt>
      <trkpt lat="46.67386" lon="-1.81865">
        <ele>32</ele>
        <time>2018-03-08T14:28:17Z</time>
      </trkpt>
      <trkpt lat="46.67373" lon="-1.81897">
        <ele>32</ele>
        <time>2018-03-08T14:29:17Z</time>
      </trkpt>
      <trkpt lat="46.67364" lon="-1.81917">
        <ele>32</ele>
        <time>2018-03-08T14:30:17Z</time>
      </trkpt>
      <trkpt lat="46.67353" lon="-1.81943">
        <ele>33</ele>
        <time>2018-03-08T14:31:17Z</time>
      </trkpt>
      <trkpt lat="46.67347" lon="-1.8196">
        <ele>33</ele>
        <time>2018-03-08T14:32:17Z</time>
      </trkpt>
      <trkpt lat="46.67337" lon="-1.81992">
        <ele>33</ele>
        <time>2018-03-08T14:33:17Z</time>
      </trkpt>
      <trkpt lat="46.6733" lon="-1.82015">
        <ele>33</ele>
        <time>2018-03-08T14:34:17Z</time>
      </trkpt>
      <trkpt lat="46.67327" lon="-1.82026">
        <ele>33</ele>
        <time>2018-03-08T14:35:17Z</time>
      </trkpt>
      <trkpt lat="46.67317" lon="-1.82062">
        <ele>33</ele>
        <time>2018-03-08T14:36:17Z</time>
      </trkpt>
      <trkpt lat="46.6731" lon="-1.8209">
        <ele>32</ele>
        <time>2018-03-08T14:37:17Z</time>
      </trkpt>
      <trkpt lat="46.67305" lon="-1.82105">
        <ele>32</ele>
        <time>2018-03-08T14:38:17Z</time>
      </trkpt>
      <trkpt lat="46.6729" lon="-1.82148">
        <ele>32</ele>
        <time>2018-03-08T14:39:17Z</time>
      </trkpt>
      <trkpt lat="46.67285" lon="-1.82162">
        <ele>32</ele>
        <time>2018-03-08T14:40:17Z</time>
      </trkpt>
      <trkpt lat="46.6728" lon="-1.82178">
        <ele>32</ele>
        <time>2018-03-08T14:41:17Z</time>
      </trkpt>
      <trkpt lat="46.6727" lon="-1.82207">
        <ele>32</ele>
        <time>2018-03-08T14:42:17Z</time>
      </trkpt>
      <trkpt lat="46.67261" lon="-1.8223">
        <ele>32</ele>
        <time>2018-03-08T14:43:17Z</time>
      </trkpt>
      <trkpt lat="46.67251" lon="-1.82252">
        <ele>32</ele>
        <time>2018-03-08T14:44:17Z</time>
      </trkpt>
      <trkpt lat="46.67245" lon="-1.82267">
        <ele>32</ele>
        <time>2018-03-08T14:45:17Z</time>
      </trkpt>
      <trkpt lat="46.67235" lon="-1.82289">
        <ele>32</ele>
        <time>2018-03-08T14:46:17Z</time>
      </trkpt>
      <trkpt lat="46.67229" lon="-1.82304">
        <ele>32</ele>
        <time>2018-03-08T14:47:17Z</time>
      </trkpt>
      <trkpt lat="46.67223" lon="-1.82319">
        <ele>32</ele>
        <time>2018-03-08T14:48:17Z</time>
      </trkpt>
      <trkpt lat="46.67207" lon="-1.82355">
        <ele>32</ele>
        <time>2018-03-08T14:49:17Z</time>
      </trkpt>
      <trkpt lat="46.67192" lon="-1.8239">
        <ele>32</ele>
        <time>2018-03-08T14:50:17Z</time>
      </trkpt>
      <trkpt lat="46.67172" lon="-1.82433">
        <ele>31</ele>
        <time>2018-03-08T14:51:17Z</time>
      </trkpt>
      <trkpt lat="46.67158" lon="-1.82461">
        <ele>31</ele>
        <time>2018-03-08T14:52:17Z</time>
      </trkpt>
      <trkpt lat="46.67149" lon="-1.8248">
        <ele>31</ele>
        <time>2018-03-08T14:53:17Z</time>
      </trkpt>
      <trkpt lat="46.67143" lon="-1.82493">
        <ele>31</ele>
        <time>2018-03-08T14:54:17Z</time>
      </trkpt>
      <trkpt lat="46.67136" lon="-1.82506">
        <ele>31</ele>
        <time>2018-03-08T14:55:17Z</time>
      </trkpt>
      <trkpt lat="46.67128" lon="-1.82518">
        <ele>30</ele>
        <time>2018-03-08T14:56:17Z</time>
      </trkpt>
      <trkpt lat="46.67113" lon="-1.82541">
        <ele>29</ele>
        <time>2018-03-08T14:57:17Z</time>
      </trkpt>
      <trkpt lat="46.67106" lon="-1.82553">
        <ele>29</ele>
        <time>2018-03-08T14:58:17Z</time>
      </trkpt>
      <trkpt lat="46.67098" lon="-1.82565">
        <ele>28</ele>
        <time>2018-03-08T14:59:17Z</time>
      </trkpt>
      <trkpt lat="46.67092" lon="-1.82577">
        <ele>27</ele>
        <time>2018-03-08T15:00:17Z</time>
      </trkpt>
      <trkpt lat="46.67088" lon="-1.82583">
        <ele>27</ele>
        <time>2018-03-08T15:01:17Z</time>
      </trkpt>
      <trkpt lat="46.67086" lon="-1.82589">
        <ele>27</ele>
        <time>2018-03-08T15:02:17Z</time>
      </trkpt>
      <trkpt lat="46.67084" lon="-1.82595">
        <ele>26</ele>
        <time>2018-03-08T15:03:17Z</time>
      </trkpt>
      <trkpt lat="46.67082" lon="-1.82601">
        <ele>26</ele>
        <time>2018-03-08T15:04:17Z</time>
      </trkpt>
      <trkpt lat="46.6708" lon="-1.82607">
        <ele>26</ele>
        <time>2018-03-08T15:05:17Z</time>
      </trkpt>
      <trkpt lat="46.6708" lon="-1.82612">
        <ele>26</ele>
        <time>2018-03-08T15:06:17Z</time>
      </trkpt>
      <trkpt lat="46.67079" lon="-1.82617">
        <ele>25</ele>
        <time>2018-03-08T15:07:17Z</time>
      </trkpt>
      <trkpt lat="46.67078" lon="-1.82634">
        <ele>25</ele>
        <time>2018-03-08T15:08:17Z</time>
      </trkpt>
      <trkpt lat="46.67077" lon="-1.82641">
        <ele>24</ele>
        <time>2018-03-08T15:09:17Z</time>
      </trkpt>
      <trkpt lat="46.67078" lon="-1.8265">
        <ele>24</ele>
        <time>2018-03-08T15:10:17Z</time>
      </trkpt>
      <trkpt lat="46.67077" lon="-1.82664">
        <ele>23</ele>
        <time>2018-03-08T15:11:17Z</time>
      </trkpt>
      <trkpt lat="46.67077" lon="-1.82664">
        <ele>23</ele>
        <time>2018-03-08T15:12:17Z</time>
      </trkpt>
      <trkpt lat="46.67078" lon="-1.82665">
        <ele>23</ele>
        <time>2018-03-08T15:13:17Z</time>
      </trkpt>
      <trkpt lat="46.67079" lon="-1.82666">
        <ele>23</ele>
        <time>2018-03-08T15:14:17Z</time>
      </trkpt>
      <trkpt lat="46.67079" lon="-1.82667">
        <ele>23</ele>
        <time>2018-03-08T15:15:17Z</time>
      </trkpt>
      <trkpt lat="46.6708" lon="-1.82668">
        <ele>23</ele>
        <time>2018-03-08T15:16:17Z</time>
      </trkpt>
      <trkpt lat="46.6708" lon="-1.82669">
        <ele>23</ele>
        <time>2018-03-08T15:17:17Z</time>
      </trkpt>
      <trkpt lat="46.6708" lon="-1.8267">
        <ele>23</ele>
        <time>2018-03-08T15:18:17Z</time>
      </trkpt>
      <trkpt lat="46.67081" lon="-1.8267">
        <ele>23</ele>
        <time>2018-03-08T15:19:17Z</time>
      </trkpt>
      <trkpt lat="46.67081" lon="-1.82671">
        <ele>23</ele>
        <time>2018-03-08T15:20:17Z</time>
      </trkpt>
      <trkpt lat="46.67081" lon="-1.82672">
        <ele>23</ele>
        <time>2018-03-08T15:21:17Z</time>
      </trkpt>
      <trkpt lat="46.67081" lon="-1.82673">
        <ele>23</ele>
        <time>2018-03-08T15:22:17Z</time>
      </trkpt>
      <trkpt lat="46.67081" lon="-1.82674">
        <ele>23</ele>
        <time>2018-03-08T15:23:17Z</time>
      </trkpt>
      <trkpt lat="46.67082" lon="-1.82675">
        <ele>23</ele>
        <time>2018-03-08T15:24:17Z</time>
      </trkpt>
      <trkpt lat="46.67082" lon="-1.82676">
        <ele>23</ele>
        <time>2018-03-08T15:25:17Z</time>
      </trkpt>
      <trkpt lat="46.67082" lon="-1.82677">
        <ele>23</ele>
        <time>2018-03-08T15:26:17Z</time>
      </trkpt>
      <trkpt lat="46.67082" lon="-1.82678">
        <ele>23</ele>
        <time>2018-03-08T15:27:17Z</time>
      </trkpt>
      <trkpt lat="46.67082" lon="-1.82679">
        <ele>23</ele>
        <time>2018-03-08T15:28:17Z</time>
      </trkpt>
      <trkpt lat="46.67085" lon="-1.82681">
        <ele>22</ele>
        <time>2018-03-08T15:29:17Z</time>
      </trkpt>
      <trkpt lat="46.67087" lon="-1.82683">
        <ele>22</ele>
        <time>2018-03-08T15:30:17Z</time>
      </trkpt>
      <trkpt lat="46.67089" lon="-1.82686">
        <ele>22</ele>
        <time>2018-03-08T15:31:17Z</time>
      </trkpt>
      <trkpt lat="46.67092" lon="-1.82693">
        <ele>22</ele>
        <time>2018-03-08T15:32:17Z</time>
      </trkpt>
      <trkpt lat="46.671" lon="-1.82704">
        <ele>22</ele>
        <time>2018-03-08T15:33:17Z</time>
      </trkpt>
      <trkpt lat="46.67109" lon="-1.82715">
        <ele>21</ele>
        <time>2018-03-08T15:34:17Z</time>
      </trkpt>
      <trkpt lat="46.67113" lon="-1.82721">
        <ele>21</ele>
        <time>2018-03-08T15:35:17Z</time>
      </trkpt>
      <trkpt lat="46.67123" lon="-1.82736">
        <ele>21</ele>
        <time>2018-03-08T15:36:17Z</time>
      </trkpt>
      <trkpt lat="46.67125" lon="-1.82738">
        <ele>20</ele>
        <time>2018-03-08T15:37:17Z</time>
      </trkpt>
      <trkpt lat="46.67144" lon="-1.82764">
        <ele>20</ele>
        <time>2018-03-08T15:38:17Z</time>
      </trkpt>
      <trkpt lat="46.67149" lon="-1.82772">
        <ele>20</ele>
        <time>2018-03-08T15:39:17Z</time>
      </trkpt>
      <trkpt lat="46.67153" lon="-1.82777">
        <ele>20</ele>
        <time>2018-03-08T15:40:17Z</time>
      </trkpt>
      <trkpt lat="46.67163" lon="-1.82786">
        <ele>20</ele>
        <time>2018-03-08T15:41:17Z</time>
      </trkpt>
      <trkpt lat="46.67164" lon="-1.82789">
        <ele>20</ele>
        <time>2018-03-08T15:42:17Z</time>
      </trkpt>
      <trkpt lat="46.67169" lon="-1.82797">
        <ele>20</ele>
        <time>2018-03-08T15:43:17Z</time>
      </trkpt>
      <trkpt lat="46.6718" lon="-1.82811">
        <ele>20</ele>
        <time>2018-03-08T15:44:17Z</time>
      </trkpt>
      <trkpt lat="46.67189" lon="-1.82825">
        <ele>21</ele>
        <time>2018-03-08T15:45:17Z</time>
      </trkpt>
      <trkpt lat="46.67202" lon="-1.82842">
        <ele>21</ele>
        <time>2018-03-08T15:46:17Z</time>
      </trkpt>
      <trkpt lat="46.67205" lon="-1.82846">
        <ele>21</ele>
        <time>2018-03-08T15:47:17Z</time>
      </trkpt>
      <trkpt lat="46.67219" lon="-1.82865">
        <ele>22</ele>
        <time>2018-03-08T15:48:17Z</time>
      </trkpt>
      <trkpt lat="46.67224" lon="-1.82871">
        <ele>23</ele>
        <time>2018-03-08T15:49:17Z</time>
      </trkpt>
      <trkpt lat="46.67231" lon="-1.82882">
        <ele>23</ele>
        <time>2018-03-08T15:50:17Z</time>
      </trkpt>
      <trkpt lat="46.67233" lon="-1.82886">
        <ele>23</ele>
        <time>2018-03-08T15:51:17Z</time>
      </trkpt>
      <trkpt lat="46.6724" lon="-1.829">
        <ele>24</ele>
        <time>2018-03-08T15:52:17Z</time>
      </trkpt>
      <trkpt lat="46.67248" lon="-1.82911">
        <ele>25</ele>
        <time>2018-03-08T15:53:17Z</time>
      </trkpt>
      <trkpt lat="46.67253" lon="-1.82918">
        <ele>25</ele>
        <time>2018-03-08T15:54:17Z</time>
      </trkpt>
      <trkpt lat="46.67259" lon="-1.82927">
        <ele>25</ele>
        <time>2018-03-08T15:55:17Z</time>
      </trkpt>
      <trkpt lat="46.67265" lon="-1.82935">
        <ele>25</ele>
        <time>2018-03-08T15:56:17Z</time>
      </trkpt>
      <trkpt lat="46.6728" lon="-1.82956">
        <ele>26</ele>
        <time>2018-03-08T15:57:17Z</time>
      </trkpt>
      <trkpt lat="46.67307" lon="-1.82992">
        <ele>27</ele>
        <time>2018-03-08T15:58:17Z</time>
      </trkpt>
      <trkpt lat="46.67326" lon="-1.83019">
        <ele>27</ele>
        <time>2018-03-08T15:59:17Z</time>
      </trkpt>
      <trkpt lat="46.67345" lon="-1.83046">
        <ele>27</ele>
        <time>2018-03-08T16:00:17Z</time>
      </trkpt>
      <trkpt lat="46.67353" lon="-1.83058">
        <ele>27</ele>
        <time>2018-03-08T16:01:17Z</time>
      </trkpt>
      <trkpt lat="46.67381" lon="-1.83097">
        <ele>27</ele>
        <time>2018-03-08T16:02:17Z</time>
      </trkpt>
      <trkpt lat="46.67386" lon="-1.83104">
        <ele>27</ele>
        <time>2018-03-08T16:03:17Z</time>
      </trkpt>
      <trkpt lat="46.67409" lon="-1.83134">
        <ele>27</ele>
        <time>2018-03-08T16:04:17Z</time>
      </trkpt>
      <trkpt lat="46.67447" lon="-1.83186">
        <ele>27</ele>
        <time>2018-03-08T16:05:17Z</time>
      </trkpt>
      <trkpt lat="46.6745" lon="-1.83191">
        <ele>27</ele>
        <time>2018-03-08T16:06:17Z</time>
      </trkpt>
      <trkpt lat="46.67478" lon="-1.83232">
        <ele>26</ele>
        <time>2018-03-08T16:07:17Z</time>
      </trkpt>
      <trkpt lat="46.67478" lon="-1.83232">
        <ele>26</ele>
        <time>2018-03-08T16:08:17Z</time>
      </trkpt>
      <trkpt lat="46.67472" lon="-1.83243">
        <ele>26</ele>
        <time>2018-03-08T16:09:17Z</time>
      </trkpt>
      <trkpt lat="46.67463" lon="-1.83255">
        <ele>26</ele>
        <time>2018-03-08T16:10:17Z</time>
      </trkpt>
      <trkpt lat="46.67448" lon="-1.83276">
        <ele>26</ele>
        <time>2018-03-08T16:11:17Z</time>
      </trkpt>
      <trkpt lat="46.67432" lon="-1.83299">
        <ele>27</ele>
        <time>2018-03-08T16:12:17Z</time>
      </trkpt>
      <trkpt lat="46.67414" lon="-1.83326">
        <ele>27</ele>
        <time>2018-03-08T16:13:17Z</time>
      </trkpt>
      <trkpt lat="46.67399" lon="-1.8335">
        <ele>26</ele>
        <time>2018-03-08T16:14:17Z</time>
      </trkpt>
      <trkpt lat="46.67379" lon="-1.83379">
        <ele>25</ele>
        <time>2018-03-08T16:15:17Z</time>
      </trkpt>
      <trkpt lat="46.67367" lon="-1.83397">
        <ele>25</ele>
        <time>2018-03-08T16:16:17Z</time>
      </trkpt>
      <trkpt lat="46.67356" lon="-1.83413">
        <ele>24</ele>
        <time>2018-03-08T16:17:17Z</time>
      </trkpt>
      <trkpt lat="46.67348" lon="-1.83424">
        <ele>24</ele>
        <time>2018-03-08T16:18:17Z</time>
      </trkpt>
      <trkpt lat="46.6734" lon="-1.83434">
        <ele>24</ele>
        <time>2018-03-08T16:19:17Z</time>
      </trkpt>
      <trkpt lat="46.67331" lon="-1.83441">
        <ele>24</ele>
        <time>2018-03-08T16:20:17Z</time>
      </trkpt>
      <trkpt lat="46.6732" lon="-1.83446">
        <ele>23</ele>
        <time>2018-03-08T16:21:17Z</time>
      </trkpt>
      <trkpt lat="46.67309" lon="-1.83448">
        <ele>23</ele>
        <time>2018-03-08T16:22:17Z</time>
      </trkpt>
      <trkpt lat="46.67291" lon="-1.83452">
        <ele>23</ele>
        <time>2018-03-08T16:23:17Z</time>
      </trkpt>
      <trkpt lat="46.67267" lon="-1.83457">
        <ele>22</ele>
        <time>2018-03-08T16:24:17Z</time>
      </trkpt>
      <trkpt lat="46.67239" lon="-1.83464">
        <ele>22</ele>
        <time>2018-03-08T16:25:17Z</time>
      </trkpt>
      <trkpt lat="46.67221" lon="-1.83469">
        <ele>21</ele>
        <time>2018-03-08T16:26:17Z</time>
      </trkpt>
      <trkpt lat="46.67218" lon="-1.83469">
        <ele>21</ele>
        <time>2018-03-08T16:27:17Z</time>
      </trkpt>
      <trkpt lat="46.67216" lon="-1.8347">
        <ele>21</ele>
        <time>2018-03-08T16:28:17Z</time>
      </trkpt>
      <trkpt lat="46.67213" lon="-1.83472">
        <ele>21</ele>
        <time>2018-03-08T16:29:17Z</time>
      </trkpt>
      <trkpt lat="46.67207" lon="-1.83477">
        <ele>21</ele>
        <time>2018-03-08T16:30:17Z</time>
      </trkpt>
      <trkpt lat="46.67207" lon="-1.83477">
        <ele>21</ele>
        <time>2018-03-08T16:31:17Z</time>
      </trkpt>
      <trkpt lat="46.67214" lon="-1.83501">
        <ele>21</ele>
        <time>2018-03-08T16:32:17Z</time>
      </trkpt>
      <trkpt lat="46.67218" lon="-1.83519">
        <ele>20</ele>
        <time>2018-03-08T16:33:17Z</time>
      </trkpt>
      <trkpt lat="46.67223" lon="-1.8354">
        <ele>20</ele>
        <time>2018-03-08T16:34:17Z</time>
      </trkpt>
      <trkpt lat="46.67226" lon="-1.83557">
        <ele>20</ele>
        <time>2018-03-08T16:35:17Z</time>
      </trkpt>
      <trkpt lat="46.67229" lon="-1.83588">
        <ele>20</ele>
        <time>2018-03-08T16:36:17Z</time>
      </trkpt>
      <trkpt lat="46.67236" lon="-1.83657">
        <ele>21</ele>
        <time>2018-03-08T16:37:17Z</time>
      </trkpt>
      <trkpt lat="46.67241" lon="-1.83718">
        <ele>22</ele>
        <time>2018-03-08T16:38:17Z</time>
      </trkpt>
      <trkpt lat="46.67246" lon="-1.83765">
        <ele>23</ele>
        <time>2018-03-08T16:39:17Z</time>
      </trkpt>
      <trkpt lat="46.67251" lon="-1.83814">
        <ele>23</ele>
        <time>2018-03-08T16:40:17Z</time>
      </trkpt>
      <trkpt lat="46.67252" lon="-1.8382">
        <ele>23</ele>
        <time>2018-03-08T16:41:17Z</time>
      </trkpt>
      <trkpt lat="46.67252" lon="-1.83824">
        <ele>23</ele>
        <time>2018-03-08T16:42:17Z</time>
      </trkpt>
      <trkpt lat="46.67254" lon="-1.83845">
        <ele>23</ele>
        <time>2018-03-08T16:43:17Z</time>
      </trkpt>
      <trkpt lat="46.67256" lon="-1.83874">
        <ele>23</ele>
        <time>2018-03-08T16:44:17Z</time>
      </trkpt>
      <trkpt lat="46.67257" lon="-1.83897">
        <ele>23</ele>
        <time>2018-03-08T16:45:17Z</time>
      </trkpt>
      <trkpt lat="46.67257" lon="-1.83925">
        <ele>23</ele>
        <time>2018-03-08T16:46:17Z</time>
      </trkpt>
      <trkpt lat="46.67256" lon="-1.83985">
        <ele>22</ele>
        <time>2018-03-08T16:47:17Z</time>
      </trkpt>
      <trkpt lat="46.67254" lon="-1.84058">
        <ele>21</ele>
        <time>2018-03-08T16:48:17Z</time>
      </trkpt>
      <trkpt lat="46.67252" lon="-1.84121">
        <ele>20</ele>
        <time>2018-03-08T16:49:17Z</time>
      </trkpt>
      <trkpt lat="46.67251" lon="-1.84138">
        <ele>20</ele>
        <time>2018-03-08T16:50:17Z</time>
      </trkpt>
      <trkpt lat="46.6725" lon="-1.84185">
        <ele>20</ele>
        <time>2018-03-08T16:51:17Z</time>
      </trkpt>
      <trkpt lat="46.67248" lon="-1.84207">
        <ele>21</ele>
        <time>2018-03-08T16:52:17Z</time>
      </trkpt>
      <trkpt lat="46.67247" lon="-1.84225">
        <ele>21</ele>
        <time>2018-03-08T16:53:17Z</time>
      </trkpt>
      <trkpt lat="46.67245" lon="-1.84242">
        <ele>22</ele>
        <time>2018-03-08T16:54:17Z</time>
      </trkpt>
      <trkpt lat="46.67241" lon="-1.84276">
        <ele>22</ele>
        <time>2018-03-08T16:55:17Z</time>
      </trkpt>
      <trkpt lat="46.67237" lon="-1.84309">
        <ele>22</ele>
        <time>2018-03-08T16:56:17Z</time>
      </trkpt>
      <trkpt lat="46.6723" lon="-1.84361">
        <ele>21</ele>
        <time>2018-03-08T16:57:17Z</time>
      </trkpt>
      <trkpt lat="46.67226" lon="-1.84398">
        <ele>21</ele>
        <time>2018-03-08T16:58:17Z</time>
      </trkpt>
      <trkpt lat="46.67224" lon="-1.84411">
        <ele>21</ele>
        <time>2018-03-08T16:59:17Z</time>
      </trkpt>
      <trkpt lat="46.67219" lon="-1.84446">
        <ele>21</ele>
        <time>2018-03-08T17:00:17Z</time>
      </trkpt>
      <trkpt lat="46.67212" lon="-1.84497">
        <ele>21</ele>
        <time>2018-03-08T17:01:17Z</time>
      </trkpt>
      <trkpt lat="46.67205" lon="-1.84549">
        <ele>20</ele>
        <time>2018-03-08T17:02:17Z</time>
      </trkpt>
      <trkpt lat="46.67198" lon="-1.84599">
        <ele>20</ele>
        <time>2018-03-08T17:03:17Z</time>
      </trkpt>
      <trkpt lat="46.67191" lon="-1.84651">
        <ele>20</ele>
        <time>2018-03-08T17:04:17Z</time>
      </trkpt>
      <trkpt lat="46.67182" lon="-1.84714">
        <ele>20</ele>
        <time>2018-03-08T17:05:17Z</time>
      </trkpt>
      <trkpt lat="46.67175" lon="-1.84769">
        <ele>19</ele>
        <time>2018-03-08T17:06:17Z</time>
      </trkpt>
      <trkpt lat="46.67175" lon="-1.8478">
        <ele>19</ele>
        <time>2018-03-08T17:07:17Z</time>
      </trkpt>
      <trkpt lat="46.67171" lon="-1.84811">
        <ele>18</ele>
        <time>2018-03-08T17:08:17Z</time>
      </trkpt>
      <trkpt lat="46.67167" lon="-1.8484">
        <ele>18</ele>
        <time>2018-03-08T17:09:17Z</time>
      </trkpt>
      <trkpt lat="46.67165" lon="-1.84868">
        <ele>18</ele>
        <time>2018-03-08T17:10:17Z</time>
      </trkpt>
      <trkpt lat="46.67164" lon="-1.84883">
        <ele>18</ele>
        <time>2018-03-08T17:11:17Z</time>
      </trkpt>
      <trkpt lat="46.67164" lon="-1.84898">
        <ele>18</ele>
        <time>2018-03-08T17:12:17Z</time>
      </trkpt>
      <trkpt lat="46.67164" lon="-1.84926">
        <ele>18</ele>
        <time>2018-03-08T17:13:17Z</time>
      </trkpt>
      <trkpt lat="46.67165" lon="-1.84941">
        <ele>18</ele>
        <time>2018-03-08T17:14:17Z</time>
      </trkpt>
      <trkpt lat="46.67166" lon="-1.84956">
        <ele>18</ele>
        <time>2018-03-08T17:15:17Z</time>
      </trkpt>
      <trkpt lat="46.67168" lon="-1.84972">
        <ele>18</ele>
        <time>2018-03-08T17:16:17Z</time>
      </trkpt>
      <trkpt lat="46.67172" lon="-1.84999">
        <ele>18</ele>
        <time>2018-03-08T17:17:17Z</time>
      </trkpt>
      <trkpt lat="46.67175" lon="-1.85014">
        <ele>18</ele>
        <time>2018-03-08T17:18:17Z</time>
      </trkpt>
      <trkpt lat="46.67178" lon="-1.85027">
        <ele>19</ele>
        <time>2018-03-08T17:19:17Z</time>
      </trkpt>
      <trkpt lat="46.67185" lon="-1.85055">
        <ele>19</ele>
        <time>2018-03-08T17:20:17Z</time>
      </trkpt>
      <trkpt lat="46.6719" lon="-1.85073">
        <ele>19</ele>
        <time>2018-03-08T17:21:17Z</time>
      </trkpt>
      <trkpt lat="46.67201" lon="-1.85109">
        <ele>19</ele>
        <time>2018-03-08T17:22:17Z</time>
      </trkpt>
      <trkpt lat="46.67214" lon="-1.8515">
        <ele>19</ele>
        <time>2018-03-08T17:23:17Z</time>
      </trkpt>
      <trkpt lat="46.67224" lon="-1.85184">
        <ele>19</ele>
        <time>2018-03-08T17:24:17Z</time>
      </trkpt>
      <trkpt lat="46.67239" lon="-1.85237">
        <ele>19</ele>
        <time>2018-03-08T17:25:17Z</time>
      </trkpt>
      <trkpt lat="46.67248" lon="-1.85268">
        <ele>19</ele>
        <time>2018-03-08T17:26:17Z</time>
      </trkpt>
      <trkpt lat="46.67255" lon="-1.85296">
        <ele>19</ele>
        <time>2018-03-08T17:27:17Z</time>
      </trkpt>
      <trkpt lat="46.6726" lon="-1.85321">
        <ele>20</ele>
        <time>2018-03-08T17:28:17Z</time>
      </trkpt>
      <trkpt lat="46.67263" lon="-1.85339">
        <ele>20</ele>
        <time>2018-03-08T17:29:17Z</time>
      </trkpt>
      <trkpt lat="46.67266" lon="-1.85362">
        <ele>19</ele>
        <time>2018-03-08T17:30:17Z</time>
      </trkpt>
      <trkpt lat="46.67269" lon="-1.85388">
        <ele>19</ele>
        <time>2018-03-08T17:31:17Z</time>
      </trkpt>
      <trkpt lat="46.67271" lon="-1.85421">
        <ele>18</ele>
        <time>2018-03-08T17:32:17Z</time>
      </trkpt>
      <trkpt lat="46.67275" lon="-1.8548">
        <ele>18</ele>
        <time>2018-03-08T17:33:17Z</time>
      </trkpt>
      <trkpt lat="46.67279" lon="-1.85526">
        <ele>17</ele>
        <time>2018-03-08T17:34:17Z</time>
      </trkpt>
      <trkpt lat="46.67281" lon="-1.85556">
        <ele>17</ele>
        <time>2018-03-08T17:35:17Z</time>
      </trkpt>
      <trkpt lat="46.67285" lon="-1.85601">
        <ele>16</ele>
        <time>2018-03-08T17:36:17Z</time>
      </trkpt>
      <trkpt lat="46.67288" lon="-1.85647">
        <ele>15</ele>
        <time>2018-03-08T17:37:17Z</time>
      </trkpt>
      <trkpt lat="46.67291" lon="-1.85677">
        <ele>15</ele>
        <time>2018-03-08T17:38:17Z</time>
      </trkpt>
      <trkpt lat="46.67295" lon="-1.85721">
        <ele>15</ele>
        <time>2018-03-08T17:39:17Z</time>
      </trkpt>
      <trkpt lat="46.67299" lon="-1.85767">
        <ele>16</ele>
        <time>2018-03-08T17:40:17Z</time>
      </trkpt>
      <trkpt lat="46.67302" lon="-1.8581">
        <ele>16</ele>
        <time>2018-03-08T17:41:17Z</time>
      </trkpt>
      <trkpt lat="46.67304" lon="-1.8584">
        <ele>16</ele>
        <time>2018-03-08T17:42:17Z</time>
      </trkpt>
      <trkpt lat="46.67305" lon="-1.85869">
        <ele>16</ele>
        <time>2018-03-08T17:43:17Z</time>
      </trkpt>
      <trkpt lat="46.67306" lon="-1.859">
        <ele>15</ele>
        <time>2018-03-08T17:44:17Z</time>
      </trkpt>
      <trkpt lat="46.67306" lon="-1.8593">
        <ele>15</ele>
        <time>2018-03-08T17:45:17Z</time>
      </trkpt>
      <trkpt lat="46.67306" lon="-1.85959">
        <ele>15</ele>
        <time>2018-03-08T17:46:17Z</time>
      </trkpt>
      <trkpt lat="46.67305" lon="-1.85977">
        <ele>15</ele>
        <time>2018-03-08T17:47:17Z</time>
      </trkpt>
      <trkpt lat="46.67301" lon="-1.86022">
        <ele>14</ele>
        <time>2018-03-08T17:48:17Z</time>
      </trkpt>
      <trkpt lat="46.673" lon="-1.86038">
        <ele>13</ele>
        <time>2018-03-08T17:49:17Z</time>
      </trkpt>
      <trkpt lat="46.67298" lon="-1.86053">
        <ele>13</ele>
        <time>2018-03-08T17:50:17Z</time>
      </trkpt>
      <trkpt lat="46.67296" lon="-1.86068">
        <ele>13</ele>
        <time>2018-03-08T17:51:17Z</time>
      </trkpt>
      <trkpt lat="46.67295" lon="-1.86076">
        <ele>13</ele>
        <time>2018-03-08T17:52:17Z</time>
      </trkpt>
      <trkpt lat="46.67292" lon="-1.86098">
        <ele>12</ele>
        <time>2018-03-08T17:53:17Z</time>
      </trkpt>
      <trkpt lat="46.67288" lon="-1.8612">
        <ele>12</ele>
        <time>2018-03-08T17:54:17Z</time>
      </trkpt>
      <trkpt lat="46.67283" lon="-1.86141">
        <ele>12</ele>
        <time>2018-03-08T17:55:17Z</time>
      </trkpt>
      <trkpt lat="46.67277" lon="-1.86165">
        <ele>12</ele>
        <time>2018-03-08T17:56:17Z</time>
      </trkpt>
      <trkpt lat="46.67276" lon="-1.86168">
        <ele>12</ele>
        <time>2018-03-08T17:57:17Z</time>
      </trkpt>
      <trkpt lat="46.6727" lon="-1.86185">
        <ele>12</ele>
        <time>2018-03-08T17:58:17Z</time>
      </trkpt>
      <trkpt lat="46.67262" lon="-1.86208">
        <ele>11</ele>
        <time>2018-03-08T17:59:17Z</time>
      </trkpt>
      <trkpt lat="46.67255" lon="-1.86227">
        <ele>11</ele>
        <time>2018-03-08T18:00:17Z</time>
      </trkpt>
      <trkpt lat="46.67252" lon="-1.86237">
        <ele>11</ele>
        <time>2018-03-08T18:01:17Z</time>
      </trkpt>
      <trkpt lat="46.6725" lon="-1.86243">
        <ele>10</ele>
        <time>2018-03-08T18:02:17Z</time>
      </trkpt>
      <trkpt lat="46.67248" lon="-1.86257">
        <ele>10</ele>
        <time>2018-03-08T18:03:17Z</time>
      </trkpt>
      <trkpt lat="46.67246" lon="-1.86272">
        <ele>10</ele>
        <time>2018-03-08T18:04:17Z</time>
      </trkpt>
      <trkpt lat="46.67245" lon="-1.863">
        <ele>10</ele>
        <time>2018-03-08T18:05:17Z</time>
      </trkpt>
      <trkpt lat="46.67243" lon="-1.86336">
        <ele>10</ele>
        <time>2018-03-08T18:06:17Z</time>
      </trkpt>
      <trkpt lat="46.67241" lon="-1.8637">
        <ele>10</ele>
        <time>2018-03-08T18:07:17Z</time>
      </trkpt>
      <trkpt lat="46.67237" lon="-1.86399">
        <ele>10</ele>
        <time>2018-03-08T18:08:17Z</time>
      </trkpt>
      <trkpt lat="46.67235" lon="-1.86411">
        <ele>10</ele>
        <time>2018-03-08T18:09:17Z</time>
      </trkpt>
      <trkpt lat="46.67234" lon="-1.86421">
        <ele>10</ele>
        <time>2018-03-08T18:10:17Z</time>
      </trkpt>
      <trkpt lat="46.67229" lon="-1.86444">
        <ele>10</ele>
        <time>2018-03-08T18:11:17Z</time>
      </trkpt>
      <trkpt lat="46.67223" lon="-1.86467">
        <ele>10</ele>
        <time>2018-03-08T18:12:17Z</time>
      </trkpt>
      <trkpt lat="46.67214" lon="-1.86498">
        <ele>9</ele>
        <time>2018-03-08T18:13:17Z</time>
      </trkpt>
      <trkpt lat="46.67206" lon="-1.86523">
        <ele>9</ele>
        <time>2018-03-08T18:14:17Z</time>
      </trkpt>
      <trkpt lat="46.67202" lon="-1.86536">
        <ele>9</ele>
        <time>2018-03-08T18:15:17Z</time>
      </trkpt>
      <trkpt lat="46.67196" lon="-1.86553">
        <ele>8</ele>
        <time>2018-03-08T18:16:17Z</time>
      </trkpt>
      <trkpt lat="46.67196" lon="-1.86555">
        <ele>8</ele>
        <time>2018-03-08T18:17:17Z</time>
      </trkpt>
      <trkpt lat="46.6719" lon="-1.86574">
        <ele>8</ele>
        <time>2018-03-08T18:18:17Z</time>
      </trkpt>
      <trkpt lat="46.67183" lon="-1.86598">
        <ele>8</ele>
        <time>2018-03-08T18:19:17Z</time>
      </trkpt>
      <trkpt lat="46.67179" lon="-1.8661">
        <ele>8</ele>
        <time>2018-03-08T18:20:17Z</time>
      </trkpt>
      <trkpt lat="46.67176" lon="-1.86622">
        <ele>8</ele>
        <time>2018-03-08T18:21:17Z</time>
      </trkpt>
      <trkpt lat="46.67174" lon="-1.86635">
        <ele>8</ele>
        <time>2018-03-08T18:22:17Z</time>
      </trkpt>
      <trkpt lat="46.67172" lon="-1.86647">
        <ele>8</ele>
        <time>2018-03-08T18:23:17Z</time>
      </trkpt>
      <trkpt lat="46.67171" lon="-1.86648">
        <ele>8</ele>
        <time>2018-03-08T18:24:17Z</time>
      </trkpt>
      <trkpt lat="46.6717" lon="-1.86659">
        <ele>8</ele>
        <time>2018-03-08T18:25:17Z</time>
      </trkpt>
      <trkpt lat="46.67168" lon="-1.86671">
        <ele>8</ele>
        <time>2018-03-08T18:26:17Z</time>
      </trkpt>
      <trkpt lat="46.67168" lon="-1.86673">
        <ele>8</ele>
        <time>2018-03-08T18:27:17Z</time>
      </trkpt>
      <trkpt lat="46.67167" lon="-1.86684">
        <ele>7</ele>
        <time>2018-03-08T18:28:17Z</time>
      </trkpt>
      <trkpt lat="46.67166" lon="-1.86696">
        <ele>7</ele>
        <time>2018-03-08T18:29:17Z</time>
      </trkpt>
      <trkpt lat="46.67166" lon="-1.86704">
        <ele>7</ele>
        <time>2018-03-08T18:30:17Z</time>
      </trkpt>
      <trkpt lat="46.67166" lon="-1.86708">
        <ele>7</ele>
        <time>2018-03-08T18:31:17Z</time>
      </trkpt>
      <trkpt lat="46.67166" lon="-1.86732">
        <ele>6</ele>
        <time>2018-03-08T18:32:17Z</time>
      </trkpt>
      <trkpt lat="46.67166" lon="-1.86747">
        <ele>5</ele>
        <time>2018-03-08T18:33:17Z</time>
      </trkpt>
      <trkpt lat="46.67166" lon="-1.8675">
        <ele>5</ele>
        <time>2018-03-08T18:34:17Z</time>
      </trkpt>
      <trkpt lat="46.67167" lon="-1.86759">
        <ele>5</ele>
        <time>2018-03-08T18:35:17Z</time>
      </trkpt>
      <trkpt lat="46.67169" lon="-1.86772">
        <ele>5</ele>
        <time>2018-03-08T18:36:17Z</time>
      </trkpt>
      <trkpt lat="46.6717" lon="-1.86785">
        <ele>4</ele>
        <time>2018-03-08T18:37:17Z</time>
      </trkpt>
      <trkpt lat="46.67173" lon="-1.86797">
        <ele>4</ele>
        <time>2018-03-08T18:38:17Z</time>
      </trkpt>
      <trkpt lat="46.67177" lon="-1.86808">
        <ele>4</ele>
        <time>2018-03-08T18:39:17Z</time>
      </trkpt>
      <trkpt lat="46.67179" lon="-1.86815">
        <ele>4</ele>
        <time>2018-03-08T18:40:17Z</time>
      </trkpt>
      <trkpt lat="46.6718" lon="-1.86819">
        <ele>4</ele>
        <time>2018-03-08T18:41:17Z</time>
      </trkpt>
      <trkpt lat="46.67189" lon="-1.86841">
        <ele>3</ele>
        <time>2018-03-08T18:42:17Z</time>
      </trkpt>
      <trkpt lat="46.67202" lon="-1.86862">
        <ele>3</ele>
        <time>2018-03-08T18:43:17Z</time>
      </trkpt>
      <trkpt lat="46.67205" lon="-1.86869">
        <ele>3</ele>
        <time>2018-03-08T18:44:17Z</time>
      </trkpt>
      <trkpt lat="46.67209" lon="-1.86876">
        <ele>3</ele>
        <time>2018-03-08T18:45:17Z</time>
      </trkpt>
      <trkpt lat="46.67213" lon="-1.86883">
        <ele>3</ele>
        <time>2018-03-08T18:46:17Z</time>
      </trkpt>
      <trkpt lat="46.67228" lon="-1.8691">
        <ele>4</ele>
        <time>2018-03-08T18:47:17Z</time>
      </trkpt>
      <trkpt lat="46.67246" lon="-1.86946">
        <ele>5</ele>
        <time>2018-03-08T18:48:17Z</time>
      </trkpt>
      <trkpt lat="46.67251" lon="-1.86955">
        <ele>5</ele>
        <time>2018-03-08T18:49:17Z</time>
      </trkpt>
      <trkpt lat="46.67256" lon="-1.86965">
        <ele>5</ele>
        <time>2018-03-08T18:50:17Z</time>
      </trkpt>
      <trkpt lat="46.6726" lon="-1.86974">
        <ele>6</ele>
        <time>2018-03-08T18:51:17Z</time>
      </trkpt>
      <trkpt lat="46.67263" lon="-1.86983">
        <ele>6</ele>
        <time>2018-03-08T18:52:17Z</time>
      </trkpt>
      <trkpt lat="46.67267" lon="-1.86994">
        <ele>7</ele>
        <time>2018-03-08T18:53:17Z</time>
      </trkpt>
      <trkpt lat="46.67269" lon="-1.87004">
        <ele>7</ele>
        <time>2018-03-08T18:54:17Z</time>
      </trkpt>
      <trkpt lat="46.67271" lon="-1.87013">
        <ele>8</ele>
        <time>2018-03-08T18:55:17Z</time>
      </trkpt>
      <trkpt lat="46.67273" lon="-1.87028">
        <ele>8</ele>
        <time>2018-03-08T18:56:17Z</time>
      </trkpt>
      <trkpt lat="46.67273" lon="-1.87048">
        <ele>9</ele>
        <time>2018-03-08T18:57:17Z</time>
      </trkpt>
      <trkpt lat="46.67272" lon="-1.8707">
        <ele>9</ele>
        <time>2018-03-08T18:58:17Z</time>
      </trkpt>
      <trkpt lat="46.67272" lon="-1.87082">
        <ele>9</ele>
        <time>2018-03-08T18:59:17Z</time>
      </trkpt>
      <trkpt lat="46.67269" lon="-1.8713">
        <ele>9</ele>
        <time>2018-03-08T19:00:17Z</time>
      </trkpt>
      <trkpt lat="46.67267" lon="-1.87155">
        <ele>8</ele>
        <time>2018-03-08T19:01:17Z</time>
      </trkpt>
      <trkpt lat="46.67265" lon="-1.8718">
        <ele>8</ele>
        <time>2018-03-08T19:02:17Z</time>
      </trkpt>
      <trkpt lat="46.67264" lon="-1.87205">
        <ele>9</ele>
        <time>2018-03-08T19:03:17Z</time>
      </trkpt>
      <trkpt lat="46.67263" lon="-1.87218">
        <ele>9</ele>
        <time>2018-03-08T19:04:17Z</time>
      </trkpt>
      <trkpt lat="46.67261" lon="-1.87244">
        <ele>9</ele>
        <time>2018-03-08T19:05:17Z</time>
      </trkpt>
      <trkpt lat="46.6726" lon="-1.87256">
        <ele>10</ele>
        <time>2018-03-08T19:06:17Z</time>
      </trkpt>
      <trkpt lat="46.67256" lon="-1.87307">
        <ele>11</ele>
        <time>2018-03-08T19:07:17Z</time>
      </trkpt>
      <trkpt lat="46.67254" lon="-1.87333">
        <ele>11</ele>
        <time>2018-03-08T19:08:17Z</time>
      </trkpt>
      <trkpt lat="46.67251" lon="-1.87373">
        <ele>12</ele>
        <time>2018-03-08T19:09:17Z</time>
      </trkpt>
      <trkpt lat="46.6725" lon="-1.87377">
        <ele>12</ele>
        <time>2018-03-08T19:10:17Z</time>
      </trkpt>
      <trkpt lat="46.67247" lon="-1.87407">
        <ele>12</ele>
        <time>2018-03-08T19:11:17Z</time>
      </trkpt>
      <trkpt lat="46.67247" lon="-1.87411">
        <ele>12</ele>
        <time>2018-03-08T19:12:17Z</time>
      </trkpt>
      <trkpt lat="46.67243" lon="-1.87445">
        <ele>12</ele>
        <time>2018-03-08T19:13:17Z</time>
      </trkpt>
      <trkpt lat="46.67236" lon="-1.87498">
        <ele>12</ele>
        <time>2018-03-08T19:14:17Z</time>
      </trkpt>
      <trkpt lat="46.67232" lon="-1.87531">
        <ele>12</ele>
        <time>2018-03-08T19:15:17Z</time>
      </trkpt>
      <trkpt lat="46.6723" lon="-1.8755">
        <ele>12</ele>
        <time>2018-03-08T19:16:17Z</time>
      </trkpt>
      <trkpt lat="46.67226" lon="-1.8758">
        <ele>12</ele>
        <time>2018-03-08T19:17:17Z</time>
      </trkpt>
      <trkpt lat="46.67225" lon="-1.87591">
        <ele>12</ele>
        <time>2018-03-08T19:18:17Z</time>
      </trkpt>
      <trkpt lat="46.67224" lon="-1.87603">
        <ele>12</ele>
        <time>2018-03-08T19:19:17Z</time>
      </trkpt>
      <trkpt lat="46.67221" lon="-1.87616">
        <ele>11</ele>
        <time>2018-03-08T19:20:17Z</time>
      </trkpt>
      <trkpt lat="46.67219" lon="-1.87634">
        <ele>11</ele>
        <time>2018-03-08T19:21:17Z</time>
      </trkpt>
      <trkpt lat="46.67218" lon="-1.87652">
        <ele>11</ele>
        <time>2018-03-08T19:22:17Z</time>
      </trkpt>
      <trkpt lat="46.67217" lon="-1.87673">
        <ele>11</ele>
        <time>2018-03-08T19:23:17Z</time>
      </trkpt>
      <trkpt lat="46.67215" lon="-1.87698">
        <ele>11</ele>
        <time>2018-03-08T19:24:17Z</time>
      </trkpt>
      <trkpt lat="46.67214" lon="-1.87723">
        <ele>10</ele>
        <time>2018-03-08T19:25:17Z</time>
      </trkpt>
      <trkpt lat="46.67213" lon="-1.87744">
        <ele>10</ele>
        <time>2018-03-08T19:26:17Z</time>
      </trkpt>
      <trkpt lat="46.67212" lon="-1.87767">
        <ele>10</ele>
        <time>2018-03-08T19:27:17Z</time>
      </trkpt>
      <trkpt lat="46.67212" lon="-1.87783">
        <ele>10</ele>
        <time>2018-03-08T19:28:17Z</time>
      </trkpt>
      <trkpt lat="46.67212" lon="-1.878">
        <ele>10</ele>
        <time>2018-03-08T19:29:17Z</time>
      </trkpt>
      <trkpt lat="46.67213" lon="-1.87822">
        <ele>10</ele>
        <time>2018-03-08T19:30:17Z</time>
      </trkpt>
      <trkpt lat="46.67213" lon="-1.87839">
        <ele>10</ele>
        <time>2018-03-08T19:31:17Z</time>
      </trkpt>
      <trkpt lat="46.67213" lon="-1.87857">
        <ele>10</ele>
        <time>2018-03-08T19:32:17Z</time>
      </trkpt>
      <trkpt lat="46.67213" lon="-1.87872">
        <ele>10</ele>
        <time>2018-03-08T19:33:17Z</time>
      </trkpt>
      <trkpt lat="46.67213" lon="-1.87887">
        <ele>10</ele>
        <time>2018-03-08T19:34:17Z</time>
      </trkpt>
      <trkpt lat="46.67211" lon="-1.87909">
        <ele>10</ele>
        <time>2018-03-08T19:35:17Z</time>
      </trkpt>
      <trkpt lat="46.67208" lon="-1.87929">
        <ele>10</ele>
        <time>2018-03-08T19:36:17Z</time>
      </trkpt>
      <trkpt lat="46.67205" lon="-1.87955">
        <ele>10</ele>
        <time>2018-03-08T19:37:17Z</time>
      </trkpt>
      <trkpt lat="46.67202" lon="-1.87978">
        <ele>10</ele>
        <time>2018-03-08T19:38:17Z</time>
      </trkpt>
      <trkpt lat="46.67198" lon="-1.88006">
        <ele>10</ele>
        <time>2018-03-08T19:39:17Z</time>
      </trkpt>
      <trkpt lat="46.67193" lon="-1.88041">
        <ele>9</ele>
        <time>2018-03-08T19:40:17Z</time>
      </trkpt>
      <trkpt lat="46.67187" lon="-1.88081">
        <ele>9</ele>
        <time>2018-03-08T19:41:17Z</time>
      </trkpt>
      <trkpt lat="46.67183" lon="-1.88109">
        <ele>8</ele>
        <time>2018-03-08T19:42:17Z</time>
      </trkpt>
      <trkpt lat="46.67178" lon="-1.88145">
        <ele>8</ele>
        <time>2018-03-08T19:43:17Z</time>
      </trkpt>
      <trkpt lat="46.67174" lon="-1.8817">
        <ele>7</ele>
        <time>2018-03-08T19:44:17Z</time>
      </trkpt>
      <trkpt lat="46.67173" lon="-1.88176">
        <ele>7</ele>
        <time>2018-03-08T19:45:17Z</time>
      </trkpt>
      <trkpt lat="46.67172" lon="-1.88182">
        <ele>7</ele>
        <time>2018-03-08T19:46:17Z</time>
      </trkpt>
      <trkpt lat="46.67168" lon="-1.88195">
        <ele>7</ele>
        <time>2018-03-08T19:47:17Z</time>
      </trkpt>
      <trkpt lat="46.67169" lon="-1.88196">
        <ele>7</ele>
        <time>2018-03-08T19:48:17Z</time>
      </trkpt>
      <trkpt lat="46.6717" lon="-1.88196">
        <ele>7</ele>
        <time>2018-03-08T19:49:17Z</time>
      </trkpt>
      <trkpt lat="46.6717" lon="-1.88197">
        <ele>7</ele>
        <time>2018-03-08T19:50:17Z</time>
      </trkpt>
      <trkpt lat="46.67171" lon="-1.88197">
        <ele>7</ele>
        <time>2018-03-08T19:51:17Z</time>
      </trkpt>
      <trkpt lat="46.67172" lon="-1.88198">
        <ele>8</ele>
        <time>2018-03-08T19:52:17Z</time>
      </trkpt>
      <trkpt lat="46.67172" lon="-1.88199">
        <ele>8</ele>
        <time>2018-03-08T19:53:17Z</time>
      </trkpt>
      <trkpt lat="46.67173" lon="-1.88199">
        <ele>8</ele>
        <time>2018-03-08T19:54:17Z</time>
      </trkpt>
      <trkpt lat="46.67173" lon="-1.882">
        <ele>8</ele>
        <time>2018-03-08T19:55:17Z</time>
      </trkpt>
      <trkpt lat="46.67173" lon="-1.88201">
        <ele>8</ele>
        <time>2018-03-08T19:56:17Z</time>
      </trkpt>
      <trkpt lat="46.67174" lon="-1.88202">
        <ele>8</ele>
        <time>2018-03-08T19:57:17Z</time>
      </trkpt>
      <trkpt lat="46.67174" lon="-1.88203">
        <ele>8</ele>
        <time>2018-03-08T19:58:17Z</time>
      </trkpt>
      <trkpt lat="46.67174" lon="-1.88204">
        <ele>8</ele>
        <time>2018-03-08T19:59:17Z</time>
      </trkpt>
      <trkpt lat="46.67174" lon="-1.88205">
        <ele>8</ele>
        <time>2018-03-08T20:00:17Z</time>
      </trkpt>
      <trkpt lat="46.67175" lon="-1.88205">
        <ele>8</ele>
        <time>2018-03-08T20:01:17Z</time>
      </trkpt>
      <trkpt lat="46.67175" lon="-1.88206">
        <ele>8</ele>
        <time>2018-03-08T20:02:17Z</time>
      </trkpt>
      <trkpt lat="46.67175" lon="-1.88207">
        <ele>8</ele>
        <time>2018-03-08T20:03:17Z</time>
      </trkpt>
      <trkpt lat="46.67175" lon="-1.88208">
        <ele>8</ele>
        <time>2018-03-08T20:04:17Z</time>
      </trkpt>
      <trkpt lat="46.67175" lon="-1.88209">
        <ele>8</ele>
        <time>2018-03-08T20:05:17Z</time>
      </trkpt>
      <trkpt lat="46.67175" lon="-1.8821">
        <ele>8</ele>
        <time>2018-03-08T20:06:17Z</time>
      </trkpt>
      <trkpt lat="46.67175" lon="-1.88211">
        <ele>8</ele>
        <time>2018-03-08T20:07:17Z</time>
      </trkpt>
      <trkpt lat="46.67174" lon="-1.88212">
        <ele>8</ele>
        <time>2018-03-08T20:08:17Z</time>
      </trkpt>
      <trkpt lat="46.67174" lon="-1.88213">
        <ele>8</ele>
        <time>2018-03-08T20:09:17Z</time>
      </trkpt>
      <trkpt lat="46.67174" lon="-1.88214">
        <ele>8</ele>
        <time>2018-03-08T20:10:17Z</time>
      </trkpt>
      <trkpt lat="46.67174" lon="-1.88215">
        <ele>8</ele>
        <time>2018-03-08T20:11:17Z</time>
      </trkpt>
      <trkpt lat="46.67173" lon="-1.88215">
        <ele>8</ele>
        <time>2018-03-08T20:12:17Z</time>
      </trkpt>
      <trkpt lat="46.67173" lon="-1.88216">
        <ele>8</ele>
        <time>2018-03-08T20:13:17Z</time>
      </trkpt>
      <trkpt lat="46.67173" lon="-1.88217">
        <ele>8</ele>
        <time>2018-03-08T20:14:17Z</time>
      </trkpt>
      <trkpt lat="46.67172" lon="-1.88217">
        <ele>8</ele>
        <time>2018-03-08T20:15:17Z</time>
      </trkpt>
      <trkpt lat="46.67172" lon="-1.88218">
        <ele>8</ele>
        <time>2018-03-08T20:16:17Z</time>
      </trkpt>
      <trkpt lat="46.67171" lon="-1.88219">
        <ele>8</ele>
        <time>2018-03-08T20:17:17Z</time>
      </trkpt>
      <trkpt lat="46.6717" lon="-1.8822">
        <ele>8</ele>
        <time>2018-03-08T20:18:17Z</time>
      </trkpt>
      <trkpt lat="46.67169" lon="-1.8822">
        <ele>8</ele>
        <time>2018-03-08T20:19:17Z</time>
      </trkpt>
      <trkpt lat="46.67169" lon="-1.88221">
        <ele>8</ele>
        <time>2018-03-08T20:20:17Z</time>
      </trkpt>
      <trkpt lat="46.67168" lon="-1.88221">
        <ele>8</ele>
        <time>2018-03-08T20:21:17Z</time>
      </trkpt>
      <trkpt lat="46.67167" lon="-1.88221">
        <ele>8</ele>
        <time>2018-03-08T20:22:17Z</time>
      </trkpt>
      <trkpt lat="46.67166" lon="-1.88222">
        <ele>8</ele>
        <time>2018-03-08T20:23:17Z</time>
      </trkpt>
      <trkpt lat="46.67165" lon="-1.88222">
        <ele>8</ele>
        <time>2018-03-08T20:24:17Z</time>
      </trkpt>
      <trkpt lat="46.67165" lon="-1.88221">
        <ele>8</ele>
        <time>2018-03-08T20:25:17Z</time>
      </trkpt>
      <trkpt lat="46.67164" lon="-1.88221">
        <ele>8</ele>
        <time>2018-03-08T20:26:17Z</time>
      </trkpt>
      <trkpt lat="46.67163" lon="-1.88221">
        <ele>8</ele>
        <time>2018-03-08T20:27:17Z</time>
      </trkpt>
      <trkpt lat="46.67162" lon="-1.88221">
        <ele>8</ele>
        <time>2018-03-08T20:28:17Z</time>
      </trkpt>
      <trkpt lat="46.67162" lon="-1.8822">
        <ele>8</ele>
        <time>2018-03-08T20:29:17Z</time>
      </trkpt>
      <trkpt lat="46.67159" lon="-1.88229">
        <ele>8</ele>
        <time>2018-03-08T20:30:17Z</time>
      </trkpt>
      <trkpt lat="46.67159" lon="-1.8823">
        <ele>8</ele>
        <time>2018-03-08T20:31:17Z</time>
      </trkpt>
      <trkpt lat="46.67158" lon="-1.88235">
        <ele>8</ele>
        <time>2018-03-08T20:32:17Z</time>
      </trkpt>
      <trkpt lat="46.67156" lon="-1.88241">
        <ele>8</ele>
        <time>2018-03-08T20:33:17Z</time>
      </trkpt>
      <trkpt lat="46.67155" lon="-1.88246">
        <ele>8</ele>
        <time>2018-03-08T20:34:17Z</time>
      </trkpt>
      <trkpt lat="46.67152" lon="-1.88256">
        <ele>8</ele>
        <time>2018-03-08T20:35:17Z</time>
      </trkpt>
      <trkpt lat="46.67149" lon="-1.88266">
        <ele>8</ele>
        <time>2018-03-08T20:36:17Z</time>
      </trkpt>
      <trkpt lat="46.67148" lon="-1.8827">
        <ele>8</ele>
        <time>2018-03-08T20:37:17Z</time>
      </trkpt>
      <trkpt lat="46.67146" lon="-1.88277">
        <ele>8</ele>
        <time>2018-03-08T20:38:17Z</time>
      </trkpt>
      <trkpt lat="46.67143" lon="-1.88289">
        <ele>9</ele>
        <time>2018-03-08T20:39:17Z</time>
      </trkpt>
      <trkpt lat="46.67142" lon="-1.88295">
        <ele>9</ele>
        <time>2018-03-08T20:40:17Z</time>
      </trkpt>
      <trkpt lat="46.67141" lon="-1.88301">
        <ele>9</ele>
        <time>2018-03-08T20:41:17Z</time>
      </trkpt>
      <trkpt lat="46.67141" lon="-1.88306">
        <ele>9</ele>
        <time>2018-03-08T20:42:17Z</time>
      </trkpt>
      <trkpt lat="46.6714" lon="-1.88317">
        <ele>9</ele>
        <time>2018-03-08T20:43:17Z</time>
      </trkpt>
      <trkpt lat="46.67139" lon="-1.88324">
        <ele>9</ele>
        <time>2018-03-08T20:44:17Z</time>
      </trkpt>
      <trkpt lat="46.67139" lon="-1.8833">
        <ele>9</ele>
        <time>2018-03-08T20:45:17Z</time>
      </trkpt>
      <trkpt lat="46.67139" lon="-1.88336">
        <ele>9</ele>
        <time>2018-03-08T20:46:17Z</time>
      </trkpt>
      <trkpt lat="46.67139" lon="-1.88342">
        <ele>9</ele>
        <time>2018-03-08T20:47:17Z</time>
      </trkpt>
      <trkpt lat="46.67139" lon="-1.88356">
        <ele>9</ele>
        <time>2018-03-08T20:48:17Z</time>
      </trkpt>
      <trkpt lat="46.67139" lon="-1.88365">
        <ele>9</ele>
        <time>2018-03-08T20:49:17Z</time>
      </trkpt>
      <trkpt lat="46.67138" lon="-1.88369">
        <ele>9</ele>
        <time>2018-03-08T20:50:17Z</time>
      </trkpt>
      <trkpt lat="46.67138" lon="-1.88377">
        <ele>10</ele>
        <time>2018-03-08T20:51:17Z</time>
      </trkpt>
      <trkpt lat="46.67136" lon="-1.88388">
        <ele>10</ele>
        <time>2018-03-08T20:52:17Z</time>
      </trkpt>
      <trkpt lat="46.67135" lon="-1.88398">
        <ele>10</ele>
        <time>2018-03-08T20:53:17Z</time>
      </trkpt>
      <trkpt lat="46.67133" lon="-1.88408">
        <ele>10</ele>
        <time>2018-03-08T20:54:17Z</time>
      </trkpt>
      <trkpt lat="46.67128" lon="-1.88428">
        <ele>10</ele>
        <time>2018-03-08T20:55:17Z</time>
      </trkpt>
      <trkpt lat="46.6712" lon="-1.88468">
        <ele>11</ele>
        <time>2018-03-08T20:56:17Z</time>
      </trkpt>
      <trkpt lat="46.67113" lon="-1.88499">
        <ele>11</ele>
        <time>2018-03-08T20:57:17Z</time>
      </trkpt>
      <trkpt lat="46.67108" lon="-1.8852">
        <ele>12</ele>
        <time>2018-03-08T20:58:17Z</time>
      </trkpt>
      <trkpt lat="46.67103" lon="-1.88538">
        <ele>12</ele>
        <time>2018-03-08T20:59:17Z</time>
      </trkpt>
      <trkpt lat="46.67092" lon="-1.88586">
        <ele>12</ele>
        <time>2018-03-08T21:00:17Z</time>
      </trkpt>
      <trkpt lat="46.67091" lon="-1.8859">
        <ele>12</ele>
        <time>2018-03-08T21:01:17Z</time>
      </trkpt>
      <trkpt lat="46.67081" lon="-1.88634">
        <ele>12</ele>
        <time>2018-03-08T21:02:17Z</time>
      </trkpt>
      <trkpt lat="46.6708" lon="-1.88641">
        <ele>12</ele>
        <time>2018-03-08T21:03:17Z</time>
      </trkpt>
      <trkpt lat="46.67063" lon="-1.88716">
        <ele>11</ele>
        <time>2018-03-08T21:04:17Z</time>
      </trkpt>
      <trkpt lat="46.67061" lon="-1.88725">
        <ele>11</ele>
        <time>2018-03-08T21:05:17Z</time>
      </trkpt>
      <trkpt lat="46.67064" lon="-1.88728">
        <ele>11</ele>
        <time>2018-03-08T21:06:17Z</time>
      </trkpt>
      <trkpt lat="46.67065" lon="-1.88731">
        <ele>11</ele>
        <time>2018-03-08T21:07:17Z</time>
      </trkpt>
      <trkpt lat="46.67065" lon="-1.88734">
        <ele>11</ele>
        <time>2018-03-08T21:08:17Z</time>
      </trkpt>
      <trkpt lat="46.67065" lon="-1.88737">
        <ele>11</ele>
        <time>2018-03-08T21:09:17Z</time>
      </trkpt>
      <trkpt lat="46.67065" lon="-1.8874">
        <ele>11</ele>
        <time>2018-03-08T21:10:17Z</time>
      </trkpt>
      <trkpt lat="46.67065" lon="-1.88742">
        <ele>11</ele>
        <time>2018-03-08T21:11:17Z</time>
      </trkpt>
      <trkpt lat="46.67064" lon="-1.88743">
        <ele>11</ele>
        <time>2018-03-08T21:12:17Z</time>
      </trkpt>
      <trkpt lat="46.67062" lon="-1.88746">
        <ele>11</ele>
        <time>2018-03-08T21:13:17Z</time>
      </trkpt>
      <trkpt lat="46.6706" lon="-1.88747">
        <ele>11</ele>
        <time>2018-03-08T21:14:17Z</time>
      </trkpt>
      <trkpt lat="46.67058" lon="-1.88748">
        <ele>11</ele>
        <time>2018-03-08T21:15:17Z</time>
      </trkpt>
      <trkpt lat="46.67056" lon="-1.88749">
        <ele>11</ele>
        <time>2018-03-08T21:16:17Z</time>
      </trkpt>
      <trkpt lat="46.67051" lon="-1.88769">
        <ele>11</ele>
        <time>2018-03-08T21:17:17Z</time>
      </trkpt>
      <trkpt lat="46.67047" lon="-1.88789">
        <ele>10</ele>
        <time>2018-03-08T21:18:17Z</time>
      </trkpt>
      <trkpt lat="46.67041" lon="-1.88816">
        <ele>10</ele>
        <time>2018-03-08T21:19:17Z</time>
      </trkpt>
      <trkpt lat="46.67039" lon="-1.88825">
        <ele>10</ele>
        <time>2018-03-08T21:20:17Z</time>
      </trkpt>
      <trkpt lat="46.67033" lon="-1.88851">
        <ele>10</ele>
        <time>2018-03-08T21:21:17Z</time>
      </trkpt>
      <trkpt lat="46.67029" lon="-1.88866">
        <ele>9</ele>
        <time>2018-03-08T21:22:17Z</time>
      </trkpt>
      <trkpt lat="46.67023" lon="-1.88898">
        <ele>8</ele>
        <time>2018-03-08T21:23:17Z</time>
      </trkpt>
      <trkpt lat="46.67016" lon="-1.88929">
        <ele>8</ele>
        <time>2018-03-08T21:24:17Z</time>
      </trkpt>
      <trkpt lat="46.67013" lon="-1.88939">
        <ele>8</ele>
        <time>2018-03-08T21:25:17Z</time>
      </trkpt>
      <trkpt lat="46.6701" lon="-1.88956">
        <ele>7</ele>
        <time>2018-03-08T21:26:17Z</time>
      </trkpt>
      <trkpt lat="46.67008" lon="-1.88964">
        <ele>7</ele>
        <time>2018-03-08T21:27:17Z</time>
      </trkpt>
      <trkpt lat="46.67003" lon="-1.88989">
        <ele>7</ele>
        <time>2018-03-08T21:28:17Z</time>
      </trkpt>
      <trkpt lat="46.67001" lon="-1.88998">
        <ele>7</ele>
        <time>2018-03-08T21:29:17Z</time>
      </trkpt>
      <trkpt lat="46.66998" lon="-1.8901">
        <ele>7</ele>
        <time>2018-03-08T21:30:17Z</time>
      </trkpt>
      <trkpt lat="46.66995" lon="-1.89024">
        <ele>8</ele>
        <time>2018-03-08T21:31:17Z</time>
      </trkpt>
      <trkpt lat="46.66993" lon="-1.89033">
        <ele>8</ele>
        <time>2018-03-08T21:32:17Z</time>
      </trkpt>
      <trkpt lat="46.66991" lon="-1.89041">
        <ele>8</ele>
        <time>2018-03-08T21:33:17Z</time>
      </trkpt>
      <trkpt lat="46.6699" lon="-1.89048">
        <ele>8</ele>
        <time>2018-03-08T21:34:17Z</time>
      </trkpt>
      <trkpt lat="46.66988" lon="-1.89056">
        <ele>8</ele>
        <time>2018-03-08T21:35:17Z</time>
      </trkpt>
      <trkpt lat="46.66985" lon="-1.89069">
        <ele>9</ele>
        <time>2018-03-08T21:36:17Z</time>
      </trkpt>
      <trkpt lat="46.66982" lon="-1.89082">
        <ele>9</ele>
        <time>2018-03-08T21:37:17Z</time>
      </trkpt>
      <trkpt lat="46.66969" lon="-1.89126">
        <ele>10</ele>
        <time>2018-03-08T21:38:17Z</time>
      </trkpt>
      <trkpt lat="46.66961" lon="-1.89149">
        <ele>10</ele>
        <time>2018-03-08T21:39:17Z</time>
      </trkpt>
      <trkpt lat="46.66954" lon="-1.89171">
        <ele>10</ele>
        <time>2018-03-08T21:40:17Z</time>
      </trkpt>
      <trkpt lat="46.66945" lon="-1.89198">
        <ele>10</ele>
        <time>2018-03-08T21:41:17Z</time>
      </trkpt>
      <trkpt lat="46.66941" lon="-1.89208">
        <ele>10</ele>
        <time>2018-03-08T21:42:17Z</time>
      </trkpt>
      <trkpt lat="46.66929" lon="-1.89245">
        <ele>11</ele>
        <time>2018-03-08T21:43:17Z</time>
      </trkpt>
      <trkpt lat="46.66926" lon="-1.89253">
        <ele>11</ele>
        <time>2018-03-08T21:44:17Z</time>
      </trkpt>
      <trkpt lat="46.66922" lon="-1.89264">
        <ele>11</ele>
        <time>2018-03-08T21:45:17Z</time>
      </trkpt>
      <trkpt lat="46.66925" lon="-1.89268">
        <ele>11</ele>
        <time>2018-03-08T21:46:17Z</time>
      </trkpt>
      <trkpt lat="46.66926" lon="-1.89272">
        <ele>11</ele>
        <time>2018-03-08T21:47:17Z</time>
      </trkpt>
      <trkpt lat="46.66926" lon="-1.89277">
        <ele>11</ele>
        <time>2018-03-08T21:48:17Z</time>
      </trkpt>
      <trkpt lat="46.66926" lon="-1.8928">
        <ele>11</ele>
        <time>2018-03-08T21:49:17Z</time>
      </trkpt>
      <trkpt lat="46.66924" lon="-1.89284">
        <ele>11</ele>
        <time>2018-03-08T21:50:17Z</time>
      </trkpt>
      <trkpt lat="46.66921" lon="-1.89287">
        <ele>11</ele>
        <time>2018-03-08T21:51:17Z</time>
      </trkpt>
      <trkpt lat="46.66919" lon="-1.89288">
        <ele>11</ele>
        <time>2018-03-08T21:52:17Z</time>
      </trkpt>
      <trkpt lat="46.66917" lon="-1.89288">
        <ele>11</ele>
        <time>2018-03-08T21:53:17Z</time>
      </trkpt>
      <trkpt lat="46.66914" lon="-1.89286">
        <ele>11</ele>
        <time>2018-03-08T21:54:17Z</time>
      </trkpt>
      <trkpt lat="46.66909" lon="-1.89305">
        <ele>11</ele>
        <time>2018-03-08T21:55:17Z</time>
      </trkpt>
      <trkpt lat="46.66906" lon="-1.89314">
        <ele>11</ele>
        <time>2018-03-08T21:56:17Z</time>
      </trkpt>
      <trkpt lat="46.66901" lon="-1.89329">
        <ele>11</ele>
        <time>2018-03-08T21:57:17Z</time>
      </trkpt>
      <trkpt lat="46.66899" lon="-1.89335">
        <ele>11</ele>
        <time>2018-03-08T21:58:17Z</time>
      </trkpt>
      <trkpt lat="46.66896" lon="-1.89347">
        <ele>11</ele>
        <time>2018-03-08T21:59:17Z</time>
      </trkpt>
      <trkpt lat="46.66892" lon="-1.89362">
        <ele>12</ele>
        <time>2018-03-08T22:00:17Z</time>
      </trkpt>
      <trkpt lat="46.66889" lon="-1.89376">
        <ele>12</ele>
        <time>2018-03-08T22:01:17Z</time>
      </trkpt>
      <trkpt lat="46.66887" lon="-1.89385">
        <ele>12</ele>
        <time>2018-03-08T22:02:17Z</time>
      </trkpt>
      <trkpt lat="46.66885" lon="-1.89403">
        <ele>12</ele>
        <time>2018-03-08T22:03:17Z</time>
      </trkpt>
      <trkpt lat="46.66884" lon="-1.89421">
        <ele>12</ele>
        <time>2018-03-08T22:04:17Z</time>
      </trkpt>
      <trkpt lat="46.66884" lon="-1.89439">
        <ele>12</ele>
        <time>2018-03-08T22:05:17Z</time>
      </trkpt>
      <trkpt lat="46.66884" lon="-1.89451">
        <ele>12</ele>
        <time>2018-03-08T22:06:17Z</time>
      </trkpt>
      <trkpt lat="46.66885" lon="-1.8946">
        <ele>12</ele>
        <time>2018-03-08T22:07:17Z</time>
      </trkpt>
      <trkpt lat="46.66885" lon="-1.89467">
        <ele>12</ele>
        <time>2018-03-08T22:08:17Z</time>
      </trkpt>
      <trkpt lat="46.66886" lon="-1.89475">
        <ele>12</ele>
        <time>2018-03-08T22:09:17Z</time>
      </trkpt>
      <trkpt lat="46.66886" lon="-1.89484">
        <ele>12</ele>
        <time>2018-03-08T22:10:17Z</time>
      </trkpt>
      <trkpt lat="46.66887" lon="-1.89492">
        <ele>12</ele>
        <time>2018-03-08T22:11:17Z</time>
      </trkpt>
      <trkpt lat="46.66888" lon="-1.89499">
        <ele>12</ele>
        <time>2018-03-08T22:12:17Z</time>
      </trkpt>
      <trkpt lat="46.6689" lon="-1.89515">
        <ele>12</ele>
        <time>2018-03-08T22:13:17Z</time>
      </trkpt>
      <trkpt lat="46.66891" lon="-1.89517">
        <ele>12</ele>
        <time>2018-03-08T22:14:17Z</time>
      </trkpt>
      <trkpt lat="46.66894" lon="-1.89545">
        <ele>12</ele>
        <time>2018-03-08T22:15:17Z</time>
      </trkpt>
      <trkpt lat="46.66896" lon="-1.89555">
        <ele>12</ele>
        <time>2018-03-08T22:16:17Z</time>
      </trkpt>
      <trkpt lat="46.66897" lon="-1.89564">
        <ele>13</ele>
        <time>2018-03-08T22:17:17Z</time>
      </trkpt>
      <trkpt lat="46.66898" lon="-1.89575">
        <ele>13</ele>
        <time>2018-03-08T22:18:17Z</time>
      </trkpt>
      <trkpt lat="46.66904" lon="-1.89615">
        <ele>12</ele>
        <time>2018-03-08T22:19:17Z</time>
      </trkpt>
      <trkpt lat="46.66911" lon="-1.89664">
        <ele>12</ele>
        <time>2018-03-08T22:20:17Z</time>
      </trkpt>
      <trkpt lat="46.66911" lon="-1.89666">
        <ele>12</ele>
        <time>2018-03-08T22:21:17Z</time>
      </trkpt>
      <trkpt lat="46.66915" lon="-1.89697">
        <ele>12</ele>
        <time>2018-03-08T22:22:17Z</time>
      </trkpt>
      <trkpt lat="46.66917" lon="-1.89712">
        <ele>11</ele>
        <time>2018-03-08T22:23:17Z</time>
      </trkpt>
      <trkpt lat="46.6692" lon="-1.89738">
        <ele>11</ele>
        <time>2018-03-08T22:24:17Z</time>
      </trkpt>
      <trkpt lat="46.66922" lon="-1.89752">
        <ele>11</ele>
        <time>2018-03-08T22:25:17Z</time>
      </trkpt>
      <trkpt lat="46.66925" lon="-1.89768">
        <ele>11</ele>
        <time>2018-03-08T22:26:17Z</time>
      </trkpt>
      <trkpt lat="46.66928" lon="-1.89795">
        <ele>11</ele>
        <time>2018-03-08T22:27:17Z</time>
      </trkpt>
      <trkpt lat="46.66928" lon="-1.89797">
        <ele>11</ele>
        <time>2018-03-08T22:28:17Z</time>
      </trkpt>
      <trkpt lat="46.66931" lon="-1.8982">
        <ele>11</ele>
        <time>2018-03-08T22:29:17Z</time>
      </trkpt>
      <trkpt lat="46.66932" lon="-1.89826">
        <ele>11</ele>
        <time>2018-03-08T22:30:17Z</time>
      </trkpt>
      <trkpt lat="46.66938" lon="-1.89867">
        <ele>11</ele>
        <time>2018-03-08T22:31:17Z</time>
      </trkpt>
      <trkpt lat="46.6694" lon="-1.89885">
        <ele>11</ele>
        <time>2018-03-08T22:32:17Z</time>
      </trkpt>
      <trkpt lat="46.66944" lon="-1.89914">
        <ele>11</ele>
        <time>2018-03-08T22:33:17Z</time>
      </trkpt>
      <trkpt lat="46.66949" lon="-1.89948">
        <ele>11</ele>
        <time>2018-03-08T22:34:17Z</time>
      </trkpt>
      <trkpt lat="46.66951" lon="-1.8996">
        <ele>10</ele>
        <time>2018-03-08T22:35:17Z</time>
      </trkpt>
      <trkpt lat="46.66955" lon="-1.89998">
        <ele>10</ele>
        <time>2018-03-08T22:36:17Z</time>
      </trkpt>
      <trkpt lat="46.6696" lon="-1.90028">
        <ele>10</ele>
        <time>2018-03-08T22:37:17Z</time>
      </trkpt>
      <trkpt lat="46.66963" lon="-1.90055">
        <ele>10</ele>
        <time>2018-03-08T22:38:17Z</time>
      </trkpt>
      <trkpt lat="46.66964" lon="-1.9006">
        <ele>10</ele>
        <time>2018-03-08T22:39:17Z</time>
      </trkpt>
      <trkpt lat="46.66968" lon="-1.90096">
        <ele>9</ele>
        <time>2018-03-08T22:40:17Z</time>
      </trkpt>
      <trkpt lat="46.66972" lon="-1.9013">
        <ele>9</ele>
        <time>2018-03-08T22:41:17Z</time>
      </trkpt>
      <trkpt lat="46.66977" lon="-1.90166">
        <ele>8</ele>
        <time>2018-03-08T22:42:17Z</time>
      </trkpt>
      <trkpt lat="46.66981" lon="-1.90197">
        <ele>8</ele>
        <time>2018-03-08T22:43:17Z</time>
      </trkpt>
      <trkpt lat="46.66985" lon="-1.90224">
        <ele>7</ele>
        <time>2018-03-08T22:44:17Z</time>
      </trkpt>
      <trkpt lat="46.6699" lon="-1.90259">
        <ele>7</ele>
        <time>2018-03-08T22:45:17Z</time>
      </trkpt>
      <trkpt lat="46.66991" lon="-1.9027">
        <ele>7</ele>
        <time>2018-03-08T22:46:17Z</time>
      </trkpt>
      <trkpt lat="46.66993" lon="-1.90283">
        <ele>6</ele>
        <time>2018-03-08T22:47:17Z</time>
      </trkpt>
      <trkpt lat="46.66994" lon="-1.90299">
        <ele>6</ele>
        <time>2018-03-08T22:48:17Z</time>
      </trkpt>
      <trkpt lat="46.66995" lon="-1.90311">
        <ele>6</ele>
        <time>2018-03-08T22:49:17Z</time>
      </trkpt>
      <trkpt lat="46.66995" lon="-1.90311">
        <ele>6</ele>
        <time>2018-03-08T22:50:17Z</time>
      </trkpt>
      <trkpt lat="46.66996" lon="-1.90311">
        <ele>6</ele>
        <time>2018-03-08T22:51:17Z</time>
      </trkpt>
      <trkpt lat="46.66996" lon="-1.90312">
        <ele>6</ele>
        <time>2018-03-08T22:52:17Z</time>
      </trkpt>
      <trkpt lat="46.66997" lon="-1.90313">
        <ele>6</ele>
        <time>2018-03-08T22:53:17Z</time>
      </trkpt>
      <trkpt lat="46.66997" lon="-1.90314">
        <ele>6</ele>
        <time>2018-03-08T22:54:17Z</time>
      </trkpt>
      <trkpt lat="46.66998" lon="-1.90315">
        <ele>6</ele>
        <time>2018-03-08T22:55:17Z</time>
      </trkpt>
      <trkpt lat="46.66998" lon="-1.90316">
        <ele>6</ele>
        <time>2018-03-08T22:56:17Z</time>
      </trkpt>
      <trkpt lat="46.66999" lon="-1.90317">
        <ele>6</ele>
        <time>2018-03-08T22:57:17Z</time>
      </trkpt>
      <trkpt lat="46.66999" lon="-1.90318">
        <ele>6</ele>
        <time>2018-03-08T22:58:17Z</time>
      </trkpt>
      <trkpt lat="46.67" lon="-1.90319">
        <ele>6</ele>
        <time>2018-03-08T22:59:17Z</time>
      </trkpt>
      <trkpt lat="46.67001" lon="-1.90321">
        <ele>6</ele>
        <time>2018-03-08T23:00:17Z</time>
      </trkpt>
      <trkpt lat="46.67001" lon="-1.90322">
        <ele>6</ele>
        <time>2018-03-08T23:01:17Z</time>
      </trkpt>
      <trkpt lat="46.67001" lon="-1.90324">
        <ele>6</ele>
        <time>2018-03-08T23:02:17Z</time>
      </trkpt>
      <trkpt lat="46.67002" lon="-1.90326">
        <ele>6</ele>
        <time>2018-03-08T23:03:17Z</time>
      </trkpt>
      <trkpt lat="46.67002" lon="-1.90328">
        <ele>6</ele>
        <time>2018-03-08T23:04:17Z</time>
      </trkpt>
      <trkpt lat="46.67002" lon="-1.9033">
        <ele>6</ele>
        <time>2018-03-08T23:05:17Z</time>
      </trkpt>
      <trkpt lat="46.67002" lon="-1.90332">
        <ele>6</ele>
        <time>2018-03-08T23:06:17Z</time>
      </trkpt>
      <trkpt lat="46.67002" lon="-1.90333">
        <ele>6</ele>
        <time>2018-03-08T23:07:17Z</time>
      </trkpt>
      <trkpt lat="46.67002" lon="-1.90335">
        <ele>6</ele>
        <time>2018-03-08T23:08:17Z</time>
      </trkpt>
      <trkpt lat="46.67001" lon="-1.90337">
        <ele>6</ele>
        <time>2018-03-08T23:09:17Z</time>
      </trkpt>
      <trkpt lat="46.67001" lon="-1.90339">
        <ele>6</ele>
        <time>2018-03-08T23:10:17Z</time>
      </trkpt>
      <trkpt lat="46.67001" lon="-1.9034">
        <ele>6</ele>
        <time>2018-03-08T23:11:17Z</time>
      </trkpt>
      <trkpt lat="46.67001" lon="-1.90341">
        <ele>6</ele>
        <time>2018-03-08T23:12:17Z</time>
      </trkpt>
      <trkpt lat="46.67" lon="-1.90342">
        <ele>6</ele>
        <time>2018-03-08T23:13:17Z</time>
      </trkpt>
      <trkpt lat="46.67" lon="-1.90343">
        <ele>6</ele>
        <time>2018-03-08T23:14:17Z</time>
      </trkpt>
      <trkpt lat="46.67" lon="-1.90344">
        <ele>6</ele>
        <time>2018-03-08T23:15:17Z</time>
      </trkpt>
      <trkpt lat="46.67" lon="-1.90345">
        <ele>6</ele>
        <time>2018-03-08T23:16:17Z</time>
      </trkpt>
      <trkpt lat="46.67" lon="-1.90351">
        <ele>6</ele>
        <time>2018-03-08T23:17:17Z</time>
      </trkpt>
      <trkpt lat="46.67001" lon="-1.90365">
        <ele>6</ele>
        <time>2018-03-08T23:18:17Z</time>
      </trkpt>
      <trkpt lat="46.67001" lon="-1.90368">
        <ele>6</ele>
        <time>2018-03-08T23:19:17Z</time>
      </trkpt>
      <trkpt lat="46.67002" lon="-1.9037">
        <ele>6</ele>
        <time>2018-03-08T23:20:17Z</time>
      </trkpt>
      <trkpt lat="46.67002" lon="-1.90373">
        <ele>6</ele>
        <time>2018-03-08T23:21:17Z</time>
      </trkpt>
      <trkpt lat="46.67003" lon="-1.90375">
        <ele>6</ele>
        <time>2018-03-08T23:22:17Z</time>
      </trkpt>
      <trkpt lat="46.67004" lon="-1.90378">
        <ele>6</ele>
        <time>2018-03-08T23:23:17Z</time>
      </trkpt>
      <trkpt lat="46.67006" lon="-1.9038">
        <ele>6</ele>
        <time>2018-03-08T23:24:17Z</time>
      </trkpt>
      <trkpt lat="46.67007" lon="-1.90383">
        <ele>5</ele>
        <time>2018-03-08T23:25:17Z</time>
      </trkpt>
      <trkpt lat="46.67009" lon="-1.90386">
        <ele>5</ele>
        <time>2018-03-08T23:26:17Z</time>
      </trkpt>
      <trkpt lat="46.67012" lon="-1.9039">
        <ele>5</ele>
        <time>2018-03-08T23:27:17Z</time>
      </trkpt>
      <trkpt lat="46.67021" lon="-1.90401">
        <ele>5</ele>
        <time>2018-03-08T23:28:17Z</time>
      </trkpt>
      <trkpt lat="46.67034" lon="-1.90417">
        <ele>5</ele>
        <time>2018-03-08T23:29:17Z</time>
      </trkpt>
      <trkpt lat="46.67059" lon="-1.90451">
        <ele>5</ele>
        <time>2018-03-08T23:30:17Z</time>
      </trkpt>
      <trkpt lat="46.671" lon="-1.90508">
        <ele>5</ele>
        <time>2018-03-08T23:31:17Z</time>
      </trkpt>
      <trkpt lat="46.67105" lon="-1.90518">
        <ele>5</ele>
        <time>2018-03-08T23:32:17Z</time>
      </trkpt>
      <trkpt lat="46.67166" lon="-1.90604">
        <ele>5</ele>
        <time>2018-03-08T23:33:17Z</time>
      </trkpt>
      <trkpt lat="46.67205" lon="-1.90658">
        <ele>4</ele>
        <time>2018-03-08T23:34:17Z</time>
      </trkpt>
      <trkpt lat="46.67226" lon="-1.90688">
        <ele>4</ele>
        <time>2018-03-08T23:35:17Z</time>
      </trkpt>
      <trkpt lat="46.67255" lon="-1.90729">
        <ele>3</ele>
        <time>2018-03-08T23:36:17Z</time>
      </trkpt>
      <trkpt lat="46.67282" lon="-1.90767">
        <ele>3</ele>
        <time>2018-03-08T23:37:17Z</time>
      </trkpt>
      <trkpt lat="46.67301" lon="-1.90794">
        <ele>2</ele>
        <time>2018-03-08T23:38:17Z</time>
      </trkpt>
      <trkpt lat="46.67313" lon="-1.9081">
        <ele>2</ele>
        <time>2018-03-08T23:39:17Z</time>
      </trkpt>
      <trkpt lat="46.6732" lon="-1.90819">
        <ele>2</ele>
        <time>2018-03-08T23:40:17Z</time>
      </trkpt>
      <trkpt lat="46.67323" lon="-1.90824">
        <ele>2</ele>
        <time>2018-03-08T23:41:17Z</time>
      </trkpt>
      <trkpt lat="46.67327" lon="-1.90829">
        <ele>2</ele>
        <time>2018-03-08T23:42:17Z</time>
      </trkpt>
      <trkpt lat="46.6733" lon="-1.90833">
        <ele>2</ele>
        <time>2018-03-08T23:43:17Z</time>
      </trkpt>
      <trkpt lat="46.67333" lon="-1.90837">
        <ele>2</ele>
        <time>2018-03-08T23:44:17Z</time>
      </trkpt>
      <trkpt lat="46.67336" lon="-1.9084">
        <ele>2</ele>
        <time>2018-03-08T23:45:17Z</time>
      </trkpt>
      <trkpt lat="46.67339" lon="-1.90844">
        <ele>2</ele>
        <time>2018-03-08T23:46:17Z</time>
      </trkpt>
      <trkpt lat="46.67347" lon="-1.90849">
        <ele>2</ele>
        <time>2018-03-08T23:47:17Z</time>
      </trkpt>
      <trkpt lat="46.67361" lon="-1.90864">
        <ele>2</ele>
        <time>2018-03-08T23:48:17Z</time>
      </trkpt>
      <trkpt lat="46.67381" lon="-1.90883">
        <ele>3</ele>
        <time>2018-03-08T23:49:17Z</time>
      </trkpt>
      <trkpt lat="46.67397" lon="-1.90898">
        <ele>3</ele>
        <time>2018-03-08T23:50:17Z</time>
      </trkpt>
      <trkpt lat="46.674" lon="-1.90901">
        <ele>3</ele>
        <time>2018-03-08T23:51:17Z</time>
      </trkpt>
      <trkpt lat="46.67404" lon="-1.90904">
        <ele>3</ele>
        <time>2018-03-08T23:52:17Z</time>
      </trkpt>
      <trkpt lat="46.67406" lon="-1.90905">
        <ele>3</ele>
        <time>2018-03-08T23:53:17Z</time>
      </trkpt>
      <trkpt lat="46.67409" lon="-1.90906">
        <ele>3</ele>
        <time>2018-03-08T23:54:17Z</time>
      </trkpt>
      <trkpt lat="46.67412" lon="-1.90907">
        <ele>3</ele>
        <time>2018-03-08T23:55:17Z</time>
      </trkpt>
      <trkpt lat="46.67414" lon="-1.90908">
        <ele>3</ele>
        <time>2018-03-08T23:56:17Z</time>
      </trkpt>
      <trkpt lat="46.67417" lon="-1.90909">
        <ele>3</ele>
        <time>2018-03-08T23:57:17Z</time>
      </trkpt>
      <trkpt lat="46.67436" lon="-1.90914">
        <ele>3</ele>
        <time>2018-03-08T23:58:17Z</time>
      </trkpt>
      <trkpt lat="46.67436" lon="-1.90914">
        <ele>3</ele>
        <time>2018-03-08T23:59:17Z</time>
      </trkpt>
      <trkpt lat="46.67438" lon="-1.90914">
        <ele>3</ele>
        <time>2018-03-09T00:00:17Z</time>
      </trkpt>
      <trkpt lat="46.6744" lon="-1.90914">
        <ele>3</ele>
        <time>2018-03-09T00:01:17Z</time>
      </trkpt>
      <trkpt lat="46.67441" lon="-1.90914">
        <ele>3</ele>
        <time>2018-03-09T00:02:17Z</time>
      </trkpt>
      <trkpt lat="46.67443" lon="-1.90915">
        <ele>3</ele>
        <time>2018-03-09T00:03:17Z</time>
      </trkpt>
      <trkpt lat="46.67445" lon="-1.90915">
        <ele>3</ele>
        <time>2018-03-09T00:04:17Z</time>
      </trkpt>
      <trkpt lat="46.67446" lon="-1.90916">
        <ele>3</ele>
        <time>2018-03-09T00:05:17Z</time>
      </trkpt>
      <trkpt lat="46.67448" lon="-1.90917">
        <ele>3</ele>
        <time>2018-03-09T00:06:17Z</time>
      </trkpt>
      <trkpt lat="46.6745" lon="-1.90918">
        <ele>3</ele>
        <time>2018-03-09T00:07:17Z</time>
      </trkpt>
      <trkpt lat="46.67451" lon="-1.9092">
        <ele>3</ele>
        <time>2018-03-09T00:08:17Z</time>
      </trkpt>
      <trkpt lat="46.67452" lon="-1.90922">
        <ele>3</ele>
        <time>2018-03-09T00:09:17Z</time>
      </trkpt>
      <trkpt lat="46.67454" lon="-1.90923">
        <ele>3</ele>
        <time>2018-03-09T00:10:17Z</time>
      </trkpt>
      <trkpt lat="46.67455" lon="-1.90925">
        <ele>4</ele>
        <time>2018-03-09T00:11:17Z</time>
      </trkpt>
      <trkpt lat="46.67456" lon="-1.90927">
        <ele>4</ele>
        <time>2018-03-09T00:12:17Z</time>
      </trkpt>
      <trkpt lat="46.67457" lon="-1.9093">
        <ele>4</ele>
        <time>2018-03-09T00:13:17Z</time>
      </trkpt>
      <trkpt lat="46.67458" lon="-1.90933">
        <ele>4</ele>
        <time>2018-03-09T00:14:17Z</time>
      </trkpt>
      <trkpt lat="46.67458" lon="-1.90936">
        <ele>4</ele>
        <time>2018-03-09T00:15:17Z</time>
      </trkpt>
      <trkpt lat="46.67459" lon="-1.90938">
        <ele>4</ele>
        <time>2018-03-09T00:16:17Z</time>
      </trkpt>
      <trkpt lat="46.67459" lon="-1.90941">
        <ele>4</ele>
        <time>2018-03-09T00:17:17Z</time>
      </trkpt>
      <trkpt lat="46.67459" lon="-1.90943">
        <ele>4</ele>
        <time>2018-03-09T00:18:17Z</time>
      </trkpt>
      <trkpt lat="46.67459" lon="-1.90946">
        <ele>4</ele>
        <time>2018-03-09T00:19:17Z</time>
      </trkpt>
      <trkpt lat="46.67459" lon="-1.90948">
        <ele>4</ele>
        <time>2018-03-09T00:20:17Z</time>
      </trkpt>
      <trkpt lat="46.67458" lon="-1.9095">
        <ele>4</ele>
        <time>2018-03-09T00:21:17Z</time>
      </trkpt>
      <trkpt lat="46.67458" lon="-1.90953">
        <ele>4</ele>
        <time>2018-03-09T00:22:17Z</time>
      </trkpt>
      <trkpt lat="46.67457" lon="-1.90955">
        <ele>4</ele>
        <time>2018-03-09T00:23:17Z</time>
      </trkpt>
      <trkpt lat="46.67456" lon="-1.90957">
        <ele>4</ele>
        <time>2018-03-09T00:24:17Z</time>
      </trkpt>
      <trkpt lat="46.67455" lon="-1.9096">
        <ele>4</ele>
        <time>2018-03-09T00:25:17Z</time>
      </trkpt>
      <trkpt lat="46.67455" lon="-1.90961">
        <ele>4</ele>
        <time>2018-03-09T00:26:17Z</time>
      </trkpt>
      <trkpt lat="46.67454" lon="-1.90962">
        <ele>4</ele>
        <time>2018-03-09T00:27:17Z</time>
      </trkpt>
      <trkpt lat="46.67453" lon="-1.90963">
        <ele>4</ele>
        <time>2018-03-09T00:28:17Z</time>
      </trkpt>
      <trkpt lat="46.67453" lon="-1.90964">
        <ele>4</ele>
        <time>2018-03-09T00:29:17Z</time>
      </trkpt>
      <trkpt lat="46.67452" lon="-1.90965">
        <ele>4</ele>
        <time>2018-03-09T00:30:17Z</time>
      </trkpt>
      <trkpt lat="46.67451" lon="-1.90965">
        <ele>4</ele>
        <time>2018-03-09T00:31:17Z</time>
      </trkpt>
      <trkpt lat="46.67451" lon="-1.90966">
        <ele>4</ele>
        <time>2018-03-09T00:32:17Z</time>
      </trkpt>
      <trkpt lat="46.6745" lon="-1.90967">
        <ele>4</ele>
        <time>2018-03-09T00:33:17Z</time>
      </trkpt>
      <trkpt lat="46.6745" lon="-1.90984">
        <ele>4</ele>
        <time>2018-03-09T00:34:17Z</time>
      </trkpt>
      <trkpt lat="46.67451" lon="-1.90994">
        <ele>4</ele>
        <time>2018-03-09T00:35:17Z</time>
      </trkpt>
      <trkpt lat="46.67454" lon="-1.91004">
        <ele>4</ele>
        <time>2018-03-09T00:36:17Z</time>
      </trkpt>
      <trkpt lat="46.67456" lon="-1.9101">
        <ele>4</ele>
        <time>2018-03-09T00:37:17Z</time>
      </trkpt>
      <trkpt lat="46.67469" lon="-1.9103">
        <ele>4</ele>
        <time>2018-03-09T00:38:17Z</time>
      </trkpt>
      <trkpt lat="46.6749" lon="-1.9106">
        <ele>5</ele>
        <time>2018-03-09T00:39:17Z</time>
      </trkpt>
      <trkpt lat="46.67518" lon="-1.91097">
        <ele>5</ele>
        <time>2018-03-09T00:40:17Z</time>
      </trkpt>
      <trkpt lat="46.67546" lon="-1.91137">
        <ele>5</ele>
        <time>2018-03-09T00:41:17Z</time>
      </trkpt>
      <trkpt lat="46.67578" lon="-1.91181">
        <ele>6</ele>
        <time>2018-03-09T00:42:17Z</time>
      </trkpt>
      <trkpt lat="46.67587" lon="-1.91194">
        <ele>6</ele>
        <time>2018-03-09T00:43:17Z</time>
      </trkpt>
      <trkpt lat="46.67612" lon="-1.91228">
        <ele>5</ele>
        <time>2018-03-09T00:44:17Z</time>
      </trkpt>
      <trkpt lat="46.67634" lon="-1.91261">
        <ele>5</ele>
        <time>2018-03-09T00:45:17Z</time>
      </trkpt>
      <trkpt lat="46.67662" lon="-1.91298">
        <ele>5</ele>
        <time>2018-03-09T00:46:17Z</time>
      </trkpt>
      <trkpt lat="46.67704" lon="-1.91358">
        <ele>5</ele>
        <time>2018-03-09T00:47:17Z</time>
      </trkpt>
      <trkpt lat="46.67743" lon="-1.91414">
        <ele>6</ele>
        <time>2018-03-09T00:48:17Z</time>
      </trkpt>
      <trkpt lat="46.67747" lon="-1.9142">
        <ele>6</ele>
        <time>2018-03-09T00:49:17Z</time>
      </trkpt>
      <trkpt lat="46.67783" lon="-1.91471">
        <ele>6</ele>
        <time>2018-03-09T00:50:17Z</time>
      </trkpt>
      <trkpt lat="46.67831" lon="-1.91538">
        <ele>6</ele>
        <time>2018-03-09T00:51:17Z</time>
      </trkpt>
      <trkpt lat="46.6784" lon="-1.91552">
        <ele>6</ele>
        <time>2018-03-09T00:52:17Z</time>
      </trkpt>
      <trkpt lat="46.67864" lon="-1.91583">
        <ele>6</ele>
        <time>2018-03-09T00:53:17Z</time>
      </trkpt>
      <trkpt lat="46.67883" lon="-1.91611">
        <ele>6</ele>
        <time>2018-03-09T00:54:17Z</time>
      </trkpt>
      <trkpt lat="46.67898" lon="-1.91633">
        <ele>7</ele>
        <time>2018-03-09T00:55:17Z</time>
      </trkpt>
      <trkpt lat="46.67928" lon="-1.91675">
        <ele>7</ele>
        <time>2018-03-09T00:56:17Z</time>
      </trkpt>
      <trkpt lat="46.67947" lon="-1.91703">
        <ele>7</ele>
        <time>2018-03-09T00:57:17Z</time>
      </trkpt>
      <trkpt lat="46.67972" lon="-1.91737">
        <ele>7</ele>
        <time>2018-03-09T00:58:17Z</time>
      </trkpt>
      <trkpt lat="46.68" lon="-1.91776">
        <ele>8</ele>
        <time>2018-03-09T00:59:17Z</time>
      </trkpt>
      <trkpt lat="46.68022" lon="-1.91808">
        <ele>8</ele>
        <time>2018-03-09T01:00:17Z</time>
      </trkpt>
      <trkpt lat="46.68033" lon="-1.91825">
        <ele>8</ele>
        <time>2018-03-09T01:01:17Z</time>
      </trkpt>
      <trkpt lat="46.68041" lon="-1.91836">
        <ele>8</ele>
        <time>2018-03-09T01:02:17Z</time>
      </trkpt>
      <trkpt lat="46.68057" lon="-1.91858">
        <ele>8</ele>
        <time>2018-03-09T01:03:17Z</time>
      </trkpt>
      <trkpt lat="46.68083" lon="-1.91897">
        <ele>8</ele>
        <time>2018-03-09T01:04:17Z</time>
      </trkpt>
      <trkpt lat="46.68115" lon="-1.91941">
        <ele>8</ele>
        <time>2018-03-09T01:05:17Z</time>
      </trkpt>
      <trkpt lat="46.68158" lon="-1.92003">
        <ele>8</ele>
        <time>2018-03-09T01:06:17Z</time>
      </trkpt>
      <trkpt lat="46.68174" lon="-1.92025">
        <ele>8</ele>
        <time>2018-03-09T01:07:17Z</time>
      </trkpt>
      <trkpt lat="46.68198" lon="-1.92057">
        <ele>7</ele>
        <time>2018-03-09T01:08:17Z</time>
      </trkpt>
      <trkpt lat="46.68208" lon="-1.92073">
        <ele>7</ele>
        <time>2018-03-09T01:09:17Z</time>
      </trkpt>
      <trkpt lat="46.6822" lon="-1.92091">
        <ele>7</ele>
        <time>2018-03-09T01:10:17Z</time>
      </trkpt>
      <trkpt lat="46.68224" lon="-1.92097">
        <ele>7</ele>
        <time>2018-03-09T01:11:17Z</time>
      </trkpt>
      <trkpt lat="46.68224" lon="-1.92098">
        <ele>7</ele>
        <time>2018-03-09T01:12:17Z</time>
      </trkpt>
      <trkpt lat="46.68227" lon="-1.92103">
        <ele>7</ele>
        <time>2018-03-09T01:13:17Z</time>
      </trkpt>
      <trkpt lat="46.6823" lon="-1.92107">
        <ele>7</ele>
        <time>2018-03-09T01:14:17Z</time>
      </trkpt>
      <trkpt lat="46.68255" lon="-1.9214">
        <ele>7</ele>
        <time>2018-03-09T01:15:17Z</time>
      </trkpt>
      <trkpt lat="46.68267" lon="-1.92157">
        <ele>7</ele>
        <time>2018-03-09T01:16:17Z</time>
      </trkpt>
      <trkpt lat="46.68277" lon="-1.92172">
        <ele>8</ele>
        <time>2018-03-09T01:17:17Z</time>
      </trkpt>
      <trkpt lat="46.68286" lon="-1.92186">
        <ele>8</ele>
        <time>2018-03-09T01:18:17Z</time>
      </trkpt>
      <trkpt lat="46.68291" lon="-1.92193">
        <ele>8</ele>
        <time>2018-03-09T01:19:17Z</time>
      </trkpt>
      <trkpt lat="46.68306" lon="-1.92219">
        <ele>9</ele>
        <time>2018-03-09T01:20:17Z</time>
      </trkpt>
      <trkpt lat="46.6832" lon="-1.92245">
        <ele>9</ele>
        <time>2018-03-09T01:21:17Z</time>
      </trkpt>
      <trkpt lat="46.6833" lon="-1.92261">
        <ele>9</ele>
        <time>2018-03-09T01:22:17Z</time>
      </trkpt>
      <trkpt lat="46.68355" lon="-1.92305">
        <ele>10</ele>
        <time>2018-03-09T01:23:17Z</time>
      </trkpt>
      <trkpt lat="46.6837" lon="-1.92334">
        <ele>10</ele>
        <time>2018-03-09T01:24:17Z</time>
      </trkpt>
      <trkpt lat="46.68377" lon="-1.92346">
        <ele>10</ele>
        <time>2018-03-09T01:25:17Z</time>
      </trkpt>
      <trkpt lat="46.6838" lon="-1.92351">
        <ele>10</ele>
        <time>2018-03-09T01:26:17Z</time>
      </trkpt>
      <trkpt lat="46.68389" lon="-1.92363">
        <ele>10</ele>
        <time>2018-03-09T01:27:17Z</time>
      </trkpt>
      <trkpt lat="46.68403" lon="-1.9238">
        <ele>10</ele>
        <time>2018-03-09T01:28:17Z</time>
      </trkpt>
      <trkpt lat="46.68413" lon="-1.92388">
        <ele>10</ele>
        <time>2018-03-09T01:29:17Z</time>
      </trkpt>
      <trkpt lat="46.68426" lon="-1.92396">
        <ele>10</ele>
        <time>2018-03-09T01:30:17Z</time>
      </trkpt>
      <trkpt lat="46.68435" lon="-1.924">
        <ele>10</ele>
        <time>2018-03-09T01:31:17Z</time>
      </trkpt>
      <trkpt lat="46.68447" lon="-1.92403">
        <ele>10</ele>
        <time>2018-03-09T01:32:17Z</time>
      </trkpt>
      <trkpt lat="46.68454" lon="-1.92404">
        <ele>10</ele>
        <time>2018-03-09T01:33:17Z</time>
      </trkpt>
      <trkpt lat="46.68463" lon="-1.92406">
        <ele>10</ele>
        <time>2018-03-09T01:34:17Z</time>
      </trkpt>
      <trkpt lat="46.68472" lon="-1.92408">
        <ele>10</ele>
        <time>2018-03-09T01:35:17Z</time>
      </trkpt>
      <trkpt lat="46.68481" lon="-1.92411">
        <ele>10</ele>
        <time>2018-03-09T01:36:17Z</time>
      </trkpt>
      <trkpt lat="46.68487" lon="-1.92415">
        <ele>10</ele>
        <time>2018-03-09T01:37:17Z</time>
      </trkpt>
      <trkpt lat="46.68495" lon="-1.9242">
        <ele>10</ele>
        <time>2018-03-09T01:38:17Z</time>
      </trkpt>
      <trkpt lat="46.68505" lon="-1.92428">
        <ele>10</ele>
        <time>2018-03-09T01:39:17Z</time>
      </trkpt>
      <trkpt lat="46.68514" lon="-1.92436">
        <ele>10</ele>
        <time>2018-03-09T01:40:17Z</time>
      </trkpt>
      <trkpt lat="46.68528" lon="-1.9245">
        <ele>10</ele>
        <time>2018-03-09T01:41:17Z</time>
      </trkpt>
      <trkpt lat="46.68532" lon="-1.92456">
        <ele>10</ele>
        <time>2018-03-09T01:42:17Z</time>
      </trkpt>
      <trkpt lat="46.68538" lon="-1.92464">
        <ele>10</ele>
        <time>2018-03-09T01:43:17Z</time>
      </trkpt>
      <trkpt lat="46.68549" lon="-1.92476">
        <ele>10</ele>
        <time>2018-03-09T01:44:17Z</time>
      </trkpt>
      <trkpt lat="46.68567" lon="-1.925">
        <ele>10</ele>
        <time>2018-03-09T01:45:17Z</time>
      </trkpt>
      <trkpt lat="46.68589" lon="-1.92528">
        <ele>10</ele>
        <time>2018-03-09T01:46:17Z</time>
      </trkpt>
      <trkpt lat="46.68594" lon="-1.92534">
        <ele>10</ele>
        <time>2018-03-09T01:47:17Z</time>
      </trkpt>
      <trkpt lat="46.68605" lon="-1.92548">
        <ele>10</ele>
        <time>2018-03-09T01:48:17Z</time>
      </trkpt>
      <trkpt lat="46.68616" lon="-1.92563">
        <ele>10</ele>
        <time>2018-03-09T01:49:17Z</time>
      </trkpt>
      <trkpt lat="46.68625" lon="-1.92575">
        <ele>10</ele>
        <time>2018-03-09T01:50:17Z</time>
      </trkpt>
      <trkpt lat="46.68629" lon="-1.9258">
        <ele>10</ele>
        <time>2018-03-09T01:51:17Z</time>
      </trkpt>
      <trkpt lat="46.68634" lon="-1.92586">
        <ele>10</ele>
        <time>2018-03-09T01:52:17Z</time>
      </trkpt>
      <trkpt lat="46.68635" lon="-1.92588">
        <ele>10</ele>
        <time>2018-03-09T01:53:17Z</time>
      </trkpt>
      <trkpt lat="46.68644" lon="-1.92596">
        <ele>10</ele>
        <time>2018-03-09T01:54:17Z</time>
      </trkpt>
      <trkpt lat="46.68651" lon="-1.92602">
        <ele>10</ele>
        <time>2018-03-09T01:55:17Z</time>
      </trkpt>
      <trkpt lat="46.68669" lon="-1.92615">
        <ele>10</ele>
        <time>2018-03-09T01:56:17Z</time>
      </trkpt>
      <trkpt lat="46.68707" lon="-1.92638">
        <ele>9</ele>
        <time>2018-03-09T01:57:17Z</time>
      </trkpt>
      <trkpt lat="46.68732" lon="-1.92654">
        <ele>8</ele>
        <time>2018-03-09T01:58:17Z</time>
      </trkpt>
      <trkpt lat="46.68733" lon="-1.92654">
        <ele>8</ele>
        <time>2018-03-09T01:59:17Z</time>
      </trkpt>
      <trkpt lat="46.68759" lon="-1.92668">
        <ele>8</ele>
        <time>2018-03-09T02:00:17Z</time>
      </trkpt>
      <trkpt lat="46.6876" lon="-1.92669">
        <ele>8</ele>
        <time>2018-03-09T02:01:17Z</time>
      </trkpt>
      <trkpt lat="46.68776" lon="-1.92676">
        <ele>8</ele>
        <time>2018-03-09T02:02:17Z</time>
      </trkpt>
      <trkpt lat="46.68787" lon="-1.9268">
        <ele>8</ele>
        <time>2018-03-09T02:03:17Z</time>
      </trkpt>
      <trkpt lat="46.68804" lon="-1.92685">
        <ele>7</ele>
        <time>2018-03-09T02:04:17Z</time>
      </trkpt>
      <trkpt lat="46.68817" lon="-1.9269">
        <ele>7</ele>
        <time>2018-03-09T02:05:17Z</time>
      </trkpt>
      <trkpt lat="46.68817" lon="-1.92689">
        <ele>7</ele>
        <time>2018-03-09T02:06:17Z</time>
      </trkpt>
      <trkpt lat="46.68818" lon="-1.92689">
        <ele>7</ele>
        <time>2018-03-09T02:07:17Z</time>
      </trkpt>
      <trkpt lat="46.68818" lon="-1.92688">
        <ele>7</ele>
        <time>2018-03-09T02:08:17Z</time>
      </trkpt>
      <trkpt lat="46.68818" lon="-1.92687">
        <ele>7</ele>
        <time>2018-03-09T02:09:17Z</time>
      </trkpt>
      <trkpt lat="46.68819" lon="-1.92687">
        <ele>7</ele>
        <time>2018-03-09T02:10:17Z</time>
      </trkpt>
      <trkpt lat="46.68819" lon="-1.92686">
        <ele>7</ele>
        <time>2018-03-09T02:11:17Z</time>
      </trkpt>
      <trkpt lat="46.6882" lon="-1.92686">
        <ele>7</ele>
        <time>2018-03-09T02:12:17Z</time>
      </trkpt>
      <trkpt lat="46.6882" lon="-1.92685">
        <ele>7</ele>
        <time>2018-03-09T02:13:17Z</time>
      </trkpt>
      <trkpt lat="46.68821" lon="-1.92685">
        <ele>7</ele>
        <time>2018-03-09T02:14:17Z</time>
      </trkpt>
      <trkpt lat="46.68822" lon="-1.92685">
        <ele>7</ele>
        <time>2018-03-09T02:15:17Z</time>
      </trkpt>
      <trkpt lat="46.68823" lon="-1.92685">
        <ele>7</ele>
        <time>2018-03-09T02:16:17Z</time>
      </trkpt>
      <trkpt lat="46.68824" lon="-1.92685">
        <ele>7</ele>
        <time>2018-03-09T02:17:17Z</time>
      </trkpt>
      <trkpt lat="46.68825" lon="-1.92685">
        <ele>7</ele>
        <time>2018-03-09T02:18:17Z</time>
      </trkpt>
      <trkpt lat="46.68826" lon="-1.92686">
        <ele>7</ele>
        <time>2018-03-09T02:19:17Z</time>
      </trkpt>
      <trkpt lat="46.68827" lon="-1.92686">
        <ele>7</ele>
        <time>2018-03-09T02:20:17Z</time>
      </trkpt>
      <trkpt lat="46.68827" lon="-1.92687">
        <ele>7</ele>
        <time>2018-03-09T02:21:17Z</time>
      </trkpt>
      <trkpt lat="46.68827" lon="-1.92688">
        <ele>7</ele>
        <time>2018-03-09T02:22:17Z</time>
      </trkpt>
      <trkpt lat="46.68828" lon="-1.92688">
        <ele>7</ele>
        <time>2018-03-09T02:23:17Z</time>
      </trkpt>
      <trkpt lat="46.68841" lon="-1.92685">
        <ele>7</ele>
        <time>2018-03-09T02:24:17Z</time>
      </trkpt>
      <trkpt lat="46.68841" lon="-1.92685">
        <ele>7</ele>
        <time>2018-03-09T02:25:17Z</time>
      </trkpt>
      <trkpt lat="46.68841" lon="-1.92684">
        <ele>7</ele>
        <time>2018-03-09T02:26:17Z</time>
      </trkpt>
      <trkpt lat="46.68842" lon="-1.92684">
        <ele>7</ele>
        <time>2018-03-09T02:27:17Z</time>
      </trkpt>
      <trkpt lat="46.68842" lon="-1.92683">
        <ele>7</ele>
        <time>2018-03-09T02:28:17Z</time>
      </trkpt>
      <trkpt lat="46.68843" lon="-1.92682">
        <ele>7</ele>
        <time>2018-03-09T02:29:17Z</time>
      </trkpt>
      <trkpt lat="46.68844" lon="-1.92682">
        <ele>7</ele>
        <time>2018-03-09T02:30:17Z</time>
      </trkpt>
      <trkpt lat="46.68844" lon="-1.92681">
        <ele>7</ele>
        <time>2018-03-09T02:31:17Z</time>
      </trkpt>
      <trkpt lat="46.68845" lon="-1.92681">
        <ele>6</ele>
        <time>2018-03-09T02:32:17Z</time>
      </trkpt>
      <trkpt lat="46.68846" lon="-1.92681">
        <ele>6</ele>
        <time>2018-03-09T02:33:17Z</time>
      </trkpt>
      <trkpt lat="46.68847" lon="-1.92681">
        <ele>6</ele>
        <time>2018-03-09T02:34:17Z</time>
      </trkpt>
      <trkpt lat="46.68848" lon="-1.92681">
        <ele>6</ele>
        <time>2018-03-09T02:35:17Z</time>
      </trkpt>
      <trkpt lat="46.68849" lon="-1.92681">
        <ele>6</ele>
        <time>2018-03-09T02:36:17Z</time>
      </trkpt>
      <trkpt lat="46.68849" lon="-1.92682">
        <ele>6</ele>
        <time>2018-03-09T02:37:17Z</time>
      </trkpt>
      <trkpt lat="46.6885" lon="-1.92682">
        <ele>6</ele>
        <time>2018-03-09T02:38:17Z</time>
      </trkpt>
      <trkpt lat="46.6885" lon="-1.92683">
        <ele>6</ele>
        <time>2018-03-09T02:39:17Z</time>
      </trkpt>
      <trkpt lat="46.68851" lon="-1.92683">
        <ele>6</ele>
        <time>2018-03-09T02:40:17Z</time>
      </trkpt>
      <trkpt lat="46.68851" lon="-1.92684">
        <ele>6</ele>
        <time>2018-03-09T02:41:17Z</time>
      </trkpt>
      <trkpt lat="46.68852" lon="-1.92684">
        <ele>6</ele>
        <time>2018-03-09T02:42:17Z</time>
      </trkpt>
      <trkpt lat="46.68852" lon="-1.92685">
        <ele>6</ele>
        <time>2018-03-09T02:43:17Z</time>
      </trkpt>
      <trkpt lat="46.68852" lon="-1.92686">
        <ele>6</ele>
        <time>2018-03-09T02:44:17Z</time>
      </trkpt>
      <trkpt lat="46.68853" lon="-1.92687">
        <ele>6</ele>
        <time>2018-03-09T02:45:17Z</time>
      </trkpt>
      <trkpt lat="46.68853" lon="-1.92688">
        <ele>6</ele>
        <time>2018-03-09T02:46:17Z</time>
      </trkpt>
      <trkpt lat="46.68853" lon="-1.92689">
        <ele>6</ele>
        <time>2018-03-09T02:47:17Z</time>
      </trkpt>
      <trkpt lat="46.68853" lon="-1.9269">
        <ele>6</ele>
        <time>2018-03-09T02:48:17Z</time>
      </trkpt>
      <trkpt lat="46.68853" lon="-1.92691">
        <ele>6</ele>
        <time>2018-03-09T02:49:17Z</time>
      </trkpt>
      <trkpt lat="46.68853" lon="-1.92692">
        <ele>6</ele>
        <time>2018-03-09T02:50:17Z</time>
      </trkpt>
      <trkpt lat="46.68853" lon="-1.92693">
        <ele>6</ele>
        <time>2018-03-09T02:51:17Z</time>
      </trkpt>
      <trkpt lat="46.68853" lon="-1.92694">
        <ele>6</ele>
        <time>2018-03-09T02:52:17Z</time>
      </trkpt>
      <trkpt lat="46.68853" lon="-1.92695">
        <ele>6</ele>
        <time>2018-03-09T02:53:17Z</time>
      </trkpt>
      <trkpt lat="46.68852" lon="-1.92695">
        <ele>6</ele>
        <time>2018-03-09T02:54:17Z</time>
      </trkpt>
      <trkpt lat="46.68852" lon="-1.92696">
        <ele>6</ele>
        <time>2018-03-09T02:55:17Z</time>
      </trkpt>
      <trkpt lat="46.68852" lon="-1.92697">
        <ele>6</ele>
        <time>2018-03-09T02:56:17Z</time>
      </trkpt>
      <trkpt lat="46.68851" lon="-1.92697">
        <ele>6</ele>
        <time>2018-03-09T02:57:17Z</time>
      </trkpt>
      <trkpt lat="46.68851" lon="-1.92698">
        <ele>6</ele>
        <time>2018-03-09T02:58:17Z</time>
      </trkpt>
      <trkpt lat="46.68859" lon="-1.92704">
        <ele>6</ele>
        <time>2018-03-09T02:59:17Z</time>
      </trkpt>
      <trkpt lat="46.6886" lon="-1.92704">
        <ele>6</ele>
        <time>2018-03-09T03:00:17Z</time>
      </trkpt>
      <trkpt lat="46.68869" lon="-1.92706">
        <ele>5</ele>
        <time>2018-03-09T03:01:17Z</time>
      </trkpt>
      <trkpt lat="46.68881" lon="-1.92711">
        <ele>5</ele>
        <time>2018-03-09T03:02:17Z</time>
      </trkpt>
      <trkpt lat="46.68897" lon="-1.92716">
        <ele>4</ele>
        <time>2018-03-09T03:03:17Z</time>
      </trkpt>
      <trkpt lat="46.68913" lon="-1.92723">
        <ele>4</ele>
        <time>2018-03-09T03:04:17Z</time>
      </trkpt>
      <trkpt lat="46.68926" lon="-1.9273">
        <ele>4</ele>
        <time>2018-03-09T03:05:17Z</time>
      </trkpt>
      <trkpt lat="46.68936" lon="-1.92737">
        <ele>4</ele>
        <time>2018-03-09T03:06:17Z</time>
      </trkpt>
      <trkpt lat="46.68947" lon="-1.92747">
        <ele>4</ele>
        <time>2018-03-09T03:07:17Z</time>
      </trkpt>
      <trkpt lat="46.68955" lon="-1.92755">
        <ele>4</ele>
        <time>2018-03-09T03:08:17Z</time>
      </trkpt>
      <trkpt lat="46.68965" lon="-1.92769">
        <ele>4</ele>
        <time>2018-03-09T03:09:17Z</time>
      </trkpt>
      <trkpt lat="46.68969" lon="-1.92774">
        <ele>4</ele>
        <time>2018-03-09T03:10:17Z</time>
      </trkpt>
      <trkpt lat="46.68977" lon="-1.92784">
        <ele>4</ele>
        <time>2018-03-09T03:11:17Z</time>
      </trkpt>
      <trkpt lat="46.68992" lon="-1.92805">
        <ele>4</ele>
        <time>2018-03-09T03:12:17Z</time>
      </trkpt>
      <trkpt lat="46.68993" lon="-1.92806">
        <ele>4</ele>
        <time>2018-03-09T03:13:17Z</time>
      </trkpt>
      <trkpt lat="46.69014" lon="-1.92836">
        <ele>4</ele>
        <time>2018-03-09T03:14:17Z</time>
      </trkpt>
      <trkpt lat="46.69038" lon="-1.92867">
        <ele>4</ele>
        <time>2018-03-09T03:15:17Z</time>
      </trkpt>
      <trkpt lat="46.69055" lon="-1.9289">
        <ele>4</ele>
        <time>2018-03-09T03:16:17Z</time>
      </trkpt>
      <trkpt lat="46.69068" lon="-1.92907">
        <ele>4</ele>
        <time>2018-03-09T03:17:17Z</time>
      </trkpt>
      <trkpt lat="46.69095" lon="-1.92938">
        <ele>4</ele>
        <time>2018-03-09T03:18:17Z</time>
      </trkpt>
      <trkpt lat="46.69107" lon="-1.92948">
        <ele>4</ele>
        <time>2018-03-09T03:19:17Z</time>
      </trkpt>
      <trkpt lat="46.69133" lon="-1.92971">
        <ele>4</ele>
        <time>2018-03-09T03:20:17Z</time>
      </trkpt>
      <trkpt lat="46.69154" lon="-1.92991">
        <ele>4</ele>
        <time>2018-03-09T03:21:17Z</time>
      </trkpt>
      <trkpt lat="46.6917" lon="-1.93005">
        <ele>4</ele>
        <time>2018-03-09T03:22:17Z</time>
      </trkpt>
      <trkpt lat="46.69175" lon="-1.93009">
        <ele>4</ele>
        <time>2018-03-09T03:23:17Z</time>
      </trkpt>
      <trkpt lat="46.69194" lon="-1.93026">
        <ele>5</ele>
        <time>2018-03-09T03:24:17Z</time>
      </trkpt>
      <trkpt lat="46.69217" lon="-1.93046">
        <ele>5</ele>
        <time>2018-03-09T03:25:17Z</time>
      </trkpt>
      <trkpt lat="46.69224" lon="-1.93053">
        <ele>5</ele>
        <time>2018-03-09T03:26:17Z</time>
      </trkpt>
      <trkpt lat="46.69245" lon="-1.93071">
        <ele>5</ele>
        <time>2018-03-09T03:27:17Z</time>
      </trkpt>
      <trkpt lat="46.69255" lon="-1.9308">
        <ele>5</ele>
        <time>2018-03-09T03:28:17Z</time>
      </trkpt>
      <trkpt lat="46.69269" lon="-1.93094">
        <ele>5</ele>
        <time>2018-03-09T03:29:17Z</time>
      </trkpt>
      <trkpt lat="46.69287" lon="-1.9311">
        <ele>5</ele>
        <time>2018-03-09T03:30:17Z</time>
      </trkpt>
      <trkpt lat="46.69303" lon="-1.93127">
        <ele>5</ele>
        <time>2018-03-09T03:31:17Z</time>
      </trkpt>
      <trkpt lat="46.69314" lon="-1.93136">
        <ele>5</ele>
        <time>2018-03-09T03:32:17Z</time>
      </trkpt>
      <trkpt lat="46.69324" lon="-1.93151">
        <ele>5</ele>
        <time>2018-03-09T03:33:17Z</time>
      </trkpt>
      <trkpt lat="46.69333" lon="-1.93166">
        <ele>5</ele>
        <time>2018-03-09T03:34:17Z</time>
      </trkpt>
      <trkpt lat="46.69341" lon="-1.93186">
        <ele>5</ele>
        <time>2018-03-09T03:35:17Z</time>
      </trkpt>
      <trkpt lat="46.69348" lon="-1.93201">
        <ele>5</ele>
        <time>2018-03-09T03:36:17Z</time>
      </trkpt>
      <trkpt lat="46.69351" lon="-1.93212">
        <ele>5</ele>
        <time>2018-03-09T03:37:17Z</time>
      </trkpt>
      <trkpt lat="46.69355" lon="-1.93224">
        <ele>4</ele>
        <time>2018-03-09T03:38:17Z</time>
      </trkpt>
      <trkpt lat="46.6936" lon="-1.93244">
        <ele>4</ele>
        <time>2018-03-09T03:39:17Z</time>
      </trkpt>
      <trkpt lat="46.69365" lon="-1.93261">
        <ele>4</ele>
        <time>2018-03-09T03:40:17Z</time>
      </trkpt>
      <trkpt lat="46.69368" lon="-1.93273">
        <ele>4</ele>
        <time>2018-03-09T03:41:17Z</time>
      </trkpt>
      <trkpt lat="46.69372" lon="-1.93291">
        <ele>4</ele>
        <time>2018-03-09T03:42:17Z</time>
      </trkpt>
      <trkpt lat="46.69374" lon="-1.93299">
        <ele>4</ele>
        <time>2018-03-09T03:43:17Z</time>
      </trkpt>
      <trkpt lat="46.69376" lon="-1.93304">
        <ele>4</ele>
        <time>2018-03-09T03:44:17Z</time>
      </trkpt>
      <trkpt lat="46.69378" lon="-1.93307">
        <ele>4</ele>
        <time>2018-03-09T03:45:17Z</time>
      </trkpt>
      <trkpt lat="46.69379" lon="-1.93309">
        <ele>4</ele>
        <time>2018-03-09T03:46:17Z</time>
      </trkpt>
      <trkpt lat="46.69384" lon="-1.93312">
        <ele>4</ele>
        <time>2018-03-09T03:47:17Z</time>
      </trkpt>
      <trkpt lat="46.69385" lon="-1.93312">
        <ele>4</ele>
        <time>2018-03-09T03:48:17Z</time>
      </trkpt>
      <trkpt lat="46.69386" lon="-1.93311">
        <ele>4</ele>
        <time>2018-03-09T03:49:17Z</time>
      </trkpt>
      <trkpt lat="46.69387" lon="-1.93311">
        <ele>4</ele>
        <time>2018-03-09T03:50:17Z</time>
      </trkpt>
      <trkpt lat="46.69388" lon="-1.93311">
        <ele>4</ele>
        <time>2018-03-09T03:51:17Z</time>
      </trkpt>
      <trkpt lat="46.69389" lon="-1.93311">
        <ele>4</ele>
        <time>2018-03-09T03:52:17Z</time>
      </trkpt>
      <trkpt lat="46.69389" lon="-1.93312">
        <ele>4</ele>
        <time>2018-03-09T03:53:17Z</time>
      </trkpt>
      <trkpt lat="46.6939" lon="-1.93312">
        <ele>4</ele>
        <time>2018-03-09T03:54:17Z</time>
      </trkpt>
      <trkpt lat="46.69391" lon="-1.93312">
        <ele>4</ele>
        <time>2018-03-09T03:55:17Z</time>
      </trkpt>
      <trkpt lat="46.69391" lon="-1.93313">
        <ele>4</ele>
        <time>2018-03-09T03:56:17Z</time>
      </trkpt>
      <trkpt lat="46.69392" lon="-1.93313">
        <ele>4</ele>
        <time>2018-03-09T03:57:17Z</time>
      </trkpt>
      <trkpt lat="46.69393" lon="-1.93314">
        <ele>4</ele>
        <time>2018-03-09T03:58:17Z</time>
      </trkpt>
      <trkpt lat="46.69393" lon="-1.93315">
        <ele>4</ele>
        <time>2018-03-09T03:59:17Z</time>
      </trkpt>
      <trkpt lat="46.69394" lon="-1.93315">
        <ele>4</ele>
        <time>2018-03-09T04:00:17Z</time>
      </trkpt>
      <trkpt lat="46.69394" lon="-1.93316">
        <ele>4</ele>
        <time>2018-03-09T04:01:17Z</time>
      </trkpt>
      <trkpt lat="46.69395" lon="-1.93317">
        <ele>4</ele>
        <time>2018-03-09T04:02:17Z</time>
      </trkpt>
      <trkpt lat="46.69395" lon="-1.93318">
        <ele>4</ele>
        <time>2018-03-09T04:03:17Z</time>
      </trkpt>
      <trkpt lat="46.69396" lon="-1.93319">
        <ele>4</ele>
        <time>2018-03-09T04:04:17Z</time>
      </trkpt>
      <trkpt lat="46.69396" lon="-1.9332">
        <ele>4</ele>
        <time>2018-03-09T04:05:17Z</time>
      </trkpt>
      <trkpt lat="46.69396" lon="-1.93321">
        <ele>4</ele>
        <time>2018-03-09T04:06:17Z</time>
      </trkpt>
      <trkpt lat="46.69406" lon="-1.93325">
        <ele>4</ele>
        <time>2018-03-09T04:07:17Z</time>
      </trkpt>
      <trkpt lat="46.69416" lon="-1.93331">
        <ele>4</ele>
        <time>2018-03-09T04:08:17Z</time>
      </trkpt>
      <trkpt lat="46.69421" lon="-1.93333">
        <ele>4</ele>
        <time>2018-03-09T04:09:17Z</time>
      </trkpt>
      <trkpt lat="46.69426" lon="-1.93334">
        <ele>4</ele>
        <time>2018-03-09T04:10:17Z</time>
      </trkpt>
      <trkpt lat="46.69431" lon="-1.93336">
        <ele>4</ele>
        <time>2018-03-09T04:11:17Z</time>
      </trkpt>
      <trkpt lat="46.6946" lon="-1.93349">
        <ele>4</ele>
        <time>2018-03-09T04:12:17Z</time>
      </trkpt>
      <trkpt lat="46.69498" lon="-1.93366">
        <ele>4</ele>
        <time>2018-03-09T04:13:17Z</time>
      </trkpt>
      <trkpt lat="46.69503" lon="-1.93368">
        <ele>4</ele>
        <time>2018-03-09T04:14:17Z</time>
      </trkpt>
      <trkpt lat="46.69507" lon="-1.9337">
        <ele>4</ele>
        <time>2018-03-09T04:15:17Z</time>
      </trkpt>
      <trkpt lat="46.69518" lon="-1.93374">
        <ele>4</ele>
        <time>2018-03-09T04:16:17Z</time>
      </trkpt>
      <trkpt lat="46.69551" lon="-1.93388">
        <ele>4</ele>
        <time>2018-03-09T04:17:17Z</time>
      </trkpt>
      <trkpt lat="46.69587" lon="-1.93404">
        <ele>4</ele>
        <time>2018-03-09T04:18:17Z</time>
      </trkpt>
      <trkpt lat="46.69607" lon="-1.93416">
        <ele>4</ele>
        <time>2018-03-09T04:19:17Z</time>
      </trkpt>
      <trkpt lat="46.69617" lon="-1.9342">
        <ele>4</ele>
        <time>2018-03-09T04:20:17Z</time>
      </trkpt>
      <trkpt lat="46.69617" lon="-1.9342">
        <ele>4</ele>
        <time>2018-03-09T04:21:17Z</time>
      </trkpt>
      <trkpt lat="46.69617" lon="-1.93419">
        <ele>4</ele>
        <time>2018-03-09T04:22:17Z</time>
      </trkpt>
      <trkpt lat="46.69617" lon="-1.93418">
        <ele>4</ele>
        <time>2018-03-09T04:23:17Z</time>
      </trkpt>
      <trkpt lat="46.69618" lon="-1.93418">
        <ele>4</ele>
        <time>2018-03-09T04:24:17Z</time>
      </trkpt>
      <trkpt lat="46.69618" lon="-1.93417">
        <ele>4</ele>
        <time>2018-03-09T04:25:17Z</time>
      </trkpt>
      <trkpt lat="46.69618" lon="-1.93416">
        <ele>4</ele>
        <time>2018-03-09T04:26:17Z</time>
      </trkpt>
      <trkpt lat="46.69619" lon="-1.93416">
        <ele>4</ele>
        <time>2018-03-09T04:27:17Z</time>
      </trkpt>
      <trkpt lat="46.69619" lon="-1.93415">
        <ele>4</ele>
        <time>2018-03-09T04:28:17Z</time>
      </trkpt>
      <trkpt lat="46.6962" lon="-1.93415">
        <ele>4</ele>
        <time>2018-03-09T04:29:17Z</time>
      </trkpt>
      <trkpt lat="46.6962" lon="-1.93414">
        <ele>5</ele>
        <time>2018-03-09T04:30:17Z</time>
      </trkpt>
      <trkpt lat="46.69621" lon="-1.93414">
        <ele>5</ele>
        <time>2018-03-09T04:31:17Z</time>
      </trkpt>
      <trkpt lat="46.69621" lon="-1.93413">
        <ele>5</ele>
        <time>2018-03-09T04:32:17Z</time>
      </trkpt>
      <trkpt lat="46.69622" lon="-1.93413">
        <ele>5</ele>
        <time>2018-03-09T04:33:17Z</time>
      </trkpt>
      <trkpt lat="46.69623" lon="-1.93412">
        <ele>5</ele>
        <time>2018-03-09T04:34:17Z</time>
      </trkpt>
      <trkpt lat="46.69624" lon="-1.93412">
        <ele>5</ele>
        <time>2018-03-09T04:35:17Z</time>
      </trkpt>
      <trkpt lat="46.69625" lon="-1.93412">
        <ele>5</ele>
        <time>2018-03-09T04:36:17Z</time>
      </trkpt>
      <trkpt lat="46.69626" lon="-1.93412">
        <ele>5</ele>
        <time>2018-03-09T04:37:17Z</time>
      </trkpt>
      <trkpt lat="46.69627" lon="-1.93412">
        <ele>5</ele>
        <time>2018-03-09T04:38:17Z</time>
      </trkpt>
      <trkpt lat="46.69627" lon="-1.93413">
        <ele>5</ele>
        <time>2018-03-09T04:39:17Z</time>
      </trkpt>
      <trkpt lat="46.69628" lon="-1.93413">
        <ele>5</ele>
        <time>2018-03-09T04:40:17Z</time>
      </trkpt>
      <trkpt lat="46.69629" lon="-1.93413">
        <ele>5</ele>
        <time>2018-03-09T04:41:17Z</time>
      </trkpt>
      <trkpt lat="46.69629" lon="-1.93414">
        <ele>5</ele>
        <time>2018-03-09T04:42:17Z</time>
      </trkpt>
      <trkpt lat="46.6963" lon="-1.93414">
        <ele>5</ele>
        <time>2018-03-09T04:43:17Z</time>
      </trkpt>
      <trkpt lat="46.6963" lon="-1.93415">
        <ele>5</ele>
        <time>2018-03-09T04:44:17Z</time>
      </trkpt>
      <trkpt lat="46.69631" lon="-1.93416">
        <ele>5</ele>
        <time>2018-03-09T04:45:17Z</time>
      </trkpt>
      <trkpt lat="46.69631" lon="-1.93417">
        <ele>5</ele>
        <time>2018-03-09T04:46:17Z</time>
      </trkpt>
      <trkpt lat="46.69632" lon="-1.93417">
        <ele>5</ele>
        <time>2018-03-09T04:47:17Z</time>
      </trkpt>
      <trkpt lat="46.69632" lon="-1.93418">
        <ele>5</ele>
        <time>2018-03-09T04:48:17Z</time>
      </trkpt>
      <trkpt lat="46.69632" lon="-1.93419">
        <ele>5</ele>
        <time>2018-03-09T04:49:17Z</time>
      </trkpt>
      <trkpt lat="46.69633" lon="-1.93419">
        <ele>5</ele>
        <time>2018-03-09T04:50:17Z</time>
      </trkpt>
      <trkpt lat="46.69633" lon="-1.9342">
        <ele>5</ele>
        <time>2018-03-09T04:51:17Z</time>
      </trkpt>
      <trkpt lat="46.69633" lon="-1.93421">
        <ele>5</ele>
        <time>2018-03-09T04:52:17Z</time>
      </trkpt>
      <trkpt lat="46.69633" lon="-1.93422">
        <ele>5</ele>
        <time>2018-03-09T04:53:17Z</time>
      </trkpt>
      <trkpt lat="46.69633" lon="-1.93423">
        <ele>5</ele>
        <time>2018-03-09T04:54:17Z</time>
      </trkpt>
      <trkpt lat="46.69685" lon="-1.93435">
        <ele>5</ele>
        <time>2018-03-09T04:55:17Z</time>
      </trkpt>
      <trkpt lat="46.69697" lon="-1.93436">
        <ele>5</ele>
        <time>2018-03-09T04:56:17Z</time>
      </trkpt>
      <trkpt lat="46.69714" lon="-1.93435">
        <ele>5</ele>
        <time>2018-03-09T04:57:17Z</time>
      </trkpt>
      <trkpt lat="46.69721" lon="-1.93434">
        <ele>5</ele>
        <time>2018-03-09T04:58:17Z</time>
      </trkpt>
      <trkpt lat="46.69759" lon="-1.93424">
        <ele>5</ele>
        <time>2018-03-09T04:59:17Z</time>
      </trkpt>
      <trkpt lat="46.69762" lon="-1.93423">
        <ele>5</ele>
        <time>2018-03-09T05:00:17Z</time>
      </trkpt>
      <trkpt lat="46.69772" lon="-1.9342">
        <ele>5</ele>
        <time>2018-03-09T05:01:17Z</time>
      </trkpt>
      <trkpt lat="46.69776" lon="-1.9342">
        <ele>5</ele>
        <time>2018-03-09T05:02:17Z</time>
      </trkpt>
      <trkpt lat="46.69779" lon="-1.9342">
        <ele>5</ele>
        <time>2018-03-09T05:03:17Z</time>
      </trkpt>
      <trkpt lat="46.69782" lon="-1.93421">
        <ele>5</ele>
        <time>2018-03-09T05:04:17Z</time>
      </trkpt>
    </trkseg>
  </trk>
</gpx>